<?xml version='1.0' encoding='UTF-8'?><gpx version="1.1" creator="JPX - https://github.com/jenetics/jpx" xmlns="http://www.topografix.com/GPX/1/1"><trk><trkseg><trkpt lat="36.77608905129072" lon="-108.13803780534974"><ele>1693.0000000000002</ele><time>2026-04-25T15:53:39.695Z</time></trkpt><trkpt lat="36.776056928290046" lon="-108.13811106153291"><ele>1693.0</ele><time>2026-04-25T15:54:16Z</time></trkpt><trkpt lat="36.775981880417895" lon="-108.13817758312972"><ele>1693.0</ele><time>2026-04-25T15:54:27Z</time></trkpt><trkpt lat="36.77603777804262" lon="-108.13827735136691"><ele>1693.0</ele><time>2026-04-25T15:54:30Z</time></trkpt><trkpt lat="36.776097912328424" lon="-108.13830985000952"><ele>1693.0000000000002</ele><time>2026-04-25T15:54:31Z</time></trkpt><trkpt lat="36.776182818380406" lon="-108.13834076951619"><ele>1693.0</ele><time>2026-04-25T15:54:32Z</time></trkpt><trkpt lat="36.77627607927276" lon="-108.13834714202883"><ele>1693.4</ele><time>2026-04-25T15:54:33Z</time></trkpt><trkpt lat="36.77637989891934" lon="-108.13829595944772"><ele>1693.8000000000002</ele><time>2026-04-25T15:54:34Z</time></trkpt><trkpt lat="36.776496672697434" lon="-108.13829524190481"><ele>1694.2</ele><time>2026-04-25T15:54:35Z</time></trkpt><trkpt lat="36.77661002320719" lon="-108.13829454539696"><ele>1694.6</ele><time>2026-04-25T15:54:36Z</time></trkpt><trkpt lat="36.77670465946488" lon="-108.13829568887401"><ele>1695.0</ele><time>2026-04-25T15:54:37Z</time></trkpt><trkpt lat="36.77677365161859" lon="-108.13831361978191"><ele>1695.0</ele><time>2026-04-25T15:54:38Z</time></trkpt><trkpt lat="36.77684554114064" lon="-108.1383124772526"><ele>1695.0</ele><time>2026-04-25T15:54:40Z</time></trkpt><trkpt lat="36.7769109997694" lon="-108.13829964977185"><ele>1695.0</ele><time>2026-04-25T15:54:43Z</time></trkpt><trkpt lat="36.77695249729548" lon="-108.1385104154872"><ele>1695.0</ele><time>2026-04-25T15:54:45Z</time></trkpt><trkpt lat="36.776953495602406" lon="-108.13862063834232"><ele>1695.0</ele><time>2026-04-25T15:54:46Z</time></trkpt><trkpt lat="36.77694775434872" lon="-108.1387384151059"><ele>1696.0</ele><time>2026-04-25T15:54:47Z</time></trkpt><trkpt lat="36.776957697664386" lon="-108.13884740645109"><ele>1697.0</ele><time>2026-04-25T15:54:48Z</time></trkpt><trkpt lat="36.77694661124468" lon="-108.13898441051599"><ele>1698.0</ele><time>2026-04-25T15:54:50Z</time></trkpt><trkpt lat="36.77694712356728" lon="-108.13911309683759"><ele>1699.0</ele><time>2026-04-25T15:54:52Z</time></trkpt><trkpt lat="36.77713794749408" lon="-108.1391788660941"><ele>1699.0</ele><time>2026-04-25T15:54:53Z</time></trkpt><trkpt lat="36.77722495633603" lon="-108.13917784911172"><ele>1699.0</ele><time>2026-04-25T15:54:54Z</time></trkpt><trkpt lat="36.77731783938813" lon="-108.13917676346672"><ele>1699.0</ele><time>2026-04-25T15:54:55Z</time></trkpt><trkpt lat="36.777421985122835" lon="-108.13917555111148"><ele>1699.0</ele><time>2026-04-25T15:54:56Z</time></trkpt><trkpt lat="36.777536775407384" lon="-108.13917422149684"><ele>1699.0</ele><time>2026-04-25T15:54:57Z</time></trkpt><trkpt lat="36.777648363105264" lon="-108.13917303715283"><ele>1699.8000000000002</ele><time>2026-04-25T15:54:58Z</time></trkpt><trkpt lat="36.777739660202805" lon="-108.13917222629651"><ele>1700.6000000000001</ele><time>2026-04-25T15:54:59Z</time></trkpt><trkpt lat="36.777826408069515" lon="-108.13917145584098"><ele>1701.4</ele><time>2026-04-25T15:55:00Z</time></trkpt><trkpt lat="36.777895413634695" lon="-108.13917084296766"><ele>1702.2</ele><time>2026-04-25T15:55:01Z</time></trkpt><trkpt lat="36.778021118905066" lon="-108.13919914713124"><ele>1703.0</ele><time>2026-04-25T15:55:03Z</time></trkpt><trkpt lat="36.77811056795177" lon="-108.13921147839933"><ele>1703.0</ele><time>2026-04-25T15:55:04Z</time></trkpt><trkpt lat="36.77823192442887" lon="-108.13923231220767"><ele>1703.0</ele><time>2026-04-25T15:55:05Z</time></trkpt><trkpt lat="36.77837608846313" lon="-108.1392370959652"><ele>1703.0</ele><time>2026-04-25T15:55:06Z</time></trkpt><trkpt lat="36.77852231988331" lon="-108.1392310773039"><ele>1703.0</ele><time>2026-04-25T15:55:07Z</time></trkpt><trkpt lat="36.77866969895356" lon="-108.13921649098174"><ele>1703.2</ele><time>2026-04-25T15:55:08Z</time></trkpt><trkpt lat="36.77878897520537" lon="-108.13921530766359"><ele>1703.4</ele><time>2026-04-25T15:55:09Z</time></trkpt><trkpt lat="36.77888515280429" lon="-108.13921911661171"><ele>1703.6000000000001</ele><time>2026-04-25T15:55:10Z</time></trkpt><trkpt lat="36.77897747210709" lon="-108.13922618830483"><ele>1703.8000000000002</ele><time>2026-04-25T15:55:11Z</time></trkpt><trkpt lat="36.77908543016396" lon="-108.13922633833218"><ele>1704.0</ele><time>2026-04-25T15:55:12Z</time></trkpt><trkpt lat="36.779207154525785" lon="-108.13922588149151"><ele>1704.0</ele><time>2026-04-25T15:55:13Z</time></trkpt><trkpt lat="36.77934277856041" lon="-108.1392147034972"><ele>1704.0</ele><time>2026-04-25T15:55:14Z</time></trkpt><trkpt lat="36.779494879951564" lon="-108.1392061723029"><ele>1704.0</ele><time>2026-04-25T15:55:15Z</time></trkpt><trkpt lat="36.779653862533614" lon="-108.1392040810258"><ele>1704.0</ele><time>2026-04-25T15:55:16Z</time></trkpt><trkpt lat="36.77981024873005" lon="-108.13920194824536"><ele>1704.6666666666665</ele><time>2026-04-25T15:55:17Z</time></trkpt><trkpt lat="36.779971797055545" lon="-108.1392017586267"><ele>1705.3333333333333</ele><time>2026-04-25T15:55:18Z</time></trkpt><trkpt lat="36.78013560762788" lon="-108.13919937202519"><ele>1706.0</ele><time>2026-04-25T15:55:19Z</time></trkpt><trkpt lat="36.780302601795086" lon="-108.13919743418819"><ele>1706.25</ele><time>2026-04-25T15:55:20.001Z</time></trkpt><trkpt lat="36.78045850773285" lon="-108.1391927619885"><ele>1706.5</ele><time>2026-04-25T15:55:21.001Z</time></trkpt><trkpt lat="36.78059253895235" lon="-108.13918987037336"><ele>1706.75</ele><time>2026-04-25T15:55:22.001Z</time></trkpt><trkpt lat="36.78073446883792" lon="-108.13918803832813"><ele>1707.0</ele><time>2026-04-25T15:55:23.001Z</time></trkpt><trkpt lat="36.78088529058129" lon="-108.13918673374219"><ele>1709.0</ele><time>2026-04-25T15:55:24.001Z</time></trkpt><trkpt lat="36.781038357256655" lon="-108.13918622401651"><ele>1711.0</ele><time>2026-04-25T15:55:25.001Z</time></trkpt><trkpt lat="36.78119791466011" lon="-108.13918785877473"><ele>1713.0</ele><time>2026-04-25T15:55:26.001Z</time></trkpt><trkpt lat="36.78135721038717" lon="-108.13919194997113"><ele>1713.0</ele><time>2026-04-25T15:55:27.001Z</time></trkpt><trkpt lat="36.78151809990243" lon="-108.13919345047982"><ele>1713.0</ele><time>2026-04-25T15:55:28.001Z</time></trkpt><trkpt lat="36.78168067672423" lon="-108.13919136079058"><ele>1713.0</ele><time>2026-04-25T15:55:29.001Z</time></trkpt><trkpt lat="36.78184687264586" lon="-108.1391896114593"><ele>1714.0</ele><time>2026-04-25T15:55:30.001Z</time></trkpt><trkpt lat="36.78199769348938" lon="-108.13918924944504"><ele>1715.0</ele><time>2026-04-25T15:55:31.001Z</time></trkpt><trkpt lat="36.782146810748024" lon="-108.1391827911093"><ele>1716.0</ele><time>2026-04-25T15:55:32.001Z</time></trkpt><trkpt lat="36.78230598782729" lon="-108.1391687930387"><ele>1716.0</ele><time>2026-04-25T15:55:33.001Z</time></trkpt><trkpt lat="36.78247048977287" lon="-108.1391665441784"><ele>1716.0</ele><time>2026-04-25T15:55:34.001Z</time></trkpt><trkpt lat="36.78263693906225" lon="-108.13918227454137"><ele>1716.0</ele><time>2026-04-25T15:55:35.001Z</time></trkpt><trkpt lat="36.78280706621118" lon="-108.13917712101058"><ele>1717.0</ele><time>2026-04-25T15:55:36.001Z</time></trkpt><trkpt lat="36.782978593445385" lon="-108.13917365136557"><ele>1718.0</ele><time>2026-04-25T15:55:37.001Z</time></trkpt><trkpt lat="36.78314375981343" lon="-108.13917077836714"><ele>1719.0</ele><time>2026-04-25T15:55:38.001Z</time></trkpt><trkpt lat="36.783286495062676" lon="-108.1391707430143"><ele>1719.0</ele><time>2026-04-25T15:55:39.001Z</time></trkpt><trkpt lat="36.78340562675979" lon="-108.13917236100757"><ele>1719.0</ele><time>2026-04-25T15:55:40.001Z</time></trkpt><trkpt lat="36.7835094232737" lon="-108.13917363428101"><ele>1719.0</ele><time>2026-04-25T15:55:41.001Z</time></trkpt><trkpt lat="36.783609061964334" lon="-108.13915245480204"><ele>1719.0</ele><time>2026-04-25T15:55:42.001Z</time></trkpt><trkpt lat="36.783719849363955" lon="-108.13915117575523"><ele>1719.0</ele><time>2026-04-25T15:55:43.001Z</time></trkpt><trkpt lat="36.78384351877118" lon="-108.13914974798668"><ele>1719.5</ele><time>2026-04-25T15:55:44.001Z</time></trkpt><trkpt lat="36.783975212631965" lon="-108.13916862452972"><ele>1720.0</ele><time>2026-04-25T15:55:45Z</time></trkpt><trkpt lat="36.78410623743311" lon="-108.13916410389534"><ele>1720.5</ele><time>2026-04-25T15:55:46Z</time></trkpt><trkpt lat="36.78423475875123" lon="-108.1391590788513"><ele>1721.0</ele><time>2026-04-25T15:55:47Z</time></trkpt><trkpt lat="36.7843684968489" lon="-108.1391538337239"><ele>1722.0</ele><time>2026-04-25T15:55:48Z</time></trkpt><trkpt lat="36.784508942331236" lon="-108.13915300613061"><ele>1723.0</ele><time>2026-04-25T15:55:49Z</time></trkpt><trkpt lat="36.78465237597249" lon="-108.1391517665229"><ele>1724.0</ele><time>2026-04-25T15:55:50Z</time></trkpt><trkpt lat="36.78480129547633" lon="-108.13914622097255"><ele>1725.0</ele><time>2026-04-25T15:55:51Z</time></trkpt><trkpt lat="36.784935788543" lon="-108.13914169624809"><ele>1725.0</ele><time>2026-04-25T15:55:52Z</time></trkpt><trkpt lat="36.785056715146894" lon="-108.13914722742945"><ele>1725.0</ele><time>2026-04-25T15:55:53Z</time></trkpt><trkpt lat="36.785184603441586" lon="-108.13913246666198"><ele>1725.0</ele><time>2026-04-25T15:55:54Z</time></trkpt><trkpt lat="36.785319806591055" lon="-108.13913113458766"><ele>1725.0</ele><time>2026-04-25T15:55:55Z</time></trkpt><trkpt lat="36.785460715308055" lon="-108.13912931424863"><ele>1726.0</ele><time>2026-04-25T15:55:56Z</time></trkpt><trkpt lat="36.78560626400469" lon="-108.13914803727017"><ele>1727.0</ele><time>2026-04-25T15:55:57Z</time></trkpt><trkpt lat="36.78575326953071" lon="-108.13914300940625"><ele>1728.0</ele><time>2026-04-25T15:55:58Z</time></trkpt><trkpt lat="36.7859039003388" lon="-108.1391418224746"><ele>1729.0</ele><time>2026-04-25T15:55:59Z</time></trkpt><trkpt lat="36.78605647358551" lon="-108.13912161790402"><ele>1729.6666666666667</ele><time>2026-04-25T15:56:00Z</time></trkpt><trkpt lat="36.78621190897848" lon="-108.13913913309952"><ele>1730.3333333333335</ele><time>2026-04-25T15:56:01Z</time></trkpt><trkpt lat="36.78637992016284" lon="-108.13913459912521"><ele>1731.0</ele><time>2026-04-25T15:56:02Z</time></trkpt><trkpt lat="36.78656165411287" lon="-108.13913078070095"><ele>1731.0</ele><time>2026-04-25T15:56:03Z</time></trkpt><trkpt lat="36.78673873057936" lon="-108.13912691626736"><ele>1731.0</ele><time>2026-04-25T15:56:04Z</time></trkpt><trkpt lat="36.78689713141216" lon="-108.13911474452621"><ele>1731.0</ele><time>2026-04-25T15:56:05Z</time></trkpt><trkpt lat="36.7870604129781" lon="-108.13909310424175"><ele>1732.0</ele><time>2026-04-25T15:56:06Z</time></trkpt><trkpt lat="36.7872552980421" lon="-108.13908251637666"><ele>1733.0</ele><time>2026-04-25T15:56:07Z</time></trkpt><trkpt lat="36.787470820272084" lon="-108.13907510836313"><ele>1734.0</ele><time>2026-04-25T15:56:08Z</time></trkpt><trkpt lat="36.78769364491665" lon="-108.13907419598804"><ele>1734.6666666666665</ele><time>2026-04-25T15:56:09Z</time></trkpt><trkpt lat="36.78790790307504" lon="-108.13906883214813"><ele>1735.3333333333333</ele><time>2026-04-25T15:56:10Z</time></trkpt><trkpt lat="36.78813204813629" lon="-108.13906457326073"><ele>1736.0</ele><time>2026-04-25T15:56:11Z</time></trkpt><trkpt lat="36.7883675764103" lon="-108.13905809401142"><ele>1737.0</ele><time>2026-04-25T15:56:12Z</time></trkpt><trkpt lat="36.788606601664945" lon="-108.13905403285038"><ele>1738.0</ele><time>2026-04-25T15:56:13Z</time></trkpt><trkpt lat="36.788819973516844" lon="-108.13905308259265"><ele>1738.0</ele><time>2026-04-25T15:56:14Z</time></trkpt><trkpt lat="36.789020993429084" lon="-108.1390515259444"><ele>1738.0</ele><time>2026-04-25T15:56:15Z</time></trkpt><trkpt lat="36.7892198735029" lon="-108.13905027662925"><ele>1738.0</ele><time>2026-04-25T15:56:16Z</time></trkpt><trkpt lat="36.78939680019931" lon="-108.13904711406136"><ele>1739.0</ele><time>2026-04-25T15:56:17Z</time></trkpt><trkpt lat="36.78955891524251" lon="-108.13904489420912"><ele>1740.0</ele><time>2026-04-25T15:56:18Z</time></trkpt><trkpt lat="36.789710371365494" lon="-108.13904604133081"><ele>1741.0</ele><time>2026-04-25T15:56:19Z</time></trkpt><trkpt lat="36.78987643323524" lon="-108.13904189866314"><ele>1741.0</ele><time>2026-04-25T15:56:20Z</time></trkpt><trkpt lat="36.79005211370003" lon="-108.13903435528046"><ele>1741.0</ele><time>2026-04-25T15:56:21Z</time></trkpt><trkpt lat="36.79024540410306" lon="-108.13903797267652"><ele>1741.0</ele><time>2026-04-25T15:56:22Z</time></trkpt><trkpt lat="36.79044069553135" lon="-108.13903996052406"><ele>1743.6666666666667</ele><time>2026-04-25T15:56:23Z</time></trkpt><trkpt lat="36.79062943447311" lon="-108.13903289646335"><ele>1746.3333333333335</ele><time>2026-04-25T15:56:24Z</time></trkpt><trkpt lat="36.79079873511557" lon="-108.13902552956029"><ele>1749.0</ele><time>2026-04-25T15:56:25Z</time></trkpt><trkpt lat="36.79093499647314" lon="-108.13902237059818"><ele>1749.8333333333333</ele><time>2026-04-25T15:56:26Z</time></trkpt><trkpt lat="36.79103804975945" lon="-108.1390235684541"><ele>1750.6666666666665</ele><time>2026-04-25T15:56:27Z</time></trkpt><trkpt lat="36.79112205224318" lon="-108.1390294257038"><ele>1751.5</ele><time>2026-04-25T15:56:28Z</time></trkpt><trkpt lat="36.79118619404821" lon="-108.13903167460805"><ele>1752.3333333333333</ele><time>2026-04-25T15:56:29Z</time></trkpt><trkpt lat="36.79126263851165" lon="-108.13903700475355"><ele>1753.1666666666665</ele><time>2026-04-25T15:56:32Z</time></trkpt><trkpt lat="36.79131298529015" lon="-108.13898914829838"><ele>1754.0</ele><time>2026-04-25T15:56:34Z</time></trkpt><trkpt lat="36.79139351222156" lon="-108.1389565109836"><ele>1753.9999999999998</ele><time>2026-04-25T15:56:36Z</time></trkpt><trkpt lat="36.791494525068416" lon="-108.1389505504755"><ele>1754.0</ele><time>2026-04-25T15:56:38Z</time></trkpt><trkpt lat="36.79155676920716" lon="-108.13899444055164"><ele>1754.0</ele><time>2026-04-25T15:56:39Z</time></trkpt><trkpt lat="36.791614784021036" lon="-108.13906084811639"><ele>1754.0</ele><time>2026-04-25T15:56:40Z</time></trkpt><trkpt lat="36.791699179655204" lon="-108.13908291283309"><ele>1753.9999999999998</ele><time>2026-04-25T15:56:41Z</time></trkpt><trkpt lat="36.79178844562627" lon="-108.13905393242088"><ele>1754.0</ele><time>2026-04-25T15:56:42Z</time></trkpt><trkpt lat="36.79189356711259" lon="-108.13904952257172"><ele>1754.25</ele><time>2026-04-25T15:56:43Z</time></trkpt><trkpt lat="36.79201350982328" lon="-108.13904704081813"><ele>1754.5</ele><time>2026-04-25T15:56:44Z</time></trkpt><trkpt lat="36.7921394357858" lon="-108.1390632573978"><ele>1754.75</ele><time>2026-04-25T15:56:45Z</time></trkpt><trkpt lat="36.79227109085722" lon="-108.13905792757214"><ele>1755.0</ele><time>2026-04-25T15:56:46Z</time></trkpt><trkpt lat="36.79241550713725" lon="-108.13905474130819"><ele>1755.0</ele><time>2026-04-25T15:56:47Z</time></trkpt><trkpt lat="36.79257287906805" lon="-108.13905010189542"><ele>1755.0</ele><time>2026-04-25T15:56:48Z</time></trkpt><trkpt lat="36.79274280547303" lon="-108.13904275316028"><ele>1755.0</ele><time>2026-04-25T15:56:49Z</time></trkpt><trkpt lat="36.792904125883496" lon="-108.13903919070262"><ele>1755.3333333333335</ele><time>2026-04-25T15:56:50Z</time></trkpt><trkpt lat="36.79305080740137" lon="-108.13903710802022"><ele>1755.6666666666667</ele><time>2026-04-25T15:56:51Z</time></trkpt><trkpt lat="36.79320537752953" lon="-108.13903526115878"><ele>1756.0</ele><time>2026-04-25T15:56:52Z</time></trkpt><trkpt lat="36.79336364347849" lon="-108.13903389596291"><ele>1756.3333333333335</ele><time>2026-04-25T15:56:53Z</time></trkpt><trkpt lat="36.7935338210018" lon="-108.13903276504291"><ele>1756.6666666666665</ele><time>2026-04-25T15:56:54Z</time></trkpt><trkpt lat="36.793703449787444" lon="-108.13903258145348"><ele>1757.0</ele><time>2026-04-25T15:56:55Z</time></trkpt><trkpt lat="36.79388267769498" lon="-108.1390287554856"><ele>1757.0</ele><time>2026-04-25T15:56:56Z</time></trkpt><trkpt lat="36.794060256458934" lon="-108.13902305335742"><ele>1757.0</ele><time>2026-04-25T15:56:57Z</time></trkpt><trkpt lat="36.79422098651995" lon="-108.13902103978207"><ele>1757.0</ele><time>2026-04-25T15:56:58Z</time></trkpt><trkpt lat="36.794386782907154" lon="-108.13901759166885"><ele>1757.0</ele><time>2026-04-25T15:56:59Z</time></trkpt><trkpt lat="36.79456885044441" lon="-108.13901260576398"><ele>1757.0</ele><time>2026-04-25T15:57:00Z</time></trkpt><trkpt lat="36.79475484415223" lon="-108.139009547236"><ele>1757.0</ele><time>2026-04-25T15:57:01Z</time></trkpt><trkpt lat="36.79493926349437" lon="-108.13900694690432"><ele>1757.0</ele><time>2026-04-25T15:57:02Z</time></trkpt><trkpt lat="36.79510807102227" lon="-108.1389968934028"><ele>1757.0</ele><time>2026-04-25T15:57:03Z</time></trkpt><trkpt lat="36.795275681877634" lon="-108.13899374265557"><ele>1757.0</ele><time>2026-04-25T15:57:04Z</time></trkpt><trkpt lat="36.79545598307467" lon="-108.13898201859483"><ele>1757.6666666666665</ele><time>2026-04-25T15:57:05Z</time></trkpt><trkpt lat="36.79564972727345" lon="-108.13897879281767"><ele>1758.3333333333335</ele><time>2026-04-25T15:57:06Z</time></trkpt><trkpt lat="36.795829039165035" lon="-108.13897580733331"><ele>1759.0</ele><time>2026-04-25T15:57:07Z</time></trkpt><trkpt lat="36.79599859301443" lon="-108.13897292511236"><ele>1760.3333333333335</ele><time>2026-04-25T15:57:08Z</time></trkpt><trkpt lat="36.796174675956735" lon="-108.1389698690093"><ele>1761.6666666666665</ele><time>2026-04-25T15:57:09Z</time></trkpt><trkpt lat="36.796371280695475" lon="-108.13896645673464"><ele>1763.0</ele><time>2026-04-25T15:57:10Z</time></trkpt><trkpt lat="36.79658310867885" lon="-108.13896268125212"><ele>1763.0</ele><time>2026-04-25T15:57:11Z</time></trkpt><trkpt lat="36.796790950900785" lon="-108.13895867716059"><ele>1763.0</ele><time>2026-04-25T15:57:12Z</time></trkpt><trkpt lat="36.79698276196552" lon="-108.13895476711016"><ele>1763.0</ele><time>2026-04-25T15:57:13Z</time></trkpt><trkpt lat="36.79714832013463" lon="-108.13895136993756"><ele>1764.0</ele><time>2026-04-25T15:57:14Z</time></trkpt><trkpt lat="36.79731477010588" lon="-108.13894795446248"><ele>1765.0</ele><time>2026-04-25T15:57:15Z</time></trkpt><trkpt lat="36.797486343557075" lon="-108.13894443256466"><ele>1766.0</ele><time>2026-04-25T15:57:16Z</time></trkpt><trkpt lat="36.797655564858566" lon="-108.13894096022233"><ele>1765.6666666666665</ele><time>2026-04-25T15:57:17Z</time></trkpt><trkpt lat="36.797820639392356" lon="-108.13893708718399"><ele>1765.3333333333335</ele><time>2026-04-25T15:57:18Z</time></trkpt><trkpt lat="36.79798993906502" lon="-108.1389327284058"><ele>1765.0</ele><time>2026-04-25T15:57:19Z</time></trkpt><trkpt lat="36.798167994464876" lon="-108.13892814417538"><ele>1765.0</ele><time>2026-04-25T15:57:20Z</time></trkpt><trkpt lat="36.79835407044248" lon="-108.13892476032284"><ele>1765.0</ele><time>2026-04-25T15:57:21Z</time></trkpt><trkpt lat="36.79854397097929" lon="-108.13892113867372"><ele>1765.0</ele><time>2026-04-25T15:57:22Z</time></trkpt><trkpt lat="36.79873274362092" lon="-108.13891753853336"><ele>1765.6666666666667</ele><time>2026-04-25T15:57:23Z</time></trkpt><trkpt lat="36.79892320959819" lon="-108.13891390609707"><ele>1766.3333333333335</ele><time>2026-04-25T15:57:24Z</time></trkpt><trkpt lat="36.799106480000674" lon="-108.13891003529388"><ele>1767.0</ele><time>2026-04-25T15:57:25Z</time></trkpt><trkpt lat="36.79927833573253" lon="-108.13890621515876"><ele>1767.3333333333335</ele><time>2026-04-25T15:57:26Z</time></trkpt><trkpt lat="36.799465912249666" lon="-108.13890204557076"><ele>1767.6666666666667</ele><time>2026-04-25T15:57:27Z</time></trkpt><trkpt lat="36.79966514664256" lon="-108.13889761684686"><ele>1768.0</ele><time>2026-04-25T15:57:28.001Z</time></trkpt><trkpt lat="36.79987829892393" lon="-108.13889287874207"><ele>1768.0</ele><time>2026-04-25T15:57:29.001Z</time></trkpt><trkpt lat="36.80008351343737" lon="-108.13888831712063"><ele>1768.0</ele><time>2026-04-25T15:57:30.001Z</time></trkpt><trkpt lat="36.8002650648113" lon="-108.13888420289864"><ele>1768.0</ele><time>2026-04-25T15:57:31.001Z</time></trkpt><trkpt lat="36.80043745051213" lon="-108.13888031722676"><ele>1769.0</ele><time>2026-04-25T15:57:32.001Z</time></trkpt><trkpt lat="36.80059258356153" lon="-108.13887672013459"><ele>1770.0</ele><time>2026-04-25T15:57:33.001Z</time></trkpt><trkpt lat="36.80073695909426" lon="-108.13887332750137"><ele>1771.0</ele><time>2026-04-25T15:57:34.001Z</time></trkpt><trkpt lat="36.80086088056121" lon="-108.13887041550929"><ele>1772.0</ele><time>2026-04-25T15:57:35.001Z</time></trkpt><trkpt lat="36.800968571393206" lon="-108.13886788491784"><ele>1772.5</ele><time>2026-04-25T15:57:36.001Z</time></trkpt><trkpt lat="36.80105768004453" lon="-108.13886579098107"><ele>1773.0</ele><time>2026-04-25T15:57:37.001Z</time></trkpt><trkpt lat="36.80112312176711" lon="-108.13884827611052"><ele>1773.5</ele><time>2026-04-25T15:57:38.001Z</time></trkpt><trkpt lat="36.80117197967734" lon="-108.13860149641104"><ele>1774.0</ele><time>2026-04-25T15:57:40.001Z</time></trkpt><trkpt lat="36.80118700828373" lon="-108.13844267526224"><ele>1774.0</ele><time>2026-04-25T15:57:41.001Z</time></trkpt><trkpt lat="36.80119785626497" lon="-108.13825712068542"><ele>1774.0</ele><time>2026-04-25T15:57:42.001Z</time></trkpt><trkpt lat="36.801202017404336" lon="-108.13805606847276"><ele>1774.0</ele><time>2026-04-25T15:57:43.001Z</time></trkpt><trkpt lat="36.801199251148915" lon="-108.13784593944888"><ele>1773.0</ele><time>2026-04-25T15:57:44.001Z</time></trkpt><trkpt lat="36.80119745021348" lon="-108.13763001578695"><ele>1772.0</ele><time>2026-04-25T15:57:45.001Z</time></trkpt><trkpt lat="36.80120213433134" lon="-108.1374349049395"><ele>1771.0</ele><time>2026-04-25T15:57:46.001Z</time></trkpt><trkpt lat="36.80119964916387" lon="-108.13726339282253"><ele>1770.6666666666667</ele><time>2026-04-25T15:57:47.001Z</time></trkpt><trkpt lat="36.80117184704215" lon="-108.13707415138312"><ele>1770.3333333333335</ele><time>2026-04-25T15:57:48.001Z</time></trkpt><trkpt lat="36.801121566946634" lon="-108.13687943933083"><ele>1770.0</ele><time>2026-04-25T15:57:49.001Z</time></trkpt><trkpt lat="36.801018667171995" lon="-108.13670085568162"><ele>1768.6666666666665</ele><time>2026-04-25T15:57:50.001Z</time></trkpt><trkpt lat="36.8008704415921" lon="-108.13656205173069"><ele>1767.3333333333333</ele><time>2026-04-25T15:57:51Z</time></trkpt><trkpt lat="36.80073067363258" lon="-108.13640523003184"><ele>1766.0</ele><time>2026-04-25T15:57:52Z</time></trkpt><trkpt lat="36.800568893072295" lon="-108.1362662812108"><ele>1765.6666666666665</ele><time>2026-04-25T15:57:53Z</time></trkpt><trkpt lat="36.80042619369919" lon="-108.13613518335232"><ele>1765.3333333333335</ele><time>2026-04-25T15:57:54Z</time></trkpt><trkpt lat="36.80028332498033" lon="-108.13600296353543"><ele>1765.0</ele><time>2026-04-25T15:57:55Z</time></trkpt><trkpt lat="36.80013480423531" lon="-108.13586551283072"><ele>1764.3333333333335</ele><time>2026-04-25T15:57:56Z</time></trkpt><trkpt lat="36.799986833737684" lon="-108.13575696573696"><ele>1763.6666666666665</ele><time>2026-04-25T15:57:57Z</time></trkpt><trkpt lat="36.799873559820306" lon="-108.13562555945872"><ele>1763.0</ele><time>2026-04-25T15:57:58Z</time></trkpt><trkpt lat="36.79978345251746" lon="-108.13548506308943"><ele>1763.0</ele><time>2026-04-25T15:57:59Z</time></trkpt><trkpt lat="36.79971167917796" lon="-108.13530916138453"><ele>1763.0</ele><time>2026-04-25T15:58:00Z</time></trkpt><trkpt lat="36.799662740998585" lon="-108.13511446631935"><ele>1763.0</ele><time>2026-04-25T15:58:01Z</time></trkpt><trkpt lat="36.79964012788327" lon="-108.13490344533201"><ele>1763.0</ele><time>2026-04-25T15:58:02Z</time></trkpt><trkpt lat="36.79963717860433" lon="-108.13468763141063"><ele>1763.0</ele><time>2026-04-25T15:58:03Z</time></trkpt><trkpt lat="36.799639968658944" lon="-108.13446932951489"><ele>1763.0</ele><time>2026-04-25T15:58:04Z</time></trkpt><trkpt lat="36.799639986726554" lon="-108.1342513569156"><ele>1763.3333333333333</ele><time>2026-04-25T15:58:05Z</time></trkpt><trkpt lat="36.799636411304085" lon="-108.13403806900348"><ele>1763.6666666666665</ele><time>2026-04-25T15:58:06Z</time></trkpt><trkpt lat="36.79963537816027" lon="-108.13382486572124"><ele>1764.0</ele><time>2026-04-25T15:58:07Z</time></trkpt><trkpt lat="36.79963664993252" lon="-108.13361020868618"><ele>1764.0</ele><time>2026-04-25T15:58:08Z</time></trkpt><trkpt lat="36.79964072471523" lon="-108.13339321268599"><ele>1764.0</ele><time>2026-04-25T15:58:09Z</time></trkpt><trkpt lat="36.79964481416912" lon="-108.13318440672124"><ele>1764.0</ele><time>2026-04-25T15:58:10Z</time></trkpt><trkpt lat="36.79964770445648" lon="-108.1329906711007"><ele>1763.0</ele><time>2026-04-25T15:58:11Z</time></trkpt><trkpt lat="36.79964838386227" lon="-108.13277503813312"><ele>1762.0</ele><time>2026-04-25T15:58:12Z</time></trkpt><trkpt lat="36.7996481399535" lon="-108.13254796499206"><ele>1761.0</ele><time>2026-04-25T15:58:13Z</time></trkpt><trkpt lat="36.79964604782864" lon="-108.13232482514996"><ele>1760.3333333333335</ele><time>2026-04-25T15:58:14Z</time></trkpt><trkpt lat="36.799645672737554" lon="-108.13212160874961"><ele>1759.6666666666667</ele><time>2026-04-25T15:58:15Z</time></trkpt><trkpt lat="36.79964710716031" lon="-108.13193289918061"><ele>1759.0</ele><time>2026-04-25T15:58:16Z</time></trkpt><trkpt lat="36.79964955201475" lon="-108.13175260560665"><ele>1759.0</ele><time>2026-04-25T15:58:17Z</time></trkpt><trkpt lat="36.79963470214117" lon="-108.13157678557312"><ele>1759.0</ele><time>2026-04-25T15:58:18Z</time></trkpt><trkpt lat="36.79959991356048" lon="-108.1314033300908"><ele>1759.0</ele><time>2026-04-25T15:58:19Z</time></trkpt><trkpt lat="36.79954881216441" lon="-108.13124228376603"><ele>1759.0</ele><time>2026-04-25T15:58:20Z</time></trkpt><trkpt lat="36.79945030735344" lon="-108.1310932166274"><ele>1758.3333333333335</ele><time>2026-04-25T15:58:21Z</time></trkpt><trkpt lat="36.7993401122868" lon="-108.13094948377291"><ele>1757.6666666666665</ele><time>2026-04-25T15:58:22Z</time></trkpt><trkpt lat="36.79922367628736" lon="-108.13079784938868"><ele>1757.0</ele><time>2026-04-25T15:58:23Z</time></trkpt><trkpt lat="36.79911509692506" lon="-108.13065037752166"><ele>1755.75</ele><time>2026-04-25T15:58:24Z</time></trkpt><trkpt lat="36.79902299125161" lon="-108.13051466777452"><ele>1754.5</ele><time>2026-04-25T15:58:25Z</time></trkpt><trkpt lat="36.79897919536087" lon="-108.13034475411798"><ele>1753.25</ele><time>2026-04-25T15:58:26Z</time></trkpt><trkpt lat="36.79896767404937" lon="-108.13015712300637"><ele>1752.0</ele><time>2026-04-25T15:58:27Z</time></trkpt><trkpt lat="36.79899196586588" lon="-108.12997037125454"><ele>1752.1999999999998</ele><time>2026-04-25T15:58:28Z</time></trkpt><trkpt lat="36.79904094573103" lon="-108.12982463821594"><ele>1752.3999999999999</ele><time>2026-04-25T15:58:29Z</time></trkpt><trkpt lat="36.79909873709756" lon="-108.12970822210566"><ele>1752.6000000000001</ele><time>2026-04-25T15:58:30Z</time></trkpt><trkpt lat="36.79914310634642" lon="-108.12960085675009"><ele>1752.8000000000002</ele><time>2026-04-25T15:58:31Z</time></trkpt><trkpt lat="36.79917213602107" lon="-108.12950915677715"><ele>1753.0</ele><time>2026-04-25T15:58:32Z</time></trkpt><trkpt lat="36.79901622577689" lon="-108.12930293191144"><ele>1753.0</ele><time>2026-04-25T15:58:34Z</time></trkpt><trkpt lat="36.79891404986607" lon="-108.12920357496559"><ele>1753.0</ele><time>2026-04-25T15:58:35Z</time></trkpt><trkpt lat="36.798810796515724" lon="-108.12910293205533"><ele>1753.0</ele><time>2026-04-25T15:58:36Z</time></trkpt><trkpt lat="36.798692668926" lon="-108.12899144858599"><ele>1753.0</ele><time>2026-04-25T15:58:37Z</time></trkpt><trkpt lat="36.79858675392814" lon="-108.128839051912"><ele>1753.0</ele><time>2026-04-25T15:58:38Z</time></trkpt><trkpt lat="36.79850674318627" lon="-108.12866132270209"><ele>1753.0</ele><time>2026-04-25T15:58:39Z</time></trkpt><trkpt lat="36.79840002981272" lon="-108.12848110144137"><ele>1753.0</ele><time>2026-04-25T15:58:40Z</time></trkpt><trkpt lat="36.798318146786194" lon="-108.12826961923423"><ele>1754.3333333333335</ele><time>2026-04-25T15:58:41Z</time></trkpt><trkpt lat="36.79825728701457" lon="-108.1280510529368"><ele>1755.6666666666665</ele><time>2026-04-25T15:58:42Z</time></trkpt><trkpt lat="36.798216054936006" lon="-108.12782446354869"><ele>1757.0</ele><time>2026-04-25T15:58:43Z</time></trkpt><trkpt lat="36.798196086964374" lon="-108.12760697141607"><ele>1757.0</ele><time>2026-04-25T15:58:44Z</time></trkpt><trkpt lat="36.798189203087105" lon="-108.12740861275897"><ele>1757.0</ele><time>2026-04-25T15:58:45Z</time></trkpt><trkpt lat="36.79818918418722" lon="-108.12722277254021"><ele>1757.0</ele><time>2026-04-25T15:58:46Z</time></trkpt><trkpt lat="36.798189660709504" lon="-108.12704894614608"><ele>1757.0</ele><time>2026-04-25T15:58:47Z</time></trkpt><trkpt lat="36.7981880358077" lon="-108.12689092052581"><ele>1754.75</ele><time>2026-04-25T15:58:48Z</time></trkpt><trkpt lat="36.79818424031601" lon="-108.12675025205988"><ele>1752.5</ele><time>2026-04-25T15:58:49Z</time></trkpt><trkpt lat="36.79818754339978" lon="-108.12663784400985"><ele>1750.25</ele><time>2026-04-25T15:58:50Z</time></trkpt><trkpt lat="36.798209858288665" lon="-108.12654797936793"><ele>1748.0</ele><time>2026-04-25T15:58:51Z</time></trkpt><trkpt lat="36.79836686033204" lon="-108.12643028082269"><ele>1746.5</ele><time>2026-04-25T15:58:53Z</time></trkpt><trkpt lat="36.798500725931774" lon="-108.12642034155519"><ele>1745.0</ele><time>2026-04-25T15:58:54Z</time></trkpt><trkpt lat="36.79863858188371" lon="-108.12641368035843"><ele>1743.5</ele><time>2026-04-25T15:58:55Z</time></trkpt><trkpt lat="36.79877186529339" lon="-108.1264126949658"><ele>1742.0</ele><time>2026-04-25T15:58:56Z</time></trkpt><trkpt lat="36.798885185860634" lon="-108.12641147980298"><ele>1742.0</ele><time>2026-04-25T15:58:57Z</time></trkpt><trkpt lat="36.79902548873587" lon="-108.1264086580704"><ele>1742.0</ele><time>2026-04-25T15:58:58Z</time></trkpt><trkpt lat="36.79919013624781" lon="-108.12640544073612"><ele>1742.0</ele><time>2026-04-25T15:58:59Z</time></trkpt><trkpt lat="36.79931814817562" lon="-108.12640304798924"><ele>1742.0</ele><time>2026-04-25T15:59:00Z</time></trkpt><trkpt lat="36.79943402163262" lon="-108.12640108877635"><ele>1743.0</ele><time>2026-04-25T15:59:01Z</time></trkpt><trkpt lat="36.79954541985577" lon="-108.12640009721429"><ele>1743.9999999999998</ele><time>2026-04-25T15:59:02Z</time></trkpt><trkpt lat="36.79962614046258" lon="-108.12639937871707"><ele>1744.9999999999998</ele><time>2026-04-25T15:59:03Z</time></trkpt><trkpt lat="36.79973047110983" lon="-108.1264074854412"><ele>1746.0</ele><time>2026-04-25T15:59:05Z</time></trkpt><trkpt lat="36.79974497284917" lon="-108.1262306362656"><ele>1747.0</ele><time>2026-04-25T15:59:07Z</time></trkpt><trkpt lat="36.79975677864832" lon="-108.12610797076846"><ele>1747.0000000000002</ele><time>2026-04-25T15:59:08Z</time></trkpt><trkpt lat="36.799769221075785" lon="-108.12601376216429"><ele>1747.0</ele><time>2026-04-25T15:59:09Z</time></trkpt><trkpt lat="36.799760116023364" lon="-108.12593452781287"><ele>1747.0</ele><time>2026-04-25T15:59:10Z</time></trkpt><trkpt lat="36.79973605574178" lon="-108.12586171719809"><ele>1747.0</ele><time>2026-04-25T15:59:11Z</time></trkpt><trkpt lat="36.79973031768251" lon="-108.12577163931972"><ele>1747.0</ele><time>2026-04-25T15:59:13Z</time></trkpt><trkpt lat="36.79979568246078" lon="-108.1257484128876"><ele>1747.0000000000002</ele><time>2026-04-25T16:01:26Z</time></trkpt><trkpt lat="36.79975343920674" lon="-108.125674848443"><ele>1747.0</ele><time>2026-04-25T16:09:11Z</time></trkpt><trkpt lat="36.79977838195392" lon="-108.12575554044984"><ele>1747.0000000000002</ele><time>2026-04-25T16:17:03.001Z</time></trkpt><trkpt lat="36.79970877655088" lon="-108.12574476564099"><ele>1747.0</ele><time>2026-04-25T16:18:45.002Z</time></trkpt><trkpt lat="36.79972023789859" lon="-108.12590265598183"><ele>1747.0</ele><time>2026-04-25T16:18:48.002Z</time></trkpt><trkpt lat="36.799761099994114" lon="-108.12598109561358"><ele>1747.0</ele><time>2026-04-25T16:18:49.002Z</time></trkpt><trkpt lat="36.79978024141997" lon="-108.12607495046008"><ele>1747.0000000000002</ele><time>2026-04-25T16:18:50.002Z</time></trkpt><trkpt lat="36.79978129462958" lon="-108.12618087550582"><ele>1747.0</ele><time>2026-04-25T16:18:51.001Z</time></trkpt><trkpt lat="36.799771950659384" lon="-108.12628055795513"><ele>1747.0000000000002</ele><time>2026-04-25T16:18:52.001Z</time></trkpt><trkpt lat="36.79974254992853" lon="-108.12636288529339"><ele>1747.0</ele><time>2026-04-25T16:18:54.001Z</time></trkpt><trkpt lat="36.799695730338456" lon="-108.12641995549514"><ele>1747.0</ele><time>2026-04-25T16:18:59.001Z</time></trkpt><trkpt lat="36.799632121233806" lon="-108.12645736925116"><ele>1747.0</ele><time>2026-04-25T16:19:02.001Z</time></trkpt><trkpt lat="36.799562256821396" lon="-108.12647263743979"><ele>1747.0000000000002</ele><time>2026-04-25T16:19:03.001Z</time></trkpt><trkpt lat="36.79948379353634" lon="-108.1264870984606"><ele>1747.0</ele><time>2026-04-25T16:19:04.001Z</time></trkpt><trkpt lat="36.79938236625178" lon="-108.1264640280715"><ele>1745.75</ele><time>2026-04-25T16:19:05.001Z</time></trkpt><trkpt lat="36.79926952661452" lon="-108.12646613722939"><ele>1744.5</ele><time>2026-04-25T16:19:06.001Z</time></trkpt><trkpt lat="36.799154188919935" lon="-108.12648656287566"><ele>1743.25</ele><time>2026-04-25T16:19:07.001Z</time></trkpt><trkpt lat="36.79903821617812" lon="-108.12648522616314"><ele>1742.0</ele><time>2026-04-25T16:19:08.001Z</time></trkpt><trkpt lat="36.79890890979503" lon="-108.12648598548024"><ele>1742.0</ele><time>2026-04-25T16:19:09.001Z</time></trkpt><trkpt lat="36.798791473642915" lon="-108.1264873018468"><ele>1741.9999999999998</ele><time>2026-04-25T16:19:10.001Z</time></trkpt><trkpt lat="36.79869275713485" lon="-108.12648662157423"><ele>1741.9999999999998</ele><time>2026-04-25T16:19:11.001Z</time></trkpt><trkpt lat="36.798605002198464" lon="-108.12648938108654"><ele>1742.0</ele><time>2026-04-25T16:19:12.001Z</time></trkpt><trkpt lat="36.798516332288905" lon="-108.12649281344487"><ele>1742.0</ele><time>2026-04-25T16:19:13.001Z</time></trkpt><trkpt lat="36.79842162434718" lon="-108.12649481067717"><ele>1741.75</ele><time>2026-04-25T16:19:14.001Z</time></trkpt><trkpt lat="36.79835229677907" lon="-108.12648102120555"><ele>1741.5</ele><time>2026-04-25T16:19:15.001Z</time></trkpt><trkpt lat="36.79828274094492" lon="-108.12648463971951"><ele>1741.25</ele><time>2026-04-25T16:19:16.001Z</time></trkpt><trkpt lat="36.79822789024013" lon="-108.1267725815044"><ele>1741.0</ele><time>2026-04-25T16:19:18.001Z</time></trkpt><trkpt lat="36.798234713828776" lon="-108.12693612800457"><ele>1742.4</ele><time>2026-04-25T16:19:19.001Z</time></trkpt><trkpt lat="36.7982225341836" lon="-108.12710372760274"><ele>1743.8</ele><time>2026-04-25T16:19:20.001Z</time></trkpt><trkpt lat="36.7982219076295" lon="-108.12722691427285"><ele>1745.2000000000003</ele><time>2026-04-25T16:19:21.001Z</time></trkpt><trkpt lat="36.79823296064802" lon="-108.12735005731302"><ele>1746.6000000000001</ele><time>2026-04-25T16:19:22.001Z</time></trkpt><trkpt lat="36.79824435306641" lon="-108.12748701954929"><ele>1748.0</ele><time>2026-04-25T16:19:23.001Z</time></trkpt><trkpt lat="36.798257757218394" lon="-108.12762909233733"><ele>1749.25</ele><time>2026-04-25T16:19:24.001Z</time></trkpt><trkpt lat="36.79827719391836" lon="-108.12777581548626"><ele>1750.5</ele><time>2026-04-25T16:19:25.001Z</time></trkpt><trkpt lat="36.79830007745703" lon="-108.12792958508285"><ele>1751.75</ele><time>2026-04-25T16:19:26.001Z</time></trkpt><trkpt lat="36.798328561791834" lon="-108.12809157676816"><ele>1753.0</ele><time>2026-04-25T16:19:27.001Z</time></trkpt><trkpt lat="36.7983695335787" lon="-108.12825759461595"><ele>1753.0</ele><time>2026-04-25T16:19:28.001Z</time></trkpt><trkpt lat="36.79844370761241" lon="-108.12841250467552"><ele>1753.0</ele><time>2026-04-25T16:19:29.001Z</time></trkpt><trkpt lat="36.79852345752697" lon="-108.12857772719657"><ele>1753.0</ele><time>2026-04-25T16:19:30.001Z</time></trkpt><trkpt lat="36.7985983742383" lon="-108.12875299886583"><ele>1753.0</ele><time>2026-04-25T16:19:31.001Z</time></trkpt><trkpt lat="36.79871028676915" lon="-108.12890630374787"><ele>1753.0</ele><time>2026-04-25T16:19:32.001Z</time></trkpt><trkpt lat="36.79882911255311" lon="-108.12905058590675"><ele>1753.0</ele><time>2026-04-25T16:19:33.001Z</time></trkpt><trkpt lat="36.798944371869844" lon="-108.12917601927042"><ele>1753.0</ele><time>2026-04-25T16:19:34.001Z</time></trkpt><trkpt lat="36.799078829319654" lon="-108.12929173187298"><ele>1753.0</ele><time>2026-04-25T16:19:35.001Z</time></trkpt><trkpt lat="36.79923415656241" lon="-108.12939844341818"><ele>1753.0</ele><time>2026-04-25T16:19:36.001Z</time></trkpt><trkpt lat="36.79940485531773" lon="-108.12946957502328"><ele>1753.6666666666667</ele><time>2026-04-25T16:19:37.001Z</time></trkpt><trkpt lat="36.799564692337604" lon="-108.12951289682194"><ele>1754.3333333333335</ele><time>2026-04-25T16:19:38.001Z</time></trkpt><trkpt lat="36.799729311258865" lon="-108.12954651333577"><ele>1755.0</ele><time>2026-04-25T16:19:39.001Z</time></trkpt><trkpt lat="36.79989870914064" lon="-108.12958125921129"><ele>1755.0</ele><time>2026-04-25T16:19:40.001Z</time></trkpt><trkpt lat="36.80008508502009" lon="-108.12962068819947"><ele>1755.0</ele><time>2026-04-25T16:19:41.001Z</time></trkpt><trkpt lat="36.800278650355004" lon="-108.12967738242979"><ele>1755.0</ele><time>2026-04-25T16:19:42.001Z</time></trkpt><trkpt lat="36.80043326669616" lon="-108.12973372541575"><ele>1755.6666666666665</ele><time>2026-04-25T16:19:43.001Z</time></trkpt><trkpt lat="36.80058178086735" lon="-108.12981337642515"><ele>1756.3333333333333</ele><time>2026-04-25T16:19:44.001Z</time></trkpt><trkpt lat="36.800706824613094" lon="-108.12993580213026"><ele>1757.0</ele><time>2026-04-25T16:19:45.001Z</time></trkpt><trkpt lat="36.800846353251956" lon="-108.13004582055453"><ele>1757.0</ele><time>2026-04-25T16:19:46.001Z</time></trkpt><trkpt lat="36.80095451549309" lon="-108.1302048766311"><ele>1757.0</ele><time>2026-04-25T16:19:47.001Z</time></trkpt><trkpt lat="36.80106170402326" lon="-108.1303629749825"><ele>1757.0</ele><time>2026-04-25T16:19:48.001Z</time></trkpt><trkpt lat="36.801153355716224" lon="-108.13054153631808"><ele>1759.3333333333333</ele><time>2026-04-25T16:19:49.001Z</time></trkpt><trkpt lat="36.8012226938748" lon="-108.13073385151111"><ele>1761.6666666666665</ele><time>2026-04-25T16:19:50.001Z</time></trkpt><trkpt lat="36.801274197603" lon="-108.13093510175635"><ele>1764.0</ele><time>2026-04-25T16:19:51.001Z</time></trkpt><trkpt lat="36.80130588831569" lon="-108.13113914982561"><ele>1764.0</ele><time>2026-04-25T16:19:52.001Z</time></trkpt><trkpt lat="36.801314343746384" lon="-108.13135015592493"><ele>1764.0</ele><time>2026-04-25T16:19:53.001Z</time></trkpt><trkpt lat="36.801313214226155" lon="-108.13157871462607"><ele>1764.0</ele><time>2026-04-25T16:19:54.001Z</time></trkpt><trkpt lat="36.80131843878882" lon="-108.13181315881387"><ele>1765.0</ele><time>2026-04-25T16:19:55.001Z</time></trkpt><trkpt lat="36.801340871222045" lon="-108.13203804440333"><ele>1766.0</ele><time>2026-04-25T16:19:56.001Z</time></trkpt><trkpt lat="36.80137265147639" lon="-108.13225418323664"><ele>1767.0</ele><time>2026-04-25T16:19:57.001Z</time></trkpt><trkpt lat="36.801443051449134" lon="-108.13243580703778"><ele>1768.0</ele><time>2026-04-25T16:19:58.001Z</time></trkpt><trkpt lat="36.801508154913385" lon="-108.13261026297425"><ele>1769.0</ele><time>2026-04-25T16:19:59.001Z</time></trkpt><trkpt lat="36.80157690441739" lon="-108.13278494579993"><ele>1770.0</ele><time>2026-04-25T16:20:00.001Z</time></trkpt><trkpt lat="36.80165670000892" lon="-108.13293052549443"><ele>1770.0</ele><time>2026-04-25T16:20:01.001Z</time></trkpt><trkpt lat="36.80172311585836" lon="-108.13304299784275"><ele>1770.0</ele><time>2026-04-25T16:20:02.001Z</time></trkpt><trkpt lat="36.801781958872475" lon="-108.13312364719067"><ele>1770.0</ele><time>2026-04-25T16:20:03.001Z</time></trkpt><trkpt lat="36.80184909844504" lon="-108.13316263249258"><ele>1770.0</ele><time>2026-04-25T16:20:04.001Z</time></trkpt><trkpt lat="36.80198776137649" lon="-108.1330361929799"><ele>1770.0</ele><time>2026-04-25T16:20:06.001Z</time></trkpt><trkpt lat="36.80208860068388" lon="-108.1329589450028"><ele>1771.3333333333335</ele><time>2026-04-25T16:20:07.001Z</time></trkpt><trkpt lat="36.802213183847655" lon="-108.13288408394807"><ele>1772.6666666666667</ele><time>2026-04-25T16:20:08.001Z</time></trkpt><trkpt lat="36.80235132707225" lon="-108.13280663998192"><ele>1774.0</ele><time>2026-04-25T16:20:09.001Z</time></trkpt><trkpt lat="36.802518145398665" lon="-108.13279021667807"><ele>1774.6666666666667</ele><time>2026-04-25T16:20:10.001Z</time></trkpt><trkpt lat="36.80268813597967" lon="-108.1327816870962"><ele>1775.3333333333335</ele><time>2026-04-25T16:20:11.001Z</time></trkpt><trkpt lat="36.802864690939785" lon="-108.13277624021663"><ele>1776.0</ele><time>2026-04-25T16:20:12.001Z</time></trkpt><trkpt lat="36.80304046342329" lon="-108.13277179984847"><ele>1776.0</ele><time>2026-04-25T16:20:13.001Z</time></trkpt><trkpt lat="36.803192819749846" lon="-108.13276795101879"><ele>1776.0</ele><time>2026-04-25T16:20:14.001Z</time></trkpt><trkpt lat="36.80334459222581" lon="-108.13276411693859"><ele>1776.0</ele><time>2026-04-25T16:20:15.001Z</time></trkpt><trkpt lat="36.80351152676317" lon="-108.13275989983204"><ele>1777.6666666666665</ele><time>2026-04-25T16:20:16.001Z</time></trkpt><trkpt lat="36.803686491627225" lon="-108.13275547979781"><ele>1779.3333333333333</ele><time>2026-04-25T16:20:17.001Z</time></trkpt><trkpt lat="36.80386408429101" lon="-108.13275117041444"><ele>1781.0</ele><time>2026-04-25T16:20:18.001Z</time></trkpt><trkpt lat="36.80405448654888" lon="-108.1327439675199"><ele>1781.0</ele><time>2026-04-25T16:20:19.001Z</time></trkpt><trkpt lat="36.804244064647825" lon="-108.13273610754295"><ele>1781.0</ele><time>2026-04-25T16:20:20.001Z</time></trkpt><trkpt lat="36.80442909323256" lon="-108.13273143131131"><ele>1781.0</ele><time>2026-04-25T16:20:21.001Z</time></trkpt><trkpt lat="36.80458520283031" lon="-108.13272734506384"><ele>1781.1999999999998</ele><time>2026-04-25T16:20:22.001Z</time></trkpt><trkpt lat="36.80471742220071" lon="-108.13272479371426"><ele>1781.3999999999999</ele><time>2026-04-25T16:20:23.001Z</time></trkpt><trkpt lat="36.80481470128911" lon="-108.13272175510235"><ele>1781.6</ele><time>2026-04-25T16:20:24.001Z</time></trkpt><trkpt lat="36.80489073451127" lon="-108.13269490133423"><ele>1781.8</ele><time>2026-04-25T16:20:25.001Z</time></trkpt><trkpt lat="36.80495535859495" lon="-108.13263668963529"><ele>1782.0</ele><time>2026-04-25T16:20:26.001Z</time></trkpt><trkpt lat="36.804978467314164" lon="-108.1325214162281"><ele>1781.0</ele><time>2026-04-25T16:20:27.001Z</time></trkpt><trkpt lat="36.80496145197258" lon="-108.13236312809524"><ele>1780.0</ele><time>2026-04-25T16:20:28.001Z</time></trkpt><trkpt lat="36.80495473978456" lon="-108.13218443216742"><ele>1779.0</ele><time>2026-04-25T16:20:29.001Z</time></trkpt><trkpt lat="36.80496697176206" lon="-108.13199077334129"><ele>1778.0</ele><time>2026-04-25T16:20:30.001Z</time></trkpt><trkpt lat="36.80497460933289" lon="-108.13179340110239"><ele>1778.0</ele><time>2026-04-25T16:20:31.001Z</time></trkpt><trkpt lat="36.804972043313185" lon="-108.1316096039876"><ele>1778.0</ele><time>2026-04-25T16:20:32.001Z</time></trkpt><trkpt lat="36.80496788739115" lon="-108.13142553706358"><ele>1778.0</ele><time>2026-04-25T16:20:33.001Z</time></trkpt><trkpt lat="36.80496700118227" lon="-108.13123233566405"><ele>1778.0</ele><time>2026-04-25T16:20:34.002Z</time></trkpt><trkpt lat="36.80496925709588" lon="-108.13105057175093"><ele>1777.6666666666665</ele><time>2026-04-25T16:20:35.002Z</time></trkpt><trkpt lat="36.80496922405558" lon="-108.13086132218727"><ele>1777.3333333333335</ele><time>2026-04-25T16:20:36.002Z</time></trkpt><trkpt lat="36.80496927402334" lon="-108.13066177821251"><ele>1777.0</ele><time>2026-04-25T16:20:37.002Z</time></trkpt><trkpt lat="36.80496847798352" lon="-108.13045408408622"><ele>1777.0</ele><time>2026-04-25T16:20:38.002Z</time></trkpt><trkpt lat="36.80496667976975" lon="-108.1302491397178"><ele>1777.0</ele><time>2026-04-25T16:20:39.002Z</time></trkpt><trkpt lat="36.8049633551788" lon="-108.13006879324777"><ele>1777.0</ele><time>2026-04-25T16:20:40.002Z</time></trkpt><trkpt lat="36.80496067690608" lon="-108.12990255799247"><ele>1777.0</ele><time>2026-04-25T16:20:41.002Z</time></trkpt><trkpt lat="36.804960401842266" lon="-108.12975232666207"><ele>1777.0</ele><time>2026-04-25T16:20:42.002Z</time></trkpt><trkpt lat="36.80496076514298" lon="-108.12964232353191"><ele>1776.9999999999998</ele><time>2026-04-25T16:20:43.002Z</time></trkpt><trkpt lat="36.8049751641504" lon="-108.12954616238594"><ele>1776.9999999999998</ele><time>2026-04-25T16:20:44.002Z</time></trkpt><trkpt lat="36.80497720412977" lon="-108.12945186345819"><ele>1777.0</ele><time>2026-04-25T16:20:45.002Z</time></trkpt><trkpt lat="36.805070940545725" lon="-108.12933189428539"><ele>1777.0</ele><time>2026-04-25T16:20:46.002Z</time></trkpt><trkpt lat="36.805101478273386" lon="-108.12921140484306"><ele>1778.5</ele><time>2026-04-25T16:20:47.002Z</time></trkpt><trkpt lat="36.80519016930458" lon="-108.12909609326904"><ele>1780.0</ele><time>2026-04-25T16:20:49.002Z</time></trkpt><trkpt lat="36.80530286395088" lon="-108.12903657183521"><ele>1781.5</ele><time>2026-04-25T16:20:50.002Z</time></trkpt><trkpt lat="36.80541606372202" lon="-108.12894806494971"><ele>1783.0</ele><time>2026-04-25T16:20:51.002Z</time></trkpt><trkpt lat="36.80549558381873" lon="-108.12883768078343"><ele>1783.2</ele><time>2026-04-25T16:20:52.002Z</time></trkpt><trkpt lat="36.80555320294463" lon="-108.12876768114796"><ele>1783.4</ele><time>2026-04-25T16:20:53.002Z</time></trkpt><trkpt lat="36.80565763515918" lon="-108.12876730598713"><ele>1783.6000000000001</ele><time>2026-04-25T16:20:55.002Z</time></trkpt><trkpt lat="36.80572942425106" lon="-108.12878297155918"><ele>1783.8000000000002</ele><time>2026-04-25T16:20:56.002Z</time></trkpt><trkpt lat="36.80581710363959" lon="-108.12882410036157"><ele>1784.0</ele><time>2026-04-25T16:20:57.001Z</time></trkpt><trkpt lat="36.80592893723858" lon="-108.12874155928127"><ele>1785.0</ele><time>2026-04-25T16:20:58.001Z</time></trkpt><trkpt lat="36.80606122512571" lon="-108.12862113061776"><ele>1786.0</ele><time>2026-04-25T16:20:59.001Z</time></trkpt><trkpt lat="36.80618103632249" lon="-108.12851246637075"><ele>1787.0</ele><time>2026-04-25T16:21:00.001Z</time></trkpt><trkpt lat="36.806307200411865" lon="-108.1284961033589"><ele>1788.0</ele><time>2026-04-25T16:21:01.001Z</time></trkpt><trkpt lat="36.80642059918601" lon="-108.12842148885855"><ele>1788.0</ele><time>2026-04-25T16:21:02.001Z</time></trkpt><trkpt lat="36.80653013337847" lon="-108.12829209462491"><ele>1788.0000000000002</ele><time>2026-04-25T16:21:03.001Z</time></trkpt><trkpt lat="36.80660212468813" lon="-108.1281835299535"><ele>1788.0000000000002</ele><time>2026-04-25T16:21:04.001Z</time></trkpt><trkpt lat="36.80668031031917" lon="-108.1281634351889"><ele>1788.0</ele><time>2026-04-25T16:21:05.001Z</time></trkpt><trkpt lat="36.806774730257374" lon="-108.1281831008307"><ele>1788.0</ele><time>2026-04-25T16:21:06.001Z</time></trkpt><trkpt lat="36.80691368340385" lon="-108.12820239376772"><ele>1787.6666666666665</ele><time>2026-04-25T16:21:07.001Z</time></trkpt><trkpt lat="36.80706480891794" lon="-108.1281984163806"><ele>1787.3333333333333</ele><time>2026-04-25T16:21:08.001Z</time></trkpt><trkpt lat="36.80721129826958" lon="-108.12822287455577"><ele>1787.0</ele><time>2026-04-25T16:21:09.001Z</time></trkpt><trkpt lat="36.80736225709107" lon="-108.12822846555486"><ele>1787.0</ele><time>2026-04-25T16:21:10.001Z</time></trkpt><trkpt lat="36.80746975612097" lon="-108.12820817030108"><ele>1786.9999999999998</ele><time>2026-04-25T16:21:11.001Z</time></trkpt><trkpt lat="36.807581682115774" lon="-108.12817545439803"><ele>1786.9999999999998</ele><time>2026-04-25T16:21:12.001Z</time></trkpt><trkpt lat="36.807706797276886" lon="-108.12818342446492"><ele>1787.0</ele><time>2026-04-25T16:21:13.001Z</time></trkpt><trkpt lat="36.80779031813443" lon="-108.12823140581159"><ele>1787.0</ele><time>2026-04-25T16:21:14.001Z</time></trkpt><trkpt lat="36.80787259568472" lon="-108.12818771204405"><ele>1788.25</ele><time>2026-04-25T16:21:16.001Z</time></trkpt><trkpt lat="36.807868958366726" lon="-108.12807883510108"><ele>1789.5</ele><time>2026-04-25T16:21:17.001Z</time></trkpt><trkpt lat="36.807848489425204" lon="-108.12796052966786"><ele>1790.75</ele><time>2026-04-25T16:21:18.001Z</time></trkpt><trkpt lat="36.80808960769759" lon="-108.1280395875528"><ele>1792.0</ele><time>2026-04-25T16:21:19.001Z</time></trkpt><trkpt lat="36.8080821884367" lon="-108.12795973902101"><ele>1792.0</ele><time>2026-04-25T16:21:20.001Z</time></trkpt><trkpt lat="36.808150070459064" lon="-108.12783861693406"><ele>1791.9999999999998</ele><time>2026-04-25T16:21:22.001Z</time></trkpt><trkpt lat="36.80820903645088" lon="-108.12775922701091"><ele>1791.9999999999998</ele><time>2026-04-25T16:21:23.001Z</time></trkpt><trkpt lat="36.80827631865259" lon="-108.12766256001625"><ele>1792.0</ele><time>2026-04-25T16:21:24.001Z</time></trkpt><trkpt lat="36.80835086463804" lon="-108.12755655163656"><ele>1792.0</ele><time>2026-04-25T16:21:25.001Z</time></trkpt><trkpt lat="36.808446193436275" lon="-108.12741437248437"><ele>1791.0</ele><time>2026-04-25T16:21:26.001Z</time></trkpt><trkpt lat="36.80855052274943" lon="-108.1272497049107"><ele>1790.0</ele><time>2026-04-25T16:21:27.001Z</time></trkpt><trkpt lat="36.808653833441134" lon="-108.12707573520146"><ele>1789.0</ele><time>2026-04-25T16:21:28.001Z</time></trkpt><trkpt lat="36.808741091992495" lon="-108.12692628610128"><ele>1789.0</ele><time>2026-04-25T16:21:29.001Z</time></trkpt><trkpt lat="36.808839147625186" lon="-108.12678351458312"><ele>1789.0</ele><time>2026-04-25T16:21:30.001Z</time></trkpt><trkpt lat="36.80894173679403" lon="-108.12668352003311"><ele>1789.0</ele><time>2026-04-25T16:21:31.001Z</time></trkpt><trkpt lat="36.80905876318998" lon="-108.12659998551105"><ele>1789.0</ele><time>2026-04-25T16:21:32.001Z</time></trkpt><trkpt lat="36.809186183916935" lon="-108.12652112613898"><ele>1788.25</ele><time>2026-04-25T16:21:33.001Z</time></trkpt><trkpt lat="36.809325210793666" lon="-108.12643538697836"><ele>1787.5</ele><time>2026-04-25T16:21:34.001Z</time></trkpt><trkpt lat="36.80945180334601" lon="-108.1263571076714"><ele>1786.75</ele><time>2026-04-25T16:21:35.001Z</time></trkpt><trkpt lat="36.8095674909318" lon="-108.12629486632557"><ele>1786.0</ele><time>2026-04-25T16:21:36.001Z</time></trkpt><trkpt lat="36.80967680634046" lon="-108.12626141194932"><ele>1788.0</ele><time>2026-04-25T16:21:37.001Z</time></trkpt><trkpt lat="36.80978510830099" lon="-108.12625119666306"><ele>1790.0</ele><time>2026-04-25T16:21:38.001Z</time></trkpt><trkpt lat="36.80989471235421" lon="-108.12626363391352"><ele>1792.0</ele><time>2026-04-25T16:21:39.001Z</time></trkpt><trkpt lat="36.80996980141266" lon="-108.12635573702129"><ele>1794.0</ele><time>2026-04-25T16:21:40.001Z</time></trkpt><trkpt lat="36.81008093531634" lon="-108.12641573053376"><ele>1796.0</ele><time>2026-04-25T16:21:41.001Z</time></trkpt><trkpt lat="36.81015487717273" lon="-108.12643567091573"><ele>1797.25</ele><time>2026-04-25T16:21:42.001Z</time></trkpt><trkpt lat="36.81024536805332" lon="-108.12649173630055"><ele>1798.5</ele><time>2026-04-25T16:21:43.001Z</time></trkpt><trkpt lat="36.810313171722385" lon="-108.1265411646724"><ele>1799.75</ele><time>2026-04-25T16:21:44.001Z</time></trkpt><trkpt lat="36.8104299571527" lon="-108.12662716593695"><ele>1801.0</ele><time>2026-04-25T16:21:45.001Z</time></trkpt><trkpt lat="36.81055605249568" lon="-108.12671222285658"><ele>1801.0</ele><time>2026-04-25T16:21:46.001Z</time></trkpt><trkpt lat="36.81066037482145" lon="-108.12676551588464"><ele>1801.0</ele><time>2026-04-25T16:21:47.001Z</time></trkpt><trkpt lat="36.8107335220103" lon="-108.1268225926553"><ele>1801.0</ele><time>2026-04-25T16:21:48.001Z</time></trkpt><trkpt lat="36.81082919117271" lon="-108.12690216996555"><ele>1801.0</ele><time>2026-04-25T16:21:49.001Z</time></trkpt><trkpt lat="36.810898140744676" lon="-108.12696752388908"><ele>1801.0</ele><time>2026-04-25T16:21:50.001Z</time></trkpt><trkpt lat="36.81100449127063" lon="-108.12690277276495"><ele>1801.0</ele><time>2026-04-25T16:21:52.001Z</time></trkpt><trkpt lat="36.8110815851111" lon="-108.12680746229395"><ele>1801.0</ele><time>2026-04-25T16:21:53.001Z</time></trkpt><trkpt lat="36.81117127603019" lon="-108.12671249637667"><ele>1801.0</ele><time>2026-04-25T16:21:54.001Z</time></trkpt><trkpt lat="36.81122959067467" lon="-108.126640518615"><ele>1801.0</ele><time>2026-04-25T16:21:55.001Z</time></trkpt><trkpt lat="36.811280228483284" lon="-108.12657737929611"><ele>1801.0</ele><time>2026-04-25T16:21:56.001Z</time></trkpt><trkpt lat="36.81135515249447" lon="-108.12654133659166"><ele>1800.0</ele><time>2026-04-25T16:21:57.001Z</time></trkpt><trkpt lat="36.811505861137384" lon="-108.12651039499933"><ele>1799.0</ele><time>2026-04-25T16:21:58.001Z</time></trkpt><trkpt lat="36.81167231869329" lon="-108.12647617591607"><ele>1798.0</ele><time>2026-04-25T16:21:59.001Z</time></trkpt><trkpt lat="36.81180653108069" lon="-108.12643611729622"><ele>1797.5</ele><time>2026-04-25T16:22:00.001Z</time></trkpt><trkpt lat="36.811940872655306" lon="-108.12639157054556"><ele>1797.0</ele><time>2026-04-25T16:22:01.001Z</time></trkpt><trkpt lat="36.81205529578359" lon="-108.12633719599997"><ele>1796.5</ele><time>2026-04-25T16:22:02.001Z</time></trkpt><trkpt lat="36.812181726054334" lon="-108.12628219142589"><ele>1796.0</ele><time>2026-04-25T16:22:03.001Z</time></trkpt><trkpt lat="36.81228713294906" lon="-108.12624522751425"><ele>1796.0</ele><time>2026-04-25T16:22:04.001Z</time></trkpt><trkpt lat="36.812393961658096" lon="-108.12624560282404"><ele>1796.0</ele><time>2026-04-25T16:22:05.001Z</time></trkpt><trkpt lat="36.81251757975477" lon="-108.12627107860277"><ele>1796.0</ele><time>2026-04-25T16:22:06.001Z</time></trkpt><trkpt lat="36.81264283305793" lon="-108.12630039863367"><ele>1796.0</ele><time>2026-04-25T16:22:07.001Z</time></trkpt><trkpt lat="36.81273785364313" lon="-108.12631266947923"><ele>1796.0</ele><time>2026-04-25T16:22:08.001Z</time></trkpt><trkpt lat="36.81282338456363" lon="-108.12629801033339"><ele>1796.0</ele><time>2026-04-25T16:22:09.001Z</time></trkpt><trkpt lat="36.81292542641302" lon="-108.1262677869514"><ele>1796.0</ele><time>2026-04-25T16:22:10.001Z</time></trkpt><trkpt lat="36.813018632139844" lon="-108.12619549586263"><ele>1796.0</ele><time>2026-04-25T16:22:11.001Z</time></trkpt><trkpt lat="36.81311293516575" lon="-108.12609838943821"><ele>1796.0</ele><time>2026-04-25T16:22:12.001Z</time></trkpt><trkpt lat="36.813195002546585" lon="-108.12600071848256"><ele>1796.0</ele><time>2026-04-25T16:22:13.001Z</time></trkpt><trkpt lat="36.813287561779646" lon="-108.1258956257989"><ele>1796.0</ele><time>2026-04-25T16:22:14.001Z</time></trkpt><trkpt lat="36.81335417064108" lon="-108.12579172281667"><ele>1796.0</ele><time>2026-04-25T16:22:15.001Z</time></trkpt><trkpt lat="36.81341635552771" lon="-108.12569826329025"><ele>1796.0</ele><time>2026-04-25T16:22:16.001Z</time></trkpt><trkpt lat="36.813504755403486" lon="-108.12564188432084"><ele>1796.0</ele><time>2026-04-25T16:22:17.001Z</time></trkpt><trkpt lat="36.81360030102161" lon="-108.12561137915445"><ele>1795.25</ele><time>2026-04-25T16:22:18.001Z</time></trkpt><trkpt lat="36.813725323706855" lon="-108.12558140460317"><ele>1794.5</ele><time>2026-04-25T16:22:19.001Z</time></trkpt><trkpt lat="36.81385526056003" lon="-108.12552935607478"><ele>1793.75</ele><time>2026-04-25T16:22:20.001Z</time></trkpt><trkpt lat="36.813970677487774" lon="-108.12548069765874"><ele>1793.0</ele><time>2026-04-25T16:22:21.001Z</time></trkpt><trkpt lat="36.81407928083019" lon="-108.12543791364574"><ele>1793.0</ele><time>2026-04-25T16:22:22.001Z</time></trkpt><trkpt lat="36.81416091030701" lon="-108.12540336617221"><ele>1793.0000000000002</ele><time>2026-04-25T16:22:23.001Z</time></trkpt><trkpt lat="36.81423224473642" lon="-108.12538035077124"><ele>1793.0000000000002</ele><time>2026-04-25T16:22:24.001Z</time></trkpt><trkpt lat="36.814347260523526" lon="-108.12542809236714"><ele>1793.0</ele><time>2026-04-25T16:22:26.001Z</time></trkpt><trkpt lat="36.81441505892752" lon="-108.12553417336342"><ele>1793.0</ele><time>2026-04-25T16:22:27.001Z</time></trkpt><trkpt lat="36.81448072216534" lon="-108.12558214781646"><ele>1792.4</ele><time>2026-04-25T16:22:28.001Z</time></trkpt><trkpt lat="36.81454829207616" lon="-108.12555848210309"><ele>1791.8000000000002</ele><time>2026-04-25T16:22:29.001Z</time></trkpt><trkpt lat="36.81464752537134" lon="-108.1255045831394"><ele>1791.2</ele><time>2026-04-25T16:22:30.001Z</time></trkpt><trkpt lat="36.81477930231291" lon="-108.12546366908303"><ele>1790.6</ele><time>2026-04-25T16:22:31.001Z</time></trkpt><trkpt lat="36.81490687247192" lon="-108.12544465493659"><ele>1790.0</ele><time>2026-04-25T16:22:32.001Z</time></trkpt><trkpt lat="36.815018221827465" lon="-108.12542821311442"><ele>1790.0</ele><time>2026-04-25T16:22:33.001Z</time></trkpt><trkpt lat="36.81511637002961" lon="-108.1253824357351"><ele>1790.0</ele><time>2026-04-25T16:22:34.001Z</time></trkpt><trkpt lat="36.8152062883897" lon="-108.12535305206474"><ele>1790.0</ele><time>2026-04-25T16:22:35.001Z</time></trkpt><trkpt lat="36.81530971666512" lon="-108.12536617810888"><ele>1790.0</ele><time>2026-04-25T16:22:36.001Z</time></trkpt><trkpt lat="36.81542964834993" lon="-108.12540376642399"><ele>1790.0</ele><time>2026-04-25T16:22:37.001Z</time></trkpt><trkpt lat="36.815566243275775" lon="-108.12543109087501"><ele>1790.0</ele><time>2026-04-25T16:22:38.001Z</time></trkpt><trkpt lat="36.815682648893485" lon="-108.12542597046304"><ele>1790.0</ele><time>2026-04-25T16:22:39.001Z</time></trkpt><trkpt lat="36.81577202660393" lon="-108.1254059757348"><ele>1790.0</ele><time>2026-04-25T16:22:40.001Z</time></trkpt><trkpt lat="36.815866002022155" lon="-108.12541038143245"><ele>1790.0</ele><time>2026-04-25T16:22:41.002Z</time></trkpt><trkpt lat="36.81598438412655" lon="-108.1254289050794"><ele>1790.0</ele><time>2026-04-25T16:22:42.002Z</time></trkpt><trkpt lat="36.816124023547864" lon="-108.12544900857156"><ele>1790.0</ele><time>2026-04-25T16:22:43.002Z</time></trkpt><trkpt lat="36.8162427273745" lon="-108.1254626246494"><ele>1790.0</ele><time>2026-04-25T16:22:44.002Z</time></trkpt><trkpt lat="36.81631801271401" lon="-108.12545848035286"><ele>1790.0</ele><time>2026-04-25T16:22:45.002Z</time></trkpt><trkpt lat="36.81637679699213" lon="-108.12541779253885"><ele>1790.0</ele><time>2026-04-25T16:22:46.002Z</time></trkpt><trkpt lat="36.816455305711486" lon="-108.12535017545528"><ele>1790.0</ele><time>2026-04-25T16:22:47.002Z</time></trkpt><trkpt lat="36.81656498100733" lon="-108.1252852339957"><ele>1790.0</ele><time>2026-04-25T16:22:48.002Z</time></trkpt><trkpt lat="36.81668881926742" lon="-108.12524808576347"><ele>1790.0</ele><time>2026-04-25T16:22:49.002Z</time></trkpt><trkpt lat="36.81681869010789" lon="-108.1252155367511"><ele>1790.0</ele><time>2026-04-25T16:22:50.002Z</time></trkpt><trkpt lat="36.81692569584251" lon="-108.12521211567612"><ele>1790.0</ele><time>2026-04-25T16:22:51.002Z</time></trkpt><trkpt lat="36.81702589288304" lon="-108.12524221154419"><ele>1790.6</ele><time>2026-04-25T16:22:52.002Z</time></trkpt><trkpt lat="36.81709688467432" lon="-108.1252755255209"><ele>1791.2</ele><time>2026-04-25T16:22:53.002Z</time></trkpt><trkpt lat="36.817230203568684" lon="-108.12532445518652"><ele>1791.8000000000002</ele><time>2026-04-25T16:22:55.002Z</time></trkpt><trkpt lat="36.81730088900333" lon="-108.12537677294179"><ele>1792.4</ele><time>2026-04-25T16:22:56.002Z</time></trkpt><trkpt lat="36.817337821516006" lon="-108.1254995446517"><ele>1793.0</ele><time>2026-04-25T16:22:58.002Z</time></trkpt><trkpt lat="36.81738422112408" lon="-108.12562496336432"><ele>1793.25</ele><time>2026-04-25T16:22:59.002Z</time></trkpt><trkpt lat="36.81745931202628" lon="-108.12576204800729"><ele>1793.5</ele><time>2026-04-25T16:23:00.002Z</time></trkpt><trkpt lat="36.81754087285812" lon="-108.12588671896302"><ele>1793.75</ele><time>2026-04-25T16:23:01.002Z</time></trkpt><trkpt lat="36.81762940001446" lon="-108.12597038282185"><ele>1794.0</ele><time>2026-04-25T16:23:02.002Z</time></trkpt><trkpt lat="36.81771276468482" lon="-108.12600400970051"><ele>1794.0</ele><time>2026-04-25T16:23:03.001Z</time></trkpt><trkpt lat="36.81779902659191" lon="-108.12601450214278"><ele>1794.0</ele><time>2026-04-25T16:23:04.001Z</time></trkpt><trkpt lat="36.81788872198831" lon="-108.12598679613498"><ele>1794.0</ele><time>2026-04-25T16:23:05.001Z</time></trkpt><trkpt lat="36.81799840231994" lon="-108.12599751173809"><ele>1794.0</ele><time>2026-04-25T16:23:06.001Z</time></trkpt><trkpt lat="36.81811858766532" lon="-108.12602304393859"><ele>1794.0</ele><time>2026-04-25T16:23:07.001Z</time></trkpt><trkpt lat="36.81826497140188" lon="-108.12602722481262"><ele>1794.0</ele><time>2026-04-25T16:23:08.001Z</time></trkpt><trkpt lat="36.8184062495226" lon="-108.12599522605159"><ele>1794.0</ele><time>2026-04-25T16:23:09.001Z</time></trkpt><trkpt lat="36.818531943819515" lon="-108.12598407608391"><ele>1794.0</ele><time>2026-04-25T16:23:10.001Z</time></trkpt><trkpt lat="36.818659651856215" lon="-108.12600206617395"><ele>1794.0</ele><time>2026-04-25T16:23:11.001Z</time></trkpt><trkpt lat="36.81877819985616" lon="-108.12600601146255"><ele>1793.0</ele><time>2026-04-25T16:23:12.001Z</time></trkpt><trkpt lat="36.81890573689409" lon="-108.12599877032926"><ele>1792.0</ele><time>2026-04-25T16:23:13.001Z</time></trkpt><trkpt lat="36.81902230422449" lon="-108.12599922013524"><ele>1791.0</ele><time>2026-04-25T16:23:14.001Z</time></trkpt><trkpt lat="36.819119145024985" lon="-108.12601075337112"><ele>1790.0</ele><time>2026-04-25T16:23:15.001Z</time></trkpt><trkpt lat="36.81921559355053" lon="-108.12601234684585"><ele>1789.0</ele><time>2026-04-25T16:23:16.001Z</time></trkpt><trkpt lat="36.81931557245192" lon="-108.12598724660852"><ele>1788.0</ele><time>2026-04-25T16:23:17.001Z</time></trkpt><trkpt lat="36.819422739022784" lon="-108.12594835662634"><ele>1787.0</ele><time>2026-04-25T16:23:18.001Z</time></trkpt><trkpt lat="36.81952038633728" lon="-108.12593334102097"><ele>1786.0</ele><time>2026-04-25T16:23:19.001Z</time></trkpt><trkpt lat="36.819587689128596" lon="-108.12593894217201"><ele>1785.0</ele><time>2026-04-25T16:23:20.001Z</time></trkpt><trkpt lat="36.81964144625092" lon="-108.125980384324"><ele>1784.0</ele><time>2026-04-25T16:23:21.001Z</time></trkpt><trkpt lat="36.81974025389594" lon="-108.12603815200058"><ele>1784.0</ele><time>2026-04-25T16:23:22.001Z</time></trkpt><trkpt lat="36.81984170601806" lon="-108.12608594817648"><ele>1784.0</ele><time>2026-04-25T16:23:23.001Z</time></trkpt><trkpt lat="36.819903548955395" lon="-108.12611824932168"><ele>1784.0</ele><time>2026-04-25T16:23:24.001Z</time></trkpt><trkpt lat="36.82002262114211" lon="-108.12617070244073"><ele>1784.0</ele><time>2026-04-25T16:23:26.001Z</time></trkpt><trkpt lat="36.82011879306061" lon="-108.12613184245633"><ele>1784.0</ele><time>2026-04-25T16:23:27.001Z</time></trkpt><trkpt lat="36.82022472766363" lon="-108.12610941631351"><ele>1783.8000000000002</ele><time>2026-04-25T16:23:28.001Z</time></trkpt><trkpt lat="36.8203111724269" lon="-108.12606676552103"><ele>1783.6000000000001</ele><time>2026-04-25T16:23:29.001Z</time></trkpt><trkpt lat="36.82039975345749" lon="-108.12616907368857"><ele>1783.4</ele><time>2026-04-25T16:23:31.001Z</time></trkpt><trkpt lat="36.82049394316878" lon="-108.12625870611359"><ele>1783.2</ele><time>2026-04-25T16:23:32.001Z</time></trkpt><trkpt lat="36.82058295296786" lon="-108.12634074883452"><ele>1783.0</ele><time>2026-04-25T16:23:33.001Z</time></trkpt><trkpt lat="36.82068764154329" lon="-108.12643086169687"><ele>1783.0</ele><time>2026-04-25T16:23:34.001Z</time></trkpt><trkpt lat="36.82079496996408" lon="-108.1265205890018"><ele>1783.0000000000002</ele><time>2026-04-25T16:23:35.001Z</time></trkpt><trkpt lat="36.820901855967335" lon="-108.1265610883163"><ele>1783.0000000000002</ele><time>2026-04-25T16:23:36.001Z</time></trkpt><trkpt lat="36.82099397215896" lon="-108.12655452229961"><ele>1783.0</ele><time>2026-04-25T16:23:37.001Z</time></trkpt><trkpt lat="36.82109313727229" lon="-108.12657300835512"><ele>1783.0</ele><time>2026-04-25T16:23:38.001Z</time></trkpt><trkpt lat="36.821199147280275" lon="-108.12659804103654"><ele>1784.2</ele><time>2026-04-25T16:23:39.001Z</time></trkpt><trkpt lat="36.82131713179574" lon="-108.12661795547683"><ele>1785.4</ele><time>2026-04-25T16:23:40.001Z</time></trkpt><trkpt lat="36.82142489035299" lon="-108.12665055459863"><ele>1786.6000000000001</ele><time>2026-04-25T16:23:41.001Z</time></trkpt><trkpt lat="36.82149367044921" lon="-108.12671671701519"><ele>1787.8000000000002</ele><time>2026-04-25T16:23:42.001Z</time></trkpt><trkpt lat="36.82159048399183" lon="-108.12681047050131"><ele>1789.0</ele><time>2026-04-25T16:23:43.001Z</time></trkpt><trkpt lat="36.821674455414076" lon="-108.12690367054444"><ele>1789.0</ele><time>2026-04-25T16:23:44.001Z</time></trkpt><trkpt lat="36.82173198634159" lon="-108.12702787989177"><ele>1789.0</ele><time>2026-04-25T16:23:45.001Z</time></trkpt><trkpt lat="36.82179723003196" lon="-108.12711197502475"><ele>1789.0</ele><time>2026-04-25T16:23:46.001Z</time></trkpt><trkpt lat="36.82188506670852" lon="-108.12714527888329"><ele>1789.0</ele><time>2026-04-25T16:23:47.001Z</time></trkpt><trkpt lat="36.8219884794193" lon="-108.12710783599074"><ele>1789.0</ele><time>2026-04-25T16:23:48.001Z</time></trkpt><trkpt lat="36.82207489862649" lon="-108.12707832982271"><ele>1789.8000000000002</ele><time>2026-04-25T16:23:49.001Z</time></trkpt><trkpt lat="36.82212451446464" lon="-108.12702972310278"><ele>1790.6000000000001</ele><time>2026-04-25T16:23:50.001Z</time></trkpt><trkpt lat="36.82217593236946" lon="-108.12694496724478"><ele>1791.4</ele><time>2026-04-25T16:23:51.001Z</time></trkpt><trkpt lat="36.82225199562507" lon="-108.12681521780205"><ele>1792.2</ele><time>2026-04-25T16:23:52.001Z</time></trkpt><trkpt lat="36.82227610884441" lon="-108.12670163316587"><ele>1793.0</ele><time>2026-04-25T16:23:53.001Z</time></trkpt><trkpt lat="36.82224387640315" lon="-108.12660306847742"><ele>1791.75</ele><time>2026-04-25T16:23:54.001Z</time></trkpt><trkpt lat="36.822204181265725" lon="-108.12645917275907"><ele>1790.5</ele><time>2026-04-25T16:23:55.001Z</time></trkpt><trkpt lat="36.82216562061243" lon="-108.12627223244684"><ele>1789.25</ele><time>2026-04-25T16:23:56.001Z</time></trkpt><trkpt lat="36.82214543873668" lon="-108.12613927564817"><ele>1788.0</ele><time>2026-04-25T16:23:57.001Z</time></trkpt><trkpt lat="36.82211438228676" lon="-108.12605998480007"><ele>1788.0</ele><time>2026-04-25T16:23:58.001Z</time></trkpt><trkpt lat="36.822130582451635" lon="-108.12589099537006"><ele>1788.0000000000002</ele><time>2026-04-25T16:24:00.001Z</time></trkpt><trkpt lat="36.82217969914866" lon="-108.12578890276964"><ele>1788.0000000000002</ele><time>2026-04-25T16:24:01.001Z</time></trkpt><trkpt lat="36.82223704905414" lon="-108.12570821117569"><ele>1788.0</ele><time>2026-04-25T16:24:02.001Z</time></trkpt><trkpt lat="36.82230884899208" lon="-108.12565620444396"><ele>1788.0</ele><time>2026-04-25T16:24:03.001Z</time></trkpt><trkpt lat="36.82238438995614" lon="-108.12561479195875"><ele>1788.25</ele><time>2026-04-25T16:24:04.001Z</time></trkpt><trkpt lat="36.822461585101586" lon="-108.12554260193312"><ele>1788.5</ele><time>2026-04-25T16:24:05.001Z</time></trkpt><trkpt lat="36.82255531688827" lon="-108.1254348976517"><ele>1788.75</ele><time>2026-04-25T16:24:06.001Z</time></trkpt><trkpt lat="36.82266899264584" lon="-108.12533365386938"><ele>1789.0</ele><time>2026-04-25T16:24:07.001Z</time></trkpt><trkpt lat="36.82277067033717" lon="-108.12524975802378"><ele>1790.0</ele><time>2026-04-25T16:24:08.001Z</time></trkpt><trkpt lat="36.82285888586228" lon="-108.12516067864225"><ele>1791.0</ele><time>2026-04-25T16:24:09.001Z</time></trkpt><trkpt lat="36.82293346789808" lon="-108.12507249694735"><ele>1792.0</ele><time>2026-04-25T16:24:10.001Z</time></trkpt><trkpt lat="36.82298541916399" lon="-108.12501919744084"><ele>1793.0</ele><time>2026-04-25T16:24:11.001Z</time></trkpt><trkpt lat="36.82308385229519" lon="-108.12495083772018"><ele>1794.0</ele><time>2026-04-25T16:24:13.001Z</time></trkpt><trkpt lat="36.82319068260973" lon="-108.12491466678195"><ele>1793.5</ele><time>2026-04-25T16:24:14.001Z</time></trkpt><trkpt lat="36.82327641363439" lon="-108.12486249506205"><ele>1793.0</ele><time>2026-04-25T16:24:15.001Z</time></trkpt><trkpt lat="36.823322144900494" lon="-108.12479041879656"><ele>1792.5</ele><time>2026-04-25T16:24:16.001Z</time></trkpt><trkpt lat="36.82336858118574" lon="-108.12466621079747"><ele>1792.0</ele><time>2026-04-25T16:24:17.001Z</time></trkpt><trkpt lat="36.82338350247288" lon="-108.1245577807642"><ele>1791.5</ele><time>2026-04-25T16:24:18.001Z</time></trkpt><trkpt lat="36.82339211144909" lon="-108.12446074749565"><ele>1791.0</ele><time>2026-04-25T16:24:19.001Z</time></trkpt><trkpt lat="36.82342478666053" lon="-108.12439087580519"><ele>1791.0</ele><time>2026-04-25T16:24:20.001Z</time></trkpt><trkpt lat="36.82352155227195" lon="-108.12428445978323"><ele>1791.0</ele><time>2026-04-25T16:24:22.001Z</time></trkpt><trkpt lat="36.823617972007895" lon="-108.1242607345297"><ele>1791.0</ele><time>2026-04-25T16:24:23.001Z</time></trkpt><trkpt lat="36.823731115862714" lon="-108.12421317863836"><ele>1791.0</ele><time>2026-04-25T16:24:24.001Z</time></trkpt><trkpt lat="36.823855411208825" lon="-108.12417790373794"><ele>1791.0</ele><time>2026-04-25T16:24:25.001Z</time></trkpt><trkpt lat="36.8239643328084" lon="-108.12414203061772"><ele>1791.0</ele><time>2026-04-25T16:24:26.001Z</time></trkpt><trkpt lat="36.82406630639423" lon="-108.12413717219171"><ele>1791.0</ele><time>2026-04-25T16:24:28.001Z</time></trkpt><trkpt lat="36.82412352588377" lon="-108.12421500374194"><ele>1791.0</ele><time>2026-04-25T16:24:29.001Z</time></trkpt><trkpt lat="36.824205946978594" lon="-108.12432112506839"><ele>1791.0</ele><time>2026-04-25T16:24:30.001Z</time></trkpt><trkpt lat="36.82431283327882" lon="-108.12440240897304"><ele>1790.8</ele><time>2026-04-25T16:24:31.001Z</time></trkpt><trkpt lat="36.82442582067472" lon="-108.12447797744943"><ele>1790.6</ele><time>2026-04-25T16:24:32.001Z</time></trkpt><trkpt lat="36.82451098671639" lon="-108.12453947235781"><ele>1790.4</ele><time>2026-04-25T16:24:33.001Z</time></trkpt><trkpt lat="36.82459770757884" lon="-108.12459367031792"><ele>1790.2</ele><time>2026-04-25T16:24:34.001Z</time></trkpt><trkpt lat="36.824683324419944" lon="-108.12460831610734"><ele>1790.0</ele><time>2026-04-25T16:24:35.001Z</time></trkpt><trkpt lat="36.82476376160922" lon="-108.12463636953348"><ele>1790.0</ele><time>2026-04-25T16:24:36.001Z</time></trkpt><trkpt lat="36.82483131989759" lon="-108.12473168451658"><ele>1790.0</ele><time>2026-04-25T16:24:37.001Z</time></trkpt><trkpt lat="36.82490209445346" lon="-108.12482692866129"><ele>1790.0</ele><time>2026-04-25T16:24:38.001Z</time></trkpt><trkpt lat="36.82499381784777" lon="-108.12487450978179"><ele>1790.0</ele><time>2026-04-25T16:24:39.001Z</time></trkpt><trkpt lat="36.825117200299026" lon="-108.12491950717731"><ele>1790.0</ele><time>2026-04-25T16:24:40.001Z</time></trkpt><trkpt lat="36.82520387658931" lon="-108.1249866386965"><ele>1791.25</ele><time>2026-04-25T16:24:41.001Z</time></trkpt><trkpt lat="36.825310986862306" lon="-108.1249130153766"><ele>1792.5</ele><time>2026-04-25T16:24:43.001Z</time></trkpt><trkpt lat="36.825408749750295" lon="-108.12481908689927"><ele>1793.75</ele><time>2026-04-25T16:24:44.001Z</time></trkpt><trkpt lat="36.82551724997383" lon="-108.12472728571164"><ele>1795.0</ele><time>2026-04-25T16:24:45.001Z</time></trkpt><trkpt lat="36.82562756878065" lon="-108.12467577961174"><ele>1795.0</ele><time>2026-04-25T16:24:46.001Z</time></trkpt><trkpt lat="36.825740923024384" lon="-108.12462430758563"><ele>1795.0</ele><time>2026-04-25T16:24:47.001Z</time></trkpt><trkpt lat="36.8258756610883" lon="-108.1245110400316"><ele>1795.0</ele><time>2026-04-25T16:24:48.001Z</time></trkpt><trkpt lat="36.825970762751886" lon="-108.12441476167692"><ele>1795.0</ele><time>2026-04-25T16:24:49.001Z</time></trkpt><trkpt lat="36.82605837964944" lon="-108.12433265884589"><ele>1795.5</ele><time>2026-04-25T16:24:50.001Z</time></trkpt><trkpt lat="36.826165703298024" lon="-108.12423917792668"><ele>1796.0</ele><time>2026-04-25T16:24:51.001Z</time></trkpt><trkpt lat="36.82627818584658" lon="-108.12413535112816"><ele>1796.5</ele><time>2026-04-25T16:24:52.001Z</time></trkpt><trkpt lat="36.82636595043529" lon="-108.1240419093535"><ele>1797.0</ele><time>2026-04-25T16:24:53.002Z</time></trkpt><trkpt lat="36.8264627289724" lon="-108.12397606790766"><ele>1797.0</ele><time>2026-04-25T16:24:54.002Z</time></trkpt><trkpt lat="36.82656146535885" lon="-108.12387511812402"><ele>1797.0</ele><time>2026-04-25T16:24:55.002Z</time></trkpt><trkpt lat="36.826661117081066" lon="-108.12375812563475"><ele>1797.0</ele><time>2026-04-25T16:24:56.002Z</time></trkpt><trkpt lat="36.826753205303504" lon="-108.12365229658623"><ele>1797.0</ele><time>2026-04-25T16:24:57.002Z</time></trkpt><trkpt lat="36.826835910012825" lon="-108.12356190637688"><ele>1797.0</ele><time>2026-04-25T16:24:58.002Z</time></trkpt><trkpt lat="36.8269287768309" lon="-108.12347620711994"><ele>1797.0</ele><time>2026-04-25T16:24:59.002Z</time></trkpt><trkpt lat="36.827037536678894" lon="-108.12337149463977"><ele>1797.0</ele><time>2026-04-25T16:25:00.002Z</time></trkpt><trkpt lat="36.82714749005791" lon="-108.12326558291598"><ele>1797.0</ele><time>2026-04-25T16:25:01.002Z</time></trkpt><trkpt lat="36.827263989505475" lon="-108.12314735838174"><ele>1796.75</ele><time>2026-04-25T16:25:02.002Z</time></trkpt><trkpt lat="36.827374747870095" lon="-108.1230399775712"><ele>1796.5</ele><time>2026-04-25T16:25:03.002Z</time></trkpt><trkpt lat="36.827478255516226" lon="-108.12294584892112"><ele>1796.25</ele><time>2026-04-25T16:25:04.002Z</time></trkpt><trkpt lat="36.82761890721548" lon="-108.12282581705728"><ele>1796.0</ele><time>2026-04-25T16:25:05.002Z</time></trkpt><trkpt lat="36.827717105013605" lon="-108.12271689272671"><ele>1795.25</ele><time>2026-04-25T16:25:06.002Z</time></trkpt><trkpt lat="36.827806290395934" lon="-108.12262901200022"><ele>1794.5</ele><time>2026-04-25T16:25:07.002Z</time></trkpt><trkpt lat="36.82790811086455" lon="-108.12253996496085"><ele>1793.75</ele><time>2026-04-25T16:25:08.002Z</time></trkpt><trkpt lat="36.828028555149515" lon="-108.12243629679138"><ele>1793.0</ele><time>2026-04-25T16:25:09Z</time></trkpt><trkpt lat="36.82812942578564" lon="-108.12232565416818"><ele>1793.0</ele><time>2026-04-25T16:25:10Z</time></trkpt><trkpt lat="36.8282307602858" lon="-108.12224288415315"><ele>1793.0</ele><time>2026-04-25T16:25:11Z</time></trkpt><trkpt lat="36.82833893432095" lon="-108.12218888097199"><ele>1793.0</ele><time>2026-04-25T16:25:12Z</time></trkpt><trkpt lat="36.82844654570198" lon="-108.12214495389468"><ele>1793.0</ele><time>2026-04-25T16:25:13Z</time></trkpt><trkpt lat="36.82855926113501" lon="-108.12207759643319"><ele>1793.0</ele><time>2026-04-25T16:25:14Z</time></trkpt><trkpt lat="36.82866565460436" lon="-108.12193464280966"><ele>1793.0</ele><time>2026-04-25T16:25:15Z</time></trkpt><trkpt lat="36.82880859949102" lon="-108.12179157933018"><ele>1793.0</ele><time>2026-04-25T16:25:16Z</time></trkpt><trkpt lat="36.828948526977676" lon="-108.12165800253614"><ele>1793.0</ele><time>2026-04-25T16:25:17Z</time></trkpt><trkpt lat="36.82906926407513" lon="-108.12154224110566"><ele>1793.0</ele><time>2026-04-25T16:25:18Z</time></trkpt><trkpt lat="36.82917299768157" lon="-108.1214424602221"><ele>1793.0</ele><time>2026-04-25T16:25:19Z</time></trkpt><trkpt lat="36.829247707524274" lon="-108.12136589023031"><ele>1793.0</ele><time>2026-04-25T16:25:20Z</time></trkpt><trkpt lat="36.829302868243275" lon="-108.12129904543336"><ele>1792.3333333333333</ele><time>2026-04-25T16:25:21Z</time></trkpt><trkpt lat="36.829359909365046" lon="-108.12123354671637"><ele>1791.6666666666665</ele><time>2026-04-25T16:25:23Z</time></trkpt><trkpt lat="36.82942179182447" lon="-108.12121098237925"><ele>1791.0</ele><time>2026-04-25T16:25:54.001Z</time></trkpt><trkpt lat="36.82950238171348" lon="-108.12122061841042"><ele>1790.3333333333335</ele><time>2026-04-25T16:25:59.001Z</time></trkpt><trkpt lat="36.82957106621185" lon="-108.12121893658666"><ele>1789.6666666666667</ele><time>2026-04-25T16:26:00.001Z</time></trkpt><trkpt lat="36.82967989395092" lon="-108.12121961796555"><ele>1789.0</ele><time>2026-04-25T16:26:01.001Z</time></trkpt><trkpt lat="36.82980422542644" lon="-108.12123172448402"><ele>1789.0</ele><time>2026-04-25T16:26:02.001Z</time></trkpt><trkpt lat="36.829916303006684" lon="-108.1212362125711"><ele>1789.0</ele><time>2026-04-25T16:26:03.001Z</time></trkpt><trkpt lat="36.830012862238036" lon="-108.12123794548259"><ele>1789.0</ele><time>2026-04-25T16:26:04.001Z</time></trkpt><trkpt lat="36.83011902196984" lon="-108.12121801702207"><ele>1789.0</ele><time>2026-04-25T16:26:05.001Z</time></trkpt><trkpt lat="36.830248117036774" lon="-108.1211997323968"><ele>1789.0</ele><time>2026-04-25T16:26:06.001Z</time></trkpt><trkpt lat="36.830365335121925" lon="-108.1212134841563"><ele>1788.0</ele><time>2026-04-25T16:26:07.001Z</time></trkpt><trkpt lat="36.83045186514408" lon="-108.12122515148236"><ele>1787.0</ele><time>2026-04-25T16:26:08.001Z</time></trkpt><trkpt lat="36.83055282068181" lon="-108.12123969232863"><ele>1786.0</ele><time>2026-04-25T16:26:09.001Z</time></trkpt><trkpt lat="36.83064516617514" lon="-108.12126509305416"><ele>1785.0</ele><time>2026-04-25T16:26:10.001Z</time></trkpt><trkpt lat="36.83074342850545" lon="-108.12130472840965"><ele>1784.0</ele><time>2026-04-25T16:26:11.001Z</time></trkpt><trkpt lat="36.830825653486684" lon="-108.1213349620124"><ele>1784.0</ele><time>2026-04-25T16:26:12.001Z</time></trkpt><trkpt lat="36.830899983994875" lon="-108.12133631117975"><ele>1784.0</ele><time>2026-04-25T16:26:13.001Z</time></trkpt><trkpt lat="36.831006906514425" lon="-108.1213239669803"><ele>1784.0</ele><time>2026-04-25T16:26:14.001Z</time></trkpt><trkpt lat="36.83114517109303" lon="-108.12132400266839"><ele>1784.0</ele><time>2026-04-25T16:26:15.001Z</time></trkpt><trkpt lat="36.83124411138149" lon="-108.12132594451558"><ele>1784.0</ele><time>2026-04-25T16:26:16.001Z</time></trkpt><trkpt lat="36.83131829099435" lon="-108.12135004343959"><ele>1784.0</ele><time>2026-04-25T16:26:17.001Z</time></trkpt><trkpt lat="36.83142640912354" lon="-108.12139217138792"><ele>1784.0</ele><time>2026-04-25T16:26:18.001Z</time></trkpt><trkpt lat="36.83154195559586" lon="-108.12142606104516"><ele>1784.0</ele><time>2026-04-25T16:26:19.001Z</time></trkpt><trkpt lat="36.831647938514934" lon="-108.12143969686848"><ele>1784.0</ele><time>2026-04-25T16:26:20.001Z</time></trkpt><trkpt lat="36.831764812371894" lon="-108.12144734520024"><ele>1784.25</ele><time>2026-04-25T16:26:21.001Z</time></trkpt><trkpt lat="36.83189059269254" lon="-108.12147250018002"><ele>1784.5</ele><time>2026-04-25T16:26:22.001Z</time></trkpt><trkpt lat="36.83202559062991" lon="-108.12152567615298"><ele>1784.75</ele><time>2026-04-25T16:26:23.001Z</time></trkpt><trkpt lat="36.83218642220226" lon="-108.12157489181465"><ele>1785.0</ele><time>2026-04-25T16:26:24.001Z</time></trkpt><trkpt lat="36.83234361705319" lon="-108.12162624188113"><ele>1785.0</ele><time>2026-04-25T16:26:25.001Z</time></trkpt><trkpt lat="36.83249176530673" lon="-108.12170761291416"><ele>1785.0</ele><time>2026-04-25T16:26:26.001Z</time></trkpt><trkpt lat="36.832632683601496" lon="-108.12181118711148"><ele>1785.0</ele><time>2026-04-25T16:26:27.001Z</time></trkpt><trkpt lat="36.832760832146214" lon="-108.12191537156397"><ele>1785.5</ele><time>2026-04-25T16:26:28.001Z</time></trkpt><trkpt lat="36.83288122299494" lon="-108.1219970372119"><ele>1786.0</ele><time>2026-04-25T16:26:29.001Z</time></trkpt><trkpt lat="36.83300886041935" lon="-108.12206534067617"><ele>1786.5</ele><time>2026-04-25T16:26:30.001Z</time></trkpt><trkpt lat="36.83312736370829" lon="-108.12213778799969"><ele>1787.0</ele><time>2026-04-25T16:26:31.001Z</time></trkpt><trkpt lat="36.83319259188766" lon="-108.12217942947791"><ele>1786.9999999999998</ele><time>2026-04-25T16:26:32.001Z</time></trkpt><trkpt lat="36.83327285717817" lon="-108.12213993439994"><ele>1787.0</ele><time>2026-04-25T16:26:34.001Z</time></trkpt><trkpt lat="36.83335794682572" lon="-108.12213387160809"><ele>1787.0</ele><time>2026-04-25T16:26:36.001Z</time></trkpt><trkpt lat="36.83342161305701" lon="-108.12217770864964"><ele>1787.0</ele><time>2026-04-25T16:26:37.001Z</time></trkpt><trkpt lat="36.83351264930078" lon="-108.12221442458954"><ele>1786.9999999999998</ele><time>2026-04-25T16:26:38.001Z</time></trkpt><trkpt lat="36.833605731005875" lon="-108.12224906395426"><ele>1787.0</ele><time>2026-04-25T16:26:39.001Z</time></trkpt><trkpt lat="36.83369493061621" lon="-108.1222910312334"><ele>1788.6</ele><time>2026-04-25T16:26:40.001Z</time></trkpt><trkpt lat="36.83375728752951" lon="-108.12232579657807"><ele>1790.1999999999998</ele><time>2026-04-25T16:26:41.001Z</time></trkpt><trkpt lat="36.83385710743184" lon="-108.12246447075873"><ele>1791.8</ele><time>2026-04-25T16:26:43.001Z</time></trkpt><trkpt lat="36.833949514491586" lon="-108.12256549371592"><ele>1793.4</ele><time>2026-04-25T16:26:44.001Z</time></trkpt><trkpt lat="36.834010483196096" lon="-108.12266535298991"><ele>1795.0</ele><time>2026-04-25T16:26:45.001Z</time></trkpt><trkpt lat="36.83405120914296" lon="-108.12273205712822"><ele>1795.0</ele><time>2026-04-25T16:26:46.001Z</time></trkpt><trkpt lat="36.83410109007083" lon="-108.12278032405754"><ele>1795.0</ele><time>2026-04-25T16:26:48.001Z</time></trkpt><trkpt lat="36.834286419802154" lon="-108.12267392989897"><ele>1795.0</ele><time>2026-04-25T16:26:50.001Z</time></trkpt><trkpt lat="36.83440160982306" lon="-108.12263022664693"><ele>1795.0</ele><time>2026-04-25T16:26:51.001Z</time></trkpt><trkpt lat="36.834537984086744" lon="-108.12257019843396"><ele>1796.0</ele><time>2026-04-25T16:26:52.001Z</time></trkpt><trkpt lat="36.83464597076574" lon="-108.12253807992485"><ele>1797.0</ele><time>2026-04-25T16:26:53.001Z</time></trkpt><trkpt lat="36.834779619571854" lon="-108.12251408972001"><ele>1798.0</ele><time>2026-04-25T16:26:54.001Z</time></trkpt><trkpt lat="36.83490514077263" lon="-108.1224811690928"><ele>1799.0</ele><time>2026-04-25T16:26:55.001Z</time></trkpt><trkpt lat="36.8349928505891" lon="-108.12243492159105"><ele>1799.0</ele><time>2026-04-25T16:26:56.001Z</time></trkpt><trkpt lat="36.83508359095768" lon="-108.12242069544"><ele>1799.0</ele><time>2026-04-25T16:26:57.001Z</time></trkpt><trkpt lat="36.83519309295147" lon="-108.12242977391637"><ele>1799.0</ele><time>2026-04-25T16:26:58.001Z</time></trkpt><trkpt lat="36.835332557063325" lon="-108.1224521492318"><ele>1799.0</ele><time>2026-04-25T16:26:59.001Z</time></trkpt><trkpt lat="36.83547394524398" lon="-108.12248261634852"><ele>1799.5</ele><time>2026-04-25T16:27:00.001Z</time></trkpt><trkpt lat="36.83559868250243" lon="-108.12248837595219"><ele>1800.0</ele><time>2026-04-25T16:27:01.001Z</time></trkpt><trkpt lat="36.83572254305078" lon="-108.12245720523158"><ele>1800.5</ele><time>2026-04-25T16:27:02.001Z</time></trkpt><trkpt lat="36.835837270142335" lon="-108.12240312644424"><ele>1801.0</ele><time>2026-04-25T16:27:03.001Z</time></trkpt><trkpt lat="36.835942744797876" lon="-108.12235987545556"><ele>1800.8</ele><time>2026-04-25T16:27:04.001Z</time></trkpt><trkpt lat="36.836043904223494" lon="-108.12234166576395"><ele>1800.6</ele><time>2026-04-25T16:27:05.002Z</time></trkpt><trkpt lat="36.83614310102918" lon="-108.12235697777034"><ele>1800.4</ele><time>2026-04-25T16:27:06.002Z</time></trkpt><trkpt lat="36.836225172439924" lon="-108.12231634403678"><ele>1800.2</ele><time>2026-04-25T16:27:08.002Z</time></trkpt><trkpt lat="36.83632803009699" lon="-108.12225842813591"><ele>1800.0</ele><time>2026-04-25T16:27:09.002Z</time></trkpt><trkpt lat="36.83647612524738" lon="-108.12227051334553"><ele>1800.0</ele><time>2026-04-25T16:27:10.002Z</time></trkpt><trkpt lat="36.83662602005007" lon="-108.12227067012464"><ele>1800.0</ele><time>2026-04-25T16:27:11.002Z</time></trkpt><trkpt lat="36.83673978532268" lon="-108.12223981694763"><ele>1800.0</ele><time>2026-04-25T16:27:12.002Z</time></trkpt><trkpt lat="36.836828971790034" lon="-108.12222190762066"><ele>1800.0</ele><time>2026-04-25T16:27:13.002Z</time></trkpt><trkpt lat="36.83690506804636" lon="-108.12222440362395"><ele>1800.0</ele><time>2026-04-25T16:27:14.002Z</time></trkpt><trkpt lat="36.837029197144844" lon="-108.1222475092548"><ele>1800.0</ele><time>2026-04-25T16:27:16Z</time></trkpt><trkpt lat="36.83710671390709" lon="-108.12222550939936"><ele>1800.0</ele><time>2026-04-25T16:27:17Z</time></trkpt><trkpt lat="36.83719646218091" lon="-108.12222166267539"><ele>1800.0</ele><time>2026-04-25T16:27:18Z</time></trkpt><trkpt lat="36.83731683117758" lon="-108.12222752647232"><ele>1800.0</ele><time>2026-04-25T16:27:19Z</time></trkpt><trkpt lat="36.83744481003361" lon="-108.12221930990785"><ele>1800.0</ele><time>2026-04-25T16:27:20Z</time></trkpt><trkpt lat="36.83754123654429" lon="-108.12218279114582"><ele>1800.8</ele><time>2026-04-25T16:27:21Z</time></trkpt><trkpt lat="36.837635661345125" lon="-108.1221443402709"><ele>1801.6</ele><time>2026-04-25T16:27:22Z</time></trkpt><trkpt lat="36.837728934213175" lon="-108.1221143571517"><ele>1802.4</ele><time>2026-04-25T16:27:23Z</time></trkpt><trkpt lat="36.83784620442538" lon="-108.1221262631852"><ele>1803.2</ele><time>2026-04-25T16:27:24Z</time></trkpt><trkpt lat="36.83797352337849" lon="-108.12216630063632"><ele>1804.0</ele><time>2026-04-25T16:27:25Z</time></trkpt><trkpt lat="36.83811316332263" lon="-108.12218526981974"><ele>1804.0</ele><time>2026-04-25T16:27:26Z</time></trkpt><trkpt lat="36.83823258377572" lon="-108.12217837390928"><ele>1804.0</ele><time>2026-04-25T16:27:27Z</time></trkpt><trkpt lat="36.83833534142461" lon="-108.12214901345722"><ele>1804.0</ele><time>2026-04-25T16:27:28Z</time></trkpt><trkpt lat="36.83847443923846" lon="-108.12210043712396"><ele>1804.0</ele><time>2026-04-25T16:27:29Z</time></trkpt><trkpt lat="36.83862639861046" lon="-108.12208416967223"><ele>1806.0</ele><time>2026-04-25T16:27:30Z</time></trkpt><trkpt lat="36.83876127138683" lon="-108.1220742654291"><ele>1808.0</ele><time>2026-04-25T16:27:31Z</time></trkpt><trkpt lat="36.83887707429564" lon="-108.1219922287918"><ele>1810.0</ele><time>2026-04-25T16:27:32Z</time></trkpt><trkpt lat="36.83900217909211" lon="-108.12191204525912"><ele>1812.0</ele><time>2026-04-25T16:27:33Z</time></trkpt><trkpt lat="36.83913000767449" lon="-108.12185596027913"><ele>1812.0</ele><time>2026-04-25T16:27:34Z</time></trkpt><trkpt lat="36.8392483914987" lon="-108.12181193439896"><ele>1812.0</ele><time>2026-04-25T16:27:35Z</time></trkpt><trkpt lat="36.83933595559196" lon="-108.12175306837416"><ele>1812.0</ele><time>2026-04-25T16:27:36.001Z</time></trkpt><trkpt lat="36.83936894500525" lon="-108.12168365121411"><ele>1812.0</ele><time>2026-04-25T16:27:37.001Z</time></trkpt><trkpt lat="36.8393894599826" lon="-108.12159194751491"><ele>1812.0</ele><time>2026-04-25T16:27:38.001Z</time></trkpt><trkpt lat="36.8394062948151" lon="-108.1214996171646"><ele>1812.0</ele><time>2026-04-25T16:27:39.001Z</time></trkpt><trkpt lat="36.839471183373924" lon="-108.1214372833881"><ele>1812.6666666666667</ele><time>2026-04-25T16:27:40.001Z</time></trkpt><trkpt lat="36.83955265396028" lon="-108.12139370808727"><ele>1813.3333333333335</ele><time>2026-04-25T16:27:41.001Z</time></trkpt><trkpt lat="36.83963121452361" lon="-108.12138895242957"><ele>1814.0</ele><time>2026-04-25T16:27:42.001Z</time></trkpt><trkpt lat="36.83971067931784" lon="-108.12140947963992"><ele>1814.6666666666667</ele><time>2026-04-25T16:27:43.001Z</time></trkpt><trkpt lat="36.839790038906955" lon="-108.12143797596573"><ele>1815.3333333333335</ele><time>2026-04-25T16:27:44.001Z</time></trkpt><trkpt lat="36.839854912639964" lon="-108.12143335382164"><ele>1816.0</ele><time>2026-04-25T16:27:45.001Z</time></trkpt><trkpt lat="36.83992991375015" lon="-108.12137333136467"><ele>1816.0000000000002</ele><time>2026-04-25T16:27:46.001Z</time></trkpt><trkpt lat="36.84001468063321" lon="-108.12131528443737"><ele>1816.0</ele><time>2026-04-25T16:27:47.001Z</time></trkpt><trkpt lat="36.8401027873548" lon="-108.12126934674046"><ele>1816.0</ele><time>2026-04-25T16:27:48.001Z</time></trkpt><trkpt lat="36.84017757753658" lon="-108.12123390433258"><ele>1816.0</ele><time>2026-04-25T16:27:49.001Z</time></trkpt><trkpt lat="36.840240403318724" lon="-108.1211855224776"><ele>1816.0000000000002</ele><time>2026-04-25T16:27:50.001Z</time></trkpt><trkpt lat="36.840310542713176" lon="-108.12113585634947"><ele>1816.0</ele><time>2026-04-25T16:27:51.001Z</time></trkpt><trkpt lat="36.84038570395721" lon="-108.12105236054983"><ele>1815.0</ele><time>2026-04-25T16:27:52.001Z</time></trkpt><trkpt lat="36.840432365268136" lon="-108.12094194601423"><ele>1814.0</ele><time>2026-04-25T16:27:53.001Z</time></trkpt><trkpt lat="36.840470175736066" lon="-108.12080311019804"><ele>1813.0</ele><time>2026-04-25T16:27:54.001Z</time></trkpt><trkpt lat="36.840506501743185" lon="-108.12067925051747"><ele>1812.0</ele><time>2026-04-25T16:27:55.001Z</time></trkpt><trkpt lat="36.840533368938836" lon="-108.1205803072593"><ele>1811.0</ele><time>2026-04-25T16:27:56.001Z</time></trkpt><trkpt lat="36.840571349185126" lon="-108.12047481430301"><ele>1810.1999999999998</ele><time>2026-04-25T16:27:57.001Z</time></trkpt><trkpt lat="36.840627500412026" lon="-108.12037222135662"><ele>1809.3999999999999</ele><time>2026-04-25T16:27:58.001Z</time></trkpt><trkpt lat="36.84069385442484" lon="-108.12028212315852"><ele>1808.6</ele><time>2026-04-25T16:27:59.001Z</time></trkpt><trkpt lat="36.840753129580136" lon="-108.12019318568814"><ele>1807.8</ele><time>2026-04-25T16:28:00.001Z</time></trkpt><trkpt lat="36.84082669227195" lon="-108.12014596395308"><ele>1807.0</ele><time>2026-04-25T16:28:01.001Z</time></trkpt><trkpt lat="36.84092501570345" lon="-108.12008591812305"><ele>1806.3999999999999</ele><time>2026-04-25T16:28:02.001Z</time></trkpt><trkpt lat="36.841003206956394" lon="-108.1200085298509"><ele>1805.7999999999997</ele><time>2026-04-25T16:28:03.001Z</time></trkpt><trkpt lat="36.84107252248723" lon="-108.11994029824324"><ele>1805.2</ele><time>2026-04-25T16:28:04.001Z</time></trkpt><trkpt lat="36.8411615442156" lon="-108.11990983564887"><ele>1804.6</ele><time>2026-04-25T16:28:05.001Z</time></trkpt><trkpt lat="36.84126621144645" lon="-108.1198642980132"><ele>1804.0</ele><time>2026-04-25T16:28:06.001Z</time></trkpt><trkpt lat="36.841373868764734" lon="-108.11984732008153"><ele>1804.5</ele><time>2026-04-25T16:28:07.001Z</time></trkpt><trkpt lat="36.84150156152419" lon="-108.11985201991118"><ele>1805.0</ele><time>2026-04-25T16:28:08.001Z</time></trkpt><trkpt lat="36.841607700260525" lon="-108.11984663219572"><ele>1805.5</ele><time>2026-04-25T16:28:09.001Z</time></trkpt><trkpt lat="36.84173301618596" lon="-108.11984280821049"><ele>1806.0</ele><time>2026-04-25T16:28:10.001Z</time></trkpt><trkpt lat="36.841859234860145" lon="-108.11982776153793"><ele>1806.0</ele><time>2026-04-25T16:28:11.001Z</time></trkpt><trkpt lat="36.84196791961324" lon="-108.11980365645105"><ele>1806.0</ele><time>2026-04-25T16:28:12.001Z</time></trkpt><trkpt lat="36.842084946984805" lon="-108.11976926079889"><ele>1806.0</ele><time>2026-04-25T16:28:13.001Z</time></trkpt><trkpt lat="36.84218603924621" lon="-108.11972424245815"><ele>1806.0</ele><time>2026-04-25T16:28:14.001Z</time></trkpt><trkpt lat="36.84225436676695" lon="-108.11967549876498"><ele>1806.0</ele><time>2026-04-25T16:28:15.001Z</time></trkpt><trkpt lat="36.842344459050494" lon="-108.11966124749492"><ele>1806.0</ele><time>2026-04-25T16:28:16.001Z</time></trkpt><trkpt lat="36.842440514244736" lon="-108.11966867036575"><ele>1806.0</ele><time>2026-04-25T16:28:17.001Z</time></trkpt><trkpt lat="36.84251843137224" lon="-108.11962388918845"><ele>1806.0</ele><time>2026-04-25T16:28:18.001Z</time></trkpt><trkpt lat="36.84258543883294" lon="-108.11955044211372"><ele>1806.0</ele><time>2026-04-25T16:28:19.001Z</time></trkpt><trkpt lat="36.84265174055723" lon="-108.1194938599282"><ele>1806.0</ele><time>2026-04-25T16:28:20.001Z</time></trkpt><trkpt lat="36.84274309454795" lon="-108.11935194361863"><ele>1806.1999999999998</ele><time>2026-04-25T16:28:22.001Z</time></trkpt><trkpt lat="36.84278116568313" lon="-108.11924813286171"><ele>1806.3999999999999</ele><time>2026-04-25T16:28:23.001Z</time></trkpt><trkpt lat="36.84284842828436" lon="-108.11914260080314"><ele>1806.6</ele><time>2026-04-25T16:28:24.001Z</time></trkpt><trkpt lat="36.84295158260476" lon="-108.11902979371165"><ele>1806.8</ele><time>2026-04-25T16:28:25.001Z</time></trkpt><trkpt lat="36.84302170771266" lon="-108.11892721568022"><ele>1807.0</ele><time>2026-04-25T16:28:26.001Z</time></trkpt><trkpt lat="36.8430670794033" lon="-108.11883201618801"><ele>1807.0</ele><time>2026-04-25T16:28:27.001Z</time></trkpt><trkpt lat="36.84311079785346" lon="-108.11873505977981"><ele>1806.9999999999998</ele><time>2026-04-25T16:28:28.001Z</time></trkpt><trkpt lat="36.84312665068185" lon="-108.11863602609688"><ele>1806.9999999999998</ele><time>2026-04-25T16:28:29.001Z</time></trkpt><trkpt lat="36.843231308639986" lon="-108.11857911426792"><ele>1807.0</ele><time>2026-04-25T16:28:31.001Z</time></trkpt><trkpt lat="36.84333618727352" lon="-108.11857778456157"><ele>1807.0</ele><time>2026-04-25T16:28:32.001Z</time></trkpt><trkpt lat="36.84344879619078" lon="-108.11851935029213"><ele>1807.3999999999999</ele><time>2026-04-25T16:28:33.001Z</time></trkpt><trkpt lat="36.843567147716165" lon="-108.11845205075016"><ele>1807.7999999999997</ele><time>2026-04-25T16:28:34.001Z</time></trkpt><trkpt lat="36.84363947179123" lon="-108.11840113117435"><ele>1808.2</ele><time>2026-04-25T16:28:35.001Z</time></trkpt><trkpt lat="36.84369055881825" lon="-108.11831540608473"><ele>1808.6</ele><time>2026-04-25T16:28:36.001Z</time></trkpt><trkpt lat="36.84374755341861" lon="-108.11819017887909"><ele>1809.0</ele><time>2026-04-25T16:28:37.001Z</time></trkpt><trkpt lat="36.84380561353836" lon="-108.11806837305488"><ele>1807.8000000000002</ele><time>2026-04-25T16:28:38.001Z</time></trkpt><trkpt lat="36.84385857710183" lon="-108.11797025998781"><ele>1806.6000000000001</ele><time>2026-04-25T16:28:39.001Z</time></trkpt><trkpt lat="36.843916712792456" lon="-108.11789609247062"><ele>1805.4</ele><time>2026-04-25T16:28:40.001Z</time></trkpt><trkpt lat="36.8439859041838" lon="-108.11783260587204"><ele>1804.2</ele><time>2026-04-25T16:28:41.001Z</time></trkpt><trkpt lat="36.84407382691371" lon="-108.11776096220036"><ele>1803.0</ele><time>2026-04-25T16:28:42.001Z</time></trkpt><trkpt lat="36.844144651385264" lon="-108.11767593489853"><ele>1803.0</ele><time>2026-04-25T16:28:43.001Z</time></trkpt><trkpt lat="36.84418764966907" lon="-108.11758113440514"><ele>1803.0000000000002</ele><time>2026-04-25T16:28:44.001Z</time></trkpt><trkpt lat="36.84429382540215" lon="-108.11746891731136"><ele>1803.0000000000002</ele><time>2026-04-25T16:28:46.001Z</time></trkpt><trkpt lat="36.8443778991559" lon="-108.11741854022755"><ele>1803.0</ele><time>2026-04-25T16:28:47.001Z</time></trkpt><trkpt lat="36.84444107277067" lon="-108.11736329851401"><ele>1803.0</ele><time>2026-04-25T16:28:48.001Z</time></trkpt><trkpt lat="36.84448036464063" lon="-108.11729695146174"><ele>1801.8000000000002</ele><time>2026-04-25T16:28:49.001Z</time></trkpt><trkpt lat="36.84452191706677" lon="-108.1171913103631"><ele>1800.6000000000001</ele><time>2026-04-25T16:28:50.001Z</time></trkpt><trkpt lat="36.84457160020424" lon="-108.11707744176967"><ele>1799.3999999999999</ele><time>2026-04-25T16:28:51.001Z</time></trkpt><trkpt lat="36.84462114711284" lon="-108.1169586371611"><ele>1798.1999999999998</ele><time>2026-04-25T16:28:52.001Z</time></trkpt><trkpt lat="36.844668834339664" lon="-108.11684513738207"><ele>1797.0</ele><time>2026-04-25T16:28:53.001Z</time></trkpt><trkpt lat="36.84472339590521" lon="-108.11672166542836"><ele>1797.0</ele><time>2026-04-25T16:28:54.001Z</time></trkpt><trkpt lat="36.8448073276661" lon="-108.11660398832834"><ele>1797.0</ele><time>2026-04-25T16:28:55.001Z</time></trkpt><trkpt lat="36.84490294785768" lon="-108.11653271229251"><ele>1797.0</ele><time>2026-04-25T16:28:56.001Z</time></trkpt><trkpt lat="36.84501892941233" lon="-108.11646785394868"><ele>1797.0</ele><time>2026-04-25T16:28:57.001Z</time></trkpt><trkpt lat="36.845131054274184" lon="-108.11636681126625"><ele>1798.6</ele><time>2026-04-25T16:28:58.001Z</time></trkpt><trkpt lat="36.845217259049456" lon="-108.1162467856122"><ele>1800.1999999999998</ele><time>2026-04-25T16:28:59.001Z</time></trkpt><trkpt lat="36.845262056195644" lon="-108.11614542588411"><ele>1801.8</ele><time>2026-04-25T16:29:00.001Z</time></trkpt><trkpt lat="36.845280315774765" lon="-108.11602762870004"><ele>1803.4</ele><time>2026-04-25T16:29:02.001Z</time></trkpt><trkpt lat="36.84522719816129" lon="-108.11594009583801"><ele>1805.0</ele><time>2026-04-25T16:29:03.001Z</time></trkpt><trkpt lat="36.84514293089936" lon="-108.115820798385"><ele>1805.2</ele><time>2026-04-25T16:29:04.001Z</time></trkpt><trkpt lat="36.845046361502206" lon="-108.11569956363896"><ele>1805.4</ele><time>2026-04-25T16:29:05.001Z</time></trkpt><trkpt lat="36.8449719204969" lon="-108.11558519528117"><ele>1805.6</ele><time>2026-04-25T16:29:06.001Z</time></trkpt><trkpt lat="36.84492427110046" lon="-108.11549768776416"><ele>1805.8</ele><time>2026-04-25T16:29:07.001Z</time></trkpt><trkpt lat="36.84489571266363" lon="-108.11537556686251"><ele>1806.0</ele><time>2026-04-25T16:29:08.001Z</time></trkpt><trkpt lat="36.844872821835246" lon="-108.1152401753858"><ele>1806.0</ele><time>2026-04-25T16:29:09.001Z</time></trkpt><trkpt lat="36.84484592017516" lon="-108.1151082144429"><ele>1806.0</ele><time>2026-04-25T16:29:10.001Z</time></trkpt><trkpt lat="36.84484390228224" lon="-108.11498265988138"><ele>1806.0</ele><time>2026-04-25T16:29:12.001Z</time></trkpt><trkpt lat="36.84489194107242" lon="-108.11493110408678"><ele>1806.0</ele><time>2026-04-25T16:29:13.002Z</time></trkpt><trkpt lat="36.8449554205172" lon="-108.11485796112741"><ele>1806.0</ele><time>2026-04-25T16:29:14.002Z</time></trkpt><trkpt lat="36.84498497562479" lon="-108.11473230760552"><ele>1806.8333333333333</ele><time>2026-04-25T16:29:16.002Z</time></trkpt><trkpt lat="36.844947842781735" lon="-108.11463274185175"><ele>1807.6666666666665</ele><time>2026-04-25T16:29:17.002Z</time></trkpt><trkpt lat="36.844935958846875" lon="-108.11454720730575"><ele>1808.5</ele><time>2026-04-25T16:29:18.002Z</time></trkpt><trkpt lat="36.844968969028585" lon="-108.11446474989836"><ele>1809.3333333333333</ele><time>2026-04-25T16:29:19.002Z</time></trkpt><trkpt lat="36.844995174876026" lon="-108.11435645261456"><ele>1810.1666666666665</ele><time>2026-04-25T16:29:20.002Z</time></trkpt><trkpt lat="36.84499556043998" lon="-108.11424016312544"><ele>1811.0</ele><time>2026-04-25T16:29:21Z</time></trkpt><trkpt lat="36.84498105311711" lon="-108.11412322766583"><ele>1811.8333333333333</ele><time>2026-04-25T16:29:22Z</time></trkpt><trkpt lat="36.84494965784748" lon="-108.11402308043205"><ele>1812.6666666666665</ele><time>2026-04-25T16:29:23Z</time></trkpt><trkpt lat="36.8449256121069" lon="-108.11394461740669"><ele>1813.5</ele><time>2026-04-25T16:29:25Z</time></trkpt><trkpt lat="36.84496163222598" lon="-108.11387648809489"><ele>1814.3333333333335</ele><time>2026-04-25T16:29:26Z</time></trkpt><trkpt lat="36.844976806246315" lon="-108.11377805264901"><ele>1815.1666666666667</ele><time>2026-04-25T16:29:27Z</time></trkpt><trkpt lat="36.84494819468372" lon="-108.11367016883943"><ele>1816.0</ele><time>2026-04-25T16:29:28Z</time></trkpt><trkpt lat="36.84490871698048" lon="-108.11356834902034"><ele>1816.0</ele><time>2026-04-25T16:29:29Z</time></trkpt><trkpt lat="36.844819911272396" lon="-108.11346362365522"><ele>1816.0</ele><time>2026-04-25T16:29:31Z</time></trkpt><trkpt lat="36.844718764748215" lon="-108.11336659908459"><ele>1816.0</ele><time>2026-04-25T16:29:32Z</time></trkpt><trkpt lat="36.8446261779385" lon="-108.1132307833704"><ele>1816.0</ele><time>2026-04-25T16:29:33Z</time></trkpt><trkpt lat="36.844559291066844" lon="-108.11311094099186"><ele>1816.0</ele><time>2026-04-25T16:29:34Z</time></trkpt><trkpt lat="36.844515774326716" lon="-108.11297973279005"><ele>1816.0</ele><time>2026-04-25T16:29:35Z</time></trkpt><trkpt lat="36.844450812845224" lon="-108.11286078545253"><ele>1816.0</ele><time>2026-04-25T16:29:36Z</time></trkpt><trkpt lat="36.844384888300354" lon="-108.11274904882814"><ele>1816.0</ele><time>2026-04-25T16:29:37Z</time></trkpt><trkpt lat="36.84435014227445" lon="-108.11263629098923"><ele>1816.0</ele><time>2026-04-25T16:29:38Z</time></trkpt><trkpt lat="36.84434374574899" lon="-108.11248979415701"><ele>1816.6666666666667</ele><time>2026-04-25T16:29:39Z</time></trkpt><trkpt lat="36.844357674566965" lon="-108.11230403316598"><ele>1817.3333333333335</ele><time>2026-04-25T16:29:40Z</time></trkpt><trkpt lat="36.84436324881276" lon="-108.1121088263961"><ele>1818.0</ele><time>2026-04-25T16:29:41Z</time></trkpt><trkpt lat="36.844353581666105" lon="-108.11191046454036"><ele>1818.0</ele><time>2026-04-25T16:29:42Z</time></trkpt><trkpt lat="36.84433002506196" lon="-108.11175214409383"><ele>1818.0000000000002</ele><time>2026-04-25T16:29:43Z</time></trkpt><trkpt lat="36.844307451707806" lon="-108.11164167899223"><ele>1818.0000000000002</ele><time>2026-04-25T16:29:44Z</time></trkpt><trkpt lat="36.84428561760276" lon="-108.1115643755037"><ele>1818.0</ele><time>2026-04-25T16:29:45.001Z</time></trkpt><trkpt lat="36.844171013163695" lon="-108.11146614242674"><ele>1818.0</ele><time>2026-04-25T16:29:47.001Z</time></trkpt><trkpt lat="36.84410531793753" lon="-108.11145714660819"><ele>1817.8000000000002</ele><time>2026-04-25T16:29:48.001Z</time></trkpt><trkpt lat="36.8439822795968" lon="-108.11149670926504"><ele>1817.6000000000001</ele><time>2026-04-25T16:29:50.001Z</time></trkpt><trkpt lat="36.843898695459956" lon="-108.11153299149517"><ele>1817.3999999999999</ele><time>2026-04-25T16:29:51.001Z</time></trkpt><trkpt lat="36.84380532723371" lon="-108.11157250505971"><ele>1817.1999999999998</ele><time>2026-04-25T16:29:52.001Z</time></trkpt><trkpt lat="36.843708624208084" lon="-108.11161052421359"><ele>1817.0</ele><time>2026-04-25T16:29:53.001Z</time></trkpt><trkpt lat="36.843630314198776" lon="-108.11163280742926"><ele>1817.0</ele><time>2026-04-25T16:29:54.001Z</time></trkpt><trkpt lat="36.8435588960789" lon="-108.1116344789791"><ele>1816.9999999999998</ele><time>2026-04-25T16:29:55.001Z</time></trkpt><trkpt lat="36.843477024776135" lon="-108.11161911097277"><ele>1816.9999999999998</ele><time>2026-04-25T16:29:56.001Z</time></trkpt><trkpt lat="36.84339523809572" lon="-108.11162710162432"><ele>1817.0</ele><time>2026-04-25T16:29:57.001Z</time></trkpt><trkpt lat="36.843293154911514" lon="-108.11157626064063"><ele>1817.0</ele><time>2026-04-25T16:29:59.001Z</time></trkpt><trkpt lat="36.843199644483825" lon="-108.11151079717676"><ele>1815.6666666666665</ele><time>2026-04-25T16:30:00.001Z</time></trkpt><trkpt lat="36.84311248799203" lon="-108.11146238335805"><ele>1814.3333333333333</ele><time>2026-04-25T16:30:01.001Z</time></trkpt><trkpt lat="36.843024463642074" lon="-108.11142159333644"><ele>1813.0</ele><time>2026-04-25T16:30:02.001Z</time></trkpt><trkpt lat="36.84294076952313" lon="-108.1113725320319"><ele>1811.6666666666665</ele><time>2026-04-25T16:30:03.001Z</time></trkpt><trkpt lat="36.84288082794212" lon="-108.11133936681865"><ele>1810.3333333333333</ele><time>2026-04-25T16:30:05.001Z</time></trkpt><trkpt lat="36.84284578431404" lon="-108.11123664285944"><ele>1809.0</ele><time>2026-04-25T16:30:07.001Z</time></trkpt><trkpt lat="36.84282787704514" lon="-108.11115500515534"><ele>1809.0</ele><time>2026-04-25T16:30:08.001Z</time></trkpt><trkpt lat="36.84277607546908" lon="-108.11108029768452"><ele>1809.0</ele><time>2026-04-25T16:30:09.001Z</time></trkpt><trkpt lat="36.84269325362316" lon="-108.1110368096183"><ele>1809.0</ele><time>2026-04-25T16:30:10.001Z</time></trkpt><trkpt lat="36.842579435845536" lon="-108.11093745367508"><ele>1809.0</ele><time>2026-04-25T16:30:11.001Z</time></trkpt><trkpt lat="36.8424775586312" lon="-108.11083401720342"><ele>1809.0</ele><time>2026-04-25T16:30:12.001Z</time></trkpt><trkpt lat="36.84239408780616" lon="-108.11075257543662"><ele>1808.1666666666667</ele><time>2026-04-25T16:30:13.001Z</time></trkpt><trkpt lat="36.84232776645241" lon="-108.11070243600886"><ele>1807.3333333333335</ele><time>2026-04-25T16:30:14.001Z</time></trkpt><trkpt lat="36.8422466034459" lon="-108.11063339901605"><ele>1806.5</ele><time>2026-04-25T16:30:15.001Z</time></trkpt><trkpt lat="36.84218837744609" lon="-108.11058206396949"><ele>1805.6666666666667</ele><time>2026-04-25T16:30:16.001Z</time></trkpt><trkpt lat="36.842109728952856" lon="-108.11049432314904"><ele>1804.8333333333335</ele><time>2026-04-25T16:30:18.001Z</time></trkpt><trkpt lat="36.842076822810654" lon="-108.1104033340912"><ele>1804.0</ele><time>2026-04-25T16:30:20.001Z</time></trkpt><trkpt lat="36.84209382405215" lon="-108.11027341953879"><ele>1804.0000000000002</ele><time>2026-04-25T16:30:22.001Z</time></trkpt><trkpt lat="36.84210426619694" lon="-108.11018236897094"><ele>1804.0</ele><time>2026-04-25T16:30:23.001Z</time></trkpt><trkpt lat="36.84214144170281" lon="-108.11011232063545"><ele>1804.0</ele><time>2026-04-25T16:30:24.001Z</time></trkpt><trkpt lat="36.84217785590005" lon="-108.11003482838011"><ele>1804.0</ele><time>2026-04-25T16:30:25.001Z</time></trkpt><trkpt lat="36.842219522196814" lon="-108.10993875394783"><ele>1804.0000000000002</ele><time>2026-04-25T16:30:26.001Z</time></trkpt><trkpt lat="36.842261550410214" lon="-108.10984803056114"><ele>1804.0</ele><time>2026-04-25T16:30:27.001Z</time></trkpt><trkpt lat="36.842300585454204" lon="-108.10974609543037"><ele>1804.5000000000002</ele><time>2026-04-25T16:30:28.001Z</time></trkpt><trkpt lat="36.84230652110113" lon="-108.10964309463586"><ele>1805.0</ele><time>2026-04-25T16:30:29.001Z</time></trkpt><trkpt lat="36.842300349393206" lon="-108.10953974630462"><ele>1805.5</ele><time>2026-04-25T16:30:30.001Z</time></trkpt><trkpt lat="36.84228438596689" lon="-108.10944285195696"><ele>1806.0</ele><time>2026-04-25T16:30:31.001Z</time></trkpt><trkpt lat="36.842262519349774" lon="-108.10936131199328"><ele>1806.5000000000002</ele><time>2026-04-25T16:30:32.001Z</time></trkpt><trkpt lat="36.84229767387143" lon="-108.10926740962658"><ele>1807.0</ele><time>2026-04-25T16:30:34.001Z</time></trkpt><trkpt lat="36.842368819842534" lon="-108.1091111600818"><ele>1805.3999999999999</ele><time>2026-04-25T16:30:36.001Z</time></trkpt><trkpt lat="36.842396815534045" lon="-108.10900909325886"><ele>1803.7999999999997</ele><time>2026-04-25T16:30:37.001Z</time></trkpt><trkpt lat="36.842421191085776" lon="-108.10890916098461"><ele>1802.2</ele><time>2026-04-25T16:30:38.001Z</time></trkpt><trkpt lat="36.84245583256256" lon="-108.10879734265556"><ele>1800.6</ele><time>2026-04-25T16:30:39.001Z</time></trkpt><trkpt lat="36.84249157636558" lon="-108.10868586988164"><ele>1799.0</ele><time>2026-04-25T16:30:40.001Z</time></trkpt><trkpt lat="36.84252738916778" lon="-108.1085824881138"><ele>1799.0</ele><time>2026-04-25T16:30:41.001Z</time></trkpt><trkpt lat="36.84255438162116" lon="-108.10847155521589"><ele>1799.0</ele><time>2026-04-25T16:30:42.001Z</time></trkpt><trkpt lat="36.84257507840931" lon="-108.10836693026343"><ele>1799.0</ele><time>2026-04-25T16:30:43.001Z</time></trkpt><trkpt lat="36.842491486494126" lon="-108.10827866832354"><ele>1799.0</ele><time>2026-04-25T16:30:44.001Z</time></trkpt><trkpt lat="36.84242141963056" lon="-108.10820720113392"><ele>1799.0</ele><time>2026-04-25T16:30:45.001Z</time></trkpt><trkpt lat="36.84231179369019" lon="-108.10814333186218"><ele>1797.4</ele><time>2026-04-25T16:30:46.001Z</time></trkpt><trkpt lat="36.84218953672861" lon="-108.10807838415808"><ele>1795.8000000000002</ele><time>2026-04-25T16:30:47.001Z</time></trkpt><trkpt lat="36.84210490931246" lon="-108.10801997844676"><ele>1794.1999999999998</ele><time>2026-04-25T16:30:48.001Z</time></trkpt><trkpt lat="36.84203118023846" lon="-108.10796225376139"><ele>1792.6</ele><time>2026-04-25T16:30:49.001Z</time></trkpt><trkpt lat="36.84194453464658" lon="-108.10786927126244"><ele>1791.0</ele><time>2026-04-25T16:30:50.001Z</time></trkpt><trkpt lat="36.84186489590714" lon="-108.10781781033594"><ele>1791.0</ele><time>2026-04-25T16:30:51.001Z</time></trkpt><trkpt lat="36.84180865644032" lon="-108.10772101538386"><ele>1791.0</ele><time>2026-04-25T16:30:53.001Z</time></trkpt><trkpt lat="36.84180855764678" lon="-108.10758533745869"><ele>1791.0</ele><time>2026-04-25T16:30:54.001Z</time></trkpt><trkpt lat="36.8417910308435" lon="-108.10743924831966"><ele>1791.0</ele><time>2026-04-25T16:30:55.001Z</time></trkpt><trkpt lat="36.84176754769308" lon="-108.1073050768452"><ele>1791.0</ele><time>2026-04-25T16:30:56.001Z</time></trkpt><trkpt lat="36.841749322459314" lon="-108.10722132757611"><ele>1790.25</ele><time>2026-04-25T16:30:57.001Z</time></trkpt><trkpt lat="36.84184489396992" lon="-108.10706382380481"><ele>1789.5</ele><time>2026-04-25T16:31:00.001Z</time></trkpt><trkpt lat="36.84191092273785" lon="-108.10692028177355"><ele>1788.75</ele><time>2026-04-25T16:31:01.001Z</time></trkpt><trkpt lat="36.84198112158941" lon="-108.10679801890659"><ele>1788.0</ele><time>2026-04-25T16:31:02.001Z</time></trkpt><trkpt lat="36.842088888990844" lon="-108.10669117016067"><ele>1787.5</ele><time>2026-04-25T16:31:03.001Z</time></trkpt><trkpt lat="36.84221943684436" lon="-108.10657353591695"><ele>1787.0</ele><time>2026-04-25T16:31:04.001Z</time></trkpt><trkpt lat="36.842307243082985" lon="-108.10645768599572"><ele>1786.5</ele><time>2026-04-25T16:31:05.001Z</time></trkpt><trkpt lat="36.84234817281715" lon="-108.10632563748504"><ele>1786.0</ele><time>2026-04-25T16:31:06.001Z</time></trkpt><trkpt lat="36.84237705561777" lon="-108.1061763838984"><ele>1786.0</ele><time>2026-04-25T16:31:07.001Z</time></trkpt><trkpt lat="36.84240615219162" lon="-108.10606293016527"><ele>1786.0</ele><time>2026-04-25T16:31:08.001Z</time></trkpt><trkpt lat="36.8423876944475" lon="-108.10591794265318"><ele>1786.0</ele><time>2026-04-25T16:31:10.001Z</time></trkpt><trkpt lat="36.84232522276045" lon="-108.10580136311279"><ele>1786.0</ele><time>2026-04-25T16:31:11.001Z</time></trkpt><trkpt lat="36.842231034673055" lon="-108.10567159964796"><ele>1785.8</ele><time>2026-04-25T16:31:12.001Z</time></trkpt><trkpt lat="36.842126825537434" lon="-108.10555718453274"><ele>1785.6</ele><time>2026-04-25T16:31:13.001Z</time></trkpt><trkpt lat="36.84204539133851" lon="-108.1054699657401"><ele>1785.4</ele><time>2026-04-25T16:31:14.001Z</time></trkpt><trkpt lat="36.841996104526665" lon="-108.10540837850773"><ele>1785.2</ele><time>2026-04-25T16:31:15.001Z</time></trkpt><trkpt lat="36.84193064746222" lon="-108.10535012873297"><ele>1785.0</ele><time>2026-04-25T16:31:17.001Z</time></trkpt><trkpt lat="36.84190125256229" lon="-108.10524977781562"><ele>1785.0</ele><time>2026-04-25T16:31:27Z</time></trkpt><trkpt lat="36.8419356277946" lon="-108.10516699195884"><ele>1785.0</ele><time>2026-04-25T16:31:29Z</time></trkpt><trkpt lat="36.84200884336418" lon="-108.10513148040143"><ele>1785.0</ele><time>2026-04-25T16:31:31Z</time></trkpt><trkpt lat="36.84209107863757" lon="-108.10509292243164"><ele>1785.0</ele><time>2026-04-25T16:31:32Z</time></trkpt><trkpt lat="36.842189124343925" lon="-108.10504678985338"><ele>1785.0</ele><time>2026-04-25T16:31:33Z</time></trkpt><trkpt lat="36.842301157326084" lon="-108.10499357056216"><ele>1785.0</ele><time>2026-04-25T16:31:34Z</time></trkpt><trkpt lat="36.84241136134669" lon="-108.10495091666887"><ele>1785.0</ele><time>2026-04-25T16:31:35Z</time></trkpt><trkpt lat="36.842489207895326" lon="-108.10492109214884"><ele>1785.0</ele><time>2026-04-25T16:31:36Z</time></trkpt><trkpt lat="36.84254290507704" lon="-108.10486103001237"><ele>1785.0</ele><time>2026-04-25T16:31:37Z</time></trkpt><trkpt lat="36.842586685082225" lon="-108.10479276897337"><ele>1785.0</ele><time>2026-04-25T16:31:38Z</time></trkpt><trkpt lat="36.842680019207585" lon="-108.10477022817228"><ele>1785.0</ele><time>2026-04-25T16:31:40Z</time></trkpt><trkpt lat="36.84274858111721" lon="-108.10464879929071"><ele>1785.5</ele><time>2026-04-25T16:31:42Z</time></trkpt><trkpt lat="36.842768360699786" lon="-108.10449685265671"><ele>1786.0</ele><time>2026-04-25T16:31:43Z</time></trkpt><trkpt lat="36.84278427538009" lon="-108.10433275889329"><ele>1786.5</ele><time>2026-04-25T16:31:44Z</time></trkpt><trkpt lat="36.842819275654556" lon="-108.10418527237007"><ele>1787.0</ele><time>2026-04-25T16:31:45Z</time></trkpt><trkpt lat="36.84289453764474" lon="-108.10400169202612"><ele>1787.0</ele><time>2026-04-25T16:31:46Z</time></trkpt><trkpt lat="36.84296615796373" lon="-108.10378478320136"><ele>1787.0</ele><time>2026-04-25T16:31:47Z</time></trkpt><trkpt lat="36.84303709500133" lon="-108.10355123955101"><ele>1787.0</ele><time>2026-04-25T16:31:48Z</time></trkpt><trkpt lat="36.843107027446486" lon="-108.1033254092969"><ele>1788.3333333333333</ele><time>2026-04-25T16:31:49Z</time></trkpt><trkpt lat="36.84317588891512" lon="-108.10308962139635"><ele>1789.6666666666665</ele><time>2026-04-25T16:31:50Z</time></trkpt><trkpt lat="36.84324150706847" lon="-108.10287007590621"><ele>1791.0</ele><time>2026-04-25T16:31:51Z</time></trkpt><trkpt lat="36.8432926170108" lon="-108.10268233826682"><ele>1791.0</ele><time>2026-04-25T16:31:52Z</time></trkpt><trkpt lat="36.84333539495754" lon="-108.10252744074997"><ele>1791.0</ele><time>2026-04-25T16:31:53Z</time></trkpt><trkpt lat="36.84336957358863" lon="-108.10242047025305"><ele>1791.0</ele><time>2026-04-25T16:31:54Z</time></trkpt><trkpt lat="36.843405523974795" lon="-108.10233465256813"><ele>1791.0</ele><time>2026-04-25T16:31:55.001Z</time></trkpt><trkpt lat="36.84343355992207" lon="-108.10225256230079"><ele>1791.0</ele><time>2026-04-25T16:31:56.001Z</time></trkpt><trkpt lat="36.843472198264436" lon="-108.10212069880603"><ele>1792.1999999999998</ele><time>2026-04-25T16:31:57.001Z</time></trkpt><trkpt lat="36.843507193823214" lon="-108.10199315643723"><ele>1793.3999999999999</ele><time>2026-04-25T16:31:58.001Z</time></trkpt><trkpt lat="36.84350653054719" lon="-108.10188279260946"><ele>1794.6</ele><time>2026-04-25T16:31:59.001Z</time></trkpt><trkpt lat="36.84348840508235" lon="-108.10175293481944"><ele>1795.8</ele><time>2026-04-25T16:32:00.001Z</time></trkpt><trkpt lat="36.843475604841316" lon="-108.10162991648178"><ele>1797.0</ele><time>2026-04-25T16:32:01.001Z</time></trkpt><trkpt lat="36.84350148079424" lon="-108.10151424510045"><ele>1798.0</ele><time>2026-04-25T16:32:02.001Z</time></trkpt><trkpt lat="36.84353501030949" lon="-108.10143966802119"><ele>1799.0</ele><time>2026-04-25T16:32:03.001Z</time></trkpt><trkpt lat="36.84353267724139" lon="-108.10133233878145"><ele>1800.0</ele><time>2026-04-25T16:32:04.001Z</time></trkpt><trkpt lat="36.84347997127283" lon="-108.10122785921573"><ele>1801.0</ele><time>2026-04-25T16:32:05.001Z</time></trkpt><trkpt lat="36.843466907149725" lon="-108.10111659826822"><ele>1802.0</ele><time>2026-04-25T16:32:06.001Z</time></trkpt><trkpt lat="36.84347848358303" lon="-108.10101293880611"><ele>1803.0</ele><time>2026-04-25T16:32:07.001Z</time></trkpt><trkpt lat="36.84350835200113" lon="-108.10092424562009"><ele>1803.0</ele><time>2026-04-25T16:32:08.001Z</time></trkpt><trkpt lat="36.84356165545844" lon="-108.1008589926437"><ele>1803.0</ele><time>2026-04-25T16:32:09.001Z</time></trkpt><trkpt lat="36.843591535214195" lon="-108.10077588038136"><ele>1803.0</ele><time>2026-04-25T16:32:10.001Z</time></trkpt><trkpt lat="36.843588962957575" lon="-108.10068587109544"><ele>1803.0</ele><time>2026-04-25T16:32:11.001Z</time></trkpt><trkpt lat="36.84359812659476" lon="-108.10059675596064"><ele>1803.0</ele><time>2026-04-25T16:32:12.001Z</time></trkpt><trkpt lat="36.843674257676206" lon="-108.10055928172763"><ele>1803.0</ele><time>2026-04-25T16:32:13.001Z</time></trkpt><trkpt lat="36.84377481944598" lon="-108.10047823828126"><ele>1803.8000000000002</ele><time>2026-04-25T16:32:14.001Z</time></trkpt><trkpt lat="36.843868599916085" lon="-108.1003922704493"><ele>1804.6000000000001</ele><time>2026-04-25T16:32:15.001Z</time></trkpt><trkpt lat="36.84395972894008" lon="-108.1003236505464"><ele>1805.3999999999999</ele><time>2026-04-25T16:32:16.001Z</time></trkpt><trkpt lat="36.84400690127309" lon="-108.10027070863221"><ele>1806.1999999999998</ele><time>2026-04-25T16:32:17.001Z</time></trkpt><trkpt lat="36.84409702076835" lon="-108.10014858456012"><ele>1807.0</ele><time>2026-04-25T16:32:19.001Z</time></trkpt><trkpt lat="36.84417444388468" lon="-108.10011681594293"><ele>1807.0000000000002</ele><time>2026-04-25T16:32:20.001Z</time></trkpt><trkpt lat="36.84424649070346" lon="-108.10010134261445"><ele>1807.0</ele><time>2026-04-25T16:32:21.001Z</time></trkpt><trkpt lat="36.844321103687605" lon="-108.10004834574171"><ele>1807.0000000000002</ele><time>2026-04-25T16:32:22.001Z</time></trkpt><trkpt lat="36.844391714654186" lon="-108.09998250507981"><ele>1807.0000000000002</ele><time>2026-04-25T16:32:23.001Z</time></trkpt><trkpt lat="36.84444919785396" lon="-108.09993367051146"><ele>1807.0</ele><time>2026-04-25T16:32:24.001Z</time></trkpt><trkpt lat="36.844513751735704" lon="-108.09993137193308"><ele>1807.0000000000002</ele><time>2026-04-25T16:32:25.001Z</time></trkpt><trkpt lat="36.84458114352065" lon="-108.09994082798262"><ele>1807.0000000000002</ele><time>2026-04-25T16:32:26.001Z</time></trkpt><trkpt lat="36.84464275002516" lon="-108.1000502478498"><ele>1806.8</ele><time>2026-04-25T16:32:28.001Z</time></trkpt><trkpt lat="36.844739191585575" lon="-108.10016544048328"><ele>1806.6</ele><time>2026-04-25T16:32:29.001Z</time></trkpt><trkpt lat="36.844840781867745" lon="-108.10023965552145"><ele>1806.3999999999999</ele><time>2026-04-25T16:32:30.001Z</time></trkpt><trkpt lat="36.84491049084585" lon="-108.10028574773209"><ele>1806.1999999999998</ele><time>2026-04-25T16:32:31.001Z</time></trkpt><trkpt lat="36.84500831819865" lon="-108.10029794250316"><ele>1806.0</ele><time>2026-04-25T16:32:33.001Z</time></trkpt><trkpt lat="36.84509570471251" lon="-108.10023908736079"><ele>1805.0</ele><time>2026-04-25T16:32:34.001Z</time></trkpt><trkpt lat="36.84518417263026" lon="-108.1002007842812"><ele>1804.0</ele><time>2026-04-25T16:32:35.001Z</time></trkpt><trkpt lat="36.845266729725644" lon="-108.10019810485525"><ele>1803.0</ele><time>2026-04-25T16:32:36.001Z</time></trkpt><trkpt lat="36.84539295862665" lon="-108.10016213519896"><ele>1802.0</ele><time>2026-04-25T16:32:38.001Z</time></trkpt><trkpt lat="36.84546840529598" lon="-108.10010809774295"><ele>1801.0</ele><time>2026-04-25T16:32:39.001Z</time></trkpt><trkpt lat="36.84555501279381" lon="-108.10004978075796"><ele>1801.0</ele><time>2026-04-25T16:32:40.001Z</time></trkpt><trkpt lat="36.84564602581302" lon="-108.09999172620648"><ele>1801.0</ele><time>2026-04-25T16:32:41.001Z</time></trkpt><trkpt lat="36.84573958100263" lon="-108.09989477200777"><ele>1801.0</ele><time>2026-04-25T16:32:42.001Z</time></trkpt><trkpt lat="36.84580428264329" lon="-108.09984079000427"><ele>1801.0</ele><time>2026-04-25T16:32:43.001Z</time></trkpt><trkpt lat="36.845895708726786" lon="-108.099926214482"><ele>1801.0</ele><time>2026-04-25T16:32:45.001Z</time></trkpt><trkpt lat="36.84597693646853" lon="-108.10004636274853"><ele>1801.25</ele><time>2026-04-25T16:32:46.001Z</time></trkpt><trkpt lat="36.84607342830714" lon="-108.1001090883915"><ele>1801.5</ele><time>2026-04-25T16:32:47.001Z</time></trkpt><trkpt lat="36.84623242154588" lon="-108.10010762827363"><ele>1801.75</ele><time>2026-04-25T16:32:48.001Z</time></trkpt><trkpt lat="36.84637586273134" lon="-108.10013656547713"><ele>1802.0</ele><time>2026-04-25T16:32:49.001Z</time></trkpt><trkpt lat="36.846490579255324" lon="-108.10018504840421"><ele>1801.9999999999998</ele><time>2026-04-25T16:32:50.001Z</time></trkpt><trkpt lat="36.8466049263114" lon="-108.10019607558984"><ele>1802.0</ele><time>2026-04-25T16:32:51.001Z</time></trkpt><trkpt lat="36.846703010751426" lon="-108.10018808492755"><ele>1802.0</ele><time>2026-04-25T16:32:52.001Z</time></trkpt><trkpt lat="36.84677843708565" lon="-108.10016600660069"><ele>1802.0</ele><time>2026-04-25T16:32:53.001Z</time></trkpt><trkpt lat="36.84683632141272" lon="-108.10009201984052"><ele>1801.9999999999998</ele><time>2026-04-25T16:32:54.001Z</time></trkpt><trkpt lat="36.84685207813842" lon="-108.10000573528625"><ele>1802.0</ele><time>2026-04-25T16:32:55.001Z</time></trkpt><trkpt lat="36.84678631981984" lon="-108.10005256942989"><ele>1802.25</ele><time>2026-04-25T16:32:57.001Z</time></trkpt><trkpt lat="36.84684950430182" lon="-108.09998051121654"><ele>1802.5</ele><time>2026-04-25T16:33:09.001Z</time></trkpt><trkpt lat="36.84690920455123" lon="-108.09985455802747"><ele>1802.75</ele><time>2026-04-25T16:33:11.001Z</time></trkpt><trkpt lat="36.847029913794806" lon="-108.0996525410799"><ele>1803.0</ele><time>2026-04-25T16:33:13.001Z</time></trkpt><trkpt lat="36.847110839166064" lon="-108.09954473955574"><ele>1803.0</ele><time>2026-04-25T16:33:14.001Z</time></trkpt><trkpt lat="36.84721094771143" lon="-108.09945214841481"><ele>1803.0</ele><time>2026-04-25T16:33:15.001Z</time></trkpt><trkpt lat="36.84733889811128" lon="-108.09933961083746"><ele>1803.0</ele><time>2026-04-25T16:33:16.001Z</time></trkpt><trkpt lat="36.84746701211738" lon="-108.0992103196297"><ele>1803.0</ele><time>2026-04-25T16:33:17.001Z</time></trkpt><trkpt lat="36.84755803671395" lon="-108.09908600073442"><ele>1803.5</ele><time>2026-04-25T16:33:18.001Z</time></trkpt><trkpt lat="36.84761317686369" lon="-108.0989351203696"><ele>1804.0</ele><time>2026-04-25T16:33:19.001Z</time></trkpt><trkpt lat="36.84767600218025" lon="-108.0987869362399"><ele>1804.5</ele><time>2026-04-25T16:33:20.001Z</time></trkpt><trkpt lat="36.84775324065592" lon="-108.09865514814469"><ele>1805.0</ele><time>2026-04-25T16:33:21.001Z</time></trkpt><trkpt lat="36.847843555136386" lon="-108.09854190584842"><ele>1805.4</ele><time>2026-04-25T16:33:22.001Z</time></trkpt><trkpt lat="36.84793724510988" lon="-108.09843502653825"><ele>1805.8</ele><time>2026-04-25T16:33:23.001Z</time></trkpt><trkpt lat="36.84802957842675" lon="-108.09834105058285"><ele>1806.1999999999998</ele><time>2026-04-25T16:33:24.001Z</time></trkpt><trkpt lat="36.848114619818745" lon="-108.09828023899547"><ele>1806.6</ele><time>2026-04-25T16:33:25.001Z</time></trkpt><trkpt lat="36.84819996016665" lon="-108.09824299462727"><ele>1807.0</ele><time>2026-04-25T16:33:26.001Z</time></trkpt><trkpt lat="36.84828115629806" lon="-108.09820382112272"><ele>1807.6</ele><time>2026-04-25T16:33:27.001Z</time></trkpt><trkpt lat="36.84835915209631" lon="-108.0981618132588"><ele>1808.1999999999998</ele><time>2026-04-25T16:33:28.001Z</time></trkpt><trkpt lat="36.848454622185244" lon="-108.0981286457902"><ele>1808.8</ele><time>2026-04-25T16:33:29.001Z</time></trkpt><trkpt lat="36.84856290927641" lon="-108.09808373282299"><ele>1809.4</ele><time>2026-04-25T16:33:30.001Z</time></trkpt><trkpt lat="36.84866536108565" lon="-108.09804645408408"><ele>1810.0</ele><time>2026-04-25T16:33:31.001Z</time></trkpt><trkpt lat="36.848752685462884" lon="-108.09804180206675"><ele>1810.6</ele><time>2026-04-25T16:33:32.002Z</time></trkpt><trkpt lat="36.84883196893858" lon="-108.0980932750656"><ele>1811.2</ele><time>2026-04-25T16:33:33Z</time></trkpt><trkpt lat="36.848968711137154" lon="-108.09805540586822"><ele>1811.8000000000002</ele><time>2026-04-25T16:33:34Z</time></trkpt><trkpt lat="36.84903194407195" lon="-108.09802210857062"><ele>1812.4</ele><time>2026-04-25T16:33:35Z</time></trkpt><trkpt lat="36.849060158010744" lon="-108.09794455469593"><ele>1813.0</ele><time>2026-04-25T16:33:37Z</time></trkpt><trkpt lat="36.849072102330325" lon="-108.09781845300358"><ele>1813.0</ele><time>2026-04-25T16:33:38Z</time></trkpt><trkpt lat="36.84908673315631" lon="-108.09769122364204"><ele>1813.0000000000002</ele><time>2026-04-25T16:33:39Z</time></trkpt><trkpt lat="36.849150534192944" lon="-108.09762449784208"><ele>1813.0000000000002</ele><time>2026-04-25T16:33:41Z</time></trkpt><trkpt lat="36.84929192533384" lon="-108.09764505978178"><ele>1813.0</ele><time>2026-04-25T16:33:43Z</time></trkpt><trkpt lat="36.84939014283561" lon="-108.09763219039289"><ele>1813.0</ele><time>2026-04-25T16:33:44Z</time></trkpt><trkpt lat="36.849491562181" lon="-108.097610772274"><ele>1813.0</ele><time>2026-04-25T16:33:45Z</time></trkpt><trkpt lat="36.849613863231625" lon="-108.0975603063718"><ele>1813.0</ele><time>2026-04-25T16:33:46Z</time></trkpt><trkpt lat="36.84974817479665" lon="-108.09748489742265"><ele>1813.0</ele><time>2026-04-25T16:33:47Z</time></trkpt><trkpt lat="36.84985341801021" lon="-108.09745463776034"><ele>1813.0</ele><time>2026-04-25T16:33:48Z</time></trkpt><trkpt lat="36.849945234339245" lon="-108.09740732837986"><ele>1814.4</ele><time>2026-04-25T16:33:49Z</time></trkpt><trkpt lat="36.85002357731402" lon="-108.09734443363213"><ele>1815.8000000000002</ele><time>2026-04-25T16:33:50Z</time></trkpt><trkpt lat="36.850091233193226" lon="-108.09724700993019"><ele>1817.2</ele><time>2026-04-25T16:33:51Z</time></trkpt><trkpt lat="36.850083629138155" lon="-108.09712347542656"><ele>1818.6</ele><time>2026-04-25T16:33:52Z</time></trkpt><trkpt lat="36.85008578155709" lon="-108.09698880676855"><ele>1820.0</ele><time>2026-04-25T16:33:53Z</time></trkpt><trkpt lat="36.850119353229246" lon="-108.09686034712549"><ele>1820.4</ele><time>2026-04-25T16:33:54Z</time></trkpt><trkpt lat="36.85018217043992" lon="-108.09672376698545"><ele>1820.8</ele><time>2026-04-25T16:33:55Z</time></trkpt><trkpt lat="36.850221640478466" lon="-108.09655902490496"><ele>1821.1999999999998</ele><time>2026-04-25T16:33:56Z</time></trkpt><trkpt lat="36.85022980285076" lon="-108.09643307980517"><ele>1821.6</ele><time>2026-04-25T16:33:57Z</time></trkpt><trkpt lat="36.85027748115628" lon="-108.09635200139654"><ele>1822.0</ele><time>2026-04-25T16:33:58Z</time></trkpt><trkpt lat="36.850347116913674" lon="-108.09629232342935"><ele>1822.3333333333335</ele><time>2026-04-25T16:33:59Z</time></trkpt><trkpt lat="36.85041928351189" lon="-108.0962414179648"><ele>1822.6666666666667</ele><time>2026-04-25T16:34:00Z</time></trkpt><trkpt lat="36.85047400101311" lon="-108.0961768427691"><ele>1823.0</ele><time>2026-04-25T16:34:01Z</time></trkpt><trkpt lat="36.850492495731615" lon="-108.09608463917941"><ele>1823.3333333333335</ele><time>2026-04-25T16:34:02.001Z</time></trkpt><trkpt lat="36.85050355088309" lon="-108.09595321684294"><ele>1823.6666666666667</ele><time>2026-04-25T16:34:03.001Z</time></trkpt><trkpt lat="36.85054503649194" lon="-108.0958734669061"><ele>1824.0</ele><time>2026-04-25T16:34:04.001Z</time></trkpt><trkpt lat="36.85067469389371" lon="-108.0958599186887"><ele>1824.0</ele><time>2026-04-25T16:34:06.001Z</time></trkpt><trkpt lat="36.85072672812062" lon="-108.09580415444178"><ele>1824.0</ele><time>2026-04-25T16:34:07.001Z</time></trkpt><trkpt lat="36.85076942471007" lon="-108.09572922775996"><ele>1824.0</ele><time>2026-04-25T16:34:08.001Z</time></trkpt><trkpt lat="36.85080161680223" lon="-108.09563975178223"><ele>1824.0</ele><time>2026-04-25T16:34:09.001Z</time></trkpt><trkpt lat="36.8508354219083" lon="-108.09552715212445"><ele>1824.0</ele><time>2026-04-25T16:34:10.001Z</time></trkpt><trkpt lat="36.850861207222465" lon="-108.09541322915575"><ele>1824.0</ele><time>2026-04-25T16:34:11.001Z</time></trkpt><trkpt lat="36.85089291634769" lon="-108.0953055639173"><ele>1825.2</ele><time>2026-04-25T16:34:12.001Z</time></trkpt><trkpt lat="36.85092587784803" lon="-108.09518234968886"><ele>1826.4</ele><time>2026-04-25T16:34:13.001Z</time></trkpt><trkpt lat="36.85096245143866" lon="-108.09504401452283"><ele>1827.6</ele><time>2026-04-25T16:34:14.001Z</time></trkpt><trkpt lat="36.851006688334" lon="-108.09491214421892"><ele>1828.8</ele><time>2026-04-25T16:34:15.001Z</time></trkpt><trkpt lat="36.85105472159626" lon="-108.09484140950264"><ele>1830.0</ele><time>2026-04-25T16:34:16.001Z</time></trkpt><trkpt lat="36.851135663986206" lon="-108.0948628418767"><ele>1831.75</ele><time>2026-04-25T16:34:20.001Z</time></trkpt><trkpt lat="36.85119981777265" lon="-108.09485231574314"><ele>1833.5</ele><time>2026-04-25T16:34:21.001Z</time></trkpt><trkpt lat="36.85139608947312" lon="-108.09480862106618"><ele>1835.25</ele><time>2026-04-25T16:34:23.001Z</time></trkpt><trkpt lat="36.851499034377376" lon="-108.09477121204638"><ele>1837.0</ele><time>2026-04-25T16:34:24.001Z</time></trkpt><trkpt lat="36.85158255337479" lon="-108.09475446370831"><ele>1837.0</ele><time>2026-04-25T16:34:25.001Z</time></trkpt><trkpt lat="36.851643966191254" lon="-108.09473693385027"><ele>1836.9999999999998</ele><time>2026-04-25T16:34:26.001Z</time></trkpt><trkpt lat="36.85170341348828" lon="-108.09469184443527"><ele>1836.9999999999998</ele><time>2026-04-25T16:34:27.001Z</time></trkpt><trkpt lat="36.85177636249995" lon="-108.09461664255956"><ele>1837.0</ele><time>2026-04-25T16:34:28.001Z</time></trkpt><trkpt lat="36.8518831526918" lon="-108.0945261346857"><ele>1837.0</ele><time>2026-04-25T16:34:29.001Z</time></trkpt><trkpt lat="36.85199144877673" lon="-108.09447871938825"><ele>1837.5000000000002</ele><time>2026-04-25T16:34:30.001Z</time></trkpt><trkpt lat="36.852089531685124" lon="-108.0944498554215"><ele>1838.0</ele><time>2026-04-25T16:34:31.001Z</time></trkpt><trkpt lat="36.852163141460245" lon="-108.09443277199263"><ele>1838.5</ele><time>2026-04-25T16:34:32.001Z</time></trkpt><trkpt lat="36.852230563277296" lon="-108.09446700551119"><ele>1839.0</ele><time>2026-04-25T16:34:34.001Z</time></trkpt><trkpt lat="36.852244784733216" lon="-108.09455950580143"><ele>1839.5000000000002</ele><time>2026-04-25T16:34:35.001Z</time></trkpt><trkpt lat="36.8522438088311" lon="-108.09467037798407"><ele>1840.0</ele><time>2026-04-25T16:34:36.001Z</time></trkpt><trkpt lat="36.85223140835783" lon="-108.09476152780896"><ele>1840.0</ele><time>2026-04-25T16:34:37.001Z</time></trkpt><trkpt lat="36.85225864615791" lon="-108.09484096909003"><ele>1840.0</ele><time>2026-04-25T16:34:38.001Z</time></trkpt><trkpt lat="36.852361800696286" lon="-108.09495018192804"><ele>1840.0</ele><time>2026-04-25T16:34:40.001Z</time></trkpt><trkpt lat="36.85244064704877" lon="-108.09497721786794"><ele>1840.0</ele><time>2026-04-25T16:34:41.001Z</time></trkpt><trkpt lat="36.85252053397752" lon="-108.09500641376214"><ele>1840.0</ele><time>2026-04-25T16:34:42.001Z</time></trkpt><trkpt lat="36.85260172604749" lon="-108.09507850704509"><ele>1841.2</ele><time>2026-04-25T16:34:43.001Z</time></trkpt><trkpt lat="36.85266531504892" lon="-108.09518786172637"><ele>1842.4</ele><time>2026-04-25T16:34:44.001Z</time></trkpt><trkpt lat="36.85273381792549" lon="-108.09525091256693"><ele>1843.6</ele><time>2026-04-25T16:34:45.001Z</time></trkpt><trkpt lat="36.85283039592026" lon="-108.09529585303"><ele>1844.8</ele><time>2026-04-25T16:34:46.001Z</time></trkpt><trkpt lat="36.85290528788219" lon="-108.09534350842497"><ele>1846.0</ele><time>2026-04-25T16:34:47.001Z</time></trkpt><trkpt lat="36.85296995329369" lon="-108.09548930058993"><ele>1846.0000000000002</ele><time>2026-04-25T16:34:49.001Z</time></trkpt><trkpt lat="36.852997934373754" lon="-108.09560467745351"><ele>1846.0</ele><time>2026-04-25T16:34:50.001Z</time></trkpt><trkpt lat="36.853052969451596" lon="-108.09567618692839"><ele>1846.0</ele><time>2026-04-25T16:34:51.001Z</time></trkpt><trkpt lat="36.8531052278772" lon="-108.09561896164276"><ele>1846.0</ele><time>2026-04-25T16:34:52.001Z</time></trkpt><trkpt lat="36.85315460128698" lon="-108.09555102451888"><ele>1846.0000000000002</ele><time>2026-04-25T16:34:53.001Z</time></trkpt><trkpt lat="36.85323818950068" lon="-108.09550502703681"><ele>1846.0</ele><time>2026-04-25T16:34:54.001Z</time></trkpt><trkpt lat="36.85329355256484" lon="-108.09544148142173"><ele>1846.0000000000002</ele><time>2026-04-25T16:34:55.001Z</time></trkpt><trkpt lat="36.853337564895064" lon="-108.09537487517976"><ele>1846.0</ele><time>2026-04-25T16:34:56.001Z</time></trkpt><trkpt lat="36.85341286534514" lon="-108.09534447688996"><ele>1846.0</ele><time>2026-04-25T16:34:57.001Z</time></trkpt><trkpt lat="36.85352429431012" lon="-108.09527188798813"><ele>1846.0</ele><time>2026-04-25T16:34:59.001Z</time></trkpt><trkpt lat="36.85354334882115" lon="-108.09517515464877"><ele>1846.0000000000002</ele><time>2026-04-25T16:35:00.001Z</time></trkpt><trkpt lat="36.853615703131325" lon="-108.09512975367484"><ele>1846.0</ele><time>2026-04-25T16:35:01.001Z</time></trkpt><trkpt lat="36.853727914166676" lon="-108.09508351956185"><ele>1847.1666666666667</ele><time>2026-04-25T16:35:02.001Z</time></trkpt><trkpt lat="36.85380256968626" lon="-108.09502237178214"><ele>1848.3333333333335</ele><time>2026-04-25T16:35:03.001Z</time></trkpt><trkpt lat="36.85387197650583" lon="-108.09500499140862"><ele>1849.5</ele><time>2026-04-25T16:35:04.001Z</time></trkpt><trkpt lat="36.853949397252265" lon="-108.09499910233828"><ele>1850.6666666666665</ele><time>2026-04-25T16:35:05.001Z</time></trkpt><trkpt lat="36.85404122889201" lon="-108.09496312194838"><ele>1851.8333333333333</ele><time>2026-04-25T16:35:06.001Z</time></trkpt><trkpt lat="36.854115832814216" lon="-108.09488852892696"><ele>1853.0</ele><time>2026-04-25T16:35:07.001Z</time></trkpt><trkpt lat="36.854190021019654" lon="-108.09483900513028"><ele>1853.3333333333333</ele><time>2026-04-25T16:35:08.001Z</time></trkpt><trkpt lat="36.8542539784606" lon="-108.09481800664851"><ele>1853.6666666666665</ele><time>2026-04-25T16:35:09.001Z</time></trkpt><trkpt lat="36.85434665187268" lon="-108.09481120381915"><ele>1854.0</ele><time>2026-04-25T16:35:10.001Z</time></trkpt><trkpt lat="36.8544255107392" lon="-108.09481971735417"><ele>1854.3333333333335</ele><time>2026-04-25T16:35:11.001Z</time></trkpt><trkpt lat="36.85455846051619" lon="-108.094855056666"><ele>1854.6666666666667</ele><time>2026-04-25T16:35:13.001Z</time></trkpt><trkpt lat="36.85460238430972" lon="-108.094925597983"><ele>1855.0</ele><time>2026-04-25T16:35:14.001Z</time></trkpt><trkpt lat="36.854613798945756" lon="-108.09501206527938"><ele>1855.5000000000002</ele><time>2026-04-25T16:35:15.001Z</time></trkpt><trkpt lat="36.854710120197694" lon="-108.09501438878452"><ele>1856.0</ele><time>2026-04-25T16:35:17.001Z</time></trkpt><trkpt lat="36.85479218363651" lon="-108.0949797158248"><ele>1856.5</ele><time>2026-04-25T16:35:18.001Z</time></trkpt><trkpt lat="36.8548759561743" lon="-108.09497449574762"><ele>1857.0</ele><time>2026-04-25T16:35:19.001Z</time></trkpt><trkpt lat="36.8549426239926" lon="-108.09497881862285"><ele>1857.5000000000002</ele><time>2026-04-25T16:35:20.001Z</time></trkpt><trkpt lat="36.85500954042509" lon="-108.09498048960155"><ele>1858.0</ele><time>2026-04-25T16:35:21.001Z</time></trkpt><trkpt lat="36.855107740970624" lon="-108.09491759797493"><ele>1859.3333333333335</ele><time>2026-04-25T16:35:23.001Z</time></trkpt><trkpt lat="36.85519945651064" lon="-108.0948579002138"><ele>1860.6666666666667</ele><time>2026-04-25T16:35:24.001Z</time></trkpt><trkpt lat="36.855270260946334" lon="-108.09487029498597"><ele>1862.0</ele><time>2026-04-25T16:35:25.001Z</time></trkpt><trkpt lat="36.85533093949742" lon="-108.0949610941325"><ele>1863.3333333333335</ele><time>2026-04-25T16:35:27.001Z</time></trkpt><trkpt lat="36.855374698642485" lon="-108.09502764820172"><ele>1864.6666666666667</ele><time>2026-04-25T16:35:29.001Z</time></trkpt><trkpt lat="36.85544938802428" lon="-108.09506194038488"><ele>1866.0</ele><time>2026-04-25T16:35:31.001Z</time></trkpt><trkpt lat="36.855564639967916" lon="-108.0951049384451"><ele>1866.1666666666667</ele><time>2026-04-25T16:35:32.001Z</time></trkpt><trkpt lat="36.855635356997276" lon="-108.0951424177405"><ele>1866.3333333333335</ele><time>2026-04-25T16:35:33.001Z</time></trkpt><trkpt lat="36.855719688718665" lon="-108.0951979201265"><ele>1866.5</ele><time>2026-04-25T16:35:34.001Z</time></trkpt><trkpt lat="36.85581164459235" lon="-108.09525551538732"><ele>1866.6666666666667</ele><time>2026-04-25T16:35:35.001Z</time></trkpt><trkpt lat="36.855874979923776" lon="-108.09531658627428"><ele>1866.8333333333335</ele><time>2026-04-25T16:35:36.001Z</time></trkpt><trkpt lat="36.855930615792936" lon="-108.09538330851144"><ele>1867.0</ele><time>2026-04-25T16:35:37.001Z</time></trkpt><trkpt lat="36.855991579592974" lon="-108.09545182105182"><ele>1868.1666666666667</ele><time>2026-04-25T16:35:38.002Z</time></trkpt><trkpt lat="36.856047915659346" lon="-108.0955239308617"><ele>1869.3333333333335</ele><time>2026-04-25T16:35:39Z</time></trkpt><trkpt lat="36.85610141954033" lon="-108.09559071805893"><ele>1870.5</ele><time>2026-04-25T16:35:40Z</time></trkpt><trkpt lat="36.856157748283934" lon="-108.09564358309329"><ele>1871.6666666666665</ele><time>2026-04-25T16:35:41Z</time></trkpt><trkpt lat="36.856219853373986" lon="-108.09570082492283"><ele>1872.8333333333333</ele><time>2026-04-25T16:35:42Z</time></trkpt><trkpt lat="36.85626928066908" lon="-108.09576886583397"><ele>1874.0</ele><time>2026-04-25T16:35:43Z</time></trkpt><trkpt lat="36.85629897922168" lon="-108.09585331227073"><ele>1874.3333333333333</ele><time>2026-04-25T16:35:44Z</time></trkpt><trkpt lat="36.85632060252561" lon="-108.09594345958924"><ele>1874.6666666666665</ele><time>2026-04-25T16:35:45Z</time></trkpt><trkpt lat="36.85633155330659" lon="-108.09602316332762"><ele>1875.0</ele><time>2026-04-25T16:35:46Z</time></trkpt><trkpt lat="36.85634124093933" lon="-108.09616436926001"><ele>1875.3333333333335</ele><time>2026-04-25T16:35:48Z</time></trkpt><trkpt lat="36.85640148303021" lon="-108.09624539536634"><ele>1875.6666666666667</ele><time>2026-04-25T16:35:50Z</time></trkpt><trkpt lat="36.85648524694462" lon="-108.09616174887891"><ele>1876.0</ele><time>2026-04-25T16:35:52Z</time></trkpt><trkpt lat="36.85659484417352" lon="-108.09614192819669"><ele>1876.0000000000002</ele><time>2026-04-25T16:37:24.001Z</time></trkpt><trkpt lat="36.856675038232865" lon="-108.09611111255998"><ele>1876.0</ele><time>2026-04-25T16:37:25.001Z</time></trkpt><trkpt lat="36.85675950662581" lon="-108.09608862640378"><ele>1876.0</ele><time>2026-04-25T16:37:26.001Z</time></trkpt><trkpt lat="36.856835375393565" lon="-108.09607226718029"><ele>1876.0</ele><time>2026-04-25T16:37:27.001Z</time></trkpt><trkpt lat="36.856925532013676" lon="-108.09605594216764"><ele>1876.0000000000002</ele><time>2026-04-25T16:37:28.001Z</time></trkpt><trkpt lat="36.857026261617584" lon="-108.09605912121535"><ele>1876.0</ele><time>2026-04-25T16:37:29.001Z</time></trkpt><trkpt lat="36.85708930641788" lon="-108.09606493264505"><ele>1876.8</ele><time>2026-04-25T16:37:30.001Z</time></trkpt><trkpt lat="36.85715166290234" lon="-108.09602626771354"><ele>1877.6</ele><time>2026-04-25T16:37:31.001Z</time></trkpt><trkpt lat="36.85723425018965" lon="-108.09600048774708"><ele>1878.4</ele><time>2026-04-25T16:37:32.001Z</time></trkpt><trkpt lat="36.857370498329026" lon="-108.09597768025395"><ele>1879.2</ele><time>2026-04-25T16:37:34.001Z</time></trkpt><trkpt lat="36.85745842303981" lon="-108.09596537950847"><ele>1880.0</ele><time>2026-04-25T16:37:35.001Z</time></trkpt><trkpt lat="36.857564898147984" lon="-108.09599618928605"><ele>1879.8333333333333</ele><time>2026-04-25T16:37:37.001Z</time></trkpt><trkpt lat="36.85765138105757" lon="-108.09598674936721"><ele>1879.6666666666665</ele><time>2026-04-25T16:37:38.001Z</time></trkpt><trkpt lat="36.857731836545874" lon="-108.09595911187445"><ele>1879.5</ele><time>2026-04-25T16:37:39.001Z</time></trkpt><trkpt lat="36.85781084468389" lon="-108.09591186301061"><ele>1879.3333333333335</ele><time>2026-04-25T16:37:40.001Z</time></trkpt><trkpt lat="36.857882793481615" lon="-108.09584543020034"><ele>1879.1666666666667</ele><time>2026-04-25T16:37:41.001Z</time></trkpt><trkpt lat="36.85793450025396" lon="-108.09578901369989"><ele>1879.0</ele><time>2026-04-25T16:37:42.001Z</time></trkpt><trkpt lat="36.85809094376105" lon="-108.09571811647228"><ele>1877.8000000000002</ele><time>2026-04-25T16:37:44.001Z</time></trkpt><trkpt lat="36.858194520951066" lon="-108.09569477999182"><ele>1876.6000000000001</ele><time>2026-04-25T16:37:45Z</time></trkpt><trkpt lat="36.858268601752506" lon="-108.09566201096422"><ele>1875.4</ele><time>2026-04-25T16:37:46Z</time></trkpt><trkpt lat="36.858320022597255" lon="-108.09561259203895"><ele>1874.2</ele><time>2026-04-25T16:37:47Z</time></trkpt><trkpt lat="36.85837629518169" lon="-108.09554938670578"><ele>1873.0</ele><time>2026-04-25T16:37:48Z</time></trkpt><trkpt lat="36.85846822830128" lon="-108.09543422275519"><ele>1872.6666666666667</ele><time>2026-04-25T16:37:50Z</time></trkpt><trkpt lat="36.85854212725027" lon="-108.09536144145095"><ele>1872.3333333333335</ele><time>2026-04-25T16:37:51Z</time></trkpt><trkpt lat="36.858610019011024" lon="-108.09531750860971"><ele>1872.0</ele><time>2026-04-25T16:37:52Z</time></trkpt><trkpt lat="36.85868199038059" lon="-108.09526417876629"><ele>1871.6666666666665</ele><time>2026-04-25T16:37:53Z</time></trkpt><trkpt lat="36.85875958333141" lon="-108.09520917462751"><ele>1871.3333333333333</ele><time>2026-04-25T16:37:54Z</time></trkpt><trkpt lat="36.85883602399327" lon="-108.09514553591146"><ele>1871.0</ele><time>2026-04-25T16:37:55Z</time></trkpt><trkpt lat="36.85890345860285" lon="-108.09507672418187"><ele>1870.9999999999998</ele><time>2026-04-25T16:37:56Z</time></trkpt><trkpt lat="36.858986617844906" lon="-108.09501732105896"><ele>1871.0</ele><time>2026-04-25T16:37:57Z</time></trkpt><trkpt lat="36.85905126100611" lon="-108.09497768920806"><ele>1871.0</ele><time>2026-04-25T16:37:58Z</time></trkpt><trkpt lat="36.85912126727898" lon="-108.09494090164472"><ele>1871.0</ele><time>2026-04-25T16:37:59Z</time></trkpt><trkpt lat="36.859211897626324" lon="-108.094909836805"><ele>1870.9999999999998</ele><time>2026-04-25T16:38:00Z</time></trkpt><trkpt lat="36.85929871300601" lon="-108.0948779231112"><ele>1871.0</ele><time>2026-04-25T16:38:01Z</time></trkpt><trkpt lat="36.85938274748868" lon="-108.09485636644776"><ele>1869.9999999999998</ele><time>2026-04-25T16:38:02Z</time></trkpt><trkpt lat="36.859462538925534" lon="-108.09485497914147"><ele>1869.0</ele><time>2026-04-25T16:38:03Z</time></trkpt><trkpt lat="36.859524988983466" lon="-108.09484325016388"><ele>1868.0</ele><time>2026-04-25T16:38:04Z</time></trkpt><trkpt lat="36.85959930904322" lon="-108.0948210104417"><ele>1867.0</ele><time>2026-04-25T16:38:05Z</time></trkpt><trkpt lat="36.85969182003828" lon="-108.09481429756421"><ele>1865.9999999999998</ele><time>2026-04-25T16:38:06Z</time></trkpt><trkpt lat="36.85979844400632" lon="-108.09482987589753"><ele>1865.0</ele><time>2026-04-25T16:38:08Z</time></trkpt><trkpt lat="36.85987609586012" lon="-108.09474422596736"><ele>1864.9999999999998</ele><time>2026-04-25T16:38:10Z</time></trkpt><trkpt lat="36.85994536476795" lon="-108.0946848955172"><ele>1865.0</ele><time>2026-04-25T16:38:11Z</time></trkpt><trkpt lat="36.86002113170193" lon="-108.09465430555275"><ele>1865.0</ele><time>2026-04-25T16:38:12Z</time></trkpt><trkpt lat="36.86009956544595" lon="-108.09466179075802"><ele>1865.0</ele><time>2026-04-25T16:38:13Z</time></trkpt><trkpt lat="36.860192220849584" lon="-108.0946844185472"><ele>1864.9999999999998</ele><time>2026-04-25T16:38:14Z</time></trkpt><trkpt lat="36.86027550615306" lon="-108.09469377611154"><ele>1865.0</ele><time>2026-04-25T16:38:15Z</time></trkpt><trkpt lat="36.86036743852263" lon="-108.09467040568703"><ele>1865.8333333333333</ele><time>2026-04-25T16:38:17Z</time></trkpt><trkpt lat="36.86044919602119" lon="-108.09471920351343"><ele>1866.6666666666665</ele><time>2026-04-25T16:38:19.001Z</time></trkpt><trkpt lat="36.86047633307974" lon="-108.09479095137792"><ele>1867.5</ele><time>2026-04-25T16:38:20.001Z</time></trkpt><trkpt lat="36.86051292220977" lon="-108.09485665685185"><ele>1868.3333333333335</ele><time>2026-04-25T16:38:21.001Z</time></trkpt><trkpt lat="36.860573815859965" lon="-108.09490887126032"><ele>1869.1666666666667</ele><time>2026-04-25T16:38:22.001Z</time></trkpt><trkpt lat="36.86064774161211" lon="-108.0949175433859"><ele>1870.0</ele><time>2026-04-25T16:38:23.001Z</time></trkpt><trkpt lat="36.860737064418835" lon="-108.09492820732338"><ele>1870.2</ele><time>2026-04-25T16:38:24.001Z</time></trkpt><trkpt lat="36.860816361749876" lon="-108.09497649477025"><ele>1870.4</ele><time>2026-04-25T16:38:25.001Z</time></trkpt><trkpt lat="36.86089759470163" lon="-108.09504477212411"><ele>1870.6</ele><time>2026-04-25T16:38:26.001Z</time></trkpt><trkpt lat="36.8609837916536" lon="-108.09507232793801"><ele>1870.8</ele><time>2026-04-25T16:38:27.001Z</time></trkpt><trkpt lat="36.86108767706985" lon="-108.09506778133728"><ele>1871.0</ele><time>2026-04-25T16:38:28.001Z</time></trkpt><trkpt lat="36.861179944606484" lon="-108.0950918909859"><ele>1872.4</ele><time>2026-04-25T16:38:29.001Z</time></trkpt><trkpt lat="36.86127485224894" lon="-108.09507544944206"><ele>1873.8</ele><time>2026-04-25T16:38:30.001Z</time></trkpt><trkpt lat="36.86135575027451" lon="-108.09508384031491"><ele>1875.2000000000003</ele><time>2026-04-25T16:38:31.001Z</time></trkpt><trkpt lat="36.86148291556814" lon="-108.0951198430408"><ele>1876.6000000000001</ele><time>2026-04-25T16:38:33.001Z</time></trkpt><trkpt lat="36.8615693728273" lon="-108.09511606224166"><ele>1878.0</ele><time>2026-04-25T16:38:34.001Z</time></trkpt><trkpt lat="36.86161717692861" lon="-108.09518475860494"><ele>1878.0</ele><time>2026-04-25T16:38:35.001Z</time></trkpt><trkpt lat="36.861679897616675" lon="-108.09524286263006"><ele>1878.0</ele><time>2026-04-25T16:38:36.001Z</time></trkpt><trkpt lat="36.86176261088588" lon="-108.09522556495672"><ele>1878.0</ele><time>2026-04-25T16:38:37.001Z</time></trkpt><trkpt lat="36.86184497323195" lon="-108.09524297562736"><ele>1878.0</ele><time>2026-04-25T16:38:38.001Z</time></trkpt><trkpt lat="36.86190149515698" lon="-108.09528782592018"><ele>1878.0</ele><time>2026-04-25T16:38:39.001Z</time></trkpt><trkpt lat="36.86198207730248" lon="-108.09533582790861"><ele>1878.0</ele><time>2026-04-25T16:38:40.001Z</time></trkpt><trkpt lat="36.86210294516809" lon="-108.09538698767116"><ele>1878.0</ele><time>2026-04-25T16:38:41.001Z</time></trkpt><trkpt lat="36.86220075346161" lon="-108.09541949374348"><ele>1878.0000000000002</ele><time>2026-04-25T16:38:42.001Z</time></trkpt><trkpt lat="36.86227020530543" lon="-108.09543325805483"><ele>1878.0000000000002</ele><time>2026-04-25T16:38:43.001Z</time></trkpt><trkpt lat="36.86236945448252" lon="-108.0953994334063"><ele>1878.0</ele><time>2026-04-25T16:38:44.001Z</time></trkpt><trkpt lat="36.862475629924326" lon="-108.095339270013"><ele>1878.0</ele><time>2026-04-25T16:38:45.001Z</time></trkpt><trkpt lat="36.86255572593695" lon="-108.0952657311716"><ele>1878.0</ele><time>2026-04-25T16:38:46.001Z</time></trkpt><trkpt lat="36.862600491704455" lon="-108.09519047182171"><ele>1878.0000000000002</ele><time>2026-04-25T16:38:47.001Z</time></trkpt><trkpt lat="36.86264241146484" lon="-108.09511396510965"><ele>1878.0000000000002</ele><time>2026-04-25T16:38:48.001Z</time></trkpt><trkpt lat="36.862683130019356" lon="-108.09504586171319"><ele>1878.0</ele><time>2026-04-25T16:38:49.001Z</time></trkpt><trkpt lat="36.86278885565076" lon="-108.09498291785374"><ele>1878.0</ele><time>2026-04-25T16:38:51.001Z</time></trkpt><trkpt lat="36.862856249264226" lon="-108.09485491775938"><ele>1877.6666666666667</ele><time>2026-04-25T16:38:53.001Z</time></trkpt><trkpt lat="36.86293583396411" lon="-108.09483786518226"><ele>1877.3333333333335</ele><time>2026-04-25T16:38:54.001Z</time></trkpt><trkpt lat="36.86302395299678" lon="-108.09483148794715"><ele>1877.0</ele><time>2026-04-25T16:38:56.001Z</time></trkpt><trkpt lat="36.863086713487256" lon="-108.0948659354729"><ele>1876.6666666666667</ele><time>2026-04-25T16:39:00.001Z</time></trkpt><trkpt lat="36.86319226089415" lon="-108.09482304605072"><ele>1876.3333333333335</ele><time>2026-04-25T16:39:02.001Z</time></trkpt><trkpt lat="36.863274764611845" lon="-108.09478348930583"><ele>1876.0</ele><time>2026-04-25T16:39:03.001Z</time></trkpt><trkpt lat="36.86334188625983" lon="-108.09475336239525"><ele>1876.25</ele><time>2026-04-25T16:39:04.001Z</time></trkpt><trkpt lat="36.86347824665592" lon="-108.09482274822216"><ele>1876.5</ele><time>2026-04-25T16:39:06.001Z</time></trkpt><trkpt lat="36.8635653482837" lon="-108.09486540328255"><ele>1876.75</ele><time>2026-04-25T16:39:07.001Z</time></trkpt><trkpt lat="36.86366336456221" lon="-108.09487078500412"><ele>1877.0</ele><time>2026-04-25T16:39:08.001Z</time></trkpt><trkpt lat="36.86377203165652" lon="-108.09483340888794"><ele>1876.9999999999998</ele><time>2026-04-25T16:39:10.001Z</time></trkpt><trkpt lat="36.863830003719855" lon="-108.09477962616658"><ele>1877.0</ele><time>2026-04-25T16:39:11.001Z</time></trkpt><trkpt lat="36.863898779695546" lon="-108.09476753918062"><ele>1877.0</ele><time>2026-04-25T16:39:12.001Z</time></trkpt><trkpt lat="36.863941964016256" lon="-108.09468501883282"><ele>1877.0</ele><time>2026-04-25T16:39:13.001Z</time></trkpt><trkpt lat="36.8639665921281" lon="-108.09460022866004"><ele>1876.9999999999998</ele><time>2026-04-25T16:39:14.001Z</time></trkpt><trkpt lat="36.86400203864883" lon="-108.09449490556399"><ele>1877.0</ele><time>2026-04-25T16:39:15.001Z</time></trkpt><trkpt lat="36.86410574430887" lon="-108.09439932540283"><ele>1876.9999999999998</ele><time>2026-04-25T16:39:17.001Z</time></trkpt><trkpt lat="36.86417324508067" lon="-108.094351190559"><ele>1877.0</ele><time>2026-04-25T16:39:18.001Z</time></trkpt><trkpt lat="36.864242325226265" lon="-108.09432952505081"><ele>1877.0</ele><time>2026-04-25T16:39:19.001Z</time></trkpt><trkpt lat="36.86430989391091" lon="-108.09432705728261"><ele>1877.0</ele><time>2026-04-25T16:39:20.001Z</time></trkpt><trkpt lat="36.864401840412185" lon="-108.094343642248"><ele>1876.9999999999998</ele><time>2026-04-25T16:39:21.001Z</time></trkpt><trkpt lat="36.864478868542086" lon="-108.09436214456798"><ele>1877.0</ele><time>2026-04-25T16:39:22.001Z</time></trkpt><trkpt lat="36.8645279748135" lon="-108.09442029564137"><ele>1877.3999999999999</ele><time>2026-04-25T16:39:23.001Z</time></trkpt><trkpt lat="36.86458993618272" lon="-108.09453280440219"><ele>1877.7999999999997</ele><time>2026-04-25T16:39:24.001Z</time></trkpt><trkpt lat="36.86468176381482" lon="-108.09465065131593"><ele>1878.2</ele><time>2026-04-25T16:39:25.001Z</time></trkpt><trkpt lat="36.86474426742327" lon="-108.09472206548395"><ele>1878.6</ele><time>2026-04-25T16:39:26.001Z</time></trkpt><trkpt lat="36.86479213129878" lon="-108.09477798568251"><ele>1879.0</ele><time>2026-04-25T16:39:27.001Z</time></trkpt><trkpt lat="36.86485590960774" lon="-108.09481003879898"><ele>1879.0000000000002</ele><time>2026-04-25T16:39:28.001Z</time></trkpt><trkpt lat="36.86492639069655" lon="-108.0947997345827"><ele>1879.0</ele><time>2026-04-25T16:39:29.001Z</time></trkpt><trkpt lat="36.864992106907025" lon="-108.09475249745567"><ele>1879.0</ele><time>2026-04-25T16:39:30.001Z</time></trkpt><trkpt lat="36.86509182588585" lon="-108.09471483361355"><ele>1879.0</ele><time>2026-04-25T16:39:31.001Z</time></trkpt><trkpt lat="36.86516247249073" lon="-108.09469713085531"><ele>1879.0000000000002</ele><time>2026-04-25T16:39:32.001Z</time></trkpt><trkpt lat="36.86524669265014" lon="-108.09463891312261"><ele>1879.0</ele><time>2026-04-25T16:39:34.001Z</time></trkpt><trkpt lat="36.86534696911008" lon="-108.09458251697001"><ele>1880.5</ele><time>2026-04-25T16:39:36.001Z</time></trkpt><trkpt lat="36.865438489080006" lon="-108.0945450944484"><ele>1882.0</ele><time>2026-04-25T16:39:37.001Z</time></trkpt><trkpt lat="36.86556021610583" lon="-108.09453318428135"><ele>1883.5</ele><time>2026-04-25T16:39:38.001Z</time></trkpt><trkpt lat="36.86568980109738" lon="-108.09454080782612"><ele>1885.0</ele><time>2026-04-25T16:39:39.001Z</time></trkpt><trkpt lat="36.865809210781386" lon="-108.09453912890548"><ele>1885.0</ele><time>2026-04-25T16:39:40.001Z</time></trkpt><trkpt lat="36.865925718877506" lon="-108.09451298886609"><ele>1885.0</ele><time>2026-04-25T16:39:41.001Z</time></trkpt><trkpt lat="36.8660182591194" lon="-108.09449759222052"><ele>1885.0</ele><time>2026-04-25T16:39:42.001Z</time></trkpt><trkpt lat="36.86608847500559" lon="-108.094528792473"><ele>1885.0</ele><time>2026-04-25T16:39:43.001Z</time></trkpt><trkpt lat="36.86617069236333" lon="-108.09459050802072"><ele>1885.0</ele><time>2026-04-25T16:39:44.001Z</time></trkpt><trkpt lat="36.86627629316173" lon="-108.09464297028329"><ele>1885.8</ele><time>2026-04-25T16:39:45.001Z</time></trkpt><trkpt lat="36.866364527058515" lon="-108.09465143241752"><ele>1886.6</ele><time>2026-04-25T16:39:46.001Z</time></trkpt><trkpt lat="36.866439562717744" lon="-108.09463378874527"><ele>1887.4</ele><time>2026-04-25T16:39:47.001Z</time></trkpt><trkpt lat="36.86654256644979" lon="-108.09462062559946"><ele>1888.2</ele><time>2026-04-25T16:39:48.001Z</time></trkpt><trkpt lat="36.86666677664948" lon="-108.09462813782466"><ele>1889.0</ele><time>2026-04-25T16:39:49.001Z</time></trkpt><trkpt lat="36.86676004422264" lon="-108.09462633812147"><ele>1889.2</ele><time>2026-04-25T16:39:50.001Z</time></trkpt><trkpt lat="36.86681315686252" lon="-108.0946815444674"><ele>1889.4</ele><time>2026-04-25T16:39:52Z</time></trkpt><trkpt lat="36.86680927699543" lon="-108.09482039869347"><ele>1889.6</ele><time>2026-04-25T16:39:53Z</time></trkpt><trkpt lat="36.866842140431224" lon="-108.09492708607169"><ele>1889.8</ele><time>2026-04-25T16:39:54Z</time></trkpt><trkpt lat="36.86691012814878" lon="-108.09504620737567"><ele>1890.0</ele><time>2026-04-25T16:39:55Z</time></trkpt><trkpt lat="36.86697017651452" lon="-108.0951551380032"><ele>1890.8</ele><time>2026-04-25T16:39:56Z</time></trkpt><trkpt lat="36.86702945715288" lon="-108.09520806533868"><ele>1891.6</ele><time>2026-04-25T16:39:57Z</time></trkpt><trkpt lat="36.86711414977636" lon="-108.09525669128107"><ele>1892.4</ele><time>2026-04-25T16:39:58Z</time></trkpt><trkpt lat="36.86721575792247" lon="-108.09527746220154"><ele>1893.2</ele><time>2026-04-25T16:39:59Z</time></trkpt><trkpt lat="36.86733630866718" lon="-108.09530216729594"><ele>1894.0</ele><time>2026-04-25T16:40:00Z</time></trkpt><trkpt lat="36.86741592225207" lon="-108.09532345700038"><ele>1894.0</ele><time>2026-04-25T16:40:01Z</time></trkpt><trkpt lat="36.86749102544866" lon="-108.09538997242608"><ele>1894.0</ele><time>2026-04-25T16:40:02Z</time></trkpt><trkpt lat="36.867571548760495" lon="-108.09550510586267"><ele>1894.0</ele><time>2026-04-25T16:40:03Z</time></trkpt><trkpt lat="36.86764354583863" lon="-108.09562865841522"><ele>1894.0</ele><time>2026-04-25T16:40:04Z</time></trkpt><trkpt lat="36.86773194668918" lon="-108.09571906526001"><ele>1895.4</ele><time>2026-04-25T16:40:05Z</time></trkpt><trkpt lat="36.86779432445419" lon="-108.09580712656935"><ele>1896.8000000000002</ele><time>2026-04-25T16:40:06Z</time></trkpt><trkpt lat="36.867857324633796" lon="-108.09591736202037"><ele>1898.1999999999998</ele><time>2026-04-25T16:40:07Z</time></trkpt><trkpt lat="36.867927898118246" lon="-108.096019988058"><ele>1899.6</ele><time>2026-04-25T16:40:08Z</time></trkpt><trkpt lat="36.86799616745535" lon="-108.0961231768152"><ele>1901.0</ele><time>2026-04-25T16:40:09Z</time></trkpt><trkpt lat="36.86806846946463" lon="-108.09623471169738"><ele>1901.0</ele><time>2026-04-25T16:40:10Z</time></trkpt><trkpt lat="36.86815185929304" lon="-108.09632762005225"><ele>1901.0</ele><time>2026-04-25T16:40:11Z</time></trkpt><trkpt lat="36.86824864949964" lon="-108.09640506296456"><ele>1901.0</ele><time>2026-04-25T16:40:12Z</time></trkpt><trkpt lat="36.86834627803463" lon="-108.09649503124277"><ele>1901.0</ele><time>2026-04-25T16:40:13Z</time></trkpt><trkpt lat="36.86844944226548" lon="-108.09660156116216"><ele>1902.6</ele><time>2026-04-25T16:40:14Z</time></trkpt><trkpt lat="36.868550987820456" lon="-108.09672864910578"><ele>1904.1999999999998</ele><time>2026-04-25T16:40:15Z</time></trkpt><trkpt lat="36.86863167102494" lon="-108.09684648569844"><ele>1905.8000000000002</ele><time>2026-04-25T16:40:16Z</time></trkpt><trkpt lat="36.86870496246337" lon="-108.096915704638"><ele>1907.4</ele><time>2026-04-25T16:40:17Z</time></trkpt><trkpt lat="36.86876954923408" lon="-108.09692793854684"><ele>1909.0</ele><time>2026-04-25T16:40:18Z</time></trkpt><trkpt lat="36.868824741961596" lon="-108.09689009059356"><ele>1909.0000000000002</ele><time>2026-04-25T16:40:19Z</time></trkpt><trkpt lat="36.86889493784446" lon="-108.09687501276179"><ele>1909.0</ele><time>2026-04-25T16:40:20Z</time></trkpt><trkpt lat="36.868964262152936" lon="-108.09682467662877"><ele>1909.0</ele><time>2026-04-25T16:40:21Z</time></trkpt><trkpt lat="36.8690406787879" lon="-108.09674486674352"><ele>1909.0</ele><time>2026-04-25T16:40:22Z</time></trkpt><trkpt lat="36.86913056000524" lon="-108.09669120837628"><ele>1909.0000000000002</ele><time>2026-04-25T16:40:23.001Z</time></trkpt><trkpt lat="36.86921955371673" lon="-108.0966899953464"><ele>1909.0</ele><time>2026-04-25T16:40:24.001Z</time></trkpt><trkpt lat="36.86931614290968" lon="-108.09672529228499"><ele>1908.4</ele><time>2026-04-25T16:40:25.001Z</time></trkpt><trkpt lat="36.86942493588491" lon="-108.09675587932031"><ele>1907.8000000000002</ele><time>2026-04-25T16:40:26.001Z</time></trkpt><trkpt lat="36.86953321527698" lon="-108.09682931605596"><ele>1907.1999999999998</ele><time>2026-04-25T16:40:27.001Z</time></trkpt><trkpt lat="36.86962017249697" lon="-108.09690165570024"><ele>1906.6</ele><time>2026-04-25T16:40:28.001Z</time></trkpt><trkpt lat="36.869693413353026" lon="-108.0969665733594"><ele>1906.0</ele><time>2026-04-25T16:40:29.001Z</time></trkpt><trkpt lat="36.86975166044891" lon="-108.09702019893327"><ele>1906.0</ele><time>2026-04-25T16:40:30.001Z</time></trkpt><trkpt lat="36.86984012512058" lon="-108.09708469960268"><ele>1906.0</ele><time>2026-04-25T16:40:32.001Z</time></trkpt><trkpt lat="36.86992088129774" lon="-108.09717599525109"><ele>1906.0</ele><time>2026-04-25T16:40:35.001Z</time></trkpt><trkpt lat="36.87010668549232" lon="-108.09715010844874"><ele>1906.0</ele><time>2026-04-25T16:40:37.001Z</time></trkpt><trkpt lat="36.87017409855511" lon="-108.09716469907899"><ele>1905.6</ele><time>2026-04-25T16:40:38.001Z</time></trkpt><trkpt lat="36.87028376126274" lon="-108.09720957224157"><ele>1905.1999999999998</ele><time>2026-04-25T16:40:40.001Z</time></trkpt><trkpt lat="36.87030432787256" lon="-108.09729411338637"><ele>1904.8000000000002</ele><time>2026-04-25T16:40:41.001Z</time></trkpt><trkpt lat="36.870341380701404" lon="-108.09738789941647"><ele>1904.4</ele><time>2026-04-25T16:40:42.001Z</time></trkpt><trkpt lat="36.87042042223167" lon="-108.09747186728187"><ele>1904.0</ele><time>2026-04-25T16:40:43.001Z</time></trkpt><trkpt lat="36.87053512444058" lon="-108.09757527633415"><ele>1903.6666666666665</ele><time>2026-04-25T16:40:44.001Z</time></trkpt><trkpt lat="36.87067074665556" lon="-108.09768233355528"><ele>1903.3333333333335</ele><time>2026-04-25T16:40:45.001Z</time></trkpt><trkpt lat="36.870810134229885" lon="-108.09780074758088"><ele>1903.0</ele><time>2026-04-25T16:40:46.001Z</time></trkpt><trkpt lat="36.870920661655255" lon="-108.09791184404143"><ele>1902.0</ele><time>2026-04-25T16:40:47.001Z</time></trkpt><trkpt lat="36.87100865307182" lon="-108.09801785842622"><ele>1901.0000000000002</ele><time>2026-04-25T16:40:48.001Z</time></trkpt><trkpt lat="36.8710799194275" lon="-108.09811717910867"><ele>1900.0000000000002</ele><time>2026-04-25T16:40:49.001Z</time></trkpt><trkpt lat="36.871151021195054" lon="-108.09820897710985"><ele>1899.0</ele><time>2026-04-25T16:40:50.001Z</time></trkpt><trkpt lat="36.871236323321455" lon="-108.09830814076714"><ele>1898.0</ele><time>2026-04-25T16:40:51.001Z</time></trkpt><trkpt lat="36.87133120118884" lon="-108.0984194905807"><ele>1897.9999999999998</ele><time>2026-04-25T16:40:52.001Z</time></trkpt><trkpt lat="36.871397651329886" lon="-108.09849517708298"><ele>1898.0</ele><time>2026-04-25T16:40:53.001Z</time></trkpt><trkpt lat="36.871438610916115" lon="-108.09861989445704"><ele>1898.0</ele><time>2026-04-25T16:40:55.001Z</time></trkpt><trkpt lat="36.87141236586363" lon="-108.09869420099328"><ele>1898.0</ele><time>2026-04-25T16:40:56.001Z</time></trkpt><trkpt lat="36.8713660540572" lon="-108.0987777368633"><ele>1897.9999999999998</ele><time>2026-04-25T16:40:57.001Z</time></trkpt><trkpt lat="36.87137197742076" lon="-108.09889370129825"><ele>1898.0</ele><time>2026-04-25T16:40:59.001Z</time></trkpt><trkpt lat="36.87142833235254" lon="-108.09901433298377"><ele>1897.8000000000002</ele><time>2026-04-25T16:41:00.001Z</time></trkpt><trkpt lat="36.87149045434481" lon="-108.09911818310047"><ele>1897.6000000000001</ele><time>2026-04-25T16:41:01.001Z</time></trkpt><trkpt lat="36.871573391402976" lon="-108.09919442652176"><ele>1897.3999999999999</ele><time>2026-04-25T16:41:02.001Z</time></trkpt><trkpt lat="36.871670151669505" lon="-108.09926707888954"><ele>1897.1999999999998</ele><time>2026-04-25T16:41:03.001Z</time></trkpt><trkpt lat="36.871770639085995" lon="-108.09935181341407"><ele>1897.0</ele><time>2026-04-25T16:41:04.001Z</time></trkpt><trkpt lat="36.871845368847616" lon="-108.09943981107995"><ele>1896.0</ele><time>2026-04-25T16:41:05.001Z</time></trkpt><trkpt lat="36.87187101309408" lon="-108.09956233695479"><ele>1894.9999999999998</ele><time>2026-04-25T16:41:06.001Z</time></trkpt><trkpt lat="36.87189557032473" lon="-108.09969254858528"><ele>1893.9999999999998</ele><time>2026-04-25T16:41:07.001Z</time></trkpt><trkpt lat="36.87191813599029" lon="-108.09977162999368"><ele>1893.0</ele><time>2026-04-25T16:41:08.001Z</time></trkpt><trkpt lat="36.872064898594964" lon="-108.09987616083019"><ele>1892.0</ele><time>2026-04-25T16:41:10.001Z</time></trkpt><trkpt lat="36.87213471244985" lon="-108.10001097203673"><ele>1892.0</ele><time>2026-04-25T16:41:11.001Z</time></trkpt><trkpt lat="36.8722830959863" lon="-108.1000577989719"><ele>1892.0</ele><time>2026-04-25T16:41:13.001Z</time></trkpt><trkpt lat="36.87238985542326" lon="-108.10009279984484"><ele>1892.0</ele><time>2026-04-25T16:41:14.001Z</time></trkpt><trkpt lat="36.87245896764818" lon="-108.10016495801256"><ele>1892.0</ele><time>2026-04-25T16:41:15.001Z</time></trkpt><trkpt lat="36.872486136687016" lon="-108.10028077306414"><ele>1892.0</ele><time>2026-04-25T16:41:16.001Z</time></trkpt><trkpt lat="36.872510109806875" lon="-108.10042639370926"><ele>1891.9999999999998</ele><time>2026-04-25T16:41:17.001Z</time></trkpt><trkpt lat="36.872544497311345" lon="-108.10057187927706"><ele>1891.9999999999998</ele><time>2026-04-25T16:41:18.001Z</time></trkpt><trkpt lat="36.87258078968148" lon="-108.10068833029148"><ele>1892.0</ele><time>2026-04-25T16:41:19.001Z</time></trkpt><trkpt lat="36.872636661172706" lon="-108.10079115404176"><ele>1892.0</ele><time>2026-04-25T16:41:20.001Z</time></trkpt><trkpt lat="36.87270161959187" lon="-108.10087597821317"><ele>1891.1666666666665</ele><time>2026-04-25T16:41:21.001Z</time></trkpt><trkpt lat="36.87275547199529" lon="-108.10096198029657"><ele>1890.3333333333333</ele><time>2026-04-25T16:41:22.001Z</time></trkpt><trkpt lat="36.872772226265674" lon="-108.1010525411922"><ele>1889.5</ele><time>2026-04-25T16:41:23.001Z</time></trkpt><trkpt lat="36.8727620877668" lon="-108.1011484373126"><ele>1888.6666666666665</ele><time>2026-04-25T16:41:24.001Z</time></trkpt><trkpt lat="36.87278497194542" lon="-108.10125017719251"><ele>1887.8333333333333</ele><time>2026-04-25T16:41:25.001Z</time></trkpt><trkpt lat="36.87282808893092" lon="-108.10139204547598"><ele>1887.0</ele><time>2026-04-25T16:41:26.001Z</time></trkpt><trkpt lat="36.87286456130615" lon="-108.10153293988299"><ele>1887.1666666666667</ele><time>2026-04-25T16:41:27.001Z</time></trkpt><trkpt lat="36.872902075846824" lon="-108.10165039297324"><ele>1887.3333333333335</ele><time>2026-04-25T16:41:28.001Z</time></trkpt><trkpt lat="36.8729015767308" lon="-108.10175693574365"><ele>1887.5</ele><time>2026-04-25T16:41:29.001Z</time></trkpt><trkpt lat="36.87290053224367" lon="-108.10184871893125"><ele>1887.6666666666667</ele><time>2026-04-25T16:41:30.001Z</time></trkpt><trkpt lat="36.87293978542656" lon="-108.10193985902713"><ele>1887.8333333333335</ele><time>2026-04-25T16:41:31.001Z</time></trkpt><trkpt lat="36.87301079280512" lon="-108.10200511551975"><ele>1888.0</ele><time>2026-04-25T16:41:32.001Z</time></trkpt><trkpt lat="36.87309391237557" lon="-108.10202998597015"><ele>1888.0</ele><time>2026-04-25T16:41:33.001Z</time></trkpt><trkpt lat="36.87317586353227" lon="-108.102086204455"><ele>1888.0000000000002</ele><time>2026-04-25T16:41:34.001Z</time></trkpt><trkpt lat="36.87328361430602" lon="-108.10217063212107"><ele>1888.0000000000002</ele><time>2026-04-25T16:41:35.001Z</time></trkpt><trkpt lat="36.87337999953495" lon="-108.10223107304277"><ele>1888.0</ele><time>2026-04-25T16:41:36.001Z</time></trkpt><trkpt lat="36.8734597816648" lon="-108.10229150837915"><ele>1888.0</ele><time>2026-04-25T16:41:37.001Z</time></trkpt><trkpt lat="36.873524759264434" lon="-108.10236759464861"><ele>1886.8333333333335</ele><time>2026-04-25T16:41:38.001Z</time></trkpt><trkpt lat="36.87359244837067" lon="-108.1024613936636"><ele>1885.6666666666667</ele><time>2026-04-25T16:41:39.001Z</time></trkpt><trkpt lat="36.87365246107029" lon="-108.1025311617189"><ele>1884.5</ele><time>2026-04-25T16:41:40.001Z</time></trkpt><trkpt lat="36.8737079221643" lon="-108.10258015062419"><ele>1883.3333333333335</ele><time>2026-04-25T16:41:42.001Z</time></trkpt><trkpt lat="36.873711133784255" lon="-108.10267587011971"><ele>1882.1666666666667</ele><time>2026-04-25T16:41:43.001Z</time></trkpt><trkpt lat="36.873750882243904" lon="-108.10276709977173"><ele>1881.0</ele><time>2026-04-25T16:41:44.001Z</time></trkpt><trkpt lat="36.87380594906858" lon="-108.10282692298169"><ele>1881.0</ele><time>2026-04-25T16:41:45.001Z</time></trkpt><trkpt lat="36.873802564524006" lon="-108.1030164244256"><ele>1881.0</ele><time>2026-04-25T16:41:47.001Z</time></trkpt><trkpt lat="36.873774169975675" lon="-108.1031184836563"><ele>1881.0</ele><time>2026-04-25T16:41:48.001Z</time></trkpt><trkpt lat="36.87372765410561" lon="-108.10324459449134"><ele>1881.0</ele><time>2026-04-25T16:41:49.001Z</time></trkpt><trkpt lat="36.87367465304876" lon="-108.10335415926926"><ele>1880.8</ele><time>2026-04-25T16:41:50.001Z</time></trkpt><trkpt lat="36.87360515330674" lon="-108.10345066537677"><ele>1880.6</ele><time>2026-04-25T16:41:51.001Z</time></trkpt><trkpt lat="36.87352904279286" lon="-108.10350940165706"><ele>1880.4</ele><time>2026-04-25T16:41:52.001Z</time></trkpt><trkpt lat="36.87351308755299" lon="-108.10361044860448"><ele>1880.2</ele><time>2026-04-25T16:41:54.001Z</time></trkpt><trkpt lat="36.87353632471764" lon="-108.10371743500357"><ele>1880.0</ele><time>2026-04-25T16:41:55.001Z</time></trkpt><trkpt lat="36.8734967603171" lon="-108.10382666389813"><ele>1880.0</ele><time>2026-04-25T16:41:56.001Z</time></trkpt><trkpt lat="36.87343056502884" lon="-108.10389409291474"><ele>1880.0</ele><time>2026-04-25T16:41:57Z</time></trkpt><trkpt lat="36.87349436344758" lon="-108.10400058661021"><ele>1880.0</ele><time>2026-04-25T16:41:59Z</time></trkpt><trkpt lat="36.873472169427814" lon="-108.10411576992294"><ele>1880.0</ele><time>2026-04-25T16:42:01Z</time></trkpt><trkpt lat="36.873544784819046" lon="-108.10411862498789"><ele>1880.0</ele><time>2026-04-25T16:42:03Z</time></trkpt><trkpt lat="36.873466851852804" lon="-108.1043576688489"><ele>1880.0</ele><time>2026-04-25T16:42:05Z</time></trkpt><trkpt lat="36.873533197603386" lon="-108.10428013585984"><ele>1880.0</ele><time>2026-04-25T16:42:06Z</time></trkpt><trkpt lat="36.8736747923108" lon="-108.1040749575795"><ele>1880.0</ele><time>2026-04-25T16:42:07Z</time></trkpt><trkpt lat="36.87379676907599" lon="-108.10392212862257"><ele>1880.0</ele><time>2026-04-25T16:42:08Z</time></trkpt><trkpt lat="36.87398633579379" lon="-108.10373402643452"><ele>1880.0</ele><time>2026-04-25T16:42:09Z</time></trkpt><trkpt lat="36.874108199458234" lon="-108.10362628195905"><ele>1880.0</ele><time>2026-04-25T16:42:10Z</time></trkpt><trkpt lat="36.87420216657755" lon="-108.10353168262901"><ele>1878.8</ele><time>2026-04-25T16:42:11Z</time></trkpt><trkpt lat="36.874298311435616" lon="-108.1034544052539"><ele>1877.6</ele><time>2026-04-25T16:42:12Z</time></trkpt><trkpt lat="36.87440047075459" lon="-108.10339007481555"><ele>1876.4</ele><time>2026-04-25T16:42:13Z</time></trkpt><trkpt lat="36.874486677104535" lon="-108.10333545854436"><ele>1875.2</ele><time>2026-04-25T16:42:14Z</time></trkpt><trkpt lat="36.87454614747678" lon="-108.10327026367521"><ele>1874.0</ele><time>2026-04-25T16:42:15Z</time></trkpt><trkpt lat="36.874586557949094" lon="-108.1031713871229"><ele>1873.9999999999998</ele><time>2026-04-25T16:42:16Z</time></trkpt><trkpt lat="36.874639385091214" lon="-108.10311843277469"><ele>1874.0</ele><time>2026-04-25T16:42:17Z</time></trkpt><trkpt lat="36.87470988026033" lon="-108.10308378744865"><ele>1874.0</ele><time>2026-04-25T16:42:19Z</time></trkpt><trkpt lat="36.874723494690116" lon="-108.10292326533413"><ele>1874.0</ele><time>2026-04-25T16:42:21Z</time></trkpt><trkpt lat="36.87475443114827" lon="-108.10283302712239"><ele>1873.9999999999998</ele><time>2026-04-25T16:42:22Z</time></trkpt><trkpt lat="36.874800320141134" lon="-108.1027573248974"><ele>1874.0</ele><time>2026-04-25T16:42:23Z</time></trkpt><trkpt lat="36.87486684543455" lon="-108.10271898549836"><ele>1874.0</ele><time>2026-04-25T16:42:24Z</time></trkpt><trkpt lat="36.87494542651074" lon="-108.10269501835859"><ele>1874.0</ele><time>2026-04-25T16:42:25Z</time></trkpt><trkpt lat="36.87501208660927" lon="-108.10268246115191"><ele>1874.0</ele><time>2026-04-25T16:42:26Z</time></trkpt><trkpt lat="36.875109918352585" lon="-108.10279399062742"><ele>1874.0</ele><time>2026-04-25T16:42:27Z</time></trkpt><trkpt lat="36.87522752045434" lon="-108.10282858638365"><ele>1874.0</ele><time>2026-04-25T16:42:28Z</time></trkpt><trkpt lat="36.87531704052307" lon="-108.10280091950368"><ele>1873.1666666666665</ele><time>2026-04-25T16:42:29Z</time></trkpt><trkpt lat="36.87542172319842" lon="-108.10275352151702"><ele>1872.3333333333333</ele><time>2026-04-25T16:42:30Z</time></trkpt><trkpt lat="36.875503896275454" lon="-108.1027343298454"><ele>1871.5</ele><time>2026-04-25T16:42:31.001Z</time></trkpt><trkpt lat="36.87558233715809" lon="-108.10270373716978"><ele>1870.6666666666665</ele><time>2026-04-25T16:42:32.001Z</time></trkpt><trkpt lat="36.875646505083935" lon="-108.10266881330462"><ele>1869.8333333333333</ele><time>2026-04-25T16:42:33.001Z</time></trkpt><trkpt lat="36.87572326340704" lon="-108.10265352391968"><ele>1869.0</ele><time>2026-04-25T16:42:35.001Z</time></trkpt><trkpt lat="36.8758108705904" lon="-108.10263548609889"><ele>1869.0</ele><time>2026-04-25T16:42:37.001Z</time></trkpt><trkpt lat="36.87589454651816" lon="-108.10266242358803"><ele>1869.0</ele><time>2026-04-25T16:42:39.001Z</time></trkpt><trkpt lat="36.87594439930945" lon="-108.10271252797723"><ele>1869.0</ele><time>2026-04-25T16:42:40.001Z</time></trkpt><trkpt lat="36.8759958589557" lon="-108.10279518840122"><ele>1869.0</ele><time>2026-04-25T16:42:41.001Z</time></trkpt><trkpt lat="36.87603935672887" lon="-108.10289061335145"><ele>1869.0</ele><time>2026-04-25T16:42:42.001Z</time></trkpt><trkpt lat="36.876082795267465" lon="-108.10298899341993"><ele>1869.0</ele><time>2026-04-25T16:42:43.001Z</time></trkpt><trkpt lat="36.87614123166167" lon="-108.10311362715971"><ele>1868.6666666666667</ele><time>2026-04-25T16:42:44.001Z</time></trkpt><trkpt lat="36.87620123116257" lon="-108.10320259473757"><ele>1868.3333333333335</ele><time>2026-04-25T16:42:45.001Z</time></trkpt><trkpt lat="36.87624015142448" lon="-108.10327873039355"><ele>1868.0</ele><time>2026-04-25T16:42:46.001Z</time></trkpt><trkpt lat="36.876266235993576" lon="-108.1033656848072"><ele>1867.6666666666667</ele><time>2026-04-25T16:42:47.001Z</time></trkpt><trkpt lat="36.876297343303634" lon="-108.10348421866243"><ele>1867.3333333333335</ele><time>2026-04-25T16:42:49.001Z</time></trkpt><trkpt lat="36.87633893910641" lon="-108.10359546684347"><ele>1867.0</ele><time>2026-04-25T16:42:50.001Z</time></trkpt><trkpt lat="36.87639254516119" lon="-108.10370909758635"><ele>1867.0000000000002</ele><time>2026-04-25T16:42:51.001Z</time></trkpt><trkpt lat="36.87647234561063" lon="-108.10382744041412"><ele>1867.0</ele><time>2026-04-25T16:42:52.001Z</time></trkpt><trkpt lat="36.87652083390713" lon="-108.10389986955717"><ele>1867.0</ele><time>2026-04-25T16:42:53.001Z</time></trkpt><trkpt lat="36.876579157064945" lon="-108.10396188216379"><ele>1867.0</ele><time>2026-04-25T16:42:54.001Z</time></trkpt><trkpt lat="36.87665661728461" lon="-108.1040126454217"><ele>1867.0000000000002</ele><time>2026-04-25T16:42:55.001Z</time></trkpt><trkpt lat="36.87672558794039" lon="-108.10404987426045"><ele>1867.0</ele><time>2026-04-25T16:42:56.001Z</time></trkpt><trkpt lat="36.87681525956171" lon="-108.10405707675136"><ele>1867.8</ele><time>2026-04-25T16:42:58.001Z</time></trkpt><trkpt lat="36.876911493872946" lon="-108.10396902231844"><ele>1868.6</ele><time>2026-04-25T16:43:00.001Z</time></trkpt><trkpt lat="36.876956273566606" lon="-108.1038804552584"><ele>1869.3999999999999</ele><time>2026-04-25T16:43:01.001Z</time></trkpt><trkpt lat="36.87698374809096" lon="-108.10380809308283"><ele>1870.1999999999998</ele><time>2026-04-25T16:43:02.001Z</time></trkpt><trkpt lat="36.877032506092036" lon="-108.10374325808306"><ele>1871.0</ele><time>2026-04-25T16:43:05.001Z</time></trkpt><trkpt lat="36.877137388597234" lon="-108.10363621309052"><ele>1870.9999999999998</ele><time>2026-04-25T16:43:06.001Z</time></trkpt><trkpt lat="36.8771919465854" lon="-108.10358779427285"><ele>1871.0</ele><time>2026-04-25T16:43:07.001Z</time></trkpt><trkpt lat="36.87725737348399" lon="-108.10353865696187"><ele>1871.0</ele><time>2026-04-25T16:43:08.001Z</time></trkpt><trkpt lat="36.87732832547811" lon="-108.10348281021017"><ele>1871.0</ele><time>2026-04-25T16:43:09.001Z</time></trkpt><trkpt lat="36.87741194912597" lon="-108.10340908179225"><ele>1870.9999999999998</ele><time>2026-04-25T16:43:10.001Z</time></trkpt><trkpt lat="36.87749449636168" lon="-108.10334333841134"><ele>1871.0</ele><time>2026-04-25T16:43:11.001Z</time></trkpt><trkpt lat="36.877573985409164" lon="-108.10328019973974"><ele>1872.8</ele><time>2026-04-25T16:43:12.001Z</time></trkpt><trkpt lat="36.87764669775871" lon="-108.10322227152781"><ele>1874.6</ele><time>2026-04-25T16:43:13.001Z</time></trkpt><trkpt lat="36.87772828811787" lon="-108.10315230889601"><ele>1876.4</ele><time>2026-04-25T16:43:14.001Z</time></trkpt><trkpt lat="36.877823475422524" lon="-108.10307141021856"><ele>1878.2</ele><time>2026-04-25T16:43:15.001Z</time></trkpt><trkpt lat="36.87792448888274" lon="-108.10298624266483"><ele>1880.0</ele><time>2026-04-25T16:43:16.001Z</time></trkpt><trkpt lat="36.878026200007035" lon="-108.10289749341881"><ele>1880.0</ele><time>2026-04-25T16:43:17.001Z</time></trkpt><trkpt lat="36.878111697389244" lon="-108.10282186909117"><ele>1880.0</ele><time>2026-04-25T16:43:18.001Z</time></trkpt><trkpt lat="36.878167994937805" lon="-108.10276952281839"><ele>1880.0</ele><time>2026-04-25T16:43:19.001Z</time></trkpt><trkpt lat="36.878216778552726" lon="-108.10265847678644"><ele>1880.0</ele><time>2026-04-25T16:43:21.001Z</time></trkpt><trkpt lat="36.878127323327426" lon="-108.102619528001"><ele>1880.0</ele><time>2026-04-25T16:43:22.001Z</time></trkpt><trkpt lat="36.8780097409292" lon="-108.10259392297941"><ele>1880.0</ele><time>2026-04-25T16:43:23.001Z</time></trkpt><trkpt lat="36.87791111511835" lon="-108.10254599216746"><ele>1880.0</ele><time>2026-04-25T16:43:24.001Z</time></trkpt><trkpt lat="36.87770434463229" lon="-108.10245395519041"><ele>1880.0</ele><time>2026-04-25T16:43:25.001Z</time></trkpt><trkpt lat="36.8776289356615" lon="-108.10231733185053"><ele>1880.4</ele><time>2026-04-25T16:43:26.001Z</time></trkpt><trkpt lat="36.87757412330875" lon="-108.10222773647156"><ele>1880.8</ele><time>2026-04-25T16:43:27.001Z</time></trkpt><trkpt lat="36.877497105936484" lon="-108.10216736687129"><ele>1881.1999999999998</ele><time>2026-04-25T16:43:28.001Z</time></trkpt><trkpt lat="36.877413122055835" lon="-108.10210143219608"><ele>1881.6</ele><time>2026-04-25T16:43:29.001Z</time></trkpt><trkpt lat="36.877411396137" lon="-108.10199732423833"><ele>1882.0</ele><time>2026-04-25T16:43:31.001Z</time></trkpt><trkpt lat="36.877455880874514" lon="-108.10190428976182"><ele>1882.0</ele><time>2026-04-25T16:43:32.001Z</time></trkpt><trkpt lat="36.87737529595116" lon="-108.10178317190784"><ele>1882.0</ele><time>2026-04-25T16:43:34.001Z</time></trkpt><trkpt lat="36.87730080857395" lon="-108.1016833716228"><ele>1882.0</ele><time>2026-04-25T16:43:35.001Z</time></trkpt><trkpt lat="36.877222737906614" lon="-108.10156676675544"><ele>1882.0</ele><time>2026-04-25T16:43:36.001Z</time></trkpt><trkpt lat="36.877146924436595" lon="-108.10148046562277"><ele>1881.6666666666667</ele><time>2026-04-25T16:43:37.001Z</time></trkpt><trkpt lat="36.877071838808476" lon="-108.10143186745267"><ele>1881.3333333333335</ele><time>2026-04-25T16:43:38.001Z</time></trkpt><trkpt lat="36.87699845762682" lon="-108.10139518937376"><ele>1881.0</ele><time>2026-04-25T16:43:39.001Z</time></trkpt><trkpt lat="36.87693195461568" lon="-108.10132502597364"><ele>1880.6666666666665</ele><time>2026-04-25T16:43:40.001Z</time></trkpt><trkpt lat="36.87688382457946" lon="-108.10126261870674"><ele>1880.3333333333333</ele><time>2026-04-25T16:43:41.001Z</time></trkpt><trkpt lat="36.8768075921698" lon="-108.10121554974667"><ele>1880.0</ele><time>2026-04-25T16:43:42.001Z</time></trkpt><trkpt lat="36.87675170739013" lon="-108.10116410631056"><ele>1880.0</ele><time>2026-04-25T16:43:43.001Z</time></trkpt><trkpt lat="36.87667517014276" lon="-108.10114182357609"><ele>1880.0</ele><time>2026-04-25T16:43:45.001Z</time></trkpt><trkpt lat="36.876571605301706" lon="-108.10117343044958"><ele>1880.0</ele><time>2026-04-25T16:43:46.001Z</time></trkpt><trkpt lat="36.87649989716423" lon="-108.10114363883173"><ele>1880.0</ele><time>2026-04-25T16:43:47.001Z</time></trkpt><trkpt lat="36.876459709001495" lon="-108.10103667117117"><ele>1880.0</ele><time>2026-04-25T16:43:49.001Z</time></trkpt><trkpt lat="36.87653357207195" lon="-108.1009233596583"><ele>1880.0</ele><time>2026-04-25T16:43:51.001Z</time></trkpt><trkpt lat="36.876479037466325" lon="-108.10081127664773"><ele>1880.0</ele><time>2026-04-25T16:43:52.001Z</time></trkpt><trkpt lat="36.87661500911149" lon="-108.10083703897732"><ele>1880.0</ele><time>2026-04-25T16:43:53.001Z</time></trkpt><trkpt lat="36.876733544444306" lon="-108.10081979358651"><ele>1880.0</ele><time>2026-04-25T16:43:55.001Z</time></trkpt><trkpt lat="36.87679743459248" lon="-108.10076387469753"><ele>1880.0</ele><time>2026-04-25T16:43:56.001Z</time></trkpt><trkpt lat="36.876858593962034" lon="-108.10073268660814"><ele>1881.1666666666665</ele><time>2026-04-25T16:43:57.001Z</time></trkpt><trkpt lat="36.87692369231751" lon="-108.10073351889584"><ele>1882.3333333333333</ele><time>2026-04-25T16:43:58.001Z</time></trkpt><trkpt lat="36.877005467649234" lon="-108.10074538316898"><ele>1883.5</ele><time>2026-04-25T16:43:59.001Z</time></trkpt><trkpt lat="36.87710105564358" lon="-108.10074809297176"><ele>1884.6666666666665</ele><time>2026-04-25T16:44:00.001Z</time></trkpt><trkpt lat="36.877203994474215" lon="-108.10075849225673"><ele>1885.8333333333333</ele><time>2026-04-25T16:44:01.001Z</time></trkpt><trkpt lat="36.877292253575995" lon="-108.10074078588949"><ele>1887.0</ele><time>2026-04-25T16:44:02.001Z</time></trkpt><trkpt lat="36.877379820811626" lon="-108.10066265124006"><ele>1887.0</ele><time>2026-04-25T16:44:03Z</time></trkpt><trkpt lat="36.87746362120414" lon="-108.10059287692518"><ele>1886.9999999999998</ele><time>2026-04-25T16:44:04Z</time></trkpt><trkpt lat="36.877528733115845" lon="-108.1005208304325"><ele>1886.9999999999998</ele><time>2026-04-25T16:44:05Z</time></trkpt><trkpt lat="36.87758829539444" lon="-108.1004329581263"><ele>1887.0</ele><time>2026-04-25T16:44:06Z</time></trkpt><trkpt lat="36.87764973017157" lon="-108.10034495517564"><ele>1887.0</ele><time>2026-04-25T16:44:07Z</time></trkpt><trkpt lat="36.87771110329337" lon="-108.1002551588068"><ele>1887.6666666666667</ele><time>2026-04-25T16:44:08Z</time></trkpt><trkpt lat="36.877762912233116" lon="-108.10017480293742"><ele>1888.3333333333335</ele><time>2026-04-25T16:44:09Z</time></trkpt><trkpt lat="36.87786360298736" lon="-108.10020262736725"><ele>1889.0</ele><time>2026-04-25T16:44:11Z</time></trkpt><trkpt lat="36.87794172593498" lon="-108.10021789491208"><ele>1889.6666666666667</ele><time>2026-04-25T16:44:12Z</time></trkpt><trkpt lat="36.87801685529336" lon="-108.10020346813427"><ele>1890.3333333333335</ele><time>2026-04-25T16:44:13Z</time></trkpt><trkpt lat="36.87810344589942" lon="-108.10016966359233"><ele>1891.0</ele><time>2026-04-25T16:44:14Z</time></trkpt><trkpt lat="36.87820115156289" lon="-108.10012752611483"><ele>1891.0000000000002</ele><time>2026-04-25T16:44:15Z</time></trkpt><trkpt lat="36.87826887770242" lon="-108.10004818602258"><ele>1891.0</ele><time>2026-04-25T16:44:16Z</time></trkpt><trkpt lat="36.878335391986184" lon="-108.09993927076225"><ele>1891.0</ele><time>2026-04-25T16:44:17Z</time></trkpt><trkpt lat="36.8784117066112" lon="-108.09987678026577"><ele>1891.0</ele><time>2026-04-25T16:44:18Z</time></trkpt><trkpt lat="36.87847376014659" lon="-108.09984191679325"><ele>1891.0000000000002</ele><time>2026-04-25T16:44:19Z</time></trkpt><trkpt lat="36.87849385828293" lon="-108.09974670007801"><ele>1891.0</ele><time>2026-04-25T16:44:20Z</time></trkpt><trkpt lat="36.87852185236467" lon="-108.09959417831156"><ele>1890.75</ele><time>2026-04-25T16:44:21Z</time></trkpt><trkpt lat="36.87857428136088" lon="-108.09943335947146"><ele>1890.5</ele><time>2026-04-25T16:44:22Z</time></trkpt><trkpt lat="36.87863455139633" lon="-108.09928509811867"><ele>1890.25</ele><time>2026-04-25T16:44:23Z</time></trkpt><trkpt lat="36.878676907004234" lon="-108.09918293582119"><ele>1890.0</ele><time>2026-04-25T16:44:24Z</time></trkpt><trkpt lat="36.87876209378543" lon="-108.09910678361078"><ele>1890.0</ele><time>2026-04-25T16:44:26Z</time></trkpt><trkpt lat="36.87885322879656" lon="-108.09910937266172"><ele>1890.0</ele><time>2026-04-25T16:44:27Z</time></trkpt><trkpt lat="36.878931041697044" lon="-108.0991196177184"><ele>1890.0</ele><time>2026-04-25T16:44:28Z</time></trkpt><trkpt lat="36.87899935685" lon="-108.09914427379786"><ele>1890.0</ele><time>2026-04-25T16:44:29Z</time></trkpt><trkpt lat="36.879092910968666" lon="-108.09916702843539"><ele>1890.0</ele><time>2026-04-25T16:44:30Z</time></trkpt><trkpt lat="36.87920546248584" lon="-108.09917589804773"><ele>1890.0</ele><time>2026-04-25T16:44:31Z</time></trkpt><trkpt lat="36.87930912192432" lon="-108.09921653210158"><ele>1889.0</ele><time>2026-04-25T16:44:32Z</time></trkpt><trkpt lat="36.8793794036173" lon="-108.09922885456052"><ele>1888.0</ele><time>2026-04-25T16:44:33Z</time></trkpt><trkpt lat="36.87950048941884" lon="-108.09926530761777"><ele>1887.0</ele><time>2026-04-25T16:44:35Z</time></trkpt><trkpt lat="36.87953282599436" lon="-108.09934023488809"><ele>1886.0</ele><time>2026-04-25T16:44:36Z</time></trkpt><trkpt lat="36.87954851425163" lon="-108.09944191064922"><ele>1885.0</ele><time>2026-04-25T16:44:37Z</time></trkpt><trkpt lat="36.87955475127431" lon="-108.09954655696255"><ele>1884.0</ele><time>2026-04-25T16:44:38.001Z</time></trkpt><trkpt lat="36.87957732801426" lon="-108.09964711197895"><ele>1884.0</ele><time>2026-04-25T16:44:40.001Z</time></trkpt><trkpt lat="36.879692808555156" lon="-108.09959871742689"><ele>1884.0</ele><time>2026-04-25T16:44:42.001Z</time></trkpt><trkpt lat="36.879767460634085" lon="-108.09956611663786"><ele>1884.0</ele><time>2026-04-25T16:44:43.001Z</time></trkpt><trkpt lat="36.879837363299096" lon="-108.0995918975903"><ele>1884.0</ele><time>2026-04-25T16:44:44.001Z</time></trkpt><trkpt lat="36.87991037556181" lon="-108.09964623778475"><ele>1884.0</ele><time>2026-04-25T16:44:45.001Z</time></trkpt><trkpt lat="36.879987797827496" lon="-108.09969053593545"><ele>1884.0</ele><time>2026-04-25T16:44:46.001Z</time></trkpt><trkpt lat="36.88010237759255" lon="-108.09965557406447"><ele>1883.6</ele><time>2026-04-25T16:44:48.001Z</time></trkpt><trkpt lat="36.88019979265256" lon="-108.09966312886313"><ele>1883.2</ele><time>2026-04-25T16:44:49.001Z</time></trkpt><trkpt lat="36.880288182438626" lon="-108.09965527638455"><ele>1882.7999999999997</ele><time>2026-04-25T16:44:50.001Z</time></trkpt><trkpt lat="36.880364344713165" lon="-108.09966030194967"><ele>1882.3999999999999</ele><time>2026-04-25T16:44:51.001Z</time></trkpt><trkpt lat="36.88045065741743" lon="-108.09964707842887"><ele>1882.0</ele><time>2026-04-25T16:44:53.001Z</time></trkpt><trkpt lat="36.88055681119804" lon="-108.09960382210309"><ele>1882.0</ele><time>2026-04-25T16:44:55.001Z</time></trkpt><trkpt lat="36.88064515446945" lon="-108.09962485393659"><ele>1881.9999999999998</ele><time>2026-04-25T16:44:57.001Z</time></trkpt><trkpt lat="36.880701306568355" lon="-108.09954574286476"><ele>1881.9999999999998</ele><time>2026-04-25T16:44:58.001Z</time></trkpt><trkpt lat="36.880806599184666" lon="-108.09947326811675"><ele>1882.0</ele><time>2026-04-25T16:45:00.001Z</time></trkpt><trkpt lat="36.88085405813989" lon="-108.09939259420905"><ele>1882.0</ele><time>2026-04-25T16:45:01.001Z</time></trkpt><trkpt lat="36.880913575460994" lon="-108.0992997818039"><ele>1882.0000000000002</ele><time>2026-04-25T16:45:02.001Z</time></trkpt><trkpt lat="36.880979443645764" lon="-108.0992458767731"><ele>1882.0</ele><time>2026-04-25T16:45:03.001Z</time></trkpt><trkpt lat="36.88104615609538" lon="-108.09920491271441"><ele>1882.0</ele><time>2026-04-25T16:45:04.001Z</time></trkpt><trkpt lat="36.881118065303106" lon="-108.09918732071733"><ele>1882.0</ele><time>2026-04-25T16:45:05.001Z</time></trkpt><trkpt lat="36.881207545399135" lon="-108.09918318136121"><ele>1882.0000000000002</ele><time>2026-04-25T16:45:06.001Z</time></trkpt><trkpt lat="36.881270243344545" lon="-108.09915498423797"><ele>1882.0</ele><time>2026-04-25T16:45:07.001Z</time></trkpt><trkpt lat="36.88134876199944" lon="-108.09909584674814"><ele>1881.3999999999999</ele><time>2026-04-25T16:45:08.001Z</time></trkpt><trkpt lat="36.881423827737514" lon="-108.09901449224206"><ele>1880.7999999999997</ele><time>2026-04-25T16:45:09.001Z</time></trkpt><trkpt lat="36.88145589162014" lon="-108.09892943073717"><ele>1880.2</ele><time>2026-04-25T16:45:10.001Z</time></trkpt><trkpt lat="36.88157505493473" lon="-108.09891382510808"><ele>1879.6</ele><time>2026-04-25T16:45:12.001Z</time></trkpt><trkpt lat="36.88166891782547" lon="-108.0989048461793"><ele>1879.0</ele><time>2026-04-25T16:45:13.001Z</time></trkpt><trkpt lat="36.88175597364053" lon="-108.09894354275627"><ele>1877.8000000000002</ele><time>2026-04-25T16:45:15.001Z</time></trkpt><trkpt lat="36.881827466993094" lon="-108.09904740497188"><ele>1876.6000000000001</ele><time>2026-04-25T16:45:16.001Z</time></trkpt><trkpt lat="36.8819036596528" lon="-108.09915530279734"><ele>1875.4</ele><time>2026-04-25T16:45:17.001Z</time></trkpt><trkpt lat="36.881977593175755" lon="-108.09920340477798"><ele>1874.2</ele><time>2026-04-25T16:45:18.001Z</time></trkpt><trkpt lat="36.88205084155841" lon="-108.09921488252513"><ele>1873.0</ele><time>2026-04-25T16:45:19.001Z</time></trkpt><trkpt lat="36.88213585658115" lon="-108.09919738474575"><ele>1873.0000000000002</ele><time>2026-04-25T16:45:20.001Z</time></trkpt><trkpt lat="36.882209988692175" lon="-108.09917641315931"><ele>1873.0</ele><time>2026-04-25T16:45:21.001Z</time></trkpt><trkpt lat="36.882279697720136" lon="-108.09918217399955"><ele>1873.0</ele><time>2026-04-25T16:45:22.001Z</time></trkpt><trkpt lat="36.882404580944446" lon="-108.0992137289575"><ele>1873.0</ele><time>2026-04-25T16:45:24.001Z</time></trkpt><trkpt lat="36.88248945457044" lon="-108.09919158148335"><ele>1873.0000000000002</ele><time>2026-04-25T16:45:26.001Z</time></trkpt><trkpt lat="36.88255109098276" lon="-108.09915008043741"><ele>1873.0</ele><time>2026-04-25T16:45:30.001Z</time></trkpt><trkpt lat="36.882620975428374" lon="-108.09914642995224"><ele>1871.8000000000002</ele><time>2026-04-25T16:45:33.001Z</time></trkpt><trkpt lat="36.88269053593531" lon="-108.09920804206931"><ele>1870.6000000000001</ele><time>2026-04-25T16:45:35.001Z</time></trkpt><trkpt lat="36.882774387986366" lon="-108.09925003503906"><ele>1869.3999999999999</ele><time>2026-04-25T16:45:36.001Z</time></trkpt><trkpt lat="36.88285741278713" lon="-108.09936920657583"><ele>1868.1999999999998</ele><time>2026-04-25T16:45:38.001Z</time></trkpt><trkpt lat="36.88290582493761" lon="-108.09945589561424"><ele>1867.0</ele><time>2026-04-25T16:45:39.001Z</time></trkpt><trkpt lat="36.88295533749953" lon="-108.09957316515445"><ele>1867.0</ele><time>2026-04-25T16:45:40.001Z</time></trkpt><trkpt lat="36.883007302282614" lon="-108.0996960976235"><ele>1866.9999999999998</ele><time>2026-04-25T16:45:41.001Z</time></trkpt><trkpt lat="36.88306507726216" lon="-108.09978191321738"><ele>1866.9999999999998</ele><time>2026-04-25T16:45:42.001Z</time></trkpt><trkpt lat="36.883130794374125" lon="-108.09984887096917"><ele>1867.0</ele><time>2026-04-25T16:45:43.001Z</time></trkpt><trkpt lat="36.88321818730995" lon="-108.09990517950433"><ele>1867.0</ele><time>2026-04-25T16:45:44.001Z</time></trkpt><trkpt lat="36.88334375631985" lon="-108.09994049656785"><ele>1866.0</ele><time>2026-04-25T16:45:45.001Z</time></trkpt><trkpt lat="36.883465256813714" lon="-108.09997096066678"><ele>1864.9999999999998</ele><time>2026-04-25T16:45:46.001Z</time></trkpt><trkpt lat="36.88357707189526" lon="-108.09998325957693"><ele>1863.9999999999998</ele><time>2026-04-25T16:45:47.001Z</time></trkpt><trkpt lat="36.88366666244751" lon="-108.09999979533073"><ele>1863.0</ele><time>2026-04-25T16:45:48.001Z</time></trkpt><trkpt lat="36.88374523113416" lon="-108.100073784604"><ele>1862.0</ele><time>2026-04-25T16:45:50.001Z</time></trkpt><trkpt lat="36.88381232863698" lon="-108.10020676401331"><ele>1862.0</ele><time>2026-04-25T16:45:52.001Z</time></trkpt><trkpt lat="36.883847505494764" lon="-108.10032617769366"><ele>1862.0</ele><time>2026-04-25T16:45:53.001Z</time></trkpt><trkpt lat="36.88384663835039" lon="-108.10052260678165"><ele>1862.0</ele><time>2026-04-25T16:45:54.001Z</time></trkpt><trkpt lat="36.88388157084085" lon="-108.10064706609661"><ele>1862.0</ele><time>2026-04-25T16:45:55.001Z</time></trkpt><trkpt lat="36.883910312996264" lon="-108.10079427001844"><ele>1861.6</ele><time>2026-04-25T16:45:56.001Z</time></trkpt><trkpt lat="36.88396393979916" lon="-108.10084499143892"><ele>1861.1999999999998</ele><time>2026-04-25T16:45:57.001Z</time></trkpt><trkpt lat="36.88399496142756" lon="-108.10095164800961"><ele>1860.8</ele><time>2026-04-25T16:45:58.001Z</time></trkpt><trkpt lat="36.88405259334622" lon="-108.10107939351592"><ele>1860.4</ele><time>2026-04-25T16:45:59.001Z</time></trkpt><trkpt lat="36.88412552033791" lon="-108.1011857254818"><ele>1860.0</ele><time>2026-04-25T16:46:00.001Z</time></trkpt><trkpt lat="36.88418876008989" lon="-108.10126656457197"><ele>1860.0</ele><time>2026-04-25T16:46:01.001Z</time></trkpt><trkpt lat="36.8842492779879" lon="-108.10132004654099"><ele>1860.0</ele><time>2026-04-25T16:46:02.001Z</time></trkpt><trkpt lat="36.88431315101415" lon="-108.10135788732552"><ele>1860.0</ele><time>2026-04-25T16:46:03.001Z</time></trkpt><trkpt lat="36.88436415562021" lon="-108.10141392431564"><ele>1860.0</ele><time>2026-04-25T16:46:04.001Z</time></trkpt><trkpt lat="36.884404235179545" lon="-108.1015026175584"><ele>1860.0</ele><time>2026-04-25T16:46:05.001Z</time></trkpt><trkpt lat="36.88445595318691" lon="-108.10155594598177"><ele>1860.0</ele><time>2026-04-25T16:46:06.001Z</time></trkpt><trkpt lat="36.88460892188917" lon="-108.10158677087125"><ele>1858.8</ele><time>2026-04-25T16:46:08.001Z</time></trkpt><trkpt lat="36.884736394580486" lon="-108.10160946204937"><ele>1857.6</ele><time>2026-04-25T16:46:09Z</time></trkpt><trkpt lat="36.88485357740497" lon="-108.10167299845254"><ele>1856.4</ele><time>2026-04-25T16:46:10Z</time></trkpt><trkpt lat="36.88494403517822" lon="-108.10169394969421"><ele>1855.2</ele><time>2026-04-25T16:46:11Z</time></trkpt><trkpt lat="36.885007705964675" lon="-108.10171362003948"><ele>1854.0</ele><time>2026-04-25T16:46:12Z</time></trkpt><trkpt lat="36.88507712799059" lon="-108.1017069915312"><ele>1854.0</ele><time>2026-04-25T16:46:13Z</time></trkpt><trkpt lat="36.88518197823721" lon="-108.10173429192389"><ele>1854.0</ele><time>2026-04-25T16:46:15Z</time></trkpt><trkpt lat="36.885222707235414" lon="-108.10182030340546"><ele>1854.0</ele><time>2026-04-25T16:46:16Z</time></trkpt><trkpt lat="36.88528586254002" lon="-108.10191369427392"><ele>1854.0</ele><time>2026-04-25T16:46:17Z</time></trkpt><trkpt lat="36.88537196704135" lon="-108.10192656063282"><ele>1854.0</ele><time>2026-04-25T16:46:18Z</time></trkpt><trkpt lat="36.88547078991387" lon="-108.10194318019711"><ele>1854.0</ele><time>2026-04-25T16:46:19Z</time></trkpt><trkpt lat="36.88556391166475" lon="-108.10197575196193"><ele>1854.0</ele><time>2026-04-25T16:46:20Z</time></trkpt><trkpt lat="36.88563121322733" lon="-108.10204181977645"><ele>1854.0</ele><time>2026-04-25T16:46:21Z</time></trkpt><trkpt lat="36.885701505638416" lon="-108.10213037111541"><ele>1854.0</ele><time>2026-04-25T16:46:22Z</time></trkpt><trkpt lat="36.885750631314416" lon="-108.10225689679947"><ele>1854.0</ele><time>2026-04-25T16:46:23Z</time></trkpt><trkpt lat="36.88578722736368" lon="-108.10241734094522"><ele>1853.25</ele><time>2026-04-25T16:46:24Z</time></trkpt><trkpt lat="36.885830572739046" lon="-108.10259386177052"><ele>1852.5</ele><time>2026-04-25T16:46:25Z</time></trkpt><trkpt lat="36.88587676494725" lon="-108.10276174224741"><ele>1851.75</ele><time>2026-04-25T16:46:26Z</time></trkpt><trkpt lat="36.88591962379863" lon="-108.10289615560646"><ele>1851.0</ele><time>2026-04-25T16:46:27Z</time></trkpt><trkpt lat="36.885960574737666" lon="-108.10301156275902"><ele>1850.75</ele><time>2026-04-25T16:46:28Z</time></trkpt><trkpt lat="36.88600439594288" lon="-108.10315571476384"><ele>1850.5</ele><time>2026-04-25T16:46:29Z</time></trkpt><trkpt lat="36.886044345030086" lon="-108.10332316799891"><ele>1850.25</ele><time>2026-04-25T16:46:30Z</time></trkpt><trkpt lat="36.886094275181584" lon="-108.1034639472675"><ele>1850.0</ele><time>2026-04-25T16:46:31Z</time></trkpt><trkpt lat="36.88614781310457" lon="-108.10359032944598"><ele>1849.3333333333333</ele><time>2026-04-25T16:46:32Z</time></trkpt><trkpt lat="36.8862035353028" lon="-108.10372486868675"><ele>1848.6666666666665</ele><time>2026-04-25T16:46:33Z</time></trkpt><trkpt lat="36.886250857333415" lon="-108.10383510190363"><ele>1848.0</ele><time>2026-04-25T16:46:34Z</time></trkpt><trkpt lat="36.88627250556399" lon="-108.10392976735984"><ele>1847.3333333333335</ele><time>2026-04-25T16:46:35Z</time></trkpt><trkpt lat="36.88626886902571" lon="-108.10401772511176"><ele>1846.6666666666667</ele><time>2026-04-25T16:46:36Z</time></trkpt><trkpt lat="36.886247007763224" lon="-108.10410318878199"><ele>1846.0</ele><time>2026-04-25T16:46:37Z</time></trkpt><trkpt lat="36.88618009527215" lon="-108.10417219591814"><ele>1845.4</ele><time>2026-04-25T16:46:39Z</time></trkpt><trkpt lat="36.886107092178875" lon="-108.10421720755795"><ele>1844.8</ele><time>2026-04-25T16:46:41Z</time></trkpt><trkpt lat="36.88611362012972" lon="-108.10432166943428"><ele>1844.2000000000003</ele><time>2026-04-25T16:46:43Z</time></trkpt><trkpt lat="36.886160015138" lon="-108.10445922456181"><ele>1843.6000000000001</ele><time>2026-04-25T16:46:45Z</time></trkpt><trkpt lat="36.88617184533624" lon="-108.10454726370189"><ele>1843.0</ele><time>2026-04-25T16:46:46.001Z</time></trkpt><trkpt lat="36.886247304288105" lon="-108.1046213286287"><ele>1843.0</ele><time>2026-04-25T16:46:48.001Z</time></trkpt><trkpt lat="36.886405233091146" lon="-108.10464563233921"><ele>1843.0</ele><time>2026-04-25T16:46:51.001Z</time></trkpt><trkpt lat="36.88655783807522" lon="-108.10466420141933"><ele>1843.0</ele><time>2026-04-25T16:46:52.001Z</time></trkpt><trkpt lat="36.886659170963675" lon="-108.10466949971492"><ele>1843.0</ele><time>2026-04-25T16:46:53.001Z</time></trkpt><trkpt lat="36.886766217515245" lon="-108.1046791021152"><ele>1844.25</ele><time>2026-04-25T16:46:54.001Z</time></trkpt><trkpt lat="36.88686012013243" lon="-108.10472131432147"><ele>1845.5</ele><time>2026-04-25T16:46:55.001Z</time></trkpt><trkpt lat="36.8869264516222" lon="-108.1048244324051"><ele>1846.75</ele><time>2026-04-25T16:46:56.001Z</time></trkpt><trkpt lat="36.886994538610324" lon="-108.10495558100007"><ele>1848.0</ele><time>2026-04-25T16:46:57.001Z</time></trkpt><trkpt lat="36.887110403021296" lon="-108.10508073746215"><ele>1848.4</ele><time>2026-04-25T16:46:58.001Z</time></trkpt><trkpt lat="36.8872125554001" lon="-108.1051522991814"><ele>1848.8000000000002</ele><time>2026-04-25T16:46:59.001Z</time></trkpt><trkpt lat="36.887309342593724" lon="-108.10520577293529"><ele>1849.2</ele><time>2026-04-25T16:47:00.001Z</time></trkpt><trkpt lat="36.88738830113716" lon="-108.10525105434827"><ele>1849.6</ele><time>2026-04-25T16:47:01.001Z</time></trkpt><trkpt lat="36.88746841325658" lon="-108.10532966457403"><ele>1850.0</ele><time>2026-04-25T16:47:02.001Z</time></trkpt><trkpt lat="36.887554996578906" lon="-108.1054530708387"><ele>1851.0</ele><time>2026-04-25T16:47:03.001Z</time></trkpt><trkpt lat="36.88763634080352" lon="-108.10556414044272"><ele>1852.0</ele><time>2026-04-25T16:47:04.001Z</time></trkpt><trkpt lat="36.88772675094623" lon="-108.10565329194496"><ele>1853.0</ele><time>2026-04-25T16:47:05.001Z</time></trkpt><trkpt lat="36.8878203055151" lon="-108.10573061437043"><ele>1854.0</ele><time>2026-04-25T16:47:06.001Z</time></trkpt><trkpt lat="36.88788359802921" lon="-108.10575585450664"><ele>1855.0</ele><time>2026-04-25T16:47:07.001Z</time></trkpt><trkpt lat="36.88796234538081" lon="-108.10576352009925"><ele>1855.8</ele><time>2026-04-25T16:47:08.001Z</time></trkpt><trkpt lat="36.888081840036776" lon="-108.10582308876633"><ele>1856.6</ele><time>2026-04-25T16:47:11.001Z</time></trkpt><trkpt lat="36.88812723957181" lon="-108.10588211871467"><ele>1857.4</ele><time>2026-04-25T16:47:12.001Z</time></trkpt><trkpt lat="36.88824413305552" lon="-108.1058579077962"><ele>1858.2</ele><time>2026-04-25T16:47:14.001Z</time></trkpt><trkpt lat="36.88833650210003" lon="-108.1057880720465"><ele>1859.0</ele><time>2026-04-25T16:47:15.001Z</time></trkpt><trkpt lat="36.88843061715805" lon="-108.1057160566213"><ele>1859.0</ele><time>2026-04-25T16:47:16.001Z</time></trkpt><trkpt lat="36.88850163740539" lon="-108.10564210353526"><ele>1859.0</ele><time>2026-04-25T16:47:17.001Z</time></trkpt><trkpt lat="36.88857834919036" lon="-108.10557724159088"><ele>1859.0</ele><time>2026-04-25T16:47:18.001Z</time></trkpt><trkpt lat="36.88866921027682" lon="-108.10555354426008"><ele>1859.0</ele><time>2026-04-25T16:47:19.001Z</time></trkpt><trkpt lat="36.88877352406305" lon="-108.1055425116111"><ele>1859.0</ele><time>2026-04-25T16:47:20.001Z</time></trkpt><trkpt lat="36.88884568982662" lon="-108.10555057110373"><ele>1858.9999999999998</ele><time>2026-04-25T16:47:21.001Z</time></trkpt><trkpt lat="36.88889063627557" lon="-108.10562686269816"><ele>1859.0</ele><time>2026-04-25T16:47:22.001Z</time></trkpt><trkpt lat="36.88895571768077" lon="-108.10567485163628"><ele>1859.0</ele><time>2026-04-25T16:47:23.001Z</time></trkpt><trkpt lat="36.889087652131856" lon="-108.10569207107635"><ele>1859.0</ele><time>2026-04-25T16:47:25.001Z</time></trkpt><trkpt lat="36.889150424363386" lon="-108.10571705518448"><ele>1858.9999999999998</ele><time>2026-04-25T16:47:26.001Z</time></trkpt><trkpt lat="36.88923231066915" lon="-108.10578384520814"><ele>1859.0</ele><time>2026-04-25T16:47:28.001Z</time></trkpt><trkpt lat="36.88932130408795" lon="-108.10582328576918"><ele>1860.0</ele><time>2026-04-25T16:47:30.001Z</time></trkpt><trkpt lat="36.889419372693865" lon="-108.1059295536668"><ele>1861.0</ele><time>2026-04-25T16:47:32.001Z</time></trkpt><trkpt lat="36.88947876836752" lon="-108.10597452995016"><ele>1862.0</ele><time>2026-04-25T16:47:33.001Z</time></trkpt><trkpt lat="36.88955504326268" lon="-108.10602105086126"><ele>1863.0</ele><time>2026-04-25T16:47:35.001Z</time></trkpt><trkpt lat="36.889656250132866" lon="-108.10609004688895"><ele>1864.0</ele><time>2026-04-25T16:47:37.001Z</time></trkpt><trkpt lat="36.889713938238245" lon="-108.10614561450807"><ele>1864.0</ele><time>2026-04-25T16:47:39.001Z</time></trkpt><trkpt lat="36.889755888522096" lon="-108.10622821140015"><ele>1864.0</ele><time>2026-04-25T16:47:40.001Z</time></trkpt><trkpt lat="36.88978892879587" lon="-108.10631972627371"><ele>1864.0</ele><time>2026-04-25T16:47:41.001Z</time></trkpt><trkpt lat="36.88984444993528" lon="-108.10640747455943"><ele>1864.0</ele><time>2026-04-25T16:47:42.001Z</time></trkpt><trkpt lat="36.889926892744924" lon="-108.10648752703199"><ele>1864.0</ele><time>2026-04-25T16:47:43.001Z</time></trkpt><trkpt lat="36.88999460678305" lon="-108.10657463866357"><ele>1864.75</ele><time>2026-04-25T16:47:44.001Z</time></trkpt><trkpt lat="36.890128494554276" lon="-108.10655622421103"><ele>1865.5</ele><time>2026-04-25T16:47:46.001Z</time></trkpt><trkpt lat="36.89021872366392" lon="-108.10653761721163"><ele>1866.25</ele><time>2026-04-25T16:47:47.001Z</time></trkpt><trkpt lat="36.89029029956894" lon="-108.10666412889258"><ele>1867.0</ele><time>2026-04-25T16:47:49.001Z</time></trkpt><trkpt lat="36.890357416289135" lon="-108.10677112374626"><ele>1867.5</ele><time>2026-04-25T16:47:50.001Z</time></trkpt><trkpt lat="36.890461543824415" lon="-108.10686234030472"><ele>1868.0</ele><time>2026-04-25T16:47:51.001Z</time></trkpt><trkpt lat="36.890552969670715" lon="-108.10693514112111"><ele>1868.5</ele><time>2026-04-25T16:47:52.001Z</time></trkpt><trkpt lat="36.890610309081964" lon="-108.10702838531684"><ele>1869.0</ele><time>2026-04-25T16:47:53.001Z</time></trkpt><trkpt lat="36.89066712377724" lon="-108.10716762996387"><ele>1869.0</ele><time>2026-04-25T16:47:54.001Z</time></trkpt><trkpt lat="36.890720842205695" lon="-108.10730455751349"><ele>1869.0</ele><time>2026-04-25T16:47:55.001Z</time></trkpt><trkpt lat="36.89071118657162" lon="-108.10741815087572"><ele>1869.0</ele><time>2026-04-25T16:47:56.001Z</time></trkpt><trkpt lat="36.89072034094309" lon="-108.107551526494"><ele>1869.0</ele><time>2026-04-25T16:47:57.001Z</time></trkpt><trkpt lat="36.89074962779689" lon="-108.10763271247137"><ele>1869.0</ele><time>2026-04-25T16:47:58.001Z</time></trkpt><trkpt lat="36.8907962392328" lon="-108.10770122964703"><ele>1869.8333333333333</ele><time>2026-04-25T16:47:59.001Z</time></trkpt><trkpt lat="36.890825034386296" lon="-108.10778383724512"><ele>1870.6666666666665</ele><time>2026-04-25T16:48:00.001Z</time></trkpt><trkpt lat="36.89091624185743" lon="-108.10781746397159"><ele>1871.5</ele><time>2026-04-25T16:48:02.001Z</time></trkpt><trkpt lat="36.8910035116024" lon="-108.10781910768577"><ele>1872.3333333333333</ele><time>2026-04-25T16:48:03.001Z</time></trkpt><trkpt lat="36.89108350485921" lon="-108.10781389829596"><ele>1873.1666666666665</ele><time>2026-04-25T16:48:04.001Z</time></trkpt><trkpt lat="36.891176742034524" lon="-108.10781389195918"><ele>1874.0</ele><time>2026-04-25T16:48:06.001Z</time></trkpt><trkpt lat="36.89128567596141" lon="-108.10791758191456"><ele>1874.0</ele><time>2026-04-25T16:48:08.001Z</time></trkpt><trkpt lat="36.89134757938068" lon="-108.10800899119441"><ele>1874.0</ele><time>2026-04-25T16:48:09.001Z</time></trkpt><trkpt lat="36.891387810963806" lon="-108.10811052202554"><ele>1874.0</ele><time>2026-04-25T16:48:10.001Z</time></trkpt><trkpt lat="36.891443891389486" lon="-108.10818768267796"><ele>1874.0</ele><time>2026-04-25T16:48:11.001Z</time></trkpt><trkpt lat="36.891545514461214" lon="-108.10824275716587"><ele>1874.0</ele><time>2026-04-25T16:48:12.001Z</time></trkpt><trkpt lat="36.891607618879846" lon="-108.10831906397901"><ele>1874.2</ele><time>2026-04-25T16:48:13.001Z</time></trkpt><trkpt lat="36.89164187232406" lon="-108.10841002705575"><ele>1874.4</ele><time>2026-04-25T16:48:14.001Z</time></trkpt><trkpt lat="36.89166741585737" lon="-108.1085376184598"><ele>1874.6</ele><time>2026-04-25T16:48:15Z</time></trkpt><trkpt lat="36.891704178021804" lon="-108.10866719715582"><ele>1874.8</ele><time>2026-04-25T16:48:16Z</time></trkpt><trkpt lat="36.891746637130616" lon="-108.10878850508121"><ele>1875.0</ele><time>2026-04-25T16:48:17Z</time></trkpt><trkpt lat="36.89178226346174" lon="-108.10886702699028"><ele>1875.1666666666667</ele><time>2026-04-25T16:48:18Z</time></trkpt><trkpt lat="36.89185219252085" lon="-108.1089386021725"><ele>1875.3333333333335</ele><time>2026-04-25T16:48:19Z</time></trkpt><trkpt lat="36.891918738235375" lon="-108.10903473893569"><ele>1875.5</ele><time>2026-04-25T16:48:20Z</time></trkpt><trkpt lat="36.89193153972452" lon="-108.10912437001129"><ele>1875.6666666666667</ele><time>2026-04-25T16:48:21Z</time></trkpt><trkpt lat="36.89192837233451" lon="-108.10923500746756"><ele>1875.8333333333335</ele><time>2026-04-25T16:48:22Z</time></trkpt><trkpt lat="36.89193735566196" lon="-108.10933705029514"><ele>1876.0</ele><time>2026-04-25T16:48:23Z</time></trkpt><trkpt lat="36.89196813212288" lon="-108.10942278584449"><ele>1877.0</ele><time>2026-04-25T16:48:24Z</time></trkpt><trkpt lat="36.89204272382119" lon="-108.1095289411443"><ele>1878.0</ele><time>2026-04-25T16:48:25Z</time></trkpt><trkpt lat="36.892090137963415" lon="-108.10962185274553"><ele>1879.0</ele><time>2026-04-25T16:48:26Z</time></trkpt><trkpt lat="36.89211173507673" lon="-108.10973447693875"><ele>1880.0</ele><time>2026-04-25T16:48:27Z</time></trkpt><trkpt lat="36.892166705624426" lon="-108.10983653707383"><ele>1881.0</ele><time>2026-04-25T16:48:28Z</time></trkpt><trkpt lat="36.89222116925861" lon="-108.10989545578867"><ele>1882.8</ele><time>2026-04-25T16:48:29Z</time></trkpt><trkpt lat="36.89216273017971" lon="-108.11007816551711"><ele>1884.6</ele><time>2026-04-25T16:48:31Z</time></trkpt><trkpt lat="36.89215975081262" lon="-108.11020265455292"><ele>1886.4</ele><time>2026-04-25T16:48:32Z</time></trkpt><trkpt lat="36.89218997001724" lon="-108.11029658845261"><ele>1888.2</ele><time>2026-04-25T16:48:33Z</time></trkpt><trkpt lat="36.89221533284226" lon="-108.11041200585329"><ele>1890.0</ele><time>2026-04-25T16:48:34Z</time></trkpt><trkpt lat="36.89221440488934" lon="-108.11051421138602"><ele>1890.0</ele><time>2026-04-25T16:48:35Z</time></trkpt><trkpt lat="36.892240076587335" lon="-108.11058735153827"><ele>1890.0</ele><time>2026-04-25T16:48:36Z</time></trkpt><trkpt lat="36.89236437498837" lon="-108.11063708875834"><ele>1890.0</ele><time>2026-04-25T16:48:38Z</time></trkpt><trkpt lat="36.89242261608499" lon="-108.11059620728824"><ele>1890.0</ele><time>2026-04-25T16:48:39Z</time></trkpt><trkpt lat="36.89249107550527" lon="-108.11055354773511"><ele>1890.0</ele><time>2026-04-25T16:48:40Z</time></trkpt><trkpt lat="36.89258575604864" lon="-108.11056728959439"><ele>1890.0</ele><time>2026-04-25T16:48:41Z</time></trkpt><trkpt lat="36.89267618118078" lon="-108.11059084324334"><ele>1890.0</ele><time>2026-04-25T16:48:42Z</time></trkpt><trkpt lat="36.89277499177174" lon="-108.11069657009789"><ele>1890.0</ele><time>2026-04-25T16:48:44Z</time></trkpt><trkpt lat="36.892835388888884" lon="-108.11077427252403"><ele>1890.0</ele><time>2026-04-25T16:48:45Z</time></trkpt><trkpt lat="36.89289740148625" lon="-108.11080762346786"><ele>1890.0</ele><time>2026-04-25T16:48:46Z</time></trkpt><trkpt lat="36.89302021078912" lon="-108.11072347394095"><ele>1890.0</ele><time>2026-04-25T16:48:48Z</time></trkpt><trkpt lat="36.89309923465146" lon="-108.11069437081191"><ele>1890.0</ele><time>2026-04-25T16:48:49Z</time></trkpt><trkpt lat="36.893179587607975" lon="-108.11071374427708"><ele>1890.0</ele><time>2026-04-25T16:48:50Z</time></trkpt><trkpt lat="36.89324791777212" lon="-108.1107396914448"><ele>1890.0</ele><time>2026-04-25T16:48:51Z</time></trkpt><trkpt lat="36.89331019565669" lon="-108.11077480064571"><ele>1890.0</ele><time>2026-04-25T16:48:52Z</time></trkpt><trkpt lat="36.893439377039826" lon="-108.110750102741"><ele>1890.0</ele><time>2026-04-25T16:48:54Z</time></trkpt><trkpt lat="36.89355118670707" lon="-108.11071602996837"><ele>1890.2</ele><time>2026-04-25T16:48:55.001Z</time></trkpt><trkpt lat="36.893641568100946" lon="-108.11068671332319"><ele>1890.4</ele><time>2026-04-25T16:48:56.001Z</time></trkpt><trkpt lat="36.89372288824358" lon="-108.11063102335812"><ele>1890.6</ele><time>2026-04-25T16:48:57.001Z</time></trkpt><trkpt lat="36.893790658733735" lon="-108.1105727357628"><ele>1890.8</ele><time>2026-04-25T16:48:58.001Z</time></trkpt><trkpt lat="36.893926828486364" lon="-108.1105263802527"><ele>1891.0</ele><time>2026-04-25T16:49:00.001Z</time></trkpt><trkpt lat="36.894013233034336" lon="-108.1104517215519"><ele>1891.0000000000002</ele><time>2026-04-25T16:49:01.001Z</time></trkpt><trkpt lat="36.894101658639634" lon="-108.11038748456689"><ele>1891.0</ele><time>2026-04-25T16:49:02.001Z</time></trkpt><trkpt lat="36.8941860232159" lon="-108.11033397716054"><ele>1891.0</ele><time>2026-04-25T16:49:03.001Z</time></trkpt><trkpt lat="36.89425033080331" lon="-108.11026598403996"><ele>1891.0</ele><time>2026-04-25T16:49:04.001Z</time></trkpt><trkpt lat="36.894274971426135" lon="-108.11017289474042"><ele>1891.0000000000002</ele><time>2026-04-25T16:49:05.001Z</time></trkpt><trkpt lat="36.89430708560978" lon="-108.11007749639319"><ele>1891.0</ele><time>2026-04-25T16:49:06.001Z</time></trkpt><trkpt lat="36.894377016619444" lon="-108.11000975283635"><ele>1891.0000000000002</ele><time>2026-04-25T16:49:07.001Z</time></trkpt><trkpt lat="36.89445919602646" lon="-108.10994876583081"><ele>1891.0</ele><time>2026-04-25T16:49:08.001Z</time></trkpt><trkpt lat="36.89452869044119" lon="-108.10987734903287"><ele>1891.0</ele><time>2026-04-25T16:49:09.001Z</time></trkpt><trkpt lat="36.894571845689754" lon="-108.10979592249078"><ele>1891.0</ele><time>2026-04-25T16:49:10.001Z</time></trkpt><trkpt lat="36.89463260415862" lon="-108.1097076033069"><ele>1891.0000000000002</ele><time>2026-04-25T16:49:11.001Z</time></trkpt><trkpt lat="36.894676923409286" lon="-108.10961711347834"><ele>1891.0</ele><time>2026-04-25T16:49:12.001Z</time></trkpt><trkpt lat="36.894745706803235" lon="-108.10959698464006"><ele>1891.3333333333335</ele><time>2026-04-25T16:49:13.001Z</time></trkpt><trkpt lat="36.894831944006235" lon="-108.10961140650517"><ele>1891.6666666666667</ele><time>2026-04-25T16:49:14.001Z</time></trkpt><trkpt lat="36.89491835811182" lon="-108.10960415672942"><ele>1892.0</ele><time>2026-04-25T16:49:15.001Z</time></trkpt><trkpt lat="36.89498986050468" lon="-108.10960216191799"><ele>1892.3333333333335</ele><time>2026-04-25T16:49:16.001Z</time></trkpt><trkpt lat="36.89505674523269" lon="-108.10965409206051"><ele>1892.6666666666667</ele><time>2026-04-25T16:49:17.001Z</time></trkpt><trkpt lat="36.89510024302902" lon="-108.10972617948515"><ele>1893.0</ele><time>2026-04-25T16:49:18.001Z</time></trkpt><trkpt lat="36.89516149006986" lon="-108.10975197563734"><ele>1893.0</ele><time>2026-04-25T16:49:19.001Z</time></trkpt><trkpt lat="36.89527396713853" lon="-108.10971386485531"><ele>1893.0000000000002</ele><time>2026-04-25T16:49:20.001Z</time></trkpt><trkpt lat="36.89538950259194" lon="-108.10964531927814"><ele>1893.0000000000002</ele><time>2026-04-25T16:49:21.001Z</time></trkpt><trkpt lat="36.895441490481076" lon="-108.10960006692595"><ele>1893.0</ele><time>2026-04-25T16:49:22.001Z</time></trkpt><trkpt lat="36.89548398126378" lon="-108.10953074986105"><ele>1893.0</ele><time>2026-04-25T16:49:23.001Z</time></trkpt><trkpt lat="36.89553868389975" lon="-108.10945269921996"><ele>1893.0</ele><time>2026-04-25T16:49:24.001Z</time></trkpt><trkpt lat="36.89562506312666" lon="-108.10940173172862"><ele>1893.0</ele><time>2026-04-25T16:49:25.001Z</time></trkpt><trkpt lat="36.895707317074205" lon="-108.10935523641236"><ele>1893.0</ele><time>2026-04-25T16:49:26.001Z</time></trkpt><trkpt lat="36.89575193309626" lon="-108.10928162294718"><ele>1893.0</ele><time>2026-04-25T16:49:27.001Z</time></trkpt><trkpt lat="36.89575835930395" lon="-108.10916881717833"><ele>1893.0</ele><time>2026-04-25T16:49:28.001Z</time></trkpt><trkpt lat="36.89577063642029" lon="-108.1090533469809"><ele>1893.0</ele><time>2026-04-25T16:49:29.001Z</time></trkpt><trkpt lat="36.895816444051455" lon="-108.10897004867519"><ele>1893.1666666666667</ele><time>2026-04-25T16:49:30.001Z</time></trkpt><trkpt lat="36.895889726944304" lon="-108.10891788130589"><ele>1893.3333333333335</ele><time>2026-04-25T16:49:31.001Z</time></trkpt><trkpt lat="36.89596677092157" lon="-108.10886689720006"><ele>1893.5</ele><time>2026-04-25T16:49:32.001Z</time></trkpt><trkpt lat="36.89604439128445" lon="-108.1087829720319"><ele>1893.6666666666667</ele><time>2026-04-25T16:49:33.001Z</time></trkpt><trkpt lat="36.8960892190774" lon="-108.10871075148319"><ele>1893.8333333333335</ele><time>2026-04-25T16:49:34.001Z</time></trkpt><trkpt lat="36.89614431009482" lon="-108.10864678217263"><ele>1894.0</ele><time>2026-04-25T16:49:35.001Z</time></trkpt><trkpt lat="36.896195023041656" lon="-108.10857469434414"><ele>1894.3333333333335</ele><time>2026-04-25T16:49:36.001Z</time></trkpt><trkpt lat="36.8963209829521" lon="-108.10858120739545"><ele>1894.6666666666667</ele><time>2026-04-25T16:49:38.001Z</time></trkpt><trkpt lat="36.896400421947" lon="-108.10857297200707"><ele>1895.0</ele><time>2026-04-25T16:49:39.001Z</time></trkpt><trkpt lat="36.89646672359868" lon="-108.10857293581532"><ele>1895.3333333333335</ele><time>2026-04-25T16:49:40.001Z</time></trkpt><trkpt lat="36.89654625151542" lon="-108.10858455726554"><ele>1895.6666666666667</ele><time>2026-04-25T16:49:41.001Z</time></trkpt><trkpt lat="36.896618780192185" lon="-108.10858167745147"><ele>1896.0</ele><time>2026-04-25T16:49:42.001Z</time></trkpt><trkpt lat="36.89667637493503" lon="-108.10852840134326"><ele>1896.0</ele><time>2026-04-25T16:49:43.001Z</time></trkpt><trkpt lat="36.89675002603054" lon="-108.10845101251513"><ele>1896.0</ele><time>2026-04-25T16:49:44.001Z</time></trkpt><trkpt lat="36.89682752955976" lon="-108.10839705145887"><ele>1896.0</ele><time>2026-04-25T16:49:45.001Z</time></trkpt><trkpt lat="36.896897238115436" lon="-108.10835274351653"><ele>1896.0</ele><time>2026-04-25T16:49:46.001Z</time></trkpt><trkpt lat="36.89695885265666" lon="-108.1083140629752"><ele>1896.0</ele><time>2026-04-25T16:49:47.001Z</time></trkpt><trkpt lat="36.89699420450763" lon="-108.1081486163519"><ele>1895.0</ele><time>2026-04-25T16:49:49.001Z</time></trkpt><trkpt lat="36.89700755434384" lon="-108.10804126516965"><ele>1894.0</ele><time>2026-04-25T16:49:50.001Z</time></trkpt><trkpt lat="36.89701504072638" lon="-108.10794682905691"><ele>1893.0</ele><time>2026-04-25T16:49:51.001Z</time></trkpt><trkpt lat="36.89700200923803" lon="-108.10785117508152"><ele>1892.0</ele><time>2026-04-25T16:49:52.001Z</time></trkpt><trkpt lat="36.89701189892013" lon="-108.10777264026815"><ele>1891.0</ele><time>2026-04-25T16:49:53.001Z</time></trkpt><trkpt lat="36.89706751574859" lon="-108.10768917521717"><ele>1890.0</ele><time>2026-04-25T16:49:54.001Z</time></trkpt><trkpt lat="36.89712505624456" lon="-108.10758725418185"><ele>1890.0</ele><time>2026-04-25T16:49:55.001Z</time></trkpt><trkpt lat="36.897156286816994" lon="-108.10748710461706"><ele>1890.0</ele><time>2026-04-25T16:49:56.001Z</time></trkpt><trkpt lat="36.897176712163784" lon="-108.10738192657897"><ele>1890.0</ele><time>2026-04-25T16:49:57.001Z</time></trkpt><trkpt lat="36.89721862124192" lon="-108.10729816315073"><ele>1890.0</ele><time>2026-04-25T16:49:58.001Z</time></trkpt><trkpt lat="36.897275111259724" lon="-108.10723629923555"><ele>1890.0</ele><time>2026-04-25T16:49:59.001Z</time></trkpt><trkpt lat="36.8973500381433" lon="-108.10714414443954"><ele>1890.0</ele><time>2026-04-25T16:50:00.001Z</time></trkpt><trkpt lat="36.89740943518099" lon="-108.10709539673088"><ele>1890.8</ele><time>2026-04-25T16:50:01.001Z</time></trkpt><trkpt lat="36.89751102735851" lon="-108.10704017763925"><ele>1891.6</ele><time>2026-04-25T16:50:03.001Z</time></trkpt><trkpt lat="36.897596773144016" lon="-108.10706159912958"><ele>1892.4</ele><time>2026-04-25T16:50:04.001Z</time></trkpt><trkpt lat="36.89769061684811" lon="-108.1070791782557"><ele>1893.2</ele><time>2026-04-25T16:50:05.001Z</time></trkpt><trkpt lat="36.8977894078814" lon="-108.10707065191562"><ele>1894.0</ele><time>2026-04-25T16:50:06.001Z</time></trkpt><trkpt lat="36.89781408631672" lon="-108.10695530046466"><ele>1894.2</ele><time>2026-04-25T16:50:07.001Z</time></trkpt><trkpt lat="36.89788836751204" lon="-108.10688059126767"><ele>1894.4</ele><time>2026-04-25T16:50:08.001Z</time></trkpt><trkpt lat="36.8979616783075" lon="-108.10682188020701"><ele>1894.6</ele><time>2026-04-25T16:50:09.001Z</time></trkpt><trkpt lat="36.898056185915145" lon="-108.10680660263718"><ele>1894.8</ele><time>2026-04-25T16:50:10.001Z</time></trkpt><trkpt lat="36.89817040321318" lon="-108.10680743870213"><ele>1895.0</ele><time>2026-04-25T16:50:11.001Z</time></trkpt><trkpt lat="36.898266183185285" lon="-108.10679689196513"><ele>1895.0</ele><time>2026-04-25T16:50:12.001Z</time></trkpt><trkpt lat="36.898368890505324" lon="-108.10677123484155"><ele>1895.0</ele><time>2026-04-25T16:50:13.001Z</time></trkpt><trkpt lat="36.89845403368231" lon="-108.1067421167072"><ele>1895.0</ele><time>2026-04-25T16:50:14.001Z</time></trkpt><trkpt lat="36.898573154958235" lon="-108.10674890817913"><ele>1895.0</ele><time>2026-04-25T16:50:16.001Z</time></trkpt><trkpt lat="36.89864235769063" lon="-108.10678388506462"><ele>1895.0</ele><time>2026-04-25T16:50:17.001Z</time></trkpt><trkpt lat="36.89872677291465" lon="-108.10683279096602"><ele>1895.0</ele><time>2026-04-25T16:50:18.001Z</time></trkpt><trkpt lat="36.898805746944966" lon="-108.10686038881236"><ele>1895.0</ele><time>2026-04-25T16:50:19.001Z</time></trkpt><trkpt lat="36.89888645564681" lon="-108.10686347400747"><ele>1895.0</ele><time>2026-04-25T16:50:20.001Z</time></trkpt><trkpt lat="36.89894568953788" lon="-108.10683081339366"><ele>1895.0</ele><time>2026-04-25T16:50:21Z</time></trkpt><trkpt lat="36.898990411600785" lon="-108.10674672836657"><ele>1895.0</ele><time>2026-04-25T16:50:22Z</time></trkpt><trkpt lat="36.89906549338569" lon="-108.10658494956908"><ele>1894.1666666666665</ele><time>2026-04-25T16:50:23Z</time></trkpt><trkpt lat="36.89912538439447" lon="-108.10649679176883"><ele>1893.3333333333333</ele><time>2026-04-25T16:50:24Z</time></trkpt><trkpt lat="36.89919007047404" lon="-108.10643545996614"><ele>1892.5</ele><time>2026-04-25T16:50:25Z</time></trkpt><trkpt lat="36.89926517442843" lon="-108.1063660029002"><ele>1891.6666666666665</ele><time>2026-04-25T16:50:26Z</time></trkpt><trkpt lat="36.899326302606454" lon="-108.10629429967962"><ele>1890.8333333333333</ele><time>2026-04-25T16:50:27Z</time></trkpt><trkpt lat="36.89935467099312" lon="-108.10620284628283"><ele>1890.0</ele><time>2026-04-25T16:50:28Z</time></trkpt><trkpt lat="36.89938481195038" lon="-108.10608697732523"><ele>1889.6</ele><time>2026-04-25T16:50:29Z</time></trkpt><trkpt lat="36.89944245835572" lon="-108.10600325909948"><ele>1889.2</ele><time>2026-04-25T16:50:30Z</time></trkpt><trkpt lat="36.89950719531856" lon="-108.1058982691295"><ele>1888.8000000000002</ele><time>2026-04-25T16:50:31Z</time></trkpt><trkpt lat="36.89954303353512" lon="-108.10581581112007"><ele>1888.4</ele><time>2026-04-25T16:50:32Z</time></trkpt><trkpt lat="36.89965751003043" lon="-108.10568098071919"><ele>1888.0</ele><time>2026-04-25T16:50:34Z</time></trkpt><trkpt lat="36.89974984929673" lon="-108.10556695348338"><ele>1888.0</ele><time>2026-04-25T16:50:35Z</time></trkpt><trkpt lat="36.89985666178032" lon="-108.10545182661288"><ele>1888.0000000000002</ele><time>2026-04-25T16:50:36Z</time></trkpt><trkpt lat="36.89992952189277" lon="-108.10537290028273"><ele>1888.0000000000002</ele><time>2026-04-25T16:50:37Z</time></trkpt><trkpt lat="36.8999942808256" lon="-108.10526227666698"><ele>1888.0</ele><time>2026-04-25T16:50:38Z</time></trkpt><trkpt lat="36.900035457672224" lon="-108.10515103840697"><ele>1888.0</ele><time>2026-04-25T16:50:39Z</time></trkpt><trkpt lat="36.90009627549953" lon="-108.10505922948073"><ele>1888.0</ele><time>2026-04-25T16:50:40Z</time></trkpt><trkpt lat="36.90016623550075" lon="-108.10496637948914"><ele>1888.0000000000002</ele><time>2026-04-25T16:50:41Z</time></trkpt><trkpt lat="36.900242024731575" lon="-108.1048976378684"><ele>1888.0000000000002</ele><time>2026-04-25T16:50:42Z</time></trkpt><trkpt lat="36.90031100641821" lon="-108.10483882810765"><ele>1888.0</ele><time>2026-04-25T16:50:43Z</time></trkpt><trkpt lat="36.90039519791216" lon="-108.10477643109711"><ele>1888.0</ele><time>2026-04-25T16:50:44Z</time></trkpt><trkpt lat="36.900461825770925" lon="-108.104739513206"><ele>1888.4</ele><time>2026-04-25T16:50:45Z</time></trkpt><trkpt lat="36.900449729624" lon="-108.10461264771529"><ele>1888.8000000000002</ele><time>2026-04-25T16:50:47Z</time></trkpt><trkpt lat="36.90048738813752" lon="-108.10454696726642"><ele>1889.2</ele><time>2026-04-25T16:50:48Z</time></trkpt><trkpt lat="36.90056911557794" lon="-108.10445811579199"><ele>1889.6</ele><time>2026-04-25T16:50:49Z</time></trkpt><trkpt lat="36.900703040089375" lon="-108.10435982517218"><ele>1890.0</ele><time>2026-04-25T16:50:50Z</time></trkpt><trkpt lat="36.900830261357676" lon="-108.10430814659789"><ele>1890.0</ele><time>2026-04-25T16:50:51Z</time></trkpt><trkpt lat="36.90091427759858" lon="-108.1042750900268"><ele>1890.0</ele><time>2026-04-25T16:50:52Z</time></trkpt><trkpt lat="36.90097651225986" lon="-108.10419920951702"><ele>1890.0</ele><time>2026-04-25T16:50:53Z</time></trkpt><trkpt lat="36.901044703419096" lon="-108.10416234172894"><ele>1890.0</ele><time>2026-04-25T16:50:55Z</time></trkpt><trkpt lat="36.90114739114124" lon="-108.1042025237464"><ele>1890.0</ele><time>2026-04-25T16:50:57Z</time></trkpt><trkpt lat="36.90121924701558" lon="-108.10417352126159"><ele>1890.0</ele><time>2026-04-25T16:50:58Z</time></trkpt><trkpt lat="36.90130864219669" lon="-108.10412644736307"><ele>1890.0</ele><time>2026-04-25T16:50:59Z</time></trkpt><trkpt lat="36.90140837321367" lon="-108.10406532769576"><ele>1890.0</ele><time>2026-04-25T16:51:00Z</time></trkpt><trkpt lat="36.90146964972012" lon="-108.10400075048592"><ele>1890.0</ele><time>2026-04-25T16:51:01Z</time></trkpt><trkpt lat="36.901534397933325" lon="-108.10392834848476"><ele>1890.0</ele><time>2026-04-25T16:51:02Z</time></trkpt><trkpt lat="36.90162000570257" lon="-108.10390087165828"><ele>1890.0</ele><time>2026-04-25T16:51:03.001Z</time></trkpt><trkpt lat="36.901700750025945" lon="-108.10384439402866"><ele>1890.0</ele><time>2026-04-25T16:51:04.001Z</time></trkpt><trkpt lat="36.90174325148495" lon="-108.10375111711144"><ele>1890.0</ele><time>2026-04-25T16:51:05.001Z</time></trkpt><trkpt lat="36.90176396867634" lon="-108.10366499270478"><ele>1890.0</ele><time>2026-04-25T16:51:06.001Z</time></trkpt><trkpt lat="36.90174154519327" lon="-108.1035775343158"><ele>1890.0</ele><time>2026-04-25T16:51:07.001Z</time></trkpt><trkpt lat="36.90172229765333" lon="-108.10348813413161"><ele>1890.0</ele><time>2026-04-25T16:51:08.001Z</time></trkpt><trkpt lat="36.901707591574585" lon="-108.10339301724939"><ele>1890.0</ele><time>2026-04-25T16:51:09.001Z</time></trkpt><trkpt lat="36.90173198687018" lon="-108.10328393662365"><ele>1889.3333333333333</ele><time>2026-04-25T16:51:10.001Z</time></trkpt><trkpt lat="36.90175835430955" lon="-108.10318956527583"><ele>1888.6666666666665</ele><time>2026-04-25T16:51:11.001Z</time></trkpt><trkpt lat="36.901815969311016" lon="-108.10311349391651"><ele>1888.0</ele><time>2026-04-25T16:51:12.001Z</time></trkpt><trkpt lat="36.90186543547229" lon="-108.10304759179832"><ele>1887.3333333333333</ele><time>2026-04-25T16:51:13.001Z</time></trkpt><trkpt lat="36.90186785598843" lon="-108.10296054092466"><ele>1886.6666666666665</ele><time>2026-04-25T16:51:14.001Z</time></trkpt><trkpt lat="36.90190442599553" lon="-108.10287417483383"><ele>1886.0</ele><time>2026-04-25T16:51:15.001Z</time></trkpt><trkpt lat="36.90194092805383" lon="-108.10278313666275"><ele>1886.0</ele><time>2026-04-25T16:51:16.001Z</time></trkpt><trkpt lat="36.901981685826605" lon="-108.10271144828326"><ele>1886.0</ele><time>2026-04-25T16:51:17.001Z</time></trkpt><trkpt lat="36.902041030338246" lon="-108.10262321662259"><ele>1886.0</ele><time>2026-04-25T16:51:19.001Z</time></trkpt><trkpt lat="36.90205279892223" lon="-108.10244664782134"><ele>1886.0</ele><time>2026-04-25T16:51:21.001Z</time></trkpt><trkpt lat="36.902078106273635" lon="-108.10234370572827"><ele>1886.0</ele><time>2026-04-25T16:51:22.001Z</time></trkpt><trkpt lat="36.90208862716084" lon="-108.10224407404847"><ele>1885.6</ele><time>2026-04-25T16:51:23.001Z</time></trkpt><trkpt lat="36.90207584949016" lon="-108.10213077979444"><ele>1885.1999999999998</ele><time>2026-04-25T16:51:24.001Z</time></trkpt><trkpt lat="36.90208745989204" lon="-108.10201521738699"><ele>1884.8000000000002</ele><time>2026-04-25T16:51:25.001Z</time></trkpt><trkpt lat="36.902135708837456" lon="-108.10192880798287"><ele>1884.4</ele><time>2026-04-25T16:51:26.001Z</time></trkpt><trkpt lat="36.90221887284318" lon="-108.10183635712197"><ele>1884.0</ele><time>2026-04-25T16:51:27.001Z</time></trkpt><trkpt lat="36.90230379960911" lon="-108.10171782592597"><ele>1884.0</ele><time>2026-04-25T16:51:28.001Z</time></trkpt><trkpt lat="36.90237069819267" lon="-108.1016547029607"><ele>1884.0</ele><time>2026-04-25T16:51:29.001Z</time></trkpt><trkpt lat="36.902465447449" lon="-108.10159893893278"><ele>1884.0</ele><time>2026-04-25T16:51:30.001Z</time></trkpt><trkpt lat="36.90257784506149" lon="-108.10152112168545"><ele>1884.0</ele><time>2026-04-25T16:51:31.001Z</time></trkpt><trkpt lat="36.90267269474742" lon="-108.10142944563614"><ele>1884.0</ele><time>2026-04-25T16:51:32.001Z</time></trkpt><trkpt lat="36.902775384613044" lon="-108.10133883861182"><ele>1885.0</ele><time>2026-04-25T16:51:33.001Z</time></trkpt><trkpt lat="36.902890007475406" lon="-108.1012539410633"><ele>1886.0</ele><time>2026-04-25T16:51:34.001Z</time></trkpt><trkpt lat="36.90302280098708" lon="-108.10121009310986"><ele>1887.0</ele><time>2026-04-25T16:51:35.001Z</time></trkpt><trkpt lat="36.90311946059602" lon="-108.10112924187608"><ele>1888.0</ele><time>2026-04-25T16:51:36.001Z</time></trkpt><trkpt lat="36.90321850154625" lon="-108.10102288864586"><ele>1888.0</ele><time>2026-04-25T16:51:37.001Z</time></trkpt><trkpt lat="36.90330067550344" lon="-108.10092406209539"><ele>1888.0000000000002</ele><time>2026-04-25T16:51:38.001Z</time></trkpt><trkpt lat="36.90334964135137" lon="-108.10085196909138"><ele>1888.0000000000002</ele><time>2026-04-25T16:51:39.001Z</time></trkpt><trkpt lat="36.90340188224836" lon="-108.10075391865684"><ele>1888.0</ele><time>2026-04-25T16:51:40.001Z</time></trkpt><trkpt lat="36.90344684895203" lon="-108.10062967199555"><ele>1888.0</ele><time>2026-04-25T16:51:41.001Z</time></trkpt><trkpt lat="36.903483549684694" lon="-108.10051925087397"><ele>1890.2</ele><time>2026-04-25T16:51:42.001Z</time></trkpt><trkpt lat="36.90350898419848" lon="-108.10044527104394"><ele>1892.4</ele><time>2026-04-25T16:51:43.001Z</time></trkpt><trkpt lat="36.90357800494893" lon="-108.10037279260763"><ele>1894.6000000000001</ele><time>2026-04-25T16:51:44.001Z</time></trkpt><trkpt lat="36.90364217850558" lon="-108.100275077773"><ele>1896.8000000000002</ele><time>2026-04-25T16:51:45.001Z</time></trkpt><trkpt lat="36.903689486861396" lon="-108.10017415644161"><ele>1899.0</ele><time>2026-04-25T16:51:46.001Z</time></trkpt><trkpt lat="36.903760715914025" lon="-108.10007715099334"><ele>1899.0</ele><time>2026-04-25T16:51:47.001Z</time></trkpt><trkpt lat="36.903810783290425" lon="-108.09999827641253"><ele>1899.0</ele><time>2026-04-25T16:51:48.001Z</time></trkpt><trkpt lat="36.90384374127078" lon="-108.09991873070706"><ele>1899.0</ele><time>2026-04-25T16:51:49.001Z</time></trkpt><trkpt lat="36.903902520965204" lon="-108.09982069196754"><ele>1899.0</ele><time>2026-04-25T16:51:50.001Z</time></trkpt><trkpt lat="36.903962094859445" lon="-108.09972645875173"><ele>1899.0</ele><time>2026-04-25T16:51:51.001Z</time></trkpt><trkpt lat="36.90401655274401" lon="-108.0996239290875"><ele>1899.0</ele><time>2026-04-25T16:51:52.001Z</time></trkpt><trkpt lat="36.90406034830363" lon="-108.09953244268316"><ele>1899.0</ele><time>2026-04-25T16:51:53.001Z</time></trkpt><trkpt lat="36.90411165490752" lon="-108.09946311622929"><ele>1899.0</ele><time>2026-04-25T16:51:55.001Z</time></trkpt><trkpt lat="36.90413763047055" lon="-108.09937243487047"><ele>1899.0</ele><time>2026-04-25T16:51:56.001Z</time></trkpt><trkpt lat="36.90419928524905" lon="-108.09926981916621"><ele>1899.0</ele><time>2026-04-25T16:51:57.001Z</time></trkpt><trkpt lat="36.904250788667476" lon="-108.09919338474877"><ele>1899.0</ele><time>2026-04-25T16:51:58.001Z</time></trkpt><trkpt lat="36.904316244955155" lon="-108.09915890996007"><ele>1899.0</ele><time>2026-04-25T16:51:59.001Z</time></trkpt><trkpt lat="36.904402782227486" lon="-108.09913018543489"><ele>1898.3333333333333</ele><time>2026-04-25T16:52:00.001Z</time></trkpt><trkpt lat="36.90447476413006" lon="-108.0991294841507"><ele>1897.6666666666665</ele><time>2026-04-25T16:52:01.001Z</time></trkpt><trkpt lat="36.90454825163571" lon="-108.09914709336879"><ele>1897.0</ele><time>2026-04-25T16:52:02.001Z</time></trkpt><trkpt lat="36.90462162250463" lon="-108.09915122037947"><ele>1896.3333333333333</ele><time>2026-04-25T16:52:03.001Z</time></trkpt><trkpt lat="36.90469059593997" lon="-108.09911734992532"><ele>1895.6666666666665</ele><time>2026-04-25T16:52:04.001Z</time></trkpt><trkpt lat="36.90475688435618" lon="-108.09907879601582"><ele>1895.0</ele><time>2026-04-25T16:52:05.001Z</time></trkpt><trkpt lat="36.90483779705697" lon="-108.09905556341592"><ele>1895.0</ele><time>2026-04-25T16:52:06.001Z</time></trkpt><trkpt lat="36.90490005208013" lon="-108.09901495897445"><ele>1895.0</ele><time>2026-04-25T16:52:07.001Z</time></trkpt><trkpt lat="36.90498663020755" lon="-108.09894916362634"><ele>1895.0</ele><time>2026-04-25T16:52:08.001Z</time></trkpt><trkpt lat="36.9050697846971" lon="-108.09889402567609"><ele>1895.0</ele><time>2026-04-25T16:52:09.001Z</time></trkpt><trkpt lat="36.90515212607433" lon="-108.09887352740738"><ele>1895.0</ele><time>2026-04-25T16:52:10.001Z</time></trkpt><trkpt lat="36.90525160553814" lon="-108.0988854154475"><ele>1894.4999999999998</ele><time>2026-04-25T16:52:11.001Z</time></trkpt><trkpt lat="36.90534229146544" lon="-108.09889032486934"><ele>1894.0</ele><time>2026-04-25T16:52:12.001Z</time></trkpt><trkpt lat="36.90539321884924" lon="-108.09882945833154"><ele>1893.5</ele><time>2026-04-25T16:52:13.001Z</time></trkpt><trkpt lat="36.90542107877783" lon="-108.09874400955051"><ele>1893.0</ele><time>2026-04-25T16:52:14.001Z</time></trkpt><trkpt lat="36.90545534449592" lon="-108.09865268603089"><ele>1892.4999999999998</ele><time>2026-04-25T16:52:15.001Z</time></trkpt><trkpt lat="36.905502603923104" lon="-108.09857797062446"><ele>1892.0</ele><time>2026-04-25T16:52:16.001Z</time></trkpt><trkpt lat="36.905586338848245" lon="-108.0985257478576"><ele>1892.0</ele><time>2026-04-25T16:52:17.001Z</time></trkpt><trkpt lat="36.90567163752887" lon="-108.09847227760345"><ele>1891.9999999999998</ele><time>2026-04-25T16:52:18.001Z</time></trkpt><trkpt lat="36.90576918217985" lon="-108.09840477313828"><ele>1891.9999999999998</ele><time>2026-04-25T16:52:19.001Z</time></trkpt><trkpt lat="36.905853455730394" lon="-108.09836243875114"><ele>1892.0</ele><time>2026-04-25T16:52:20.001Z</time></trkpt><trkpt lat="36.905936644111605" lon="-108.0982678344857"><ele>1892.0</ele><time>2026-04-25T16:52:22.001Z</time></trkpt><trkpt lat="36.905951624409596" lon="-108.0980912996792"><ele>1891.9999999999998</ele><time>2026-04-25T16:52:24.001Z</time></trkpt><trkpt lat="36.905985806826536" lon="-108.09799709239611"><ele>1892.0</ele><time>2026-04-25T16:52:25.001Z</time></trkpt><trkpt lat="36.906055134914425" lon="-108.0979427838848"><ele>1892.0</ele><time>2026-04-25T16:52:26.001Z</time></trkpt><trkpt lat="36.90613295673146" lon="-108.09790056729486"><ele>1892.0</ele><time>2026-04-25T16:52:27Z</time></trkpt><trkpt lat="36.90617674221906" lon="-108.09781043212584"><ele>1891.9999999999998</ele><time>2026-04-25T16:52:28Z</time></trkpt><trkpt lat="36.90623662566697" lon="-108.09776309683049"><ele>1892.0</ele><time>2026-04-25T16:52:29Z</time></trkpt><trkpt lat="36.9063135342113" lon="-108.09773798303716"><ele>1892.0</ele><time>2026-04-25T16:52:30Z</time></trkpt><trkpt lat="36.906378457418455" lon="-108.09771810314079"><ele>1891.9999999999998</ele><time>2026-04-25T16:52:31Z</time></trkpt><trkpt lat="36.906447590170565" lon="-108.0976903690072"><ele>1891.9999999999998</ele><time>2026-04-25T16:52:32Z</time></trkpt><trkpt lat="36.90655157462559" lon="-108.09761636253678"><ele>1892.0</ele><time>2026-04-25T16:52:33Z</time></trkpt><trkpt lat="36.90664611139941" lon="-108.09755191531404"><ele>1892.0</ele><time>2026-04-25T16:52:34Z</time></trkpt><trkpt lat="36.906728135394395" lon="-108.09752039933173"><ele>1892.0</ele><time>2026-04-25T16:52:35Z</time></trkpt><trkpt lat="36.90681957768118" lon="-108.09749841482132"><ele>1891.9999999999998</ele><time>2026-04-25T16:52:36Z</time></trkpt><trkpt lat="36.906914379707814" lon="-108.09745744260286"><ele>1891.9999999999998</ele><time>2026-04-25T16:52:37Z</time></trkpt><trkpt lat="36.90700656070163" lon="-108.09740107553485"><ele>1892.0</ele><time>2026-04-25T16:52:38Z</time></trkpt><trkpt lat="36.907097539135876" lon="-108.09734712730942"><ele>1892.0</ele><time>2026-04-25T16:52:39Z</time></trkpt><trkpt lat="36.907171259173914" lon="-108.09730089220159"><ele>1893.3999999999999</ele><time>2026-04-25T16:52:40Z</time></trkpt><trkpt lat="36.90726563321382" lon="-108.09727342321828"><ele>1894.7999999999997</ele><time>2026-04-25T16:52:42Z</time></trkpt><trkpt lat="36.90734934950724" lon="-108.09730939948841"><ele>1896.2</ele><time>2026-04-25T16:52:43Z</time></trkpt><trkpt lat="36.90746498259011" lon="-108.09734164922995"><ele>1897.6</ele><time>2026-04-25T16:52:44Z</time></trkpt><trkpt lat="36.907574669779834" lon="-108.09734113810765"><ele>1899.0</ele><time>2026-04-25T16:52:45Z</time></trkpt><trkpt lat="36.9076818852547" lon="-108.09726962333453"><ele>1899.75</ele><time>2026-04-25T16:52:47Z</time></trkpt><trkpt lat="36.90777611077555" lon="-108.09717742011404"><ele>1900.5</ele><time>2026-04-25T16:52:48Z</time></trkpt><trkpt lat="36.907899154267525" lon="-108.09707870801964"><ele>1901.25</ele><time>2026-04-25T16:52:49Z</time></trkpt><trkpt lat="36.90802654412985" lon="-108.09700509734442"><ele>1902.0</ele><time>2026-04-25T16:52:50Z</time></trkpt><trkpt lat="36.90813745670996" lon="-108.0969093336383"><ele>1902.0</ele><time>2026-04-25T16:52:51Z</time></trkpt><trkpt lat="36.908217208825754" lon="-108.09680783516687"><ele>1901.9999999999998</ele><time>2026-04-25T16:52:52Z</time></trkpt><trkpt lat="36.90830718645309" lon="-108.09673675042595"><ele>1901.9999999999998</ele><time>2026-04-25T16:52:53Z</time></trkpt><trkpt lat="36.90840018379115" lon="-108.09669674668861"><ele>1902.0</ele><time>2026-04-25T16:52:54Z</time></trkpt><trkpt lat="36.908473724646456" lon="-108.09663135785217"><ele>1902.0</ele><time>2026-04-25T16:52:55Z</time></trkpt><trkpt lat="36.908518735163746" lon="-108.09655085275284"><ele>1904.8</ele><time>2026-04-25T16:52:56Z</time></trkpt><trkpt lat="36.90857334922762" lon="-108.09648368700336"><ele>1907.6</ele><time>2026-04-25T16:52:57Z</time></trkpt><trkpt lat="36.90866585854312" lon="-108.09643130017305"><ele>1910.3999999999999</ele><time>2026-04-25T16:52:58Z</time></trkpt><trkpt lat="36.9087561577941" lon="-108.09637295026465"><ele>1913.1999999999998</ele><time>2026-04-25T16:52:59Z</time></trkpt><trkpt lat="36.90881877081943" lon="-108.09631563194473"><ele>1916.0</ele><time>2026-04-25T16:53:00Z</time></trkpt><trkpt lat="36.908913897508704" lon="-108.09627229835074"><ele>1916.0</ele><time>2026-04-25T16:53:01Z</time></trkpt><trkpt lat="36.90902047579749" lon="-108.09621770528496"><ele>1916.0</ele><time>2026-04-25T16:53:02Z</time></trkpt><trkpt lat="36.90910455681833" lon="-108.0961647803056"><ele>1916.0</ele><time>2026-04-25T16:53:03Z</time></trkpt><trkpt lat="36.909191420873036" lon="-108.09612082051086"><ele>1916.0</ele><time>2026-04-25T16:53:04Z</time></trkpt><trkpt lat="36.9092862876686" lon="-108.0960808087821"><ele>1916.0</ele><time>2026-04-25T16:53:05Z</time></trkpt><trkpt lat="36.90935782053545" lon="-108.09606628248375"><ele>1916.3333333333333</ele><time>2026-04-25T16:53:06Z</time></trkpt><trkpt lat="36.909430192028786" lon="-108.09606276322208"><ele>1916.6666666666665</ele><time>2026-04-25T16:53:07Z</time></trkpt><trkpt lat="36.90947401264358" lon="-108.09600446652351"><ele>1917.0</ele><time>2026-04-25T16:53:08Z</time></trkpt><trkpt lat="36.90952844879927" lon="-108.09591381304989"><ele>1917.3333333333335</ele><time>2026-04-25T16:53:09Z</time></trkpt><trkpt lat="36.90959913034279" lon="-108.09583760281633"><ele>1917.6666666666667</ele><time>2026-04-25T16:53:10Z</time></trkpt><trkpt lat="36.90967680956377" lon="-108.09574802857145"><ele>1918.0</ele><time>2026-04-25T16:53:11.001Z</time></trkpt><trkpt lat="36.90974992662283" lon="-108.09566396532414"><ele>1918.3333333333335</ele><time>2026-04-25T16:53:12.001Z</time></trkpt><trkpt lat="36.909809341597146" lon="-108.09559542201076"><ele>1918.6666666666667</ele><time>2026-04-25T16:53:13.001Z</time></trkpt><trkpt lat="36.9098908685085" lon="-108.09553295448868"><ele>1919.0</ele><time>2026-04-25T16:53:14.001Z</time></trkpt><trkpt lat="36.90996746364679" lon="-108.09549002466359"><ele>1919.3333333333335</ele><time>2026-04-25T16:53:15.001Z</time></trkpt><trkpt lat="36.910050413379565" lon="-108.09554964422179"><ele>1919.6666666666667</ele><time>2026-04-25T16:53:17.001Z</time></trkpt><trkpt lat="36.910110536621026" lon="-108.09562911384504"><ele>1920.0</ele><time>2026-04-25T16:53:18.001Z</time></trkpt><trkpt lat="36.910182716507805" lon="-108.09571240124022"><ele>1920.2</ele><time>2026-04-25T16:53:19.001Z</time></trkpt><trkpt lat="36.91026479394149" lon="-108.09578610277903"><ele>1920.4</ele><time>2026-04-25T16:53:20.001Z</time></trkpt><trkpt lat="36.91034528319093" lon="-108.09585728340092"><ele>1920.6</ele><time>2026-04-25T16:53:21.001Z</time></trkpt><trkpt lat="36.91042778963252" lon="-108.09592131640882"><ele>1920.8</ele><time>2026-04-25T16:53:22.001Z</time></trkpt><trkpt lat="36.91050900657016" lon="-108.09592463606167"><ele>1921.0</ele><time>2026-04-25T16:53:23.001Z</time></trkpt><trkpt lat="36.9106063663357" lon="-108.09591210594684"><ele>1921.0</ele><time>2026-04-25T16:53:24.001Z</time></trkpt><trkpt lat="36.910671079141835" lon="-108.09595679577686"><ele>1921.0000000000002</ele><time>2026-04-25T16:53:25.001Z</time></trkpt><trkpt lat="36.9107379248616" lon="-108.09598652549171"><ele>1921.0</ele><time>2026-04-25T16:53:26.001Z</time></trkpt><trkpt lat="36.910812367074335" lon="-108.09595981473173"><ele>1921.0</ele><time>2026-04-25T16:53:27.001Z</time></trkpt><trkpt lat="36.910880248923654" lon="-108.09591214197826"><ele>1921.0000000000002</ele><time>2026-04-25T16:53:28.001Z</time></trkpt><trkpt lat="36.91094486762905" lon="-108.09585392530383"><ele>1921.0</ele><time>2026-04-25T16:53:29.001Z</time></trkpt><trkpt lat="36.91096984212579" lon="-108.09577265125436"><ele>1921.0</ele><time>2026-04-25T16:53:30.001Z</time></trkpt><trkpt lat="36.91099244253201" lon="-108.09567423835557"><ele>1920.5000000000002</ele><time>2026-04-25T16:53:31.001Z</time></trkpt><trkpt lat="36.911033827766616" lon="-108.0955802811087"><ele>1920.0</ele><time>2026-04-25T16:53:32.001Z</time></trkpt><trkpt lat="36.91110046340787" lon="-108.09552436357488"><ele>1919.5</ele><time>2026-04-25T16:53:33.001Z</time></trkpt><trkpt lat="36.91114820300764" lon="-108.09545105440999"><ele>1919.0</ele><time>2026-04-25T16:53:34.001Z</time></trkpt><trkpt lat="36.91118361931982" lon="-108.0953524732223"><ele>1918.5000000000002</ele><time>2026-04-25T16:53:35.001Z</time></trkpt><trkpt lat="36.91124025069301" lon="-108.095249881227"><ele>1918.0</ele><time>2026-04-25T16:53:36.001Z</time></trkpt><trkpt lat="36.91130238221319" lon="-108.09517294760757"><ele>1918.0</ele><time>2026-04-25T16:53:37.001Z</time></trkpt><trkpt lat="36.91135022921358" lon="-108.09508981209339"><ele>1918.0000000000002</ele><time>2026-04-25T16:53:38.001Z</time></trkpt><trkpt lat="36.911406275681294" lon="-108.09497697072412"><ele>1918.0000000000002</ele><time>2026-04-25T16:53:39.001Z</time></trkpt><trkpt lat="36.91146307889124" lon="-108.09484446868957"><ele>1918.0</ele><time>2026-04-25T16:53:40.001Z</time></trkpt><trkpt lat="36.911512715204104" lon="-108.0947492312647"><ele>1918.0</ele><time>2026-04-25T16:53:41.001Z</time></trkpt><trkpt lat="36.91157738462724" lon="-108.09466454735215"><ele>1918.3333333333335</ele><time>2026-04-25T16:53:42.001Z</time></trkpt><trkpt lat="36.91166841382089" lon="-108.09460022575801"><ele>1918.6666666666667</ele><time>2026-04-25T16:53:43.001Z</time></trkpt><trkpt lat="36.91173560470747" lon="-108.09455042159183"><ele>1919.0</ele><time>2026-04-25T16:53:44.001Z</time></trkpt><trkpt lat="36.91180299796288" lon="-108.09451914283417"><ele>1919.3333333333335</ele><time>2026-04-25T16:53:45.001Z</time></trkpt><trkpt lat="36.91188405560864" lon="-108.09445327643532"><ele>1919.6666666666667</ele><time>2026-04-25T16:53:46.001Z</time></trkpt><trkpt lat="36.91193943371603" lon="-108.09436162152436"><ele>1920.0</ele><time>2026-04-25T16:53:47.001Z</time></trkpt><trkpt lat="36.91198629027213" lon="-108.09430193842363"><ele>1918.8</ele><time>2026-04-25T16:53:48.001Z</time></trkpt><trkpt lat="36.91207500934767" lon="-108.09428606114473"><ele>1917.6</ele><time>2026-04-25T16:53:49.001Z</time></trkpt><trkpt lat="36.91216822722429" lon="-108.09426807404381"><ele>1916.4</ele><time>2026-04-25T16:53:50.001Z</time></trkpt><trkpt lat="36.91222578845815" lon="-108.09414651825212"><ele>1915.2</ele><time>2026-04-25T16:53:52.001Z</time></trkpt><trkpt lat="36.91225366363066" lon="-108.09402072873671"><ele>1914.0</ele><time>2026-04-25T16:53:53.001Z</time></trkpt><trkpt lat="36.91228500893951" lon="-108.09390180797425"><ele>1914.0</ele><time>2026-04-25T16:53:54.001Z</time></trkpt><trkpt lat="36.91231251326851" lon="-108.0938053046024"><ele>1914.0</ele><time>2026-04-25T16:53:55.001Z</time></trkpt><trkpt lat="36.91232494875398" lon="-108.09369193003464"><ele>1914.0</ele><time>2026-04-25T16:53:56.001Z</time></trkpt><trkpt lat="36.91234136264649" lon="-108.09355204457283"><ele>1914.0</ele><time>2026-04-25T16:53:57.001Z</time></trkpt><trkpt lat="36.91235521633695" lon="-108.09341786110372"><ele>1914.0</ele><time>2026-04-25T16:53:58.001Z</time></trkpt><trkpt lat="36.91234025156255" lon="-108.09329941875528"><ele>1914.0</ele><time>2026-04-25T16:53:59.001Z</time></trkpt><trkpt lat="36.91232517643432" lon="-108.09319084011162"><ele>1914.0</ele><time>2026-04-25T16:54:00.001Z</time></trkpt><trkpt lat="36.91231520267392" lon="-108.0930927969067"><ele>1914.0</ele><time>2026-04-25T16:54:01.001Z</time></trkpt><trkpt lat="36.9123148413819" lon="-108.09298227266137"><ele>1914.0</ele><time>2026-04-25T16:54:02.001Z</time></trkpt><trkpt lat="36.91231573715587" lon="-108.09284443001098"><ele>1914.0</ele><time>2026-04-25T16:54:03.001Z</time></trkpt><trkpt lat="36.912306221399675" lon="-108.0927317227597"><ele>1914.0</ele><time>2026-04-25T16:54:04.001Z</time></trkpt><trkpt lat="36.91230626345187" lon="-108.0926499493404"><ele>1914.0</ele><time>2026-04-25T16:54:05.001Z</time></trkpt><trkpt lat="36.912317680267634" lon="-108.09255399745868"><ele>1914.0</ele><time>2026-04-25T16:54:06.001Z</time></trkpt><trkpt lat="36.912323017355995" lon="-108.0924393143717"><ele>1914.0</ele><time>2026-04-25T16:54:07.001Z</time></trkpt><trkpt lat="36.91233013560627" lon="-108.09234787085775"><ele>1914.0</ele><time>2026-04-25T16:54:08.001Z</time></trkpt><trkpt lat="36.91236297986241" lon="-108.09225558857456"><ele>1914.0</ele><time>2026-04-25T16:54:09.001Z</time></trkpt><trkpt lat="36.91241654692363" lon="-108.0921704399952"><ele>1914.6</ele><time>2026-04-25T16:54:10.001Z</time></trkpt><trkpt lat="36.91245933112442" lon="-108.09210237756572"><ele>1915.2</ele><time>2026-04-25T16:54:11.001Z</time></trkpt><trkpt lat="36.91247088561447" lon="-108.09199698530215"><ele>1915.7999999999997</ele><time>2026-04-25T16:54:12.001Z</time></trkpt><trkpt lat="36.91248350148791" lon="-108.09186567370857"><ele>1916.3999999999999</ele><time>2026-04-25T16:54:13.001Z</time></trkpt><trkpt lat="36.912509597438365" lon="-108.09172817830691"><ele>1917.0</ele><time>2026-04-25T16:54:14.001Z</time></trkpt><trkpt lat="36.91251753245209" lon="-108.09161773284863"><ele>1917.1999999999998</ele><time>2026-04-25T16:54:15.001Z</time></trkpt><trkpt lat="36.91252691162039" lon="-108.09151420523334"><ele>1917.3999999999999</ele><time>2026-04-25T16:54:16.001Z</time></trkpt><trkpt lat="36.912545390488546" lon="-108.09139824656091"><ele>1917.6000000000001</ele><time>2026-04-25T16:54:17.001Z</time></trkpt><trkpt lat="36.91257592509561" lon="-108.0912815207849"><ele>1917.8000000000002</ele><time>2026-04-25T16:54:18.001Z</time></trkpt><trkpt lat="36.91261054548004" lon="-108.09116575407516"><ele>1918.0</ele><time>2026-04-25T16:54:19.001Z</time></trkpt><trkpt lat="36.91263238131825" lon="-108.09105460337544"><ele>1917.6666666666667</ele><time>2026-04-25T16:54:20.001Z</time></trkpt><trkpt lat="36.91265632285289" lon="-108.09096378059482"><ele>1917.3333333333335</ele><time>2026-04-25T16:54:21.001Z</time></trkpt><trkpt lat="36.912695425518535" lon="-108.09088330782886"><ele>1917.0</ele><time>2026-04-25T16:54:22.001Z</time></trkpt><trkpt lat="36.91272421357801" lon="-108.09078442582975"><ele>1916.6666666666665</ele><time>2026-04-25T16:54:23.001Z</time></trkpt><trkpt lat="36.91271640280981" lon="-108.09066757040785"><ele>1916.3333333333333</ele><time>2026-04-25T16:54:24.001Z</time></trkpt><trkpt lat="36.91269499594554" lon="-108.09055781785094"><ele>1916.0</ele><time>2026-04-25T16:54:25.001Z</time></trkpt><trkpt lat="36.91269833585943" lon="-108.09045686432873"><ele>1916.0</ele><time>2026-04-25T16:54:26.001Z</time></trkpt><trkpt lat="36.91271556113993" lon="-108.09037647838669"><ele>1916.0</ele><time>2026-04-25T16:54:27.001Z</time></trkpt><trkpt lat="36.912702610458325" lon="-108.09023989604968"><ele>1916.0</ele><time>2026-04-25T16:54:29.001Z</time></trkpt><trkpt lat="36.912655304505414" lon="-108.09016938163359"><ele>1916.0</ele><time>2026-04-25T16:54:31.001Z</time></trkpt><trkpt lat="36.912571754388004" lon="-108.0900833246368"><ele>1916.0</ele><time>2026-04-25T16:54:33Z</time></trkpt><trkpt lat="36.912451403324845" lon="-108.08996442618222"><ele>1916.4</ele><time>2026-04-25T16:54:35Z</time></trkpt><trkpt lat="36.91238054618328" lon="-108.08991464665463"><ele>1916.8</ele><time>2026-04-25T16:54:36Z</time></trkpt><trkpt lat="36.91231729057936" lon="-108.08989214939542"><ele>1917.2000000000003</ele><time>2026-04-25T16:54:37Z</time></trkpt><trkpt lat="36.912248559951905" lon="-108.08982323570385"><ele>1917.6000000000001</ele><time>2026-04-25T16:54:38Z</time></trkpt><trkpt lat="36.91216030012778" lon="-108.08971069418051"><ele>1918.0</ele><time>2026-04-25T16:54:39Z</time></trkpt><trkpt lat="36.91206052169355" lon="-108.08960455430432"><ele>1918.0</ele><time>2026-04-25T16:54:40Z</time></trkpt><trkpt lat="36.911960144278446" lon="-108.08954464907505"><ele>1918.0000000000002</ele><time>2026-04-25T16:54:41Z</time></trkpt><trkpt lat="36.91185109939331" lon="-108.08949641311453"><ele>1918.0000000000002</ele><time>2026-04-25T16:54:42Z</time></trkpt><trkpt lat="36.911745184619285" lon="-108.08946040833482"><ele>1918.0</ele><time>2026-04-25T16:54:43Z</time></trkpt><trkpt lat="36.9116759364275" lon="-108.08941231450855"><ele>1918.0</ele><time>2026-04-25T16:54:44Z</time></trkpt><trkpt lat="36.91162890299155" lon="-108.08933646890583"><ele>1917.6000000000001</ele><time>2026-04-25T16:54:45Z</time></trkpt><trkpt lat="36.91156334193577" lon="-108.08924015077073"><ele>1917.2000000000003</ele><time>2026-04-25T16:54:46Z</time></trkpt><trkpt lat="36.911485593178945" lon="-108.08916215551075"><ele>1916.8</ele><time>2026-04-25T16:54:47Z</time></trkpt><trkpt lat="36.91140478207121" lon="-108.08910308735442"><ele>1916.4</ele><time>2026-04-25T16:54:48Z</time></trkpt><trkpt lat="36.91131062954359" lon="-108.08906740036467"><ele>1916.0</ele><time>2026-04-25T16:54:49Z</time></trkpt><trkpt lat="36.91120874633572" lon="-108.0890148532894"><ele>1915.0</ele><time>2026-04-25T16:54:50Z</time></trkpt><trkpt lat="36.91113302416515" lon="-108.08893989074637"><ele>1914.0</ele><time>2026-04-25T16:54:51Z</time></trkpt><trkpt lat="36.91109896422156" lon="-108.08886572542986"><ele>1913.0</ele><time>2026-04-25T16:54:52Z</time></trkpt><trkpt lat="36.91110304561822" lon="-108.0886731283776"><ele>1912.0</ele><time>2026-04-25T16:54:54Z</time></trkpt><trkpt lat="36.911103984982944" lon="-108.08852095390499"><ele>1911.0</ele><time>2026-04-25T16:54:55Z</time></trkpt><trkpt lat="36.91108406552239" lon="-108.08838424046327"><ele>1910.0</ele><time>2026-04-25T16:54:56Z</time></trkpt><trkpt lat="36.91104775261065" lon="-108.08825369498157"><ele>1909.0</ele><time>2026-04-25T16:54:57Z</time></trkpt><trkpt lat="36.91100986807625" lon="-108.08812964873488"><ele>1908.0</ele><time>2026-04-25T16:54:58Z</time></trkpt><trkpt lat="36.91096751295408" lon="-108.0880289976833"><ele>1907.0</ele><time>2026-04-25T16:54:59Z</time></trkpt><trkpt lat="36.91091843475811" lon="-108.08794686836737"><ele>1906.0</ele><time>2026-04-25T16:55:00Z</time></trkpt><trkpt lat="36.910857677902854" lon="-108.08789009075154"><ele>1905.6</ele><time>2026-04-25T16:55:01Z</time></trkpt><trkpt lat="36.910771454670396" lon="-108.0878349125137"><ele>1905.1999999999998</ele><time>2026-04-25T16:55:02Z</time></trkpt><trkpt lat="36.910691901627274" lon="-108.08777262333743"><ele>1904.8000000000002</ele><time>2026-04-25T16:55:03Z</time></trkpt><trkpt lat="36.91064955633168" lon="-108.08768799199068"><ele>1904.4</ele><time>2026-04-25T16:55:04Z</time></trkpt><trkpt lat="36.91061103657812" lon="-108.08760017535545"><ele>1904.0</ele><time>2026-04-25T16:55:05Z</time></trkpt><trkpt lat="36.91054944644833" lon="-108.08749963624597"><ele>1902.8000000000002</ele><time>2026-04-25T16:55:07Z</time></trkpt><trkpt lat="36.91052507230784" lon="-108.08737661574536"><ele>1901.6000000000001</ele><time>2026-04-25T16:55:08Z</time></trkpt><trkpt lat="36.91049156002878" lon="-108.08725055656687"><ele>1900.4</ele><time>2026-04-25T16:55:09Z</time></trkpt><trkpt lat="36.910450764530886" lon="-108.0871354860809"><ele>1899.2</ele><time>2026-04-25T16:55:10Z</time></trkpt><trkpt lat="36.910400984698704" lon="-108.0870413771523"><ele>1898.0</ele><time>2026-04-25T16:55:11Z</time></trkpt><trkpt lat="36.91035392284948" lon="-108.08696870973638"><ele>1898.0</ele><time>2026-04-25T16:55:12Z</time></trkpt><trkpt lat="36.910302483182164" lon="-108.08690140930342"><ele>1898.0000000000002</ele><time>2026-04-25T16:55:13Z</time></trkpt><trkpt lat="36.91024109219786" lon="-108.08686849583643"><ele>1898.0000000000002</ele><time>2026-04-25T16:55:14Z</time></trkpt><trkpt lat="36.910117860902005" lon="-108.08686357762602"><ele>1898.0</ele><time>2026-04-25T16:55:15Z</time></trkpt><trkpt lat="36.90998697513964" lon="-108.08688445839746"><ele>1898.0</ele><time>2026-04-25T16:55:16Z</time></trkpt><trkpt lat="36.90985160925428" lon="-108.0869128230537"><ele>1897.2</ele><time>2026-04-25T16:55:17Z</time></trkpt><trkpt lat="36.90974121937138" lon="-108.08691519062086"><ele>1896.4</ele><time>2026-04-25T16:55:18Z</time></trkpt><trkpt lat="36.90963403659133" lon="-108.08690209589672"><ele>1895.6000000000001</ele><time>2026-04-25T16:55:19.001Z</time></trkpt><trkpt lat="36.909538219713134" lon="-108.08690160690608"><ele>1894.8000000000002</ele><time>2026-04-25T16:55:20.001Z</time></trkpt><trkpt lat="36.90943411531547" lon="-108.08688971440363"><ele>1894.0</ele><time>2026-04-25T16:55:21.001Z</time></trkpt><trkpt lat="36.90933732512958" lon="-108.08683864559842"><ele>1894.0</ele><time>2026-04-25T16:55:22.001Z</time></trkpt><trkpt lat="36.909258239351146" lon="-108.08677582709484"><ele>1894.0</ele><time>2026-04-25T16:55:23.001Z</time></trkpt><trkpt lat="36.90917612202087" lon="-108.0867451397796"><ele>1894.0</ele><time>2026-04-25T16:55:24.001Z</time></trkpt><trkpt lat="36.90910755477316" lon="-108.08674614095652"><ele>1894.0</ele><time>2026-04-25T16:55:25.001Z</time></trkpt><trkpt lat="36.90899794038171" lon="-108.08666387152698"><ele>1894.0</ele><time>2026-04-25T16:55:27.001Z</time></trkpt><trkpt lat="36.908907578153034" lon="-108.08663805723502"><ele>1892.4</ele><time>2026-04-25T16:55:28.001Z</time></trkpt><trkpt lat="36.90879212185025" lon="-108.08662908217862"><ele>1890.8000000000002</ele><time>2026-04-25T16:55:29.001Z</time></trkpt><trkpt lat="36.908710882975065" lon="-108.08662764284736"><ele>1889.1999999999998</ele><time>2026-04-25T16:55:30.001Z</time></trkpt><trkpt lat="36.9086293150322" lon="-108.08655654658746"><ele>1887.6</ele><time>2026-04-25T16:55:32.001Z</time></trkpt><trkpt lat="36.9085064049653" lon="-108.08655889827503"><ele>1886.0</ele><time>2026-04-25T16:55:34.001Z</time></trkpt><trkpt lat="36.908393382125766" lon="-108.08661713289324"><ele>1885.0</ele><time>2026-04-25T16:55:35.001Z</time></trkpt><trkpt lat="36.90828302823049" lon="-108.08668246421519"><ele>1884.0</ele><time>2026-04-25T16:55:36.001Z</time></trkpt><trkpt lat="36.90819092822247" lon="-108.0867012338633"><ele>1883.0</ele><time>2026-04-25T16:55:37.001Z</time></trkpt><trkpt lat="36.90808406135242" lon="-108.08669488675902"><ele>1882.0</ele><time>2026-04-25T16:55:38.001Z</time></trkpt><trkpt lat="36.907957028765914" lon="-108.08666943527568"><ele>1882.0</ele><time>2026-04-25T16:55:39.001Z</time></trkpt><trkpt lat="36.90784996188835" lon="-108.08661785505167"><ele>1882.0</ele><time>2026-04-25T16:55:40.001Z</time></trkpt><trkpt lat="36.90774285421627" lon="-108.08653419704252"><ele>1882.0</ele><time>2026-04-25T16:55:41.001Z</time></trkpt><trkpt lat="36.90762336320425" lon="-108.08644087442171"><ele>1882.0</ele><time>2026-04-25T16:55:42.001Z</time></trkpt><trkpt lat="36.90750794205105" lon="-108.08636352577558"><ele>1881.0</ele><time>2026-04-25T16:55:43.001Z</time></trkpt><trkpt lat="36.90740755843822" lon="-108.08629605534522"><ele>1879.9999999999998</ele><time>2026-04-25T16:55:44.001Z</time></trkpt><trkpt lat="36.90731579675671" lon="-108.08622623715576"><ele>1878.9999999999998</ele><time>2026-04-25T16:55:45.001Z</time></trkpt><trkpt lat="36.90723217917218" lon="-108.08615707315597"><ele>1878.0</ele><time>2026-04-25T16:55:46.001Z</time></trkpt><trkpt lat="36.907152577681096" lon="-108.08609112802851"><ele>1877.0</ele><time>2026-04-25T16:55:47.001Z</time></trkpt><trkpt lat="36.90707680135413" lon="-108.08603371901948"><ele>1877.0</ele><time>2026-04-25T16:55:48.001Z</time></trkpt><trkpt lat="36.907001046372585" lon="-108.08598169020398"><ele>1876.9999999999998</ele><time>2026-04-25T16:55:49.001Z</time></trkpt><trkpt lat="36.90691993077728" lon="-108.08591441985958"><ele>1876.9999999999998</ele><time>2026-04-25T16:55:50.001Z</time></trkpt><trkpt lat="36.90683524125253" lon="-108.08583297855559"><ele>1877.0</ele><time>2026-04-25T16:55:51.001Z</time></trkpt><trkpt lat="36.90675767409504" lon="-108.08576573218826"><ele>1877.0</ele><time>2026-04-25T16:55:52.001Z</time></trkpt><trkpt lat="36.90669413142656" lon="-108.0857053884835"><ele>1876.8</ele><time>2026-04-25T16:55:53.001Z</time></trkpt><trkpt lat="36.90663451457185" lon="-108.08564793096299"><ele>1876.6</ele><time>2026-04-25T16:55:54.001Z</time></trkpt><trkpt lat="36.90656150990498" lon="-108.0855576725108"><ele>1876.3999999999999</ele><time>2026-04-25T16:55:56.001Z</time></trkpt><trkpt lat="36.906457487421264" lon="-108.08557676580843"><ele>1876.1999999999998</ele><time>2026-04-25T16:56:34.001Z</time></trkpt><trkpt lat="36.90642878948076" lon="-108.08570524546008"><ele>1876.0</ele><time>2026-04-25T16:56:36.001Z</time></trkpt><trkpt lat="36.90642905006487" lon="-108.0858012722663"><ele>1875.6</ele><time>2026-04-25T16:56:37.001Z</time></trkpt><trkpt lat="36.90643672531031" lon="-108.08591488656957"><ele>1875.1999999999998</ele><time>2026-04-25T16:56:38.001Z</time></trkpt><trkpt lat="36.90645956694936" lon="-108.08602632371982"><ele>1874.8000000000002</ele><time>2026-04-25T16:56:39Z</time></trkpt><trkpt lat="36.90649417430029" lon="-108.08615865289039"><ele>1874.4</ele><time>2026-04-25T16:56:40Z</time></trkpt><trkpt lat="36.906526157422064" lon="-108.08630305035366"><ele>1874.0</ele><time>2026-04-25T16:56:41Z</time></trkpt><trkpt lat="36.90654786703036" lon="-108.0864111934023"><ele>1874.0</ele><time>2026-04-25T16:56:42Z</time></trkpt><trkpt lat="36.90656371077279" lon="-108.08649345730463"><ele>1874.0</ele><time>2026-04-25T16:56:43Z</time></trkpt><trkpt lat="36.90657292201627" lon="-108.08661831816882"><ele>1874.0</ele><time>2026-04-25T16:56:45Z</time></trkpt><trkpt lat="36.90652579245037" lon="-108.08672392214616"><ele>1874.0</ele><time>2026-04-25T16:56:47Z</time></trkpt><trkpt lat="36.90645819978464" lon="-108.08680266768752"><ele>1874.0</ele><time>2026-04-25T16:56:48Z</time></trkpt><trkpt lat="36.90637788944529" lon="-108.08687901226952"><ele>1874.5</ele><time>2026-04-25T16:56:49Z</time></trkpt><trkpt lat="36.906279309885406" lon="-108.08695928201405"><ele>1875.0</ele><time>2026-04-25T16:56:50Z</time></trkpt><trkpt lat="36.90617182100688" lon="-108.0870655115376"><ele>1875.5</ele><time>2026-04-25T16:56:51Z</time></trkpt><trkpt lat="36.90606358939933" lon="-108.08717416578934"><ele>1876.0</ele><time>2026-04-25T16:56:52Z</time></trkpt><trkpt lat="36.90595494406473" lon="-108.08728014977419"><ele>1876.25</ele><time>2026-04-25T16:56:53Z</time></trkpt><trkpt lat="36.905846096287576" lon="-108.0873931571457"><ele>1876.5</ele><time>2026-04-25T16:56:54Z</time></trkpt><trkpt lat="36.90573490183697" lon="-108.08751875669515"><ele>1876.75</ele><time>2026-04-25T16:56:55Z</time></trkpt><trkpt lat="36.90562328773555" lon="-108.08765403340234"><ele>1877.0</ele><time>2026-04-25T16:56:56Z</time></trkpt><trkpt lat="36.905517663691924" lon="-108.08778887260075"><ele>1876.0</ele><time>2026-04-25T16:56:57Z</time></trkpt><trkpt lat="36.90541612842192" lon="-108.08792873572179"><ele>1875.0</ele><time>2026-04-25T16:56:58Z</time></trkpt><trkpt lat="36.90531310793932" lon="-108.0880786803048"><ele>1874.0</ele><time>2026-04-25T16:56:59Z</time></trkpt><trkpt lat="36.905209420133346" lon="-108.08825043851569"><ele>1874.0</ele><time>2026-04-25T16:57:00Z</time></trkpt><trkpt lat="36.905107186467404" lon="-108.08843880393725"><ele>1874.0</ele><time>2026-04-25T16:57:01Z</time></trkpt><trkpt lat="36.90500406727997" lon="-108.08863243988604"><ele>1874.0</ele><time>2026-04-25T16:57:02Z</time></trkpt><trkpt lat="36.90490687306707" lon="-108.08882240510212"><ele>1874.0</ele><time>2026-04-25T16:57:03Z</time></trkpt><trkpt lat="36.90481966286627" lon="-108.08899501523005"><ele>1874.0</ele><time>2026-04-25T16:57:04Z</time></trkpt><trkpt lat="36.90473238008055" lon="-108.08916980648937"><ele>1874.0</ele><time>2026-04-25T16:57:05Z</time></trkpt><trkpt lat="36.904641328460976" lon="-108.08935393912232"><ele>1873.3333333333333</ele><time>2026-04-25T16:57:06Z</time></trkpt><trkpt lat="36.90455006010155" lon="-108.08954335515163"><ele>1872.6666666666665</ele><time>2026-04-25T16:57:07Z</time></trkpt><trkpt lat="36.904458199851526" lon="-108.08973410207291"><ele>1872.0</ele><time>2026-04-25T16:57:08Z</time></trkpt><trkpt lat="36.904365672837706" lon="-108.08992430576191"><ele>1872.3333333333335</ele><time>2026-04-25T16:57:09Z</time></trkpt><trkpt lat="36.90427922939172" lon="-108.09010056642867"><ele>1872.6666666666667</ele><time>2026-04-25T16:57:10Z</time></trkpt><trkpt lat="36.904199815671255" lon="-108.09026672580177"><ele>1873.0</ele><time>2026-04-25T16:57:11Z</time></trkpt><trkpt lat="36.90411764353357" lon="-108.09043875399944"><ele>1872.25</ele><time>2026-04-25T16:57:12Z</time></trkpt><trkpt lat="36.90404100047705" lon="-108.0906010973788"><ele>1871.5</ele><time>2026-04-25T16:57:13Z</time></trkpt><trkpt lat="36.903964403125414" lon="-108.09076015303107"><ele>1870.75</ele><time>2026-04-25T16:57:14Z</time></trkpt><trkpt lat="36.9038876562299" lon="-108.09091466551443"><ele>1870.0</ele><time>2026-04-25T16:57:15Z</time></trkpt><trkpt lat="36.90381030817438" lon="-108.0910705400732"><ele>1870.0</ele><time>2026-04-25T16:57:16Z</time></trkpt><trkpt lat="36.90373803385837" lon="-108.09122177250538"><ele>1870.0</ele><time>2026-04-25T16:57:17Z</time></trkpt><trkpt lat="36.90365676581495" lon="-108.09138899398492"><ele>1870.0</ele><time>2026-04-25T16:57:18Z</time></trkpt><trkpt lat="36.90357876664874" lon="-108.09155582905458"><ele>1870.0</ele><time>2026-04-25T16:57:19Z</time></trkpt><trkpt lat="36.90351289992728" lon="-108.09169387410506"><ele>1870.0</ele><time>2026-04-25T16:57:20Z</time></trkpt><trkpt lat="36.90345104990021" lon="-108.09181711875438"><ele>1870.0</ele><time>2026-04-25T16:57:21Z</time></trkpt><trkpt lat="36.90338318946758" lon="-108.09194499759883"><ele>1870.0</ele><time>2026-04-25T16:57:22Z</time></trkpt><trkpt lat="36.903320911913006" lon="-108.09207740877497"><ele>1869.75</ele><time>2026-04-25T16:57:23Z</time></trkpt><trkpt lat="36.903269415075016" lon="-108.09219886735387"><ele>1869.5</ele><time>2026-04-25T16:57:24Z</time></trkpt><trkpt lat="36.90323056207981" lon="-108.09231189384165"><ele>1869.25</ele><time>2026-04-25T16:57:25Z</time></trkpt><trkpt lat="36.90317306291338" lon="-108.09243511873385"><ele>1869.0</ele><time>2026-04-25T16:57:26Z</time></trkpt><trkpt lat="36.90310699753811" lon="-108.09257255431902"><ele>1869.0</ele><time>2026-04-25T16:57:27Z</time></trkpt><trkpt lat="36.90302628752675" lon="-108.09273007336637"><ele>1869.0</ele><time>2026-04-25T16:57:28Z</time></trkpt><trkpt lat="36.902943293162096" lon="-108.09290352430457"><ele>1869.0</ele><time>2026-04-25T16:57:29.001Z</time></trkpt><trkpt lat="36.90285307703605" lon="-108.09308853775559"><ele>1868.6666666666665</ele><time>2026-04-25T16:57:30.001Z</time></trkpt><trkpt lat="36.90275659271364" lon="-108.09328072523866"><ele>1868.3333333333333</ele><time>2026-04-25T16:57:31.001Z</time></trkpt><trkpt lat="36.90267534982352" lon="-108.09348371197228"><ele>1868.0</ele><time>2026-04-25T16:57:32.001Z</time></trkpt><trkpt lat="36.90258099360014" lon="-108.0936722220055"><ele>1868.0</ele><time>2026-04-25T16:57:33.001Z</time></trkpt><trkpt lat="36.90249901643959" lon="-108.09383193839513"><ele>1868.0</ele><time>2026-04-25T16:57:34.001Z</time></trkpt><trkpt lat="36.90241632008787" lon="-108.09399305591126"><ele>1868.0</ele><time>2026-04-25T16:57:35.001Z</time></trkpt><trkpt lat="36.902314487041586" lon="-108.09415535446125"><ele>1868.6666666666665</ele><time>2026-04-25T16:57:36.001Z</time></trkpt><trkpt lat="36.90223107865004" lon="-108.0943385307065"><ele>1869.3333333333335</ele><time>2026-04-25T16:57:37.001Z</time></trkpt><trkpt lat="36.90214000521864" lon="-108.0945253803827"><ele>1870.0</ele><time>2026-04-25T16:57:38.001Z</time></trkpt><trkpt lat="36.902041476744955" lon="-108.0947187542031"><ele>1870.0</ele><time>2026-04-25T16:57:39.001Z</time></trkpt><trkpt lat="36.90194175780274" lon="-108.094906485762"><ele>1870.0</ele><time>2026-04-25T16:57:40.001Z</time></trkpt><trkpt lat="36.90184432520947" lon="-108.09509328195787"><ele>1870.0</ele><time>2026-04-25T16:57:41.001Z</time></trkpt><trkpt lat="36.901766218107795" lon="-108.09526065519468"><ele>1869.3333333333335</ele><time>2026-04-25T16:57:42.001Z</time></trkpt><trkpt lat="36.901679912088845" lon="-108.0954416209626"><ele>1868.6666666666665</ele><time>2026-04-25T16:57:43.001Z</time></trkpt><trkpt lat="36.90160012190964" lon="-108.09561937109443"><ele>1868.0</ele><time>2026-04-25T16:57:44.001Z</time></trkpt><trkpt lat="36.901526391466305" lon="-108.09579759330742"><ele>1868.0</ele><time>2026-04-25T16:57:45.001Z</time></trkpt><trkpt lat="36.901457504260286" lon="-108.09598302159505"><ele>1868.0</ele><time>2026-04-25T16:57:46.001Z</time></trkpt><trkpt lat="36.90138331969632" lon="-108.09615958669012"><ele>1868.0</ele><time>2026-04-25T16:57:47.001Z</time></trkpt><trkpt lat="36.9012969877309" lon="-108.09632974721643"><ele>1868.0</ele><time>2026-04-25T16:57:48.001Z</time></trkpt><trkpt lat="36.90122029675178" lon="-108.09650933307489"><ele>1868.0</ele><time>2026-04-25T16:57:49.001Z</time></trkpt><trkpt lat="36.901133528305195" lon="-108.0966896107718"><ele>1868.0</ele><time>2026-04-25T16:57:50.001Z</time></trkpt><trkpt lat="36.9010264743176" lon="-108.0968710316117"><ele>1868.0</ele><time>2026-04-25T16:57:51.001Z</time></trkpt><trkpt lat="36.900917199654" lon="-108.09702490944241"><ele>1868.0</ele><time>2026-04-25T16:57:52.001Z</time></trkpt><trkpt lat="36.90079583620815" lon="-108.09717698915446"><ele>1868.0</ele><time>2026-04-25T16:57:53.001Z</time></trkpt><trkpt lat="36.900672376018164" lon="-108.09732811668633"><ele>1867.6666666666665</ele><time>2026-04-25T16:57:54.001Z</time></trkpt><trkpt lat="36.90053869490782" lon="-108.09749311123208"><ele>1867.3333333333335</ele><time>2026-04-25T16:57:55.001Z</time></trkpt><trkpt lat="36.900406626251716" lon="-108.09766723112503"><ele>1867.0</ele><time>2026-04-25T16:57:56.001Z</time></trkpt><trkpt lat="36.90028965531277" lon="-108.09782830038361"><ele>1867.0</ele><time>2026-04-25T16:57:57.001Z</time></trkpt><trkpt lat="36.90017246254417" lon="-108.09798977413932"><ele>1867.0</ele><time>2026-04-25T16:57:58.001Z</time></trkpt><trkpt lat="36.90004904942395" lon="-108.09816246727046"><ele>1867.0</ele><time>2026-04-25T16:57:59.001Z</time></trkpt><trkpt lat="36.899923325514436" lon="-108.09833839391028"><ele>1865.3333333333335</ele><time>2026-04-25T16:58:00.001Z</time></trkpt><trkpt lat="36.89980206639753" lon="-108.0985080729756"><ele>1863.6666666666665</ele><time>2026-04-25T16:58:01.001Z</time></trkpt><trkpt lat="36.89969216238712" lon="-108.09866186269379"><ele>1862.0</ele><time>2026-04-25T16:58:02.001Z</time></trkpt><trkpt lat="36.89957981694806" lon="-108.0988190687326"><ele>1862.0</ele><time>2026-04-25T16:58:03.001Z</time></trkpt><trkpt lat="36.899448439071136" lon="-108.09897766477748"><ele>1862.0</ele><time>2026-04-25T16:58:04.001Z</time></trkpt><trkpt lat="36.89933129367066" lon="-108.09914276693982"><ele>1862.0</ele><time>2026-04-25T16:58:05.001Z</time></trkpt><trkpt lat="36.89922145472592" lon="-108.09931940233797"><ele>1861.6666666666665</ele><time>2026-04-25T16:58:06.001Z</time></trkpt><trkpt lat="36.89910491035264" lon="-108.09948045084009"><ele>1861.3333333333335</ele><time>2026-04-25T16:58:07.001Z</time></trkpt><trkpt lat="36.89899081524674" lon="-108.09963709658912"><ele>1861.0</ele><time>2026-04-25T16:58:08.001Z</time></trkpt><trkpt lat="36.898867769483964" lon="-108.09980320999199"><ele>1861.3333333333335</ele><time>2026-04-25T16:58:09.001Z</time></trkpt><trkpt lat="36.89872800967205" lon="-108.09995906396685"><ele>1861.6666666666665</ele><time>2026-04-25T16:58:10.001Z</time></trkpt><trkpt lat="36.898599636834206" lon="-108.10013420832148"><ele>1862.0</ele><time>2026-04-25T16:58:11.001Z</time></trkpt><trkpt lat="36.89846626096418" lon="-108.10031053042535"><ele>1861.6666666666665</ele><time>2026-04-25T16:58:12.001Z</time></trkpt><trkpt lat="36.89833398188185" lon="-108.10048695768673"><ele>1861.3333333333335</ele><time>2026-04-25T16:58:13.001Z</time></trkpt><trkpt lat="36.89820278509772" lon="-108.10065640110999"><ele>1861.0</ele><time>2026-04-25T16:58:14.001Z</time></trkpt><trkpt lat="36.89807434111967" lon="-108.10082139767735"><ele>1862.0</ele><time>2026-04-25T16:58:15.001Z</time></trkpt><trkpt lat="36.89795027077521" lon="-108.10098120073036"><ele>1863.0</ele><time>2026-04-25T16:58:16.001Z</time></trkpt><trkpt lat="36.89784292214786" lon="-108.10114857359862"><ele>1864.0</ele><time>2026-04-25T16:58:17.001Z</time></trkpt><trkpt lat="36.89774397144584" lon="-108.1012792230533"><ele>1864.0</ele><time>2026-04-25T16:58:18.001Z</time></trkpt><trkpt lat="36.89765511269178" lon="-108.10136191429119"><ele>1864.0</ele><time>2026-04-25T16:58:19.001Z</time></trkpt><trkpt lat="36.89759783741118" lon="-108.10144787701267"><ele>1864.0</ele><time>2026-04-25T16:58:20.001Z</time></trkpt><trkpt lat="36.8975169852174" lon="-108.10147170630334"><ele>1864.0</ele><time>2026-04-25T16:58:21.001Z</time></trkpt><trkpt lat="36.89743479290961" lon="-108.10149365127846"><ele>1864.0</ele><time>2026-04-25T16:58:22.001Z</time></trkpt><trkpt lat="36.897333865438235" lon="-108.1014848886463"><ele>1864.0</ele><time>2026-04-25T16:58:23.001Z</time></trkpt><trkpt lat="36.89723672871626" lon="-108.1014561566474"><ele>1864.0</ele><time>2026-04-25T16:58:24.001Z</time></trkpt><trkpt lat="36.89714845823402" lon="-108.10140924722344"><ele>1864.0</ele><time>2026-04-25T16:58:25.001Z</time></trkpt><trkpt lat="36.897048119966094" lon="-108.1013501773747"><ele>1864.0</ele><time>2026-04-25T16:58:26.001Z</time></trkpt><trkpt lat="36.896932356842726" lon="-108.10128010610583"><ele>1864.0</ele><time>2026-04-25T16:58:27.001Z</time></trkpt><trkpt lat="36.89681261827608" lon="-108.10119686264245"><ele>1862.75</ele><time>2026-04-25T16:58:28.001Z</time></trkpt><trkpt lat="36.8966857211282" lon="-108.10110305723273"><ele>1861.5</ele><time>2026-04-25T16:58:29.001Z</time></trkpt><trkpt lat="36.896549768800995" lon="-108.10100344612708"><ele>1860.25</ele><time>2026-04-25T16:58:30.001Z</time></trkpt><trkpt lat="36.89643106658192" lon="-108.10091483307458"><ele>1859.0</ele><time>2026-04-25T16:58:31.001Z</time></trkpt><trkpt lat="36.896319589084165" lon="-108.10083264538706"><ele>1859.0</ele><time>2026-04-25T16:58:32.001Z</time></trkpt><trkpt lat="36.89621005668717" lon="-108.10076319984243"><ele>1859.0</ele><time>2026-04-25T16:58:33.001Z</time></trkpt><trkpt lat="36.896095784645055" lon="-108.10071930549621"><ele>1859.0</ele><time>2026-04-25T16:58:34.001Z</time></trkpt><trkpt lat="36.89596507075784" lon="-108.10070673849697"><ele>1859.0</ele><time>2026-04-25T16:58:35.001Z</time></trkpt><trkpt lat="36.89584286703113" lon="-108.10073518162042"><ele>1857.6666666666665</ele><time>2026-04-25T16:58:36.001Z</time></trkpt><trkpt lat="36.895714088255154" lon="-108.10079461670664"><ele>1856.3333333333335</ele><time>2026-04-25T16:58:37.001Z</time></trkpt><trkpt lat="36.89557738130318" lon="-108.10088244755451"><ele>1855.0</ele><time>2026-04-25T16:58:38.001Z</time></trkpt><trkpt lat="36.89543341244268" lon="-108.10098682403222"><ele>1855.0</ele><time>2026-04-25T16:58:39.001Z</time></trkpt><trkpt lat="36.895275284086175" lon="-108.10108921150143"><ele>1855.0</ele><time>2026-04-25T16:58:40.001Z</time></trkpt><trkpt lat="36.89510791493938" lon="-108.1011946059716"><ele>1855.0</ele><time>2026-04-25T16:58:41.001Z</time></trkpt><trkpt lat="36.89494339080087" lon="-108.10130757109118"><ele>1854.6666666666667</ele><time>2026-04-25T16:58:42.001Z</time></trkpt><trkpt lat="36.8947980784904" lon="-108.10140386104864"><ele>1854.3333333333335</ele><time>2026-04-25T16:58:43.001Z</time></trkpt><trkpt lat="36.89466775710178" lon="-108.10147781138339"><ele>1854.0</ele><time>2026-04-25T16:58:44.001Z</time></trkpt><trkpt lat="36.89452352165252" lon="-108.1015386720262"><ele>1854.0</ele><time>2026-04-25T16:58:45Z</time></trkpt><trkpt lat="36.89436718319043" lon="-108.10159533554308"><ele>1854.0</ele><time>2026-04-25T16:58:46Z</time></trkpt><trkpt lat="36.894204255508384" lon="-108.10165125644589"><ele>1854.0</ele><time>2026-04-25T16:58:47Z</time></trkpt><trkpt lat="36.89403921623573" lon="-108.10170966803095"><ele>1854.0</ele><time>2026-04-25T16:58:48Z</time></trkpt><trkpt lat="36.893876356385846" lon="-108.10176910110873"><ele>1854.0</ele><time>2026-04-25T16:58:49Z</time></trkpt><trkpt lat="36.89372461080836" lon="-108.10182922851466"><ele>1854.0</ele><time>2026-04-25T16:58:50Z</time></trkpt><trkpt lat="36.89356566249254" lon="-108.10189673761725"><ele>1854.0</ele><time>2026-04-25T16:58:51Z</time></trkpt><trkpt lat="36.89339917346034" lon="-108.10197602882127"><ele>1854.0</ele><time>2026-04-25T16:58:52Z</time></trkpt><trkpt lat="36.89324024004863" lon="-108.10206559374001"><ele>1854.0</ele><time>2026-04-25T16:58:53Z</time></trkpt><trkpt lat="36.89309249442892" lon="-108.10216619078908"><ele>1854.0</ele><time>2026-04-25T16:58:54Z</time></trkpt><trkpt lat="36.892964559112045" lon="-108.10226660433234"><ele>1854.0</ele><time>2026-04-25T16:58:55Z</time></trkpt><trkpt lat="36.892854230919795" lon="-108.10235781838469"><ele>1854.0</ele><time>2026-04-25T16:58:56Z</time></trkpt><trkpt lat="36.89275299829962" lon="-108.10243869342703"><ele>1854.0</ele><time>2026-04-25T16:58:57Z</time></trkpt><trkpt lat="36.89264114672676" lon="-108.10252132879158"><ele>1854.0</ele><time>2026-04-25T16:58:58Z</time></trkpt><trkpt lat="36.89251156655092" lon="-108.10261532822524"><ele>1854.0</ele><time>2026-04-25T16:58:59Z</time></trkpt><trkpt lat="36.89236557903634" lon="-108.10271388466738"><ele>1854.0</ele><time>2026-04-25T16:59:00Z</time></trkpt><trkpt lat="36.89220518565979" lon="-108.10282616968948"><ele>1854.0</ele><time>2026-04-25T16:59:01Z</time></trkpt><trkpt lat="36.8920443630938" lon="-108.10293301575005"><ele>1854.0</ele><time>2026-04-25T16:59:02Z</time></trkpt><trkpt lat="36.891904321981734" lon="-108.10300089114435"><ele>1854.0</ele><time>2026-04-25T16:59:03Z</time></trkpt><trkpt lat="36.89177426499628" lon="-108.10304912873444"><ele>1853.8000000000002</ele><time>2026-04-25T16:59:04Z</time></trkpt><trkpt lat="36.89165676542337" lon="-108.10308096808195"><ele>1853.6000000000001</ele><time>2026-04-25T16:59:05Z</time></trkpt><trkpt lat="36.891558169328775" lon="-108.1030802305614"><ele>1853.4</ele><time>2026-04-25T16:59:06Z</time></trkpt><trkpt lat="36.89145955235981" lon="-108.10304442479502"><ele>1853.2</ele><time>2026-04-25T16:59:07Z</time></trkpt><trkpt lat="36.89135359114554" lon="-108.10298716524873"><ele>1853.0</ele><time>2026-04-25T16:59:08Z</time></trkpt><trkpt lat="36.89122896683736" lon="-108.10292738760918"><ele>1853.0</ele><time>2026-04-25T16:59:09Z</time></trkpt><trkpt lat="36.89108935545062" lon="-108.10287255183339"><ele>1853.0</ele><time>2026-04-25T16:59:10Z</time></trkpt><trkpt lat="36.890967027032325" lon="-108.10284386814556"><ele>1853.0</ele><time>2026-04-25T16:59:11Z</time></trkpt><trkpt lat="36.89084077247647" lon="-108.10282814762732"><ele>1853.0</ele><time>2026-04-25T16:59:12Z</time></trkpt><trkpt lat="36.89069921886899" lon="-108.10282613272602"><ele>1852.3333333333333</ele><time>2026-04-25T16:59:13Z</time></trkpt><trkpt lat="36.8905444129716" lon="-108.10284292867762"><ele>1851.6666666666665</ele><time>2026-04-25T16:59:14Z</time></trkpt><trkpt lat="36.8903826202118" lon="-108.10287957550334"><ele>1851.0</ele><time>2026-04-25T16:59:15Z</time></trkpt><trkpt lat="36.89021480394324" lon="-108.1029380002464"><ele>1851.0</ele><time>2026-04-25T16:59:16Z</time></trkpt><trkpt lat="36.89005604655811" lon="-108.10300823111616"><ele>1851.0</ele><time>2026-04-25T16:59:17Z</time></trkpt><trkpt lat="36.889919704776126" lon="-108.10307287423387"><ele>1851.0</ele><time>2026-04-25T16:59:18Z</time></trkpt><trkpt lat="36.88977901808966" lon="-108.1031170274261"><ele>1851.0</ele><time>2026-04-25T16:59:19Z</time></trkpt><trkpt lat="36.88961358554452" lon="-108.10315192792714"><ele>1851.0</ele><time>2026-04-25T16:59:20Z</time></trkpt><trkpt lat="36.889447071018104" lon="-108.10319611300979"><ele>1851.0</ele><time>2026-04-25T16:59:21Z</time></trkpt><trkpt lat="36.88930027167755" lon="-108.10326274197993"><ele>1850.6666666666665</ele><time>2026-04-25T16:59:22Z</time></trkpt><trkpt lat="36.88915319523957" lon="-108.10335629295308"><ele>1850.3333333333333</ele><time>2026-04-25T16:59:23Z</time></trkpt><trkpt lat="36.88900190105138" lon="-108.10346920908118"><ele>1850.0</ele><time>2026-04-25T16:59:24Z</time></trkpt><trkpt lat="36.888849711452096" lon="-108.10359154171705"><ele>1850.0</ele><time>2026-04-25T16:59:25Z</time></trkpt><trkpt lat="36.888698669739995" lon="-108.1037200805619"><ele>1850.0</ele><time>2026-04-25T16:59:26Z</time></trkpt><trkpt lat="36.888552222217726" lon="-108.10385657636073"><ele>1850.0</ele><time>2026-04-25T16:59:27Z</time></trkpt><trkpt lat="36.88841541546142" lon="-108.10399397302739"><ele>1850.3333333333333</ele><time>2026-04-25T16:59:28Z</time></trkpt><trkpt lat="36.88828151585595" lon="-108.1041235746567"><ele>1850.6666666666665</ele><time>2026-04-25T16:59:29Z</time></trkpt><trkpt lat="36.88815691441408" lon="-108.10423985496533"><ele>1851.0</ele><time>2026-04-25T16:59:30Z</time></trkpt><trkpt lat="36.888024670287656" lon="-108.10436460316765"><ele>1851.0</ele><time>2026-04-25T16:59:31Z</time></trkpt><trkpt lat="36.88788826760199" lon="-108.10449531580777"><ele>1851.0</ele><time>2026-04-25T16:59:32Z</time></trkpt><trkpt lat="36.887752589742874" lon="-108.10462463051907"><ele>1851.0</ele><time>2026-04-25T16:59:33Z</time></trkpt><trkpt lat="36.88763444136635" lon="-108.10474248710675"><ele>1850.75</ele><time>2026-04-25T16:59:34Z</time></trkpt><trkpt lat="36.88752931503795" lon="-108.10484516969642"><ele>1850.5</ele><time>2026-04-25T16:59:35Z</time></trkpt><trkpt lat="36.88742877359611" lon="-108.10494593999006"><ele>1850.25</ele><time>2026-04-25T16:59:36Z</time></trkpt><trkpt lat="36.88732849239505" lon="-108.10504652192253"><ele>1850.0</ele><time>2026-04-25T16:59:37Z</time></trkpt><trkpt lat="36.88723886375343" lon="-108.10513693387209"><ele>1850.0</ele><time>2026-04-25T16:59:38Z</time></trkpt><trkpt lat="36.88717148549641" lon="-108.10520992421213"><ele>1850.0</ele><time>2026-04-25T16:59:39.001Z</time></trkpt><trkpt lat="36.88712247123933" lon="-108.10527882526915"><ele>1850.0</ele><time>2026-04-25T16:59:40.001Z</time></trkpt><trkpt lat="36.88700892411837" lon="-108.1050900040929"><ele>1850.0</ele><time>2026-04-25T16:59:48.001Z</time></trkpt><trkpt lat="36.88696959835331" lon="-108.10494759787056"><ele>1849.6</ele><time>2026-04-25T16:59:50.001Z</time></trkpt><trkpt lat="36.88691454953964" lon="-108.10486047056432"><ele>1849.2</ele><time>2026-04-25T16:59:51.001Z</time></trkpt><trkpt lat="36.886835507735775" lon="-108.10476133974355"><ele>1848.8000000000002</ele><time>2026-04-25T16:59:52.001Z</time></trkpt><trkpt lat="36.88676906795754" lon="-108.10468854112844"><ele>1848.4</ele><time>2026-04-25T16:59:53.001Z</time></trkpt><trkpt lat="36.88669629972542" lon="-108.10465805080287"><ele>1848.0</ele><time>2026-04-25T16:59:54.001Z</time></trkpt><trkpt lat="36.88658614689122" lon="-108.10465806026104"><ele>1847.2857142857142</ele><time>2026-04-25T16:59:55.001Z</time></trkpt><trkpt lat="36.8864985586646" lon="-108.10466227040956"><ele>1846.5714285714284</ele><time>2026-04-25T16:59:56.001Z</time></trkpt><trkpt lat="36.88642601530099" lon="-108.10465248111458"><ele>1845.857142857143</ele><time>2026-04-25T16:59:57.001Z</time></trkpt><trkpt lat="36.886357090548316" lon="-108.10462279980925"><ele>1845.142857142857</ele><time>2026-04-25T16:59:58.001Z</time></trkpt><trkpt lat="36.88628874311086" lon="-108.10460374045824"><ele>1844.4285714285713</ele><time>2026-04-25T16:59:59.001Z</time></trkpt><trkpt lat="36.886219497129446" lon="-108.1045921581566"><ele>1843.7142857142858</ele><time>2026-04-25T17:00:02.001Z</time></trkpt><trkpt lat="36.886185338565404" lon="-108.10451743929099"><ele>1843.0</ele><time>2026-04-25T17:00:05.001Z</time></trkpt><trkpt lat="36.88616315748895" lon="-108.10444238050215"><ele>1843.0</ele><time>2026-04-25T17:00:08.001Z</time></trkpt><trkpt lat="36.88614204964684" lon="-108.10430962202963"><ele>1843.0000000000002</ele><time>2026-04-25T17:02:44.001Z</time></trkpt><trkpt lat="36.886110669998835" lon="-108.10423532079012"><ele>1843.0000000000002</ele><time>2026-04-25T17:02:46.001Z</time></trkpt><trkpt lat="36.886163322784874" lon="-108.10416797147896"><ele>1843.0</ele><time>2026-04-25T17:02:48.001Z</time></trkpt><trkpt lat="36.88624546875624" lon="-108.10410384289571"><ele>1843.0</ele><time>2026-04-25T17:02:50.001Z</time></trkpt><trkpt lat="36.88626577677593" lon="-108.10394465917723"><ele>1843.75</ele><time>2026-04-25T17:02:52.001Z</time></trkpt><trkpt lat="36.88625132952886" lon="-108.10383448704255"><ele>1844.5</ele><time>2026-04-25T17:02:53.001Z</time></trkpt><trkpt lat="36.886217476872766" lon="-108.10371870091805"><ele>1845.25</ele><time>2026-04-25T17:02:54.001Z</time></trkpt><trkpt lat="36.88614653893273" lon="-108.10357264297258"><ele>1846.0</ele><time>2026-04-25T17:02:55.001Z</time></trkpt><trkpt lat="36.88608053730311" lon="-108.10343637136918"><ele>1846.0</ele><time>2026-04-25T17:02:56.001Z</time></trkpt><trkpt lat="36.886028205100516" lon="-108.10329505138083"><ele>1846.0</ele><time>2026-04-25T17:02:57Z</time></trkpt><trkpt lat="36.88597675658367" lon="-108.10312483116887"><ele>1846.0</ele><time>2026-04-25T17:02:58Z</time></trkpt><trkpt lat="36.88593518731236" lon="-108.10295255283707"><ele>1846.0</ele><time>2026-04-25T17:02:59Z</time></trkpt><trkpt lat="36.885891626865195" lon="-108.10280152650662"><ele>1847.25</ele><time>2026-04-25T17:03:00Z</time></trkpt><trkpt lat="36.88584573651332" lon="-108.10268119235943"><ele>1848.5</ele><time>2026-04-25T17:03:01Z</time></trkpt><trkpt lat="36.8858051556236" lon="-108.10254698261375"><ele>1849.75</ele><time>2026-04-25T17:03:02Z</time></trkpt><trkpt lat="36.88576409434996" lon="-108.1023930253392"><ele>1851.0</ele><time>2026-04-25T17:03:03Z</time></trkpt><trkpt lat="36.88572252051267" lon="-108.10224140841208"><ele>1851.5</ele><time>2026-04-25T17:03:04Z</time></trkpt><trkpt lat="36.885688167365" lon="-108.10213200470034"><ele>1852.0</ele><time>2026-04-25T17:03:05Z</time></trkpt><trkpt lat="36.88565459250041" lon="-108.10206280320584"><ele>1852.5</ele><time>2026-04-25T17:03:06Z</time></trkpt><trkpt lat="36.88559091502997" lon="-108.10200335172988"><ele>1853.0</ele><time>2026-04-25T17:03:07Z</time></trkpt><trkpt lat="36.88551586224878" lon="-108.10195146555661"><ele>1853.5</ele><time>2026-04-25T17:03:08Z</time></trkpt><trkpt lat="36.885440513027774" lon="-108.10192646333407"><ele>1854.0</ele><time>2026-04-25T17:03:09Z</time></trkpt><trkpt lat="36.885351798049825" lon="-108.10190905566996"><ele>1854.0</ele><time>2026-04-25T17:03:10Z</time></trkpt><trkpt lat="36.88527839683878" lon="-108.10188773582752"><ele>1854.0</ele><time>2026-04-25T17:03:11Z</time></trkpt><trkpt lat="36.885213398027936" lon="-108.10184834204946"><ele>1854.0</ele><time>2026-04-25T17:03:12Z</time></trkpt><trkpt lat="36.88514758136511" lon="-108.10178727603446"><ele>1854.0</ele><time>2026-04-25T17:03:13Z</time></trkpt><trkpt lat="36.88510255319301" lon="-108.10171705126987"><ele>1854.0</ele><time>2026-04-25T17:03:14Z</time></trkpt><trkpt lat="36.88499274724189" lon="-108.10169271631443"><ele>1854.0</ele><time>2026-04-25T17:03:16Z</time></trkpt><trkpt lat="36.88488527280008" lon="-108.10169347938815"><ele>1854.0</ele><time>2026-04-25T17:03:17Z</time></trkpt><trkpt lat="36.88479444888419" lon="-108.10168579474356"><ele>1854.0</ele><time>2026-04-25T17:03:18Z</time></trkpt><trkpt lat="36.88472009491355" lon="-108.1016553361537"><ele>1854.0</ele><time>2026-04-25T17:03:19Z</time></trkpt><trkpt lat="36.88459119096876" lon="-108.1015990995281"><ele>1854.0</ele><time>2026-04-25T17:03:20Z</time></trkpt><trkpt lat="36.884501936801115" lon="-108.10158517144295"><ele>1854.0</ele><time>2026-04-25T17:03:21Z</time></trkpt><trkpt lat="36.88441736542767" lon="-108.10155345465083"><ele>1854.4</ele><time>2026-04-25T17:03:22Z</time></trkpt><trkpt lat="36.88432847283947" lon="-108.10144648905846"><ele>1854.8000000000002</ele><time>2026-04-25T17:03:24Z</time></trkpt><trkpt lat="36.88429055772761" lon="-108.10135478139654"><ele>1855.1999999999998</ele><time>2026-04-25T17:03:25Z</time></trkpt><trkpt lat="36.884191665378225" lon="-108.10125567912965"><ele>1855.6</ele><time>2026-04-25T17:03:27Z</time></trkpt><trkpt lat="36.88411546690324" lon="-108.1012009373415"><ele>1856.0</ele><time>2026-04-25T17:03:28Z</time></trkpt><trkpt lat="36.88404804894135" lon="-108.10109797123313"><ele>1856.8</ele><time>2026-04-25T17:03:29Z</time></trkpt><trkpt lat="36.8840010842619" lon="-108.10098242292725"><ele>1857.6</ele><time>2026-04-25T17:03:30Z</time></trkpt><trkpt lat="36.883951749282204" lon="-108.10088285631552"><ele>1858.4</ele><time>2026-04-25T17:03:31Z</time></trkpt><trkpt lat="36.88391432325415" lon="-108.10080323851837"><ele>1859.2</ele><time>2026-04-25T17:03:32Z</time></trkpt><trkpt lat="36.88385037826932" lon="-108.10069910982321"><ele>1860.0</ele><time>2026-04-25T17:03:34Z</time></trkpt><trkpt lat="36.88378286480955" lon="-108.10065147710472"><ele>1860.5</ele><time>2026-04-25T17:03:35Z</time></trkpt><trkpt lat="36.88373510896242" lon="-108.10056708880032"><ele>1861.0</ele><time>2026-04-25T17:03:36Z</time></trkpt><trkpt lat="36.88369817619999" lon="-108.10042866365878"><ele>1861.5</ele><time>2026-04-25T17:03:37Z</time></trkpt><trkpt lat="36.88366601257383" lon="-108.10025620720465"><ele>1862.0</ele><time>2026-04-25T17:03:38Z</time></trkpt><trkpt lat="36.88361455579421" lon="-108.1001158286898"><ele>1862.0</ele><time>2026-04-25T17:03:39Z</time></trkpt><trkpt lat="36.88359055145839" lon="-108.10003213174663"><ele>1861.9999999999998</ele><time>2026-04-25T17:03:40Z</time></trkpt><trkpt lat="36.88359095611377" lon="-108.09991483850237"><ele>1861.9999999999998</ele><time>2026-04-25T17:03:42Z</time></trkpt><trkpt lat="36.883515072443416" lon="-108.09993125197938"><ele>1862.0</ele><time>2026-04-25T17:03:43Z</time></trkpt><trkpt lat="36.88340733539327" lon="-108.09991806000666"><ele>1862.0</ele><time>2026-04-25T17:03:44Z</time></trkpt><trkpt lat="36.88328641548637" lon="-108.09987167360582"><ele>1863.0</ele><time>2026-04-25T17:03:45Z</time></trkpt><trkpt lat="36.8831683927762" lon="-108.09980636574495"><ele>1863.9999999999998</ele><time>2026-04-25T17:03:46Z</time></trkpt><trkpt lat="36.88306835030984" lon="-108.09975079618908"><ele>1864.9999999999998</ele><time>2026-04-25T17:03:47Z</time></trkpt><trkpt lat="36.88298444894792" lon="-108.09971262357011"><ele>1866.0</ele><time>2026-04-25T17:03:48Z</time></trkpt><trkpt lat="36.882946808240575" lon="-108.09964020416025"><ele>1867.0</ele><time>2026-04-25T17:03:49Z</time></trkpt><trkpt lat="36.88289462339887" lon="-108.09952243392746"><ele>1867.0</ele><time>2026-04-25T17:03:50Z</time></trkpt><trkpt lat="36.88284415526864" lon="-108.09937396086573"><ele>1866.9999999999998</ele><time>2026-04-25T17:03:51.001Z</time></trkpt><trkpt lat="36.88277824886818" lon="-108.0992520024901"><ele>1866.9999999999998</ele><time>2026-04-25T17:03:52.001Z</time></trkpt><trkpt lat="36.88269510244111" lon="-108.09919655158036"><ele>1867.0</ele><time>2026-04-25T17:03:53.001Z</time></trkpt><trkpt lat="36.88263450753473" lon="-108.09913305326951"><ele>1867.0</ele><time>2026-04-25T17:03:54.001Z</time></trkpt><trkpt lat="36.88258322126398" lon="-108.09907865996126"><ele>1868.1999999999998</ele><time>2026-04-25T17:03:57.001Z</time></trkpt><trkpt lat="36.88246350767627" lon="-108.09917906240781"><ele>1869.3999999999999</ele><time>2026-04-25T17:04:00.001Z</time></trkpt><trkpt lat="36.882392281941925" lon="-108.09923372108378"><ele>1870.6000000000001</ele><time>2026-04-25T17:04:01.001Z</time></trkpt><trkpt lat="36.882302493022685" lon="-108.09920926029898"><ele>1871.8000000000002</ele><time>2026-04-25T17:04:03.001Z</time></trkpt><trkpt lat="36.882187889819924" lon="-108.09918994036575"><ele>1873.0</ele><time>2026-04-25T17:04:05.001Z</time></trkpt><trkpt lat="36.8821068865038" lon="-108.09919090020722"><ele>1873.0</ele><time>2026-04-25T17:04:06.001Z</time></trkpt><trkpt lat="36.882040166909846" lon="-108.09919843299214"><ele>1873.0000000000002</ele><time>2026-04-25T17:04:07.001Z</time></trkpt><trkpt lat="36.881897420015704" lon="-108.0991724654748"><ele>1873.0000000000002</ele><time>2026-04-25T17:04:09.001Z</time></trkpt><trkpt lat="36.88182662485964" lon="-108.09909535329628"><ele>1873.0</ele><time>2026-04-25T17:04:10.001Z</time></trkpt><trkpt lat="36.88176541378368" lon="-108.09898336524034"><ele>1873.0</ele><time>2026-04-25T17:04:11.001Z</time></trkpt><trkpt lat="36.88169634946126" lon="-108.09888328587058"><ele>1874.2</ele><time>2026-04-25T17:04:12.001Z</time></trkpt><trkpt lat="36.8816379573417" lon="-108.0988406946538"><ele>1875.4</ele><time>2026-04-25T17:04:13.001Z</time></trkpt><trkpt lat="36.88152050655311" lon="-108.09892846690376"><ele>1876.6000000000001</ele><time>2026-04-25T17:04:15.001Z</time></trkpt><trkpt lat="36.88142270293685" lon="-108.09894475120362"><ele>1877.8000000000002</ele><time>2026-04-25T17:04:16.001Z</time></trkpt><trkpt lat="36.88134316815304" lon="-108.09907883526513"><ele>1879.0</ele><time>2026-04-25T17:04:18.001Z</time></trkpt><trkpt lat="36.88127543724159" lon="-108.09915059321432"><ele>1879.5000000000002</ele><time>2026-04-25T17:04:19.001Z</time></trkpt><trkpt lat="36.88119064701121" lon="-108.09918711190343"><ele>1880.0</ele><time>2026-04-25T17:04:20.001Z</time></trkpt><trkpt lat="36.88112651112222" lon="-108.09920739151315"><ele>1880.5</ele><time>2026-04-25T17:04:21.001Z</time></trkpt><trkpt lat="36.88099621057103" lon="-108.09922521750732"><ele>1881.0</ele><time>2026-04-25T17:04:23.001Z</time></trkpt><trkpt lat="36.880930870332854" lon="-108.09926861961134"><ele>1881.5000000000002</ele><time>2026-04-25T17:04:24.001Z</time></trkpt><trkpt lat="36.88088079952275" lon="-108.09933747883015"><ele>1882.0</ele><time>2026-04-25T17:04:25.001Z</time></trkpt><trkpt lat="36.8808370666295" lon="-108.09942220379199"><ele>1882.0</ele><time>2026-04-25T17:04:26.001Z</time></trkpt><trkpt lat="36.88073071107009" lon="-108.09953542131778"><ele>1881.9999999999998</ele><time>2026-04-25T17:04:28.001Z</time></trkpt><trkpt lat="36.88067052381341" lon="-108.09957412276415"><ele>1881.9999999999998</ele><time>2026-04-25T17:04:29.001Z</time></trkpt><trkpt lat="36.88058028345384" lon="-108.09962109281743"><ele>1882.0</ele><time>2026-04-25T17:04:31.001Z</time></trkpt><trkpt lat="36.880449194923834" lon="-108.09963321736508"><ele>1882.0</ele><time>2026-04-25T17:04:33.001Z</time></trkpt><trkpt lat="36.880381863616215" lon="-108.09964553966127"><ele>1882.0</ele><time>2026-04-25T17:04:34.001Z</time></trkpt><trkpt lat="36.88031164128551" lon="-108.09968492189401"><ele>1881.9999999999998</ele><time>2026-04-25T17:04:35.001Z</time></trkpt><trkpt lat="36.880237964392826" lon="-108.09967270676549"><ele>1881.9999999999998</ele><time>2026-04-25T17:04:36.001Z</time></trkpt><trkpt lat="36.88013306340405" lon="-108.09965838949243"><ele>1882.0</ele><time>2026-04-25T17:04:37.001Z</time></trkpt><trkpt lat="36.88001720202915" lon="-108.0996618609151"><ele>1882.0</ele><time>2026-04-25T17:04:38.001Z</time></trkpt><trkpt lat="36.879907575981996" lon="-108.09965513828415"><ele>1882.285714285714</ele><time>2026-04-25T17:04:39.001Z</time></trkpt><trkpt lat="36.87984411533633" lon="-108.09963882160521"><ele>1882.5714285714284</ele><time>2026-04-25T17:04:40.001Z</time></trkpt><trkpt lat="36.879785959986435" lon="-108.0996028078025"><ele>1882.857142857143</ele><time>2026-04-25T17:04:41.001Z</time></trkpt><trkpt lat="36.879720207081384" lon="-108.09957461937098"><ele>1883.142857142857</ele><time>2026-04-25T17:04:42.001Z</time></trkpt><trkpt lat="36.87964883388417" lon="-108.09958359506747"><ele>1883.4285714285716</ele><time>2026-04-25T17:04:43.001Z</time></trkpt><trkpt lat="36.87959254726544" lon="-108.09962887658304"><ele>1883.714285714286</ele><time>2026-04-25T17:04:44.001Z</time></trkpt><trkpt lat="36.879538603249046" lon="-108.0995855406132"><ele>1884.0000000000002</ele><time>2026-04-25T17:04:46.001Z</time></trkpt><trkpt lat="36.87954146699485" lon="-108.09949043415067"><ele>1884.0</ele><time>2026-04-25T17:04:47.001Z</time></trkpt><trkpt lat="36.87952355368628" lon="-108.09935771786198"><ele>1884.0</ele><time>2026-04-25T17:04:48.001Z</time></trkpt><trkpt lat="36.87948742817924" lon="-108.0992527045768"><ele>1884.0</ele><time>2026-04-25T17:04:49.001Z</time></trkpt><trkpt lat="36.87943890724914" lon="-108.09920096451661"><ele>1884.0</ele><time>2026-04-25T17:04:50.001Z</time></trkpt><trkpt lat="36.87936884905587" lon="-108.09919237843714"><ele>1884.0</ele><time>2026-04-25T17:04:51.001Z</time></trkpt><trkpt lat="36.87928431192415" lon="-108.09919612577694"><ele>1884.0</ele><time>2026-04-25T17:04:52.001Z</time></trkpt><trkpt lat="36.87916915007696" lon="-108.0991942506172"><ele>1885.2</ele><time>2026-04-25T17:04:53.001Z</time></trkpt><trkpt lat="36.879061023214675" lon="-108.09916462096656"><ele>1886.4</ele><time>2026-04-25T17:04:54.001Z</time></trkpt><trkpt lat="36.87895250742029" lon="-108.09912967402285"><ele>1887.6</ele><time>2026-04-25T17:04:55.001Z</time></trkpt><trkpt lat="36.87885439063358" lon="-108.09912014464044"><ele>1888.8</ele><time>2026-04-25T17:04:56.001Z</time></trkpt><trkpt lat="36.87872891006865" lon="-108.09912842313975"><ele>1890.0</ele><time>2026-04-25T17:04:58.001Z</time></trkpt><trkpt lat="36.87866520015475" lon="-108.09917115180961"><ele>1890.0</ele><time>2026-04-25T17:04:59.001Z</time></trkpt><trkpt lat="36.87859605446176" lon="-108.09930469209935"><ele>1890.0</ele><time>2026-04-25T17:05:01.001Z</time></trkpt><trkpt lat="36.87856288416402" lon="-108.09942935182657"><ele>1890.0</ele><time>2026-04-25T17:05:02.001Z</time></trkpt><trkpt lat="36.8785199674138" lon="-108.09960485425331"><ele>1890.0</ele><time>2026-04-25T17:05:03Z</time></trkpt><trkpt lat="36.878461310440485" lon="-108.09977280891478"><ele>1890.0</ele><time>2026-04-25T17:05:04Z</time></trkpt><trkpt lat="36.87842408928367" lon="-108.09988286241716"><ele>1890.0</ele><time>2026-04-25T17:05:05Z</time></trkpt><trkpt lat="36.878383036025795" lon="-108.0999531136787"><ele>1890.0</ele><time>2026-04-25T17:05:07Z</time></trkpt><trkpt lat="36.878317721086724" lon="-108.09998743583046"><ele>1890.0</ele><time>2026-04-25T17:05:08Z</time></trkpt><trkpt lat="36.87820625201457" lon="-108.1000604901766"><ele>1890.0</ele><time>2026-04-25T17:05:09Z</time></trkpt><trkpt lat="36.87813631833223" lon="-108.10014944233902"><ele>1890.2</ele><time>2026-04-25T17:05:10Z</time></trkpt><trkpt lat="36.87808343693961" lon="-108.10020258224331"><ele>1890.4</ele><time>2026-04-25T17:05:11Z</time></trkpt><trkpt lat="36.87792908220533" lon="-108.10019771937534"><ele>1890.6</ele><time>2026-04-25T17:05:13Z</time></trkpt><trkpt lat="36.8778556597782" lon="-108.10021541903586"><ele>1890.8</ele><time>2026-04-25T17:05:14Z</time></trkpt><trkpt lat="36.877760221592595" lon="-108.10021497419044"><ele>1891.0</ele><time>2026-04-25T17:05:16Z</time></trkpt><trkpt lat="36.87768890805064" lon="-108.10023963100733"><ele>1891.0000000000002</ele><time>2026-04-25T17:05:17Z</time></trkpt><trkpt lat="36.87763672062706" lon="-108.10032565235048"><ele>1891.0</ele><time>2026-04-25T17:05:18Z</time></trkpt><trkpt lat="36.87759610104008" lon="-108.10040968322869"><ele>1891.0</ele><time>2026-04-25T17:05:19Z</time></trkpt><trkpt lat="36.87755096644001" lon="-108.10049388818562"><ele>1891.0</ele><time>2026-04-25T17:05:20Z</time></trkpt><trkpt lat="36.87747920173998" lon="-108.10058050943302"><ele>1891.0000000000002</ele><time>2026-04-25T17:05:21Z</time></trkpt><trkpt lat="36.87742184775109" lon="-108.10064084224372"><ele>1891.0</ele><time>2026-04-25T17:05:22Z</time></trkpt><trkpt lat="36.877365894551495" lon="-108.10071222095759"><ele>1890.1999999999998</ele><time>2026-04-25T17:05:23Z</time></trkpt><trkpt lat="36.87729825993729" lon="-108.10078291266913"><ele>1889.3999999999999</ele><time>2026-04-25T17:05:24Z</time></trkpt><trkpt lat="36.8772255095298" lon="-108.10082915021349"><ele>1888.6</ele><time>2026-04-25T17:05:25Z</time></trkpt><trkpt lat="36.87713005439652" lon="-108.10086853804789"><ele>1887.8</ele><time>2026-04-25T17:05:26Z</time></trkpt><trkpt lat="36.8770041981545" lon="-108.10084855634697"><ele>1887.0</ele><time>2026-04-25T17:05:28Z</time></trkpt><trkpt lat="36.87689445458176" lon="-108.10083289393683"><ele>1887.0</ele><time>2026-04-25T17:05:29Z</time></trkpt><trkpt lat="36.87682429731153" lon="-108.10081756670749"><ele>1887.0</ele><time>2026-04-25T17:05:30Z</time></trkpt><trkpt lat="36.87673661258208" lon="-108.10081713405219"><ele>1887.0</ele><time>2026-04-25T17:05:32Z</time></trkpt><trkpt lat="36.876693626958385" lon="-108.10089789080673"><ele>1887.0</ele><time>2026-04-25T17:05:33Z</time></trkpt><trkpt lat="36.876644442925155" lon="-108.10095333864307"><ele>1887.0</ele><time>2026-04-25T17:05:34Z</time></trkpt><trkpt lat="36.87651737981979" lon="-108.10091558662288"><ele>1887.0</ele><time>2026-04-25T17:05:36Z</time></trkpt><trkpt lat="36.87647608371706" lon="-108.10106125152701"><ele>1887.0</ele><time>2026-04-25T17:05:38Z</time></trkpt><trkpt lat="36.87654089550079" lon="-108.10116253607553"><ele>1886.9999999999998</ele><time>2026-04-25T17:05:40Z</time></trkpt><trkpt lat="36.876626017973955" lon="-108.1011989925835"><ele>1886.9999999999998</ele><time>2026-04-25T17:05:41Z</time></trkpt><trkpt lat="36.87670259225488" lon="-108.10115951117957"><ele>1887.0</ele><time>2026-04-25T17:05:42Z</time></trkpt><trkpt lat="36.87680007422532" lon="-108.1011695557777"><ele>1887.0</ele><time>2026-04-25T17:05:43Z</time></trkpt><trkpt lat="36.876889620771514" lon="-108.10129446701461"><ele>1887.0</ele><time>2026-04-25T17:05:45Z</time></trkpt><trkpt lat="36.876978392074854" lon="-108.10138592825518"><ele>1886.9999999999998</ele><time>2026-04-25T17:05:46Z</time></trkpt><trkpt lat="36.87706391083871" lon="-108.1014353737292"><ele>1886.9999999999998</ele><time>2026-04-25T17:05:47Z</time></trkpt><trkpt lat="36.877136732304464" lon="-108.10151172498217"><ele>1887.0</ele><time>2026-04-25T17:05:48Z</time></trkpt><trkpt lat="36.877196920423884" lon="-108.1015738395355"><ele>1887.0</ele><time>2026-04-25T17:05:49Z</time></trkpt><trkpt lat="36.87726617662767" lon="-108.10162137160101"><ele>1886.0</ele><time>2026-04-25T17:05:50Z</time></trkpt><trkpt lat="36.87732386241984" lon="-108.10170088600704"><ele>1884.9999999999998</ele><time>2026-04-25T17:05:51Z</time></trkpt><trkpt lat="36.87739049424002" lon="-108.10181622997325"><ele>1883.9999999999998</ele><time>2026-04-25T17:05:52Z</time></trkpt><trkpt lat="36.87745414116961" lon="-108.10191030002319"><ele>1883.0</ele><time>2026-04-25T17:05:53Z</time></trkpt><trkpt lat="36.877472166575565" lon="-108.10201524801622"><ele>1882.0</ele><time>2026-04-25T17:05:55Z</time></trkpt><trkpt lat="36.87741574748132" lon="-108.10211122064246"><ele>1882.0</ele><time>2026-04-25T17:05:57Z</time></trkpt><trkpt lat="36.877512760465926" lon="-108.10224467998677"><ele>1881.9999999999998</ele><time>2026-04-25T17:05:59Z</time></trkpt><trkpt lat="36.877609845180565" lon="-108.10231409690539"><ele>1881.9999999999998</ele><time>2026-04-25T17:06:00.001Z</time></trkpt><trkpt lat="36.87768440115662" lon="-108.1023898089458"><ele>1882.0</ele><time>2026-04-25T17:06:01.001Z</time></trkpt><trkpt lat="36.87773403131918" lon="-108.10248238419415"><ele>1882.0</ele><time>2026-04-25T17:06:02.001Z</time></trkpt><trkpt lat="36.877783081784614" lon="-108.10257882143124"><ele>1881.6666666666667</ele><time>2026-04-25T17:06:03.001Z</time></trkpt><trkpt lat="36.877852272695726" lon="-108.1026658940714"><ele>1881.3333333333335</ele><time>2026-04-25T17:06:04.001Z</time></trkpt><trkpt lat="36.877917946112646" lon="-108.10270934959482"><ele>1881.0</ele><time>2026-04-25T17:06:05.001Z</time></trkpt><trkpt lat="36.87798714820744" lon="-108.10274039659012"><ele>1880.6666666666665</ele><time>2026-04-25T17:06:06.001Z</time></trkpt><trkpt lat="36.87805286430202" lon="-108.10277495577668"><ele>1880.3333333333333</ele><time>2026-04-25T17:06:07.001Z</time></trkpt><trkpt lat="36.87810752045763" lon="-108.10282931166178"><ele>1880.0</ele><time>2026-04-25T17:06:08.001Z</time></trkpt><trkpt lat="36.87804511091027" lon="-108.10291546981142"><ele>1880.0</ele><time>2026-04-25T17:06:10.001Z</time></trkpt><trkpt lat="36.877955544742974" lon="-108.10296991481255"><ele>1880.0</ele><time>2026-04-25T17:06:11.001Z</time></trkpt><trkpt lat="36.877901835972565" lon="-108.10301298030751"><ele>1880.0</ele><time>2026-04-25T17:06:12.001Z</time></trkpt><trkpt lat="36.877829803263715" lon="-108.10308539255716"><ele>1880.0</ele><time>2026-04-25T17:06:13.001Z</time></trkpt><trkpt lat="36.87773960552192" lon="-108.10316077166127"><ele>1880.0</ele><time>2026-04-25T17:06:14.001Z</time></trkpt><trkpt lat="36.877653390785696" lon="-108.10322704898327"><ele>1878.4999999999998</ele><time>2026-04-25T17:06:15.001Z</time></trkpt><trkpt lat="36.87757179126838" lon="-108.10329286909972"><ele>1877.0</ele><time>2026-04-25T17:06:16.001Z</time></trkpt><trkpt lat="36.87750345948846" lon="-108.10335618288643"><ele>1875.5</ele><time>2026-04-25T17:06:17.001Z</time></trkpt><trkpt lat="36.877440008266" lon="-108.10340392702905"><ele>1874.0</ele><time>2026-04-25T17:06:18.001Z</time></trkpt><trkpt lat="36.877379228259464" lon="-108.10345017913484"><ele>1872.4999999999998</ele><time>2026-04-25T17:06:19.001Z</time></trkpt><trkpt lat="36.87731977323672" lon="-108.10350958213165"><ele>1871.0</ele><time>2026-04-25T17:06:20.001Z</time></trkpt><trkpt lat="36.87725604254218" lon="-108.10357289586766"><ele>1870.9999999999998</ele><time>2026-04-25T17:06:21.001Z</time></trkpt><trkpt lat="36.8771778078292" lon="-108.10364502982037"><ele>1871.0</ele><time>2026-04-25T17:06:22.001Z</time></trkpt><trkpt lat="36.87710249398079" lon="-108.10370192620908"><ele>1871.0</ele><time>2026-04-25T17:06:23.001Z</time></trkpt><trkpt lat="36.87703904255693" lon="-108.10374606799479"><ele>1871.0</ele><time>2026-04-25T17:06:24.001Z</time></trkpt><trkpt lat="36.87697786641459" lon="-108.1038057731726"><ele>1870.9999999999998</ele><time>2026-04-25T17:06:25.001Z</time></trkpt><trkpt lat="36.87691989702954" lon="-108.10384193557262"><ele>1871.0</ele><time>2026-04-25T17:06:26.001Z</time></trkpt><trkpt lat="36.87684787620457" lon="-108.10388364524078"><ele>1870.9999999999998</ele><time>2026-04-25T17:06:28.001Z</time></trkpt><trkpt lat="36.87681381412322" lon="-108.10401242378536"><ele>1871.0</ele><time>2026-04-25T17:06:30.001Z</time></trkpt><trkpt lat="36.876787072035064" lon="-108.10408933650663"><ele>1871.0</ele><time>2026-04-25T17:06:31.001Z</time></trkpt><trkpt lat="36.87672149977614" lon="-108.10406817631767"><ele>1871.0</ele><time>2026-04-25T17:06:33.001Z</time></trkpt><trkpt lat="36.87665694532437" lon="-108.10401841154523"><ele>1870.9999999999998</ele><time>2026-04-25T17:06:34.001Z</time></trkpt><trkpt lat="36.87659255859785" lon="-108.10397973407514"><ele>1871.0</ele><time>2026-04-25T17:06:35.001Z</time></trkpt><trkpt lat="36.87652575904883" lon="-108.10390723274136"><ele>1870.3333333333333</ele><time>2026-04-25T17:06:36.001Z</time></trkpt><trkpt lat="36.87647733286265" lon="-108.10384612921345"><ele>1869.6666666666665</ele><time>2026-04-25T17:06:37.001Z</time></trkpt><trkpt lat="36.876430405245934" lon="-108.10378967140086"><ele>1869.0</ele><time>2026-04-25T17:06:38.001Z</time></trkpt><trkpt lat="36.87638536635332" lon="-108.10369111331885"><ele>1868.3333333333335</ele><time>2026-04-25T17:06:39.001Z</time></trkpt><trkpt lat="36.87633874138927" lon="-108.10357215280871"><ele>1867.6666666666667</ele><time>2026-04-25T17:06:40.001Z</time></trkpt><trkpt lat="36.87628458051924" lon="-108.10345361653718"><ele>1867.0</ele><time>2026-04-25T17:06:41.001Z</time></trkpt><trkpt lat="36.876241978807585" lon="-108.10333512706838"><ele>1868.0</ele><time>2026-04-25T17:06:42.001Z</time></trkpt><trkpt lat="36.876213721210014" lon="-108.10322419468197"><ele>1868.9999999999998</ele><time>2026-04-25T17:06:43.001Z</time></trkpt><trkpt lat="36.87618311707323" lon="-108.10313597960373"><ele>1869.9999999999998</ele><time>2026-04-25T17:06:44.001Z</time></trkpt><trkpt lat="36.87612577910698" lon="-108.10305163580432"><ele>1871.0</ele><time>2026-04-25T17:06:45.001Z</time></trkpt><trkpt lat="36.876063720443604" lon="-108.10294687948165"><ele>1872.0</ele><time>2026-04-25T17:06:46.001Z</time></trkpt><trkpt lat="36.87600240786695" lon="-108.10283309780367"><ele>1872.0</ele><time>2026-04-25T17:06:47.001Z</time></trkpt><trkpt lat="36.87594887153924" lon="-108.10273339175721"><ele>1871.9999999999998</ele><time>2026-04-25T17:06:48.001Z</time></trkpt><trkpt lat="36.875841517555486" lon="-108.10263070436751"><ele>1871.9999999999998</ele><time>2026-04-25T17:06:50.001Z</time></trkpt><trkpt lat="36.87576426650564" lon="-108.10262423242942"><ele>1872.0</ele><time>2026-04-25T17:06:51.001Z</time></trkpt><trkpt lat="36.87567535409278" lon="-108.10265296413763"><ele>1872.0</ele><time>2026-04-25T17:06:52.001Z</time></trkpt><trkpt lat="36.875576597442866" lon="-108.1026937226679"><ele>1872.3333333333333</ele><time>2026-04-25T17:06:54.001Z</time></trkpt><trkpt lat="36.87550499826495" lon="-108.10272353110834"><ele>1872.6666666666665</ele><time>2026-04-25T17:06:55.001Z</time></trkpt><trkpt lat="36.87543701868153" lon="-108.10276428240857"><ele>1873.0</ele><time>2026-04-25T17:06:56.001Z</time></trkpt><trkpt lat="36.875340598981566" lon="-108.10278593372388"><ele>1873.3333333333333</ele><time>2026-04-25T17:06:58.001Z</time></trkpt><trkpt lat="36.87525260906821" lon="-108.10276750016702"><ele>1873.6666666666665</ele><time>2026-04-25T17:06:59.001Z</time></trkpt><trkpt lat="36.875157601962606" lon="-108.10274923404067"><ele>1874.0</ele><time>2026-04-25T17:07:00.001Z</time></trkpt><trkpt lat="36.87505019231208" lon="-108.10278596913032"><ele>1874.0</ele><time>2026-04-25T17:07:01.001Z</time></trkpt><trkpt lat="36.874949346658084" lon="-108.102745983406"><ele>1874.0</ele><time>2026-04-25T17:07:02.001Z</time></trkpt><trkpt lat="36.87488622274781" lon="-108.10272150196072"><ele>1874.0</ele><time>2026-04-25T17:07:03.001Z</time></trkpt><trkpt lat="36.87477307346019" lon="-108.10283063895106"><ele>1874.0</ele><time>2026-04-25T17:07:05.001Z</time></trkpt><trkpt lat="36.874690220493335" lon="-108.1028952920348"><ele>1874.0</ele><time>2026-04-25T17:07:06.001Z</time></trkpt><trkpt lat="36.87465992008078" lon="-108.10298020868079"><ele>1874.0</ele><time>2026-04-25T17:07:07.001Z</time></trkpt><trkpt lat="36.87464145308538" lon="-108.1031080390068"><ele>1874.0</ele><time>2026-04-25T17:07:08.001Z</time></trkpt><trkpt lat="36.874629878147736" lon="-108.10320561663708"><ele>1874.0</ele><time>2026-04-25T17:07:09Z</time></trkpt><trkpt lat="36.87455472492843" lon="-108.10320897642556"><ele>1874.0</ele><time>2026-04-25T17:07:11Z</time></trkpt><trkpt lat="36.8744699516883" lon="-108.10328619672542"><ele>1874.0</ele><time>2026-04-25T17:07:13Z</time></trkpt><trkpt lat="36.874428482000646" lon="-108.10340607117928"><ele>1873.9999999999998</ele><time>2026-04-25T17:07:14Z</time></trkpt><trkpt lat="36.874388813263245" lon="-108.10348848084692"><ele>1874.0</ele><time>2026-04-25T17:07:15Z</time></trkpt><trkpt lat="36.87431365032029" lon="-108.10348294985195"><ele>1874.0</ele><time>2026-04-25T17:07:17Z</time></trkpt><trkpt lat="36.874223255717475" lon="-108.10355102723379"><ele>1874.0</ele><time>2026-04-25T17:07:19Z</time></trkpt><trkpt lat="36.874159857330035" lon="-108.10361732484704"><ele>1873.9999999999998</ele><time>2026-04-25T17:07:20Z</time></trkpt><trkpt lat="36.874095589624076" lon="-108.10367336109098"><ele>1874.0</ele><time>2026-04-25T17:07:21Z</time></trkpt><trkpt lat="36.87402466505654" lon="-108.10372835450302"><ele>1875.5</ele><time>2026-04-25T17:07:22Z</time></trkpt><trkpt lat="36.873938656409024" lon="-108.10379203942036"><ele>1877.0</ele><time>2026-04-25T17:07:23Z</time></trkpt><trkpt lat="36.87384079532523" lon="-108.10386789573802"><ele>1878.5</ele><time>2026-04-25T17:07:24Z</time></trkpt><trkpt lat="36.87375046900182" lon="-108.10395332580357"><ele>1880.0</ele><time>2026-04-25T17:07:25Z</time></trkpt><trkpt lat="36.87365928007228" lon="-108.10405431115986"><ele>1879.9999999999998</ele><time>2026-04-25T17:07:26Z</time></trkpt><trkpt lat="36.8735750753169" lon="-108.10413115653034"><ele>1880.0</ele><time>2026-04-25T17:07:27Z</time></trkpt><trkpt lat="36.87349584972784" lon="-108.10418298976431"><ele>1880.0</ele><time>2026-04-25T17:07:28Z</time></trkpt><trkpt lat="36.873435391804556" lon="-108.104217955075"><ele>1880.0</ele><time>2026-04-25T17:07:29Z</time></trkpt><trkpt lat="36.87340295182707" lon="-108.10410606759997"><ele>1879.9999999999998</ele><time>2026-04-25T17:07:31Z</time></trkpt><trkpt lat="36.87344826624027" lon="-108.1040333976727"><ele>1880.0</ele><time>2026-04-25T17:07:32Z</time></trkpt><trkpt lat="36.87345648697591" lon="-108.10394781553478"><ele>1879.9999999999998</ele><time>2026-04-25T17:07:33Z</time></trkpt><trkpt lat="36.87344382694373" lon="-108.10385176212789"><ele>1880.0</ele><time>2026-04-25T17:07:34Z</time></trkpt><trkpt lat="36.873451311134794" lon="-108.10372714789656"><ele>1880.0</ele><time>2026-04-25T17:07:36Z</time></trkpt><trkpt lat="36.8734834524956" lon="-108.10360387105266"><ele>1880.0</ele><time>2026-04-25T17:07:38Z</time></trkpt><trkpt lat="36.873498686695" lon="-108.10350433800468"><ele>1879.9999999999998</ele><time>2026-04-25T17:07:39Z</time></trkpt><trkpt lat="36.873534193376855" lon="-108.10342389713263"><ele>1880.0</ele><time>2026-04-25T17:07:40Z</time></trkpt><trkpt lat="36.873654520654874" lon="-108.10334512010495"><ele>1880.0</ele><time>2026-04-25T17:07:41Z</time></trkpt><trkpt lat="36.87374451945656" lon="-108.10324848266826"><ele>1880.0</ele><time>2026-04-25T17:07:42Z</time></trkpt><trkpt lat="36.873778976684264" lon="-108.1031163976165"><ele>1880.0</ele><time>2026-04-25T17:07:43Z</time></trkpt><trkpt lat="36.87379649441591" lon="-108.10300360741816"><ele>1880.0</ele><time>2026-04-25T17:07:44Z</time></trkpt><trkpt lat="36.87381443849451" lon="-108.10290273347147"><ele>1880.0</ele><time>2026-04-25T17:07:45Z</time></trkpt><trkpt lat="36.87378549758522" lon="-108.10276646557297"><ele>1880.1666666666665</ele><time>2026-04-25T17:07:47Z</time></trkpt><trkpt lat="36.87374033113799" lon="-108.10269158975511"><ele>1880.3333333333333</ele><time>2026-04-25T17:07:48Z</time></trkpt><trkpt lat="36.87367795609404" lon="-108.1026210443253"><ele>1880.5</ele><time>2026-04-25T17:07:49Z</time></trkpt><trkpt lat="36.8736447310009" lon="-108.10254775126104"><ele>1880.6666666666665</ele><time>2026-04-25T17:07:50Z</time></trkpt><trkpt lat="36.87361128619546" lon="-108.10246575587925"><ele>1880.8333333333333</ele><time>2026-04-25T17:07:52Z</time></trkpt><trkpt lat="36.87353256136091" lon="-108.10242198172341"><ele>1881.0</ele><time>2026-04-25T17:07:53Z</time></trkpt><trkpt lat="36.87345202119093" lon="-108.1023116289238"><ele>1882.75</ele><time>2026-04-25T17:07:54Z</time></trkpt><trkpt lat="36.87336592404854" lon="-108.10219108896582"><ele>1884.5</ele><time>2026-04-25T17:07:55Z</time></trkpt><trkpt lat="36.87326949352686" lon="-108.10212660325887"><ele>1886.25</ele><time>2026-04-25T17:07:56Z</time></trkpt><trkpt lat="36.87315328338569" lon="-108.10207756230146"><ele>1888.0</ele><time>2026-04-25T17:07:57Z</time></trkpt><trkpt lat="36.87304771959595" lon="-108.10202094634607"><ele>1888.0000000000002</ele><time>2026-04-25T17:07:58Z</time></trkpt><trkpt lat="36.872984888259616" lon="-108.10196568459563"><ele>1888.0</ele><time>2026-04-25T17:07:59Z</time></trkpt><trkpt lat="36.872896663900754" lon="-108.10185774614548"><ele>1888.0</ele><time>2026-04-25T17:08:01Z</time></trkpt><trkpt lat="36.872875750350005" lon="-108.10177764491492"><ele>1888.0</ele><time>2026-04-25T17:08:02Z</time></trkpt><trkpt lat="36.87287497760677" lon="-108.10167815905918"><ele>1888.0000000000002</ele><time>2026-04-25T17:08:03Z</time></trkpt><trkpt lat="36.87288223310194" lon="-108.10156168291317"><ele>1888.0</ele><time>2026-04-25T17:08:04Z</time></trkpt><trkpt lat="36.87287384596927" lon="-108.10144098490268"><ele>1887.8000000000002</ele><time>2026-04-25T17:08:05Z</time></trkpt><trkpt lat="36.872817038578525" lon="-108.10132424719102"><ele>1887.6000000000001</ele><time>2026-04-25T17:08:06Z</time></trkpt><trkpt lat="36.87277392781081" lon="-108.10120463940251"><ele>1887.3999999999999</ele><time>2026-04-25T17:08:07Z</time></trkpt><trkpt lat="36.87275679167968" lon="-108.10109369959422"><ele>1887.1999999999998</ele><time>2026-04-25T17:08:08Z</time></trkpt><trkpt lat="36.87273321682298" lon="-108.10099597648598"><ele>1887.0</ele><time>2026-04-25T17:08:09Z</time></trkpt><trkpt lat="36.87271199939809" lon="-108.10085324186845"><ele>1887.0</ele><time>2026-04-25T17:08:11.001Z</time></trkpt><trkpt lat="36.872652058722494" lon="-108.1007519350238"><ele>1887.0</ele><time>2026-04-25T17:08:12.001Z</time></trkpt><trkpt lat="36.872548179395096" lon="-108.10063824274935"><ele>1887.0</ele><time>2026-04-25T17:08:13.001Z</time></trkpt><trkpt lat="36.872505148371545" lon="-108.10052708119652"><ele>1887.0</ele><time>2026-04-25T17:08:14.001Z</time></trkpt><trkpt lat="36.872484592871466" lon="-108.10037362416291"><ele>1888.0</ele><time>2026-04-25T17:08:15.001Z</time></trkpt><trkpt lat="36.87244216221957" lon="-108.10020209850576"><ele>1888.9999999999998</ele><time>2026-04-25T17:08:16.001Z</time></trkpt><trkpt lat="36.87240415751026" lon="-108.10009131875738"><ele>1889.9999999999998</ele><time>2026-04-25T17:08:17.001Z</time></trkpt><trkpt lat="36.87235081182061" lon="-108.10003653036196"><ele>1891.0</ele><time>2026-04-25T17:08:18.001Z</time></trkpt><trkpt lat="36.87227536770082" lon="-108.10001377418436"><ele>1892.0</ele><time>2026-04-25T17:08:19.001Z</time></trkpt><trkpt lat="36.87215939332198" lon="-108.09999544316946"><ele>1892.0</ele><time>2026-04-25T17:08:20.001Z</time></trkpt><trkpt lat="36.87205379437694" lon="-108.09996351351042"><ele>1891.9999999999998</ele><time>2026-04-25T17:08:21.001Z</time></trkpt><trkpt lat="36.87200831480698" lon="-108.0998436111428"><ele>1891.9999999999998</ele><time>2026-04-25T17:08:23.001Z</time></trkpt><trkpt lat="36.87193738305343" lon="-108.0997330534282"><ele>1892.0</ele><time>2026-04-25T17:08:24.001Z</time></trkpt><trkpt lat="36.87186207919492" lon="-108.09966383676719"><ele>1892.0</ele><time>2026-04-25T17:08:25.001Z</time></trkpt><trkpt lat="36.871821361669895" lon="-108.09950903014024"><ele>1892.0</ele><time>2026-04-25T17:08:27.001Z</time></trkpt><trkpt lat="36.87178794965095" lon="-108.09936460951246"><ele>1892.0</ele><time>2026-04-25T17:08:28.001Z</time></trkpt><trkpt lat="36.87170531921966" lon="-108.0992455498211"><ele>1892.0</ele><time>2026-04-25T17:08:29.001Z</time></trkpt><trkpt lat="36.871593972951516" lon="-108.09919043649569"><ele>1892.0</ele><time>2026-04-25T17:08:30.001Z</time></trkpt><trkpt lat="36.87149483658139" lon="-108.09911941652288"><ele>1893.5</ele><time>2026-04-25T17:08:31.001Z</time></trkpt><trkpt lat="36.87141819834281" lon="-108.09901631736791"><ele>1895.0</ele><time>2026-04-25T17:08:32.001Z</time></trkpt><trkpt lat="36.871363167013335" lon="-108.09891023258936"><ele>1896.5</ele><time>2026-04-25T17:08:33.001Z</time></trkpt><trkpt lat="36.871348377332986" lon="-108.09874242794068"><ele>1898.0</ele><time>2026-04-25T17:08:35.001Z</time></trkpt><trkpt lat="36.8713214418635" lon="-108.09858672484079"><ele>1898.0</ele><time>2026-04-25T17:08:36.001Z</time></trkpt><trkpt lat="36.871302479817984" lon="-108.09846462408288"><ele>1898.0</ele><time>2026-04-25T17:08:37.001Z</time></trkpt><trkpt lat="36.871298966272555" lon="-108.09837423309075"><ele>1898.0</ele><time>2026-04-25T17:08:38.001Z</time></trkpt><trkpt lat="36.87118637903814" lon="-108.09822900378039"><ele>1898.0</ele><time>2026-04-25T17:08:40.001Z</time></trkpt><trkpt lat="36.87108298919303" lon="-108.09813573490354"><ele>1898.0</ele><time>2026-04-25T17:08:41.001Z</time></trkpt><trkpt lat="36.87100407940448" lon="-108.09802931847462"><ele>1898.0</ele><time>2026-04-25T17:08:42.001Z</time></trkpt><trkpt lat="36.870910879117865" lon="-108.09791179602561"><ele>1898.0</ele><time>2026-04-25T17:08:43.001Z</time></trkpt><trkpt lat="36.870795882308656" lon="-108.09777847782063"><ele>1898.0</ele><time>2026-04-25T17:08:44.001Z</time></trkpt><trkpt lat="36.87066426731041" lon="-108.09765125390733"><ele>1899.0</ele><time>2026-04-25T17:08:45.001Z</time></trkpt><trkpt lat="36.8705373984173" lon="-108.09756094437498"><ele>1900.0000000000002</ele><time>2026-04-25T17:08:46.001Z</time></trkpt><trkpt lat="36.870438361644226" lon="-108.09747313726"><ele>1901.0000000000002</ele><time>2026-04-25T17:08:47.001Z</time></trkpt><trkpt lat="36.87036422371052" lon="-108.09738785745319"><ele>1902.0</ele><time>2026-04-25T17:08:48.001Z</time></trkpt><trkpt lat="36.87030111732738" lon="-108.09732866061862"><ele>1903.0</ele><time>2026-04-25T17:08:49.001Z</time></trkpt><trkpt lat="36.870253018489" lon="-108.09727581635198"><ele>1903.2</ele><time>2026-04-25T17:08:50.001Z</time></trkpt><trkpt lat="36.870211948945226" lon="-108.09713889797165"><ele>1903.4</ele><time>2026-04-25T17:08:52.001Z</time></trkpt><trkpt lat="36.87008851352377" lon="-108.09714731833658"><ele>1903.6000000000001</ele><time>2026-04-25T17:08:54.001Z</time></trkpt><trkpt lat="36.869998867178204" lon="-108.09709960072058"><ele>1903.8000000000002</ele><time>2026-04-25T17:08:56.001Z</time></trkpt><trkpt lat="36.86992813678594" lon="-108.097052521266"><ele>1904.0</ele><time>2026-04-25T17:08:57.001Z</time></trkpt><trkpt lat="36.86985276904349" lon="-108.09704834036604"><ele>1904.4</ele><time>2026-04-25T17:08:58.001Z</time></trkpt><trkpt lat="36.86975519382498" lon="-108.09702836523995"><ele>1904.8000000000002</ele><time>2026-04-25T17:08:59.001Z</time></trkpt><trkpt lat="36.869646350524" lon="-108.09698721727385"><ele>1905.1999999999998</ele><time>2026-04-25T17:09:00.001Z</time></trkpt><trkpt lat="36.86956055748195" lon="-108.09694145699902"><ele>1905.6</ele><time>2026-04-25T17:09:01.001Z</time></trkpt><trkpt lat="36.86947779694033" lon="-108.09684882141843"><ele>1906.0</ele><time>2026-04-25T17:09:02.001Z</time></trkpt><trkpt lat="36.86934471463607" lon="-108.09676188699962"><ele>1906.6</ele><time>2026-04-25T17:09:03.001Z</time></trkpt><trkpt lat="36.869234972301875" lon="-108.09672187559494"><ele>1907.1999999999998</ele><time>2026-04-25T17:09:04.001Z</time></trkpt><trkpt lat="36.86914244315826" lon="-108.0967155167632"><ele>1907.8000000000002</ele><time>2026-04-25T17:09:05.001Z</time></trkpt><trkpt lat="36.86906195743438" lon="-108.09673458546219"><ele>1908.4</ele><time>2026-04-25T17:09:06.001Z</time></trkpt><trkpt lat="36.868995460234814" lon="-108.09675744028274"><ele>1909.0</ele><time>2026-04-25T17:09:07.001Z</time></trkpt><trkpt lat="36.868920571509626" lon="-108.09683550813101"><ele>1909.0</ele><time>2026-04-25T17:09:09.001Z</time></trkpt><trkpt lat="36.86882770269704" lon="-108.09690707526607"><ele>1909.0</ele><time>2026-04-25T17:09:11.001Z</time></trkpt><trkpt lat="36.86872016998393" lon="-108.09690661371245"><ele>1909.0</ele><time>2026-04-25T17:09:13.001Z</time></trkpt><trkpt lat="36.86865924786298" lon="-108.09688270778736"><ele>1909.0</ele><time>2026-04-25T17:09:14.001Z</time></trkpt><trkpt lat="36.86859031691687" lon="-108.09682438464962"><ele>1909.0</ele><time>2026-04-25T17:09:15Z</time></trkpt><trkpt lat="36.868518106145814" lon="-108.0967250493218"><ele>1908.0</ele><time>2026-04-25T17:09:16Z</time></trkpt><trkpt lat="36.86843399406701" lon="-108.09660696647171"><ele>1907.0</ele><time>2026-04-25T17:09:17Z</time></trkpt><trkpt lat="36.86835365681719" lon="-108.0964897469783"><ele>1906.0</ele><time>2026-04-25T17:09:18Z</time></trkpt><trkpt lat="36.868269516373864" lon="-108.09641368795315"><ele>1905.0</ele><time>2026-04-25T17:09:19Z</time></trkpt><trkpt lat="36.86817624656563" lon="-108.09634558580656"><ele>1904.2</ele><time>2026-04-25T17:09:20Z</time></trkpt><trkpt lat="36.86809271575549" lon="-108.09626396089814"><ele>1903.4</ele><time>2026-04-25T17:09:21Z</time></trkpt><trkpt lat="36.86800857888222" lon="-108.09617042809562"><ele>1902.6</ele><time>2026-04-25T17:09:22Z</time></trkpt><trkpt lat="36.8679353900766" lon="-108.09607605883129"><ele>1901.8</ele><time>2026-04-25T17:09:23Z</time></trkpt><trkpt lat="36.86789082312013" lon="-108.09598131750552"><ele>1901.0</ele><time>2026-04-25T17:09:24Z</time></trkpt><trkpt lat="36.86782389247829" lon="-108.0958628678626"><ele>1901.0</ele><time>2026-04-25T17:09:25Z</time></trkpt><trkpt lat="36.86774676539056" lon="-108.09576784831458"><ele>1901.0</ele><time>2026-04-25T17:09:26Z</time></trkpt><trkpt lat="36.8676722235737" lon="-108.09566137200386"><ele>1901.0</ele><time>2026-04-25T17:09:27Z</time></trkpt><trkpt lat="36.86761127974931" lon="-108.09557051455626"><ele>1901.0</ele><time>2026-04-25T17:09:28Z</time></trkpt><trkpt lat="36.867537138186634" lon="-108.09548014937015"><ele>1901.0</ele><time>2026-04-25T17:09:29Z</time></trkpt><trkpt lat="36.867453536860225" lon="-108.09537535852515"><ele>1899.8333333333333</ele><time>2026-04-25T17:09:30Z</time></trkpt><trkpt lat="36.86738629219464" lon="-108.09530783564917"><ele>1898.6666666666665</ele><time>2026-04-25T17:09:31Z</time></trkpt><trkpt lat="36.867308607253875" lon="-108.0952747184286"><ele>1897.5</ele><time>2026-04-25T17:09:32Z</time></trkpt><trkpt lat="36.8672200784651" lon="-108.09525737586"><ele>1896.3333333333335</ele><time>2026-04-25T17:09:33Z</time></trkpt><trkpt lat="36.867122089134085" lon="-108.09524076317406"><ele>1895.1666666666667</ele><time>2026-04-25T17:09:34Z</time></trkpt><trkpt lat="36.86703789418433" lon="-108.09521474677219"><ele>1894.0</ele><time>2026-04-25T17:09:35Z</time></trkpt><trkpt lat="36.866977813712175" lon="-108.09516694961786"><ele>1894.0000000000002</ele><time>2026-04-25T17:09:36Z</time></trkpt><trkpt lat="36.866931997979876" lon="-108.09509508097575"><ele>1894.0</ele><time>2026-04-25T17:09:37Z</time></trkpt><trkpt lat="36.86688465234045" lon="-108.09499161542837"><ele>1894.0</ele><time>2026-04-25T17:09:38Z</time></trkpt><trkpt lat="36.866835946332905" lon="-108.0948830079197"><ele>1894.0</ele><time>2026-04-25T17:09:39Z</time></trkpt><trkpt lat="36.86679773852688" lon="-108.09477498841702"><ele>1894.0000000000002</ele><time>2026-04-25T17:09:40Z</time></trkpt><trkpt lat="36.86676140783327" lon="-108.09468057766784"><ele>1894.0</ele><time>2026-04-25T17:09:41Z</time></trkpt><trkpt lat="36.866714594624206" lon="-108.09458533654684"><ele>1893.0</ele><time>2026-04-25T17:09:43Z</time></trkpt><trkpt lat="36.86664193641749" lon="-108.09459621081416"><ele>1892.0</ele><time>2026-04-25T17:09:44Z</time></trkpt><trkpt lat="36.866522563498826" lon="-108.09462787853124"><ele>1891.0</ele><time>2026-04-25T17:09:45Z</time></trkpt><trkpt lat="36.86640499270319" lon="-108.0946303405579"><ele>1890.0</ele><time>2026-04-25T17:09:46Z</time></trkpt><trkpt lat="36.86630327419051" lon="-108.09461796008776"><ele>1889.0</ele><time>2026-04-25T17:09:47Z</time></trkpt><trkpt lat="36.86622018286742" lon="-108.09461946059086"><ele>1889.0</ele><time>2026-04-25T17:09:48Z</time></trkpt><trkpt lat="36.866142476579036" lon="-108.0946031147651"><ele>1889.0</ele><time>2026-04-25T17:09:49Z</time></trkpt><trkpt lat="36.86605001905674" lon="-108.09454600952809"><ele>1889.0</ele><time>2026-04-25T17:09:50Z</time></trkpt><trkpt lat="36.86595468815851" lon="-108.09449765397707"><ele>1889.0</ele><time>2026-04-25T17:09:51Z</time></trkpt><trkpt lat="36.86587983444932" lon="-108.0945011435373"><ele>1889.0</ele><time>2026-04-25T17:09:52Z</time></trkpt><trkpt lat="36.8657885430469" lon="-108.0945194574255"><ele>1888.2</ele><time>2026-04-25T17:09:53Z</time></trkpt><trkpt lat="36.86567545424935" lon="-108.09454352678647"><ele>1887.4</ele><time>2026-04-25T17:09:54Z</time></trkpt><trkpt lat="36.865569800306424" lon="-108.09455145950818"><ele>1886.6</ele><time>2026-04-25T17:09:55Z</time></trkpt><trkpt lat="36.86547909823612" lon="-108.09455471655829"><ele>1885.8</ele><time>2026-04-25T17:09:56Z</time></trkpt><trkpt lat="36.86540437482949" lon="-108.09455900967983"><ele>1885.0</ele><time>2026-04-25T17:09:57Z</time></trkpt><trkpt lat="36.8652809699128" lon="-108.09461211557674"><ele>1885.0000000000002</ele><time>2026-04-25T17:09:59Z</time></trkpt><trkpt lat="36.865222940270655" lon="-108.09465294260491"><ele>1885.0</ele><time>2026-04-25T17:10:00Z</time></trkpt><trkpt lat="36.865142510980036" lon="-108.09470437340053"><ele>1885.0</ele><time>2026-04-25T17:10:02Z</time></trkpt><trkpt lat="36.86506083733186" lon="-108.0947314702512"><ele>1885.0</ele><time>2026-04-25T17:10:03Z</time></trkpt><trkpt lat="36.86495218687923" lon="-108.09474740072194"><ele>1885.0000000000002</ele><time>2026-04-25T17:10:04Z</time></trkpt><trkpt lat="36.86485630581685" lon="-108.09476801491475"><ele>1885.0</ele><time>2026-04-25T17:10:05Z</time></trkpt><trkpt lat="36.864760040650516" lon="-108.09476539421313"><ele>1883.8</ele><time>2026-04-25T17:10:07Z</time></trkpt><trkpt lat="36.86469149507436" lon="-108.09469116428657"><ele>1882.6</ele><time>2026-04-25T17:10:08Z</time></trkpt><trkpt lat="36.86463333958452" lon="-108.09458671015854"><ele>1881.4</ele><time>2026-04-25T17:10:09Z</time></trkpt><trkpt lat="36.864570966301066" lon="-108.09450359955433"><ele>1880.2</ele><time>2026-04-25T17:10:10Z</time></trkpt><trkpt lat="36.86448069105365" lon="-108.09441180745137"><ele>1879.0</ele><time>2026-04-25T17:10:11Z</time></trkpt><trkpt lat="36.86441155505036" lon="-108.09432864777867"><ele>1879.0</ele><time>2026-04-25T17:10:12Z</time></trkpt><trkpt lat="36.86429964100099" lon="-108.09433929500359"><ele>1879.0</ele><time>2026-04-25T17:10:14Z</time></trkpt><trkpt lat="36.86421046876922" lon="-108.09435630053017"><ele>1879.0</ele><time>2026-04-25T17:10:15Z</time></trkpt><trkpt lat="36.864147201759" lon="-108.09436831474163"><ele>1879.0</ele><time>2026-04-25T17:10:16Z</time></trkpt><trkpt lat="36.864041748128315" lon="-108.09444058267236"><ele>1879.0</ele><time>2026-04-25T17:10:18Z</time></trkpt><trkpt lat="36.863985679908374" lon="-108.09451289622618"><ele>1878.6</ele><time>2026-04-25T17:10:19.001Z</time></trkpt><trkpt lat="36.86394345558328" lon="-108.09458553773632"><ele>1878.2</ele><time>2026-04-25T17:10:20.001Z</time></trkpt><trkpt lat="36.86388879067248" lon="-108.09472236611342"><ele>1877.7999999999997</ele><time>2026-04-25T17:10:22.001Z</time></trkpt><trkpt lat="36.863817155714" lon="-108.09481230390251"><ele>1877.3999999999999</ele><time>2026-04-25T17:10:23.001Z</time></trkpt><trkpt lat="36.863722067553844" lon="-108.09481339537442"><ele>1877.0</ele><time>2026-04-25T17:10:25.001Z</time></trkpt><trkpt lat="36.8636513559854" lon="-108.0948608764185"><ele>1876.9999999999998</ele><time>2026-04-25T17:10:27.001Z</time></trkpt><trkpt lat="36.863585095696905" lon="-108.09486755222072"><ele>1877.0</ele><time>2026-04-25T17:10:28.001Z</time></trkpt><trkpt lat="36.86349771589119" lon="-108.094841264718"><ele>1877.0</ele><time>2026-04-25T17:10:29.001Z</time></trkpt><trkpt lat="36.86338913456148" lon="-108.09479529867593"><ele>1877.0</ele><time>2026-04-25T17:10:30.001Z</time></trkpt><trkpt lat="36.86331568240997" lon="-108.09476590483057"><ele>1876.9999999999998</ele><time>2026-04-25T17:10:31.001Z</time></trkpt><trkpt lat="36.863244352788364" lon="-108.0947787707416"><ele>1877.0</ele><time>2026-04-25T17:10:33.001Z</time></trkpt><trkpt lat="36.8631657874443" lon="-108.09484323552702"><ele>1876.8</ele><time>2026-04-25T17:10:34.001Z</time></trkpt><trkpt lat="36.8630854368899" lon="-108.09487429768711"><ele>1876.6</ele><time>2026-04-25T17:10:35.001Z</time></trkpt><trkpt lat="36.86300000423789" lon="-108.09485868319501"><ele>1876.3999999999999</ele><time>2026-04-25T17:10:37.001Z</time></trkpt><trkpt lat="36.86287436229667" lon="-108.094858899929"><ele>1876.1999999999998</ele><time>2026-04-25T17:10:39.001Z</time></trkpt><trkpt lat="36.86276084749861" lon="-108.09495982348568"><ele>1876.0</ele><time>2026-04-25T17:10:41.001Z</time></trkpt><trkpt lat="36.86271284041509" lon="-108.09503935059811"><ele>1876.4</ele><time>2026-04-25T17:10:42.001Z</time></trkpt><trkpt lat="36.86267946398727" lon="-108.09512787157462"><ele>1876.8</ele><time>2026-04-25T17:10:43.001Z</time></trkpt><trkpt lat="36.862563557968116" lon="-108.09518762926311"><ele>1877.2000000000003</ele><time>2026-04-25T17:10:45.001Z</time></trkpt><trkpt lat="36.86250124992394" lon="-108.09530335293408"><ele>1877.6000000000001</ele><time>2026-04-25T17:10:47.001Z</time></trkpt><trkpt lat="36.86241992782185" lon="-108.09536280580792"><ele>1878.0</ele><time>2026-04-25T17:10:48.001Z</time></trkpt><trkpt lat="36.86232933089533" lon="-108.09541561730055"><ele>1878.0</ele><time>2026-04-25T17:10:49.001Z</time></trkpt><trkpt lat="36.862240046209" lon="-108.09541080618087"><ele>1878.0</ele><time>2026-04-25T17:10:50.001Z</time></trkpt><trkpt lat="36.86213078861887" lon="-108.09542494878727"><ele>1878.0</ele><time>2026-04-25T17:10:51.001Z</time></trkpt><trkpt lat="36.86206703393918" lon="-108.09540508402982"><ele>1878.0</ele><time>2026-04-25T17:10:52.001Z</time></trkpt><trkpt lat="36.862002309764804" lon="-108.09534290648878"><ele>1878.0</ele><time>2026-04-25T17:10:54.001Z</time></trkpt><trkpt lat="36.86191144731696" lon="-108.095293549847"><ele>1878.0</ele><time>2026-04-25T17:10:55.001Z</time></trkpt><trkpt lat="36.861800944055844" lon="-108.0952371442214"><ele>1878.0</ele><time>2026-04-25T17:10:56.001Z</time></trkpt><trkpt lat="36.86168577837986" lon="-108.09517600627169"><ele>1878.0000000000002</ele><time>2026-04-25T17:10:58.001Z</time></trkpt><trkpt lat="36.86158975591069" lon="-108.09516285525217"><ele>1878.0000000000002</ele><time>2026-04-25T17:10:59.001Z</time></trkpt><trkpt lat="36.86150998118566" lon="-108.09516107400337"><ele>1878.0</ele><time>2026-04-25T17:11:00.001Z</time></trkpt><trkpt lat="36.86140035259623" lon="-108.09505654052177"><ele>1878.0</ele><time>2026-04-25T17:11:02.001Z</time></trkpt><trkpt lat="36.86133905985177" lon="-108.09507877221344"><ele>1878.0</ele><time>2026-04-25T17:11:03.001Z</time></trkpt><trkpt lat="36.861247765151475" lon="-108.09508412031208"><ele>1878.0</ele><time>2026-04-25T17:11:04.001Z</time></trkpt><trkpt lat="36.86117357165298" lon="-108.09506251803056"><ele>1878.0</ele><time>2026-04-25T17:11:05.001Z</time></trkpt><trkpt lat="36.861085997460805" lon="-108.09505605853391"><ele>1878.0</ele><time>2026-04-25T17:11:06.001Z</time></trkpt><trkpt lat="36.861006402101815" lon="-108.09506245614733"><ele>1878.0</ele><time>2026-04-25T17:11:07.001Z</time></trkpt><trkpt lat="36.86091735000812" lon="-108.09502809842354"><ele>1878.0</ele><time>2026-04-25T17:11:08.001Z</time></trkpt><trkpt lat="36.860815020638604" lon="-108.094990117466"><ele>1876.8333333333333</ele><time>2026-04-25T17:11:09.001Z</time></trkpt><trkpt lat="36.86074823942424" lon="-108.09496488708348"><ele>1875.6666666666665</ele><time>2026-04-25T17:11:10.001Z</time></trkpt><trkpt lat="36.86068557560747" lon="-108.09491675717419"><ele>1874.5</ele><time>2026-04-25T17:11:11.001Z</time></trkpt><trkpt lat="36.860593337935576" lon="-108.09486108684884"><ele>1873.3333333333333</ele><time>2026-04-25T17:11:12.001Z</time></trkpt><trkpt lat="36.86048921609689" lon="-108.09484869074537"><ele>1872.1666666666665</ele><time>2026-04-25T17:11:14.001Z</time></trkpt><trkpt lat="36.86045305376943" lon="-108.09477744400479"><ele>1871.0</ele><time>2026-04-25T17:11:15.001Z</time></trkpt><trkpt lat="36.86040769852588" lon="-108.09468628572186"><ele>1870.8</ele><time>2026-04-25T17:11:16.001Z</time></trkpt><trkpt lat="36.860300460005256" lon="-108.09467856198994"><ele>1870.6</ele><time>2026-04-25T17:11:19.001Z</time></trkpt><trkpt lat="36.86019340110341" lon="-108.09470296312244"><ele>1870.4</ele><time>2026-04-25T17:11:21Z</time></trkpt><trkpt lat="36.8601080749847" lon="-108.09469038340191"><ele>1870.2</ele><time>2026-04-25T17:11:22Z</time></trkpt><trkpt lat="36.86000810626947" lon="-108.09467700716924"><ele>1870.0</ele><time>2026-04-25T17:11:23Z</time></trkpt><trkpt lat="36.859940236901636" lon="-108.09468676174808"><ele>1869.1666666666667</ele><time>2026-04-25T17:11:24Z</time></trkpt><trkpt lat="36.85982913974947" lon="-108.09479138767242"><ele>1868.3333333333335</ele><time>2026-04-25T17:11:26Z</time></trkpt><trkpt lat="36.85978427138762" lon="-108.09484683629758"><ele>1867.5</ele><time>2026-04-25T17:11:27Z</time></trkpt><trkpt lat="36.859705630490815" lon="-108.09483483672513"><ele>1866.6666666666665</ele><time>2026-04-25T17:11:29Z</time></trkpt><trkpt lat="36.85962512156033" lon="-108.09481533540638"><ele>1865.8333333333333</ele><time>2026-04-25T17:11:30Z</time></trkpt><trkpt lat="36.85954339263925" lon="-108.09481820984571"><ele>1865.0</ele><time>2026-04-25T17:11:31Z</time></trkpt><trkpt lat="36.8594668638022" lon="-108.0948468075909"><ele>1864.9999999999998</ele><time>2026-04-25T17:11:32Z</time></trkpt><trkpt lat="36.85939654197379" lon="-108.09487661631513"><ele>1865.0</ele><time>2026-04-25T17:11:33Z</time></trkpt><trkpt lat="36.85932490374222" lon="-108.0948895739821"><ele>1865.0</ele><time>2026-04-25T17:11:34Z</time></trkpt><trkpt lat="36.85925026837155" lon="-108.09489677600361"><ele>1865.0</ele><time>2026-04-25T17:11:35Z</time></trkpt><trkpt lat="36.85918242733796" lon="-108.09492272245785"><ele>1864.9999999999998</ele><time>2026-04-25T17:11:36Z</time></trkpt><trkpt lat="36.859105508747945" lon="-108.09496570704665"><ele>1865.0</ele><time>2026-04-25T17:11:37Z</time></trkpt><trkpt lat="36.859028999894115" lon="-108.09499861649347"><ele>1865.9999999999998</ele><time>2026-04-25T17:11:38Z</time></trkpt><trkpt lat="36.85894846110629" lon="-108.09504496769253"><ele>1867.0</ele><time>2026-04-25T17:11:39Z</time></trkpt><trkpt lat="36.85887845138721" lon="-108.09510303529133"><ele>1868.0</ele><time>2026-04-25T17:11:40Z</time></trkpt><trkpt lat="36.85882109348361" lon="-108.09516383126608"><ele>1869.0</ele><time>2026-04-25T17:11:41Z</time></trkpt><trkpt lat="36.85875801607042" lon="-108.09521832168963"><ele>1869.9999999999998</ele><time>2026-04-25T17:11:42Z</time></trkpt><trkpt lat="36.85869618782201" lon="-108.09526593153211"><ele>1871.0</ele><time>2026-04-25T17:11:43Z</time></trkpt><trkpt lat="36.858635573583975" lon="-108.09531111085532"><ele>1871.0</ele><time>2026-04-25T17:11:44Z</time></trkpt><trkpt lat="36.85856672800455" lon="-108.09536544916922"><ele>1871.0</ele><time>2026-04-25T17:11:45Z</time></trkpt><trkpt lat="36.85850621443256" lon="-108.09540941264436"><ele>1871.0</ele><time>2026-04-25T17:11:46Z</time></trkpt><trkpt lat="36.85844325430343" lon="-108.09545609119083"><ele>1871.0</ele><time>2026-04-25T17:11:47Z</time></trkpt><trkpt lat="36.85838440732223" lon="-108.09552646927675"><ele>1871.0</ele><time>2026-04-25T17:11:48Z</time></trkpt><trkpt lat="36.8583348201195" lon="-108.09559109467004"><ele>1871.0</ele><time>2026-04-25T17:11:49Z</time></trkpt><trkpt lat="36.858280335251095" lon="-108.09564066283183"><ele>1871.0</ele><time>2026-04-25T17:11:50Z</time></trkpt><trkpt lat="36.85817698450899" lon="-108.09571319799261"><ele>1872.6</ele><time>2026-04-25T17:11:52Z</time></trkpt><trkpt lat="36.85802528985861" lon="-108.09576817129376"><ele>1874.1999999999998</ele><time>2026-04-25T17:11:54Z</time></trkpt><trkpt lat="36.857922219659315" lon="-108.0957871411279"><ele>1875.8000000000002</ele><time>2026-04-25T17:11:55Z</time></trkpt><trkpt lat="36.85786607287579" lon="-108.09583516084548"><ele>1877.4</ele><time>2026-04-25T17:11:56Z</time></trkpt><trkpt lat="36.85782344686037" lon="-108.0959002655788"><ele>1879.0</ele><time>2026-04-25T17:11:57Z</time></trkpt><trkpt lat="36.85777159582053" lon="-108.09595256071479"><ele>1879.0</ele><time>2026-04-25T17:11:58Z</time></trkpt><trkpt lat="36.85766584601914" lon="-108.09600604578212"><ele>1879.0</ele><time>2026-04-25T17:12:00Z</time></trkpt><trkpt lat="36.85759568387566" lon="-108.09600420290401"><ele>1879.0</ele><time>2026-04-25T17:12:01Z</time></trkpt><trkpt lat="36.85750633098917" lon="-108.096008323451"><ele>1879.0</ele><time>2026-04-25T17:12:02Z</time></trkpt><trkpt lat="36.85744109653878" lon="-108.0959944226366"><ele>1879.0</ele><time>2026-04-25T17:12:03Z</time></trkpt><trkpt lat="36.857316727340674" lon="-108.09598551495553"><ele>1879.2</ele><time>2026-04-25T17:12:05Z</time></trkpt><trkpt lat="36.857228163682514" lon="-108.09602204304487"><ele>1879.4</ele><time>2026-04-25T17:12:06Z</time></trkpt><trkpt lat="36.857117387530025" lon="-108.0960390721114"><ele>1879.6</ele><time>2026-04-25T17:12:08Z</time></trkpt><trkpt lat="36.857031886710196" lon="-108.09606867892462"><ele>1879.8</ele><time>2026-04-25T17:12:09Z</time></trkpt><trkpt lat="36.85695174385135" lon="-108.09609624318664"><ele>1880.0</ele><time>2026-04-25T17:12:10Z</time></trkpt><trkpt lat="36.856806951986364" lon="-108.09606995787993"><ele>1879.3333333333333</ele><time>2026-04-25T17:12:12Z</time></trkpt><trkpt lat="36.856728411834645" lon="-108.09608817065059"><ele>1878.6666666666665</ele><time>2026-04-25T17:12:13Z</time></trkpt><trkpt lat="36.85666370323047" lon="-108.09613154766022"><ele>1878.0</ele><time>2026-04-25T17:12:14Z</time></trkpt><trkpt lat="36.8565932753054" lon="-108.09614281030596"><ele>1877.3333333333335</ele><time>2026-04-25T17:12:15Z</time></trkpt><trkpt lat="36.85651215770432" lon="-108.09617089783585"><ele>1876.6666666666667</ele><time>2026-04-25T17:12:16Z</time></trkpt><trkpt lat="36.85644026050733" lon="-108.09618633173723"><ele>1876.0</ele><time>2026-04-25T17:12:17Z</time></trkpt><trkpt lat="36.85637188714668" lon="-108.09619062900292"><ele>1876.0</ele><time>2026-04-25T17:12:18Z</time></trkpt><trkpt lat="36.85627634310448" lon="-108.09616218707018"><ele>1876.0</ele><time>2026-04-25T17:12:31.001Z</time></trkpt><trkpt lat="36.85624055207576" lon="-108.09604578754073"><ele>1876.0</ele><time>2026-04-25T17:12:33.001Z</time></trkpt><trkpt lat="36.85623887178457" lon="-108.09590562491836"><ele>1876.0</ele><time>2026-04-25T17:12:35.001Z</time></trkpt><trkpt lat="36.85622406354495" lon="-108.09582281243354"><ele>1876.0</ele><time>2026-04-25T17:12:36.001Z</time></trkpt><trkpt lat="36.85618491969108" lon="-108.09572757716619"><ele>1875.6</ele><time>2026-04-25T17:12:37.001Z</time></trkpt><trkpt lat="36.85614571336487" lon="-108.09565572684916"><ele>1875.1999999999998</ele><time>2026-04-25T17:12:38.001Z</time></trkpt><trkpt lat="36.85603301894839" lon="-108.09555752971329"><ele>1874.8000000000002</ele><time>2026-04-25T17:12:40.001Z</time></trkpt><trkpt lat="36.85595707681332" lon="-108.09549721261219"><ele>1874.4</ele><time>2026-04-25T17:12:41.001Z</time></trkpt><trkpt lat="36.85588285672233" lon="-108.09541036708174"><ele>1874.0</ele><time>2026-04-25T17:12:42.001Z</time></trkpt><trkpt lat="36.85582592173727" lon="-108.0953333940099"><ele>1872.6</ele><time>2026-04-25T17:12:43.001Z</time></trkpt><trkpt lat="36.855777411946285" lon="-108.09528084048853"><ele>1871.2</ele><time>2026-04-25T17:12:44.001Z</time></trkpt><trkpt lat="36.85566117824772" lon="-108.0951780606084"><ele>1869.7999999999997</ele><time>2026-04-25T17:12:46.001Z</time></trkpt><trkpt lat="36.855571206246545" lon="-108.09513253602394"><ele>1868.3999999999999</ele><time>2026-04-25T17:12:47.001Z</time></trkpt><trkpt lat="36.85548001237101" lon="-108.09507998781051"><ele>1867.0</ele><time>2026-04-25T17:12:48.001Z</time></trkpt><trkpt lat="36.85541954642411" lon="-108.09505125370083"><ele>1867.0</ele><time>2026-04-25T17:12:49.001Z</time></trkpt><trkpt lat="36.85531066928999" lon="-108.0950002092514"><ele>1866.9999999999998</ele><time>2026-04-25T17:12:51.001Z</time></trkpt><trkpt lat="36.85525801721676" lon="-108.0949214241092"><ele>1866.9999999999998</ele><time>2026-04-25T17:12:52.001Z</time></trkpt><trkpt lat="36.85517221955791" lon="-108.09486902705973"><ele>1867.0</ele><time>2026-04-25T17:12:54.001Z</time></trkpt><trkpt lat="36.85509443911987" lon="-108.0949004027838"><ele>1867.0</ele><time>2026-04-25T17:12:55.001Z</time></trkpt><trkpt lat="36.855007151700036" lon="-108.09495681920825"><ele>1865.5000000000002</ele><time>2026-04-25T17:12:56.001Z</time></trkpt><trkpt lat="36.85494547204685" lon="-108.09501903740396"><ele>1864.0</ele><time>2026-04-25T17:12:57.001Z</time></trkpt><trkpt lat="36.85482650818833" lon="-108.09498901853974"><ele>1862.5</ele><time>2026-04-25T17:12:59.001Z</time></trkpt><trkpt lat="36.8547526029065" lon="-108.09498241397849"><ele>1861.0</ele><time>2026-04-25T17:13:00.001Z</time></trkpt><trkpt lat="36.85468754322208" lon="-108.09501313738521"><ele>1859.5000000000002</ele><time>2026-04-25T17:13:01.001Z</time></trkpt><trkpt lat="36.85462092353307" lon="-108.09501149125664"><ele>1858.0</ele><time>2026-04-25T17:13:02.001Z</time></trkpt><trkpt lat="36.854551754693496" lon="-108.09494865923571"><ele>1858.6000000000001</ele><time>2026-04-25T17:13:04.001Z</time></trkpt><trkpt lat="36.85452544142284" lon="-108.09486752226367"><ele>1859.2000000000003</ele><time>2026-04-25T17:13:05.001Z</time></trkpt><trkpt lat="36.854430872951944" lon="-108.09480385368113"><ele>1859.8</ele><time>2026-04-25T17:13:07.001Z</time></trkpt><trkpt lat="36.85431670690633" lon="-108.09481531642886"><ele>1860.4</ele><time>2026-04-25T17:13:08.001Z</time></trkpt><trkpt lat="36.85421321158201" lon="-108.094827349481"><ele>1861.0</ele><time>2026-04-25T17:13:09.001Z</time></trkpt><trkpt lat="36.8541362837978" lon="-108.09485394000671"><ele>1859.8</ele><time>2026-04-25T17:13:10.001Z</time></trkpt><trkpt lat="36.85406289548541" lon="-108.09490578728894"><ele>1858.6</ele><time>2026-04-25T17:13:11.001Z</time></trkpt><trkpt lat="36.85397260542619" lon="-108.09497214098499"><ele>1857.4</ele><time>2026-04-25T17:13:12.001Z</time></trkpt><trkpt lat="36.85387847665951" lon="-108.09502885552286"><ele>1856.2</ele><time>2026-04-25T17:13:13.001Z</time></trkpt><trkpt lat="36.853797630683836" lon="-108.09505306797602"><ele>1855.0</ele><time>2026-04-25T17:13:14.001Z</time></trkpt><trkpt lat="36.85371190171325" lon="-108.095066017189"><ele>1854.6</ele><time>2026-04-25T17:13:15.001Z</time></trkpt><trkpt lat="36.85364524866619" lon="-108.09511386289867"><ele>1854.2</ele><time>2026-04-25T17:13:16.001Z</time></trkpt><trkpt lat="36.85355820088371" lon="-108.09518990867542"><ele>1853.8000000000002</ele><time>2026-04-25T17:13:17.001Z</time></trkpt><trkpt lat="36.853479157724756" lon="-108.09526391372115"><ele>1853.4</ele><time>2026-04-25T17:13:18.001Z</time></trkpt><trkpt lat="36.853439198927035" lon="-108.09532688025102"><ele>1853.0</ele><time>2026-04-25T17:13:19.001Z</time></trkpt><trkpt lat="36.853345356632296" lon="-108.09540006851917"><ele>1851.8333333333333</ele><time>2026-04-25T17:13:21.001Z</time></trkpt><trkpt lat="36.85326421179751" lon="-108.09542895630467"><ele>1850.6666666666665</ele><time>2026-04-25T17:13:22.001Z</time></trkpt><trkpt lat="36.85319637103202" lon="-108.09548564169982"><ele>1849.5</ele><time>2026-04-25T17:13:23.001Z</time></trkpt><trkpt lat="36.85313697125827" lon="-108.09556953939321"><ele>1848.3333333333335</ele><time>2026-04-25T17:13:24.001Z</time></trkpt><trkpt lat="36.85307584637791" lon="-108.09560540733177"><ele>1847.1666666666667</ele><time>2026-04-25T17:13:25.001Z</time></trkpt><trkpt lat="36.852989629207514" lon="-108.09558728003609"><ele>1846.0</ele><time>2026-04-25T17:13:27Z</time></trkpt><trkpt lat="36.852949274628195" lon="-108.09551789189916"><ele>1846.0</ele><time>2026-04-25T17:13:29Z</time></trkpt><trkpt lat="36.85291931493385" lon="-108.0954277165328"><ele>1846.0</ele><time>2026-04-25T17:13:31Z</time></trkpt><trkpt lat="36.85288169825434" lon="-108.09529686641261"><ele>1846.0</ele><time>2026-04-25T17:13:32Z</time></trkpt><trkpt lat="36.852813216055814" lon="-108.09523605724144"><ele>1846.0</ele><time>2026-04-25T17:13:33Z</time></trkpt><trkpt lat="36.8527375708772" lon="-108.09518852675278"><ele>1846.0</ele><time>2026-04-25T17:13:34Z</time></trkpt><trkpt lat="36.852640408794485" lon="-108.09512362504498"><ele>1845.0000000000002</ele><time>2026-04-25T17:13:35Z</time></trkpt><trkpt lat="36.85256653900041" lon="-108.09508008876722"><ele>1844.0</ele><time>2026-04-25T17:13:36Z</time></trkpt><trkpt lat="36.852502818068736" lon="-108.09498845142419"><ele>1843.0</ele><time>2026-04-25T17:13:37Z</time></trkpt><trkpt lat="36.85243871689847" lon="-108.09490510502923"><ele>1842.0</ele><time>2026-04-25T17:13:38Z</time></trkpt><trkpt lat="36.85234115844468" lon="-108.09488940324908"><ele>1841.0000000000002</ele><time>2026-04-25T17:13:39Z</time></trkpt><trkpt lat="36.852269478254144" lon="-108.09486462268903"><ele>1840.0</ele><time>2026-04-25T17:13:40Z</time></trkpt><trkpt lat="36.85224440223382" lon="-108.09470398624367"><ele>1840.0000000000002</ele><time>2026-04-25T17:13:42Z</time></trkpt><trkpt lat="36.85223064118764" lon="-108.09462186224319"><ele>1840.0</ele><time>2026-04-25T17:13:43Z</time></trkpt><trkpt lat="36.852222171131864" lon="-108.09450274232546"><ele>1840.0</ele><time>2026-04-25T17:13:44Z</time></trkpt><trkpt lat="36.852216457475535" lon="-108.09439343726169"><ele>1840.0</ele><time>2026-04-25T17:13:45Z</time></trkpt><trkpt lat="36.852181155634064" lon="-108.09432387466978"><ele>1840.0000000000002</ele><time>2026-04-25T17:13:46Z</time></trkpt><trkpt lat="36.85208878830622" lon="-108.09431160633741"><ele>1840.0</ele><time>2026-04-25T17:13:48Z</time></trkpt><trkpt lat="36.85200269114698" lon="-108.09437678783125"><ele>1840.0</ele><time>2026-04-25T17:13:49Z</time></trkpt><trkpt lat="36.851898334252965" lon="-108.09443858399517"><ele>1840.0</ele><time>2026-04-25T17:13:50Z</time></trkpt><trkpt lat="36.85178646114713" lon="-108.09451952554262"><ele>1840.0</ele><time>2026-04-25T17:13:51Z</time></trkpt><trkpt lat="36.85167067407548" lon="-108.09463110296102"><ele>1840.0</ele><time>2026-04-25T17:13:52Z</time></trkpt><trkpt lat="36.85155644817715" lon="-108.09476761742151"><ele>1839.4</ele><time>2026-04-25T17:13:53Z</time></trkpt><trkpt lat="36.85149337249101" lon="-108.09478653320649"><ele>1838.8</ele><time>2026-04-25T17:13:54Z</time></trkpt><trkpt lat="36.85138886163963" lon="-108.094800009369"><ele>1838.1999999999998</ele><time>2026-04-25T17:13:55Z</time></trkpt><trkpt lat="36.85127247825329" lon="-108.0948272625613"><ele>1837.6</ele><time>2026-04-25T17:13:56Z</time></trkpt><trkpt lat="36.8511620045783" lon="-108.09486282333098"><ele>1837.0</ele><time>2026-04-25T17:13:57Z</time></trkpt><trkpt lat="36.8510613094365" lon="-108.0948715455414"><ele>1837.0</ele><time>2026-04-25T17:13:58Z</time></trkpt><trkpt lat="36.85098271846367" lon="-108.09491314147404"><ele>1836.9999999999998</ele><time>2026-04-25T17:14:00Z</time></trkpt><trkpt lat="36.850961696104676" lon="-108.09500531364414"><ele>1836.9999999999998</ele><time>2026-04-25T17:14:01Z</time></trkpt><trkpt lat="36.85092604716421" lon="-108.09515134714144"><ele>1837.0</ele><time>2026-04-25T17:14:02Z</time></trkpt><trkpt lat="36.85089081928985" lon="-108.0952733439159"><ele>1837.0</ele><time>2026-04-25T17:14:03Z</time></trkpt><trkpt lat="36.85086723524577" lon="-108.09537754818732"><ele>1836.1666666666667</ele><time>2026-04-25T17:14:04Z</time></trkpt><trkpt lat="36.85083942542152" lon="-108.0954678054837"><ele>1835.3333333333335</ele><time>2026-04-25T17:14:05Z</time></trkpt><trkpt lat="36.850805220215875" lon="-108.09557450149663"><ele>1834.5</ele><time>2026-04-25T17:14:06Z</time></trkpt><trkpt lat="36.850772472290735" lon="-108.09568622026327"><ele>1833.6666666666665</ele><time>2026-04-25T17:14:07Z</time></trkpt><trkpt lat="36.850743389565274" lon="-108.09577853367655"><ele>1832.8333333333333</ele><time>2026-04-25T17:14:08Z</time></trkpt><trkpt lat="36.85070522426409" lon="-108.095846282135"><ele>1832.0</ele><time>2026-04-25T17:14:09Z</time></trkpt><trkpt lat="36.850593519605404" lon="-108.09592352110488"><ele>1830.3999999999999</ele><time>2026-04-25T17:14:11Z</time></trkpt><trkpt lat="36.850479773066674" lon="-108.09596823927853"><ele>1828.7999999999997</ele><time>2026-04-25T17:14:13Z</time></trkpt><trkpt lat="36.85045681643694" lon="-108.09604887030005"><ele>1827.2</ele><time>2026-04-25T17:14:14Z</time></trkpt><trkpt lat="36.850442661967925" lon="-108.09617487086116"><ele>1825.6</ele><time>2026-04-25T17:14:15Z</time></trkpt><trkpt lat="36.85041951761235" lon="-108.09630004472767"><ele>1824.0</ele><time>2026-04-25T17:14:16Z</time></trkpt><trkpt lat="36.85036374777048" lon="-108.09634134244446"><ele>1824.0</ele><time>2026-04-25T17:14:17Z</time></trkpt><trkpt lat="36.8502853119654" lon="-108.09638370276691"><ele>1824.0</ele><time>2026-04-25T17:14:18Z</time></trkpt><trkpt lat="36.850219387785216" lon="-108.09645359048154"><ele>1824.0</ele><time>2026-04-25T17:14:19Z</time></trkpt><trkpt lat="36.850192642277946" lon="-108.09655615555862"><ele>1824.0</ele><time>2026-04-25T17:14:20Z</time></trkpt><trkpt lat="36.85016426339477" lon="-108.0966740581875"><ele>1824.0</ele><time>2026-04-25T17:14:21Z</time></trkpt><trkpt lat="36.85013480247288" lon="-108.09680717736738"><ele>1823.2</ele><time>2026-04-25T17:14:22Z</time></trkpt><trkpt lat="36.85011089632014" lon="-108.09694138203666"><ele>1822.4</ele><time>2026-04-25T17:14:23Z</time></trkpt><trkpt lat="36.85007468672662" lon="-108.09704804490546"><ele>1821.6</ele><time>2026-04-25T17:14:24Z</time></trkpt><trkpt lat="36.850035545505825" lon="-108.09716186115588"><ele>1820.8</ele><time>2026-04-25T17:14:25Z</time></trkpt><trkpt lat="36.8500268357989" lon="-108.09727189367007"><ele>1820.0</ele><time>2026-04-25T17:14:26Z</time></trkpt><trkpt lat="36.84999758847441" lon="-108.09738636530693"><ele>1818.25</ele><time>2026-04-25T17:14:28Z</time></trkpt><trkpt lat="36.84989361030208" lon="-108.097442343313"><ele>1816.5</ele><time>2026-04-25T17:14:29Z</time></trkpt><trkpt lat="36.84976442211706" lon="-108.09749913400674"><ele>1814.75</ele><time>2026-04-25T17:14:30Z</time></trkpt><trkpt lat="36.84963229773367" lon="-108.0975475544252"><ele>1813.0</ele><time>2026-04-25T17:14:31Z</time></trkpt><trkpt lat="36.84950922690629" lon="-108.09758525270037"><ele>1813.0</ele><time>2026-04-25T17:14:32Z</time></trkpt><trkpt lat="36.8493877467358" lon="-108.0976308807569"><ele>1813.0000000000002</ele><time>2026-04-25T17:14:33Z</time></trkpt><trkpt lat="36.84928358216434" lon="-108.09765129868593"><ele>1813.0000000000002</ele><time>2026-04-25T17:14:34.001Z</time></trkpt><trkpt lat="36.849192236023974" lon="-108.09764313172427"><ele>1813.0</ele><time>2026-04-25T17:14:35.001Z</time></trkpt><trkpt lat="36.84910654430558" lon="-108.09763951406619"><ele>1813.0</ele><time>2026-04-25T17:14:36.001Z</time></trkpt><trkpt lat="36.8490574191139" lon="-108.09770508587422"><ele>1813.0000000000002</ele><time>2026-04-25T17:14:38.001Z</time></trkpt><trkpt lat="36.84904454171153" lon="-108.09779408143763"><ele>1813.0</ele><time>2026-04-25T17:14:39.001Z</time></trkpt><trkpt lat="36.84903662239507" lon="-108.09791878541475"><ele>1813.0</ele><time>2026-04-25T17:14:40.001Z</time></trkpt><trkpt lat="36.84902537699566" lon="-108.09801251496154"><ele>1813.0</ele><time>2026-04-25T17:14:41.001Z</time></trkpt><trkpt lat="36.848961104800125" lon="-108.09806171996212"><ele>1813.0000000000002</ele><time>2026-04-25T17:14:43.001Z</time></trkpt><trkpt lat="36.84889148582121" lon="-108.09807513968904"><ele>1813.0</ele><time>2026-04-25T17:14:44.001Z</time></trkpt><trkpt lat="36.84877081990035" lon="-108.09809585179028"><ele>1813.0</ele><time>2026-04-25T17:14:45.001Z</time></trkpt><trkpt lat="36.84866840459721" lon="-108.098114900725"><ele>1813.0</ele><time>2026-04-25T17:14:46.001Z</time></trkpt><trkpt lat="36.84858956897829" lon="-108.09812048823201"><ele>1813.0</ele><time>2026-04-25T17:14:47.001Z</time></trkpt><trkpt lat="36.84844613205203" lon="-108.09815276318477"><ele>1813.0</ele><time>2026-04-25T17:14:49.001Z</time></trkpt><trkpt lat="36.84833508438756" lon="-108.0982250569876"><ele>1811.8000000000002</ele><time>2026-04-25T17:14:50.001Z</time></trkpt><trkpt lat="36.84823062374366" lon="-108.0982693384907"><ele>1810.6000000000001</ele><time>2026-04-25T17:14:51.001Z</time></trkpt><trkpt lat="36.84815168518159" lon="-108.0983113575845"><ele>1809.3999999999999</ele><time>2026-04-25T17:14:52.001Z</time></trkpt><trkpt lat="36.84807214851103" lon="-108.09838012987757"><ele>1808.1999999999998</ele><time>2026-04-25T17:14:53.001Z</time></trkpt><trkpt lat="36.84797379768138" lon="-108.09845193961291"><ele>1807.0</ele><time>2026-04-25T17:14:54.001Z</time></trkpt><trkpt lat="36.84788704314506" lon="-108.09850322129293"><ele>1807.0</ele><time>2026-04-25T17:14:55.001Z</time></trkpt><trkpt lat="36.84779931672772" lon="-108.09859676436737"><ele>1807.0</ele><time>2026-04-25T17:14:56.001Z</time></trkpt><trkpt lat="36.84770912784482" lon="-108.09873380782702"><ele>1807.0</ele><time>2026-04-25T17:14:57.001Z</time></trkpt><trkpt lat="36.84760942053222" lon="-108.09887045755706"><ele>1807.0</ele><time>2026-04-25T17:14:58.001Z</time></trkpt><trkpt lat="36.84753329367117" lon="-108.0990049957841"><ele>1806.0</ele><time>2026-04-25T17:14:59.001Z</time></trkpt><trkpt lat="36.847475774081" lon="-108.09915315118096"><ele>1805.0</ele><time>2026-04-25T17:15:00.001Z</time></trkpt><trkpt lat="36.84741491268732" lon="-108.09930349665478"><ele>1804.0</ele><time>2026-04-25T17:15:01.001Z</time></trkpt><trkpt lat="36.84733472965956" lon="-108.09941812993509"><ele>1803.0</ele><time>2026-04-25T17:15:02.001Z</time></trkpt><trkpt lat="36.847231590045446" lon="-108.09951266258008"><ele>1803.0</ele><time>2026-04-25T17:15:03.001Z</time></trkpt><trkpt lat="36.84710486634243" lon="-108.09960875289077"><ele>1803.0</ele><time>2026-04-25T17:15:04.001Z</time></trkpt><trkpt lat="36.84699603937149" lon="-108.09970390001779"><ele>1803.0</ele><time>2026-04-25T17:15:05.001Z</time></trkpt><trkpt lat="36.84692072197554" lon="-108.0998016865491"><ele>1803.0</ele><time>2026-04-25T17:15:06.001Z</time></trkpt><trkpt lat="36.846867390789534" lon="-108.09990828100092"><ele>1803.0</ele><time>2026-04-25T17:15:07.001Z</time></trkpt><trkpt lat="36.846828598926635" lon="-108.10003159027326"><ele>1803.0</ele><time>2026-04-25T17:15:08.001Z</time></trkpt><trkpt lat="36.84678921330865" lon="-108.10014698647436"><ele>1803.0</ele><time>2026-04-25T17:15:09.001Z</time></trkpt><trkpt lat="36.84674330335195" lon="-108.10021834267832"><ele>1803.0</ele><time>2026-04-25T17:15:10.001Z</time></trkpt><trkpt lat="36.84666634309868" lon="-108.10022049759603"><ele>1803.0</ele><time>2026-04-25T17:15:11.001Z</time></trkpt><trkpt lat="36.84657688825468" lon="-108.10020984521528"><ele>1803.0</ele><time>2026-04-25T17:15:12.001Z</time></trkpt><trkpt lat="36.84643803298604" lon="-108.10017345588895"><ele>1802.75</ele><time>2026-04-25T17:15:13.001Z</time></trkpt><trkpt lat="36.84629501943804" lon="-108.10013838986433"><ele>1802.5</ele><time>2026-04-25T17:15:14.001Z</time></trkpt><trkpt lat="36.84617635463593" lon="-108.10008854010381"><ele>1802.25</ele><time>2026-04-25T17:15:15.001Z</time></trkpt><trkpt lat="36.84608959563155" lon="-108.10006258553142"><ele>1802.0</ele><time>2026-04-25T17:15:16.001Z</time></trkpt><trkpt lat="36.845992508944704" lon="-108.10003905510251"><ele>1801.8</ele><time>2026-04-25T17:15:17.001Z</time></trkpt><trkpt lat="36.845908323408736" lon="-108.10000891138839"><ele>1801.6</ele><time>2026-04-25T17:15:18.001Z</time></trkpt><trkpt lat="36.84584747693518" lon="-108.09993933878833"><ele>1801.3999999999999</ele><time>2026-04-25T17:15:19.001Z</time></trkpt><trkpt lat="36.84579880427438" lon="-108.09986823106694"><ele>1801.1999999999998</ele><time>2026-04-25T17:15:20.001Z</time></trkpt><trkpt lat="36.84571281684483" lon="-108.09991929275833"><ele>1801.0</ele><time>2026-04-25T17:15:22.001Z</time></trkpt><trkpt lat="36.84561749798447" lon="-108.09999194966029"><ele>1801.0</ele><time>2026-04-25T17:15:23.001Z</time></trkpt><trkpt lat="36.8455285413296" lon="-108.10007535985018"><ele>1801.0</ele><time>2026-04-25T17:15:24.001Z</time></trkpt><trkpt lat="36.84543634185526" lon="-108.10015858024572"><ele>1801.0</ele><time>2026-04-25T17:15:25.001Z</time></trkpt><trkpt lat="36.84534023848366" lon="-108.10020112049054"><ele>1801.0</ele><time>2026-04-25T17:15:26.001Z</time></trkpt><trkpt lat="36.845255889959226" lon="-108.10023947148824"><ele>1801.0</ele><time>2026-04-25T17:15:27.001Z</time></trkpt><trkpt lat="36.84519009314935" lon="-108.10025653410898"><ele>1802.0</ele><time>2026-04-25T17:15:28.001Z</time></trkpt><trkpt lat="36.8451100851213" lon="-108.10022832104431"><ele>1803.0</ele><time>2026-04-25T17:15:29.001Z</time></trkpt><trkpt lat="36.84498978589683" lon="-108.10023257889002"><ele>1804.0</ele><time>2026-04-25T17:15:30.001Z</time></trkpt><trkpt lat="36.844941627993876" lon="-108.10030167419944"><ele>1805.0</ele><time>2026-04-25T17:15:31.001Z</time></trkpt><trkpt lat="36.84485018906141" lon="-108.10027247791379"><ele>1806.0</ele><time>2026-04-25T17:15:33Z</time></trkpt><trkpt lat="36.84478550312054" lon="-108.1001973287036"><ele>1806.0</ele><time>2026-04-25T17:15:34Z</time></trkpt><trkpt lat="36.84470142635555" lon="-108.10010082451446"><ele>1806.0</ele><time>2026-04-25T17:15:35Z</time></trkpt><trkpt lat="36.84461414999671" lon="-108.10001030409784"><ele>1806.0</ele><time>2026-04-25T17:15:36Z</time></trkpt><trkpt lat="36.84455102232934" lon="-108.09994252573512"><ele>1806.0</ele><time>2026-04-25T17:15:37Z</time></trkpt><trkpt lat="36.84447430753765" lon="-108.09992661853371"><ele>1806.0</ele><time>2026-04-25T17:15:39Z</time></trkpt><trkpt lat="36.84439010153819" lon="-108.0999586039575"><ele>1806.0</ele><time>2026-04-25T17:15:40Z</time></trkpt><trkpt lat="36.84431359868505" lon="-108.10000588863662"><ele>1806.0</ele><time>2026-04-25T17:15:41Z</time></trkpt><trkpt lat="36.84419490742799" lon="-108.10012192466156"><ele>1806.0</ele><time>2026-04-25T17:15:43Z</time></trkpt><trkpt lat="36.844125000852685" lon="-108.10016250433415"><ele>1806.0</ele><time>2026-04-25T17:15:44Z</time></trkpt><trkpt lat="36.84405687175592" lon="-108.10018120248226"><ele>1806.0</ele><time>2026-04-25T17:15:45Z</time></trkpt><trkpt lat="36.84397489138449" lon="-108.1002324952004"><ele>1806.1999999999998</ele><time>2026-04-25T17:15:46Z</time></trkpt><trkpt lat="36.84393561679661" lon="-108.10031275845381"><ele>1806.3999999999999</ele><time>2026-04-25T17:15:47Z</time></trkpt><trkpt lat="36.84390640031231" lon="-108.10039440102753"><ele>1806.6</ele><time>2026-04-25T17:15:48Z</time></trkpt><trkpt lat="36.8437746824221" lon="-108.10048642665559"><ele>1806.8</ele><time>2026-04-25T17:15:50Z</time></trkpt><trkpt lat="36.84368631307143" lon="-108.1005553414391"><ele>1807.0</ele><time>2026-04-25T17:15:51Z</time></trkpt><trkpt lat="36.84362895238157" lon="-108.10062947448907"><ele>1807.0000000000002</ele><time>2026-04-25T17:15:52Z</time></trkpt><trkpt lat="36.84358529525373" lon="-108.10068685738455"><ele>1807.0</ele><time>2026-04-25T17:15:54Z</time></trkpt><trkpt lat="36.843574879102704" lon="-108.10080877580727"><ele>1807.0</ele><time>2026-04-25T17:15:57Z</time></trkpt><trkpt lat="36.84355653116626" lon="-108.1009257027555"><ele>1807.0</ele><time>2026-04-25T17:15:59Z</time></trkpt><trkpt lat="36.84352407354897" lon="-108.10100945657916"><ele>1807.0000000000002</ele><time>2026-04-25T17:16:00Z</time></trkpt><trkpt lat="36.84348715923396" lon="-108.10109782016838"><ele>1807.0</ele><time>2026-04-25T17:16:01Z</time></trkpt><trkpt lat="36.843474905542884" lon="-108.10118378187046"><ele>1806.3333333333335</ele><time>2026-04-25T17:16:02Z</time></trkpt><trkpt lat="36.84348473805672" lon="-108.10128981754865"><ele>1805.6666666666667</ele><time>2026-04-25T17:16:03Z</time></trkpt><trkpt lat="36.84351017044216" lon="-108.10141280330183"><ele>1805.0</ele><time>2026-04-25T17:16:04Z</time></trkpt><trkpt lat="36.843523978134776" lon="-108.10153056458812"><ele>1804.3333333333335</ele><time>2026-04-25T17:16:05Z</time></trkpt><trkpt lat="36.8435277470284" lon="-108.10162801310831"><ele>1803.6666666666667</ele><time>2026-04-25T17:16:06Z</time></trkpt><trkpt lat="36.84349926404592" lon="-108.10170048588766"><ele>1803.0</ele><time>2026-04-25T17:16:07Z</time></trkpt><trkpt lat="36.843462043644664" lon="-108.10177360857939"><ele>1802.0</ele><time>2026-04-25T17:16:08Z</time></trkpt><trkpt lat="36.843470118360116" lon="-108.10186206495905"><ele>1801.0</ele><time>2026-04-25T17:16:09Z</time></trkpt><trkpt lat="36.84349455310402" lon="-108.10199773529051"><ele>1800.0</ele><time>2026-04-25T17:16:10Z</time></trkpt><trkpt lat="36.84347903134746" lon="-108.10210540512405"><ele>1799.0</ele><time>2026-04-25T17:16:11Z</time></trkpt><trkpt lat="36.84345260650822" lon="-108.10217720231903"><ele>1798.0</ele><time>2026-04-25T17:16:12Z</time></trkpt><trkpt lat="36.843420166439614" lon="-108.10226360594719"><ele>1797.0</ele><time>2026-04-25T17:16:13Z</time></trkpt><trkpt lat="36.84337812289725" lon="-108.1023923096048"><ele>1795.8</ele><time>2026-04-25T17:16:14Z</time></trkpt><trkpt lat="36.84334281020611" lon="-108.10249522637275"><ele>1794.6</ele><time>2026-04-25T17:16:15Z</time></trkpt><trkpt lat="36.8433094467196" lon="-108.10259575995862"><ele>1793.3999999999999</ele><time>2026-04-25T17:16:16Z</time></trkpt><trkpt lat="36.843278722015775" lon="-108.10271173101538"><ele>1792.1999999999998</ele><time>2026-04-25T17:16:17Z</time></trkpt><trkpt lat="36.84323418306361" lon="-108.10286416703232"><ele>1791.0</ele><time>2026-04-25T17:16:18Z</time></trkpt><trkpt lat="36.843164937549005" lon="-108.10308631667229"><ele>1789.6666666666665</ele><time>2026-04-25T17:16:19Z</time></trkpt><trkpt lat="36.84312547449901" lon="-108.10330632148539"><ele>1788.3333333333333</ele><time>2026-04-25T17:16:20Z</time></trkpt><trkpt lat="36.843075425481125" lon="-108.10349093590712"><ele>1787.0</ele><time>2026-04-25T17:16:21Z</time></trkpt><trkpt lat="36.84299679695039" lon="-108.10370263209654"><ele>1787.0</ele><time>2026-04-25T17:16:22Z</time></trkpt><trkpt lat="36.84293944102528" lon="-108.10389537605946"><ele>1787.0</ele><time>2026-04-25T17:16:23Z</time></trkpt><trkpt lat="36.8428886720296" lon="-108.1040422465583"><ele>1787.0</ele><time>2026-04-25T17:16:24Z</time></trkpt><trkpt lat="36.84284572994628" lon="-108.10417597293002"><ele>1787.0</ele><time>2026-04-25T17:16:25Z</time></trkpt><trkpt lat="36.84280454301143" lon="-108.10432026429868"><ele>1786.6666666666665</ele><time>2026-04-25T17:16:26Z</time></trkpt><trkpt lat="36.84276978480504" lon="-108.10444786659127"><ele>1786.3333333333333</ele><time>2026-04-25T17:16:27Z</time></trkpt><trkpt lat="36.84274727173621" lon="-108.10454635465025"><ele>1786.0</ele><time>2026-04-25T17:16:28Z</time></trkpt><trkpt lat="36.842741885288746" lon="-108.10462600505647"><ele>1785.6666666666665</ele><time>2026-04-25T17:16:29Z</time></trkpt><trkpt lat="36.842730594113526" lon="-108.1047295861454"><ele>1785.3333333333333</ele><time>2026-04-25T17:16:31Z</time></trkpt><trkpt lat="36.84266331130144" lon="-108.10479036700184"><ele>1785.0</ele><time>2026-04-25T17:16:33Z</time></trkpt><trkpt lat="36.842580253119756" lon="-108.10482359337674"><ele>1785.0</ele><time>2026-04-25T17:16:35Z</time></trkpt><trkpt lat="36.84245835416785" lon="-108.10491544913309"><ele>1785.0</ele><time>2026-04-25T17:16:38Z</time></trkpt><trkpt lat="36.842348197506894" lon="-108.10498053118866"><ele>1785.0</ele><time>2026-04-25T17:16:39Z</time></trkpt><trkpt lat="36.84223295843683" lon="-108.10501830231733"><ele>1785.0</ele><time>2026-04-25T17:16:40Z</time></trkpt><trkpt lat="36.84214297636199" lon="-108.10505627824466"><ele>1785.0</ele><time>2026-04-25T17:16:41Z</time></trkpt><trkpt lat="36.84206023710709" lon="-108.10510741632483"><ele>1785.0</ele><time>2026-04-25T17:16:42Z</time></trkpt><trkpt lat="36.84199396344022" lon="-108.10515805888471"><ele>1785.0</ele><time>2026-04-25T17:16:43Z</time></trkpt><trkpt lat="36.84193261320907" lon="-108.10520872318806"><ele>1785.0</ele><time>2026-04-25T17:16:44.001Z</time></trkpt><trkpt lat="36.841955938392495" lon="-108.10530730367158"><ele>1785.0</ele><time>2026-04-25T17:16:47.001Z</time></trkpt><trkpt lat="36.842008409318254" lon="-108.1053688736801"><ele>1785.0</ele><time>2026-04-25T17:16:48.001Z</time></trkpt><trkpt lat="36.84205372423514" lon="-108.10542546095778"><ele>1785.0</ele><time>2026-04-25T17:16:49.001Z</time></trkpt><trkpt lat="36.84212668778145" lon="-108.10552022001207"><ele>1785.0</ele><time>2026-04-25T17:16:50.001Z</time></trkpt><trkpt lat="36.84219577701899" lon="-108.10560874481021"><ele>1785.0</ele><time>2026-04-25T17:16:51.001Z</time></trkpt><trkpt lat="36.84226606338674" lon="-108.1057005527723"><ele>1785.0</ele><time>2026-04-25T17:16:52.001Z</time></trkpt><trkpt lat="36.84233291875183" lon="-108.10579569303121"><ele>1785.0</ele><time>2026-04-25T17:16:53.001Z</time></trkpt><trkpt lat="36.842400397026815" lon="-108.10589144580669"><ele>1785.25</ele><time>2026-04-25T17:16:54.001Z</time></trkpt><trkpt lat="36.842419253623696" lon="-108.10600976586689"><ele>1785.5</ele><time>2026-04-25T17:16:56.001Z</time></trkpt><trkpt lat="36.842403057132124" lon="-108.10614657537634"><ele>1785.75</ele><time>2026-04-25T17:16:58.001Z</time></trkpt><trkpt lat="36.84235225199736" lon="-108.1062870058024"><ele>1786.0</ele><time>2026-04-25T17:16:59.001Z</time></trkpt><trkpt lat="36.8422933169287" lon="-108.10643991014987"><ele>1786.6666666666667</ele><time>2026-04-25T17:17:00.001Z</time></trkpt><trkpt lat="36.84222885860089" lon="-108.10659436638481"><ele>1787.3333333333335</ele><time>2026-04-25T17:17:01.001Z</time></trkpt><trkpt lat="36.84212566298797" lon="-108.10672340653606"><ele>1788.0</ele><time>2026-04-25T17:17:02.001Z</time></trkpt><trkpt lat="36.84197998019534" lon="-108.10684575984254"><ele>1788.0</ele><time>2026-04-25T17:17:03.001Z</time></trkpt><trkpt lat="36.84187742419379" lon="-108.1069466862356"><ele>1788.0000000000002</ele><time>2026-04-25T17:17:04.001Z</time></trkpt><trkpt lat="36.84181076353326" lon="-108.10704801028204"><ele>1788.0000000000002</ele><time>2026-04-25T17:17:05.001Z</time></trkpt><trkpt lat="36.84176693003501" lon="-108.10717395487205"><ele>1788.0</ele><time>2026-04-25T17:17:06.001Z</time></trkpt><trkpt lat="36.84172545259982" lon="-108.10725485850836"><ele>1788.0</ele><time>2026-04-25T17:17:07.001Z</time></trkpt><trkpt lat="36.84177892111276" lon="-108.10742133557441"><ele>1788.6000000000001</ele><time>2026-04-25T17:17:10.001Z</time></trkpt><trkpt lat="36.841799797020016" lon="-108.1075486545836"><ele>1789.2000000000003</ele><time>2026-04-25T17:17:11.001Z</time></trkpt><trkpt lat="36.841815951585374" lon="-108.10770236572483"><ele>1789.8</ele><time>2026-04-25T17:17:12.001Z</time></trkpt><trkpt lat="36.84185112035726" lon="-108.107800091821"><ele>1790.4</ele><time>2026-04-25T17:17:13.001Z</time></trkpt><trkpt lat="36.84186655414029" lon="-108.1078770215077"><ele>1791.0</ele><time>2026-04-25T17:17:14.001Z</time></trkpt><trkpt lat="36.84200477603174" lon="-108.10795850536128"><ele>1791.0</ele><time>2026-04-25T17:17:16.001Z</time></trkpt><trkpt lat="36.84211682092646" lon="-108.10803604949032"><ele>1791.0</ele><time>2026-04-25T17:17:17.001Z</time></trkpt><trkpt lat="36.842210299867745" lon="-108.10812498470993"><ele>1791.0</ele><time>2026-04-25T17:17:18.001Z</time></trkpt><trkpt lat="36.84231571537122" lon="-108.10819808607866"><ele>1791.0</ele><time>2026-04-25T17:17:19.001Z</time></trkpt><trkpt lat="36.84242583344356" lon="-108.10827414605126"><ele>1792.6</ele><time>2026-04-25T17:17:20.001Z</time></trkpt><trkpt lat="36.84250623662989" lon="-108.10834383789712"><ele>1794.1999999999998</ele><time>2026-04-25T17:17:21.001Z</time></trkpt><trkpt lat="36.84254377809174" lon="-108.10849272358658"><ele>1795.8000000000002</ele><time>2026-04-25T17:17:23.001Z</time></trkpt><trkpt lat="36.84253076435148" lon="-108.1085939261285"><ele>1797.4</ele><time>2026-04-25T17:17:24.001Z</time></trkpt><trkpt lat="36.84249335783574" lon="-108.10869561518734"><ele>1799.0</ele><time>2026-04-25T17:17:25.001Z</time></trkpt><trkpt lat="36.84244363858339" lon="-108.10879396562618"><ele>1798.9999999999998</ele><time>2026-04-25T17:17:26.001Z</time></trkpt><trkpt lat="36.842401252145606" lon="-108.10891089544405"><ele>1799.0</ele><time>2026-04-25T17:17:27.001Z</time></trkpt><trkpt lat="36.84235489461964" lon="-108.1090103717484"><ele>1799.0</ele><time>2026-04-25T17:17:28.001Z</time></trkpt><trkpt lat="36.84232835283291" lon="-108.10909273395332"><ele>1799.0</ele><time>2026-04-25T17:17:29.001Z</time></trkpt><trkpt lat="36.842331643691985" lon="-108.10918647731602"><ele>1798.9999999999998</ele><time>2026-04-25T17:17:30.001Z</time></trkpt><trkpt lat="36.842306018317565" lon="-108.1092902627515"><ele>1799.0</ele><time>2026-04-25T17:17:31.001Z</time></trkpt><trkpt lat="36.842271070253766" lon="-108.10938786218509"><ele>1800.3333333333333</ele><time>2026-04-25T17:17:32.001Z</time></trkpt><trkpt lat="36.8422327763579" lon="-108.10946669951946"><ele>1801.6666666666665</ele><time>2026-04-25T17:17:33.001Z</time></trkpt><trkpt lat="36.842178067472105" lon="-108.10953486767465"><ele>1803.0</ele><time>2026-04-25T17:17:36.001Z</time></trkpt><trkpt lat="36.842059329914065" lon="-108.10954612191567"><ele>1804.3333333333335</ele><time>2026-04-25T17:17:46Z</time></trkpt><trkpt lat="36.84199585143649" lon="-108.10950734885061"><ele>1805.6666666666667</ele><time>2026-04-25T17:17:47Z</time></trkpt><trkpt lat="36.841911445851025" lon="-108.10945546155357"><ele>1807.0</ele><time>2026-04-25T17:17:48Z</time></trkpt><trkpt lat="36.841817065014034" lon="-108.10940268488979"><ele>1806.1999999999998</ele><time>2026-04-25T17:17:49Z</time></trkpt><trkpt lat="36.841731857422054" lon="-108.10937351491513"><ele>1805.3999999999999</ele><time>2026-04-25T17:17:50Z</time></trkpt><trkpt lat="36.84167215907316" lon="-108.10930187947493"><ele>1804.6000000000001</ele><time>2026-04-25T17:17:51Z</time></trkpt><trkpt lat="36.84159728691157" lon="-108.10919161072458"><ele>1803.8000000000002</ele><time>2026-04-25T17:17:52Z</time></trkpt><trkpt lat="36.84151365799026" lon="-108.1091250665152"><ele>1803.0</ele><time>2026-04-25T17:17:53Z</time></trkpt><trkpt lat="36.84141202587463" lon="-108.10908792551992"><ele>1801.5</ele><time>2026-04-25T17:17:54Z</time></trkpt><trkpt lat="36.84129684941964" lon="-108.10901526388875"><ele>1800.0</ele><time>2026-04-25T17:17:55Z</time></trkpt><trkpt lat="36.841200262872995" lon="-108.1089199226521"><ele>1798.5</ele><time>2026-04-25T17:17:56Z</time></trkpt><trkpt lat="36.841112851769985" lon="-108.10883034323741"><ele>1797.0</ele><time>2026-04-25T17:17:57Z</time></trkpt><trkpt lat="36.84102796989675" lon="-108.10875206486841"><ele>1796.8</ele><time>2026-04-25T17:17:58Z</time></trkpt><trkpt lat="36.84094121934551" lon="-108.1087007227022"><ele>1796.6</ele><time>2026-04-25T17:17:59Z</time></trkpt><trkpt lat="36.84086079539542" lon="-108.1086911809254"><ele>1796.3999999999999</ele><time>2026-04-25T17:18:00Z</time></trkpt><trkpt lat="36.8407619678941" lon="-108.10874229771466"><ele>1796.1999999999998</ele><time>2026-04-25T17:18:02Z</time></trkpt><trkpt lat="36.84067348267247" lon="-108.1088209501724"><ele>1796.0</ele><time>2026-04-25T17:18:03Z</time></trkpt><trkpt lat="36.84059926184404" lon="-108.10881214721886"><ele>1796.0</ele><time>2026-04-25T17:18:04Z</time></trkpt><trkpt lat="36.84049828080326" lon="-108.10878808893122"><ele>1796.0</ele><time>2026-04-25T17:18:05Z</time></trkpt><trkpt lat="36.84039575390802" lon="-108.1088018620372"><ele>1796.0</ele><time>2026-04-25T17:18:06Z</time></trkpt><trkpt lat="36.84033599921308" lon="-108.10885592605123"><ele>1796.0</ele><time>2026-04-25T17:18:07Z</time></trkpt><trkpt lat="36.84028623272954" lon="-108.1089255030836"><ele>1796.0</ele><time>2026-04-25T17:18:08Z</time></trkpt><trkpt lat="36.84022355449018" lon="-108.10902823753086"><ele>1796.0</ele><time>2026-04-25T17:18:09Z</time></trkpt><trkpt lat="36.840157434438275" lon="-108.10912125365093"><ele>1796.0</ele><time>2026-04-25T17:18:10Z</time></trkpt><trkpt lat="36.840107392075375" lon="-108.10921080163146"><ele>1796.0</ele><time>2026-04-25T17:18:11Z</time></trkpt><trkpt lat="36.84003481860444" lon="-108.1093023576664"><ele>1796.0</ele><time>2026-04-25T17:18:12Z</time></trkpt><trkpt lat="36.83992896062036" lon="-108.10941880242886"><ele>1796.0</ele><time>2026-04-25T17:18:13Z</time></trkpt><trkpt lat="36.83980822700651" lon="-108.10954921375021"><ele>1794.25</ele><time>2026-04-25T17:18:14Z</time></trkpt><trkpt lat="36.8397042689197" lon="-108.10967483096125"><ele>1792.5</ele><time>2026-04-25T17:18:15Z</time></trkpt><trkpt lat="36.83962036053259" lon="-108.1097710299648"><ele>1790.75</ele><time>2026-04-25T17:18:16Z</time></trkpt><trkpt lat="36.839538370835804" lon="-108.10986309914263"><ele>1789.0</ele><time>2026-04-25T17:18:17Z</time></trkpt><trkpt lat="36.83944096103361" lon="-108.10993590118562"><ele>1788.2</ele><time>2026-04-25T17:18:18Z</time></trkpt><trkpt lat="36.83933927210472" lon="-108.10999706335127"><ele>1787.4</ele><time>2026-04-25T17:18:19Z</time></trkpt><trkpt lat="36.83925852727692" lon="-108.11005348531403"><ele>1786.6</ele><time>2026-04-25T17:18:20Z</time></trkpt><trkpt lat="36.839194350163886" lon="-108.11013483556205"><ele>1785.8</ele><time>2026-04-25T17:18:21Z</time></trkpt><trkpt lat="36.839136412026384" lon="-108.11026239959234"><ele>1785.0</ele><time>2026-04-25T17:18:22Z</time></trkpt><trkpt lat="36.83907507429119" lon="-108.11040766338468"><ele>1784.4</ele><time>2026-04-25T17:18:23Z</time></trkpt><trkpt lat="36.8390074400595" lon="-108.11053978534072"><ele>1783.8</ele><time>2026-04-25T17:18:24Z</time></trkpt><trkpt lat="36.83894665153664" lon="-108.11063673304464"><ele>1783.1999999999998</ele><time>2026-04-25T17:18:25Z</time></trkpt><trkpt lat="36.838891950228906" lon="-108.11071852578772"><ele>1782.6</ele><time>2026-04-25T17:18:26Z</time></trkpt><trkpt lat="36.83882039096906" lon="-108.1107745320051"><ele>1782.0</ele><time>2026-04-25T17:18:27Z</time></trkpt><trkpt lat="36.83870645466072" lon="-108.11085429686804"><ele>1782.0</ele><time>2026-04-25T17:18:28Z</time></trkpt><trkpt lat="36.838568017673516" lon="-108.11096520836381"><ele>1782.0</ele><time>2026-04-25T17:18:29Z</time></trkpt><trkpt lat="36.83845550697423" lon="-108.11108034470934"><ele>1782.0</ele><time>2026-04-25T17:18:30Z</time></trkpt><trkpt lat="36.838358470287005" lon="-108.11119866585987"><ele>1782.0</ele><time>2026-04-25T17:18:31Z</time></trkpt><trkpt lat="36.83826893446444" lon="-108.11133360421766"><ele>1782.0</ele><time>2026-04-25T17:18:32Z</time></trkpt><trkpt lat="36.838184305569605" lon="-108.11149778116304"><ele>1782.0</ele><time>2026-04-25T17:18:33Z</time></trkpt><trkpt lat="36.83809679973855" lon="-108.11166986344303"><ele>1782.0</ele><time>2026-04-25T17:18:34Z</time></trkpt><trkpt lat="36.83803657511446" lon="-108.11181075204053"><ele>1782.0</ele><time>2026-04-25T17:18:35Z</time></trkpt><trkpt lat="36.83799111337824" lon="-108.11193188070857"><ele>1782.0</ele><time>2026-04-25T17:18:36Z</time></trkpt><trkpt lat="36.83797857912208" lon="-108.11206021856755"><ele>1781.9999999999998</ele><time>2026-04-25T17:18:38Z</time></trkpt><trkpt lat="36.83800940715009" lon="-108.11215324748949"><ele>1781.9999999999998</ele><time>2026-04-25T17:18:39Z</time></trkpt><trkpt lat="36.838065078470024" lon="-108.11227546497933"><ele>1782.0</ele><time>2026-04-25T17:18:40Z</time></trkpt><trkpt lat="36.83811066500518" lon="-108.11239988401057"><ele>1782.0</ele><time>2026-04-25T17:18:41Z</time></trkpt><trkpt lat="36.838121893248854" lon="-108.1125168698217"><ele>1782.1999999999998</ele><time>2026-04-25T17:18:42Z</time></trkpt><trkpt lat="36.83810295995779" lon="-108.11266225754423"><ele>1782.3999999999999</ele><time>2026-04-25T17:18:43Z</time></trkpt><trkpt lat="36.83811714490887" lon="-108.11281122046552"><ele>1782.6000000000001</ele><time>2026-04-25T17:18:44Z</time></trkpt><trkpt lat="36.838163001269784" lon="-108.11290232931182"><ele>1782.8000000000002</ele><time>2026-04-25T17:18:45Z</time></trkpt><trkpt lat="36.83822852004121" lon="-108.11300713848377"><ele>1783.0</ele><time>2026-04-25T17:18:46Z</time></trkpt><trkpt lat="36.838227891431295" lon="-108.11311385282669"><ele>1783.0</ele><time>2026-04-25T17:18:47Z</time></trkpt><trkpt lat="36.838195411332556" lon="-108.11322587761687"><ele>1783.0000000000002</ele><time>2026-04-25T17:18:48Z</time></trkpt><trkpt lat="36.83814915230075" lon="-108.11335988373243"><ele>1783.0000000000002</ele><time>2026-04-25T17:18:49.001Z</time></trkpt><trkpt lat="36.83808667671379" lon="-108.11345360808227"><ele>1783.0</ele><time>2026-04-25T17:18:50.001Z</time></trkpt><trkpt lat="36.83800594697528" lon="-108.11359103615663"><ele>1783.0</ele><time>2026-04-25T17:18:51.001Z</time></trkpt><trkpt lat="36.837927149618" lon="-108.11370707610705"><ele>1783.4</ele><time>2026-04-25T17:18:52.001Z</time></trkpt><trkpt lat="36.83785203506001" lon="-108.1137743715226"><ele>1783.8000000000002</ele><time>2026-04-25T17:18:53.001Z</time></trkpt><trkpt lat="36.83775781857016" lon="-108.11381557715316"><ele>1784.2</ele><time>2026-04-25T17:18:54.001Z</time></trkpt><trkpt lat="36.83764824918767" lon="-108.11387379258524"><ele>1784.6</ele><time>2026-04-25T17:18:55.001Z</time></trkpt><trkpt lat="36.837590226466354" lon="-108.11394436223262"><ele>1785.0</ele><time>2026-04-25T17:18:56.001Z</time></trkpt><trkpt lat="36.83756330887499" lon="-108.11407607516752"><ele>1785.8</ele><time>2026-04-25T17:18:57.001Z</time></trkpt><trkpt lat="36.837563142184365" lon="-108.11424801340902"><ele>1786.6</ele><time>2026-04-25T17:18:58.001Z</time></trkpt><trkpt lat="36.83757235757868" lon="-108.11440789433883"><ele>1787.4</ele><time>2026-04-25T17:18:59.001Z</time></trkpt><trkpt lat="36.8375556404154" lon="-108.11451158200747"><ele>1788.2</ele><time>2026-04-25T17:19:00.001Z</time></trkpt><trkpt lat="36.83750864619543" lon="-108.11456846471032"><ele>1789.0</ele><time>2026-04-25T17:19:01.001Z</time></trkpt><trkpt lat="36.83742126770062" lon="-108.11461073213734"><ele>1789.0</ele><time>2026-04-25T17:19:02.001Z</time></trkpt><trkpt lat="36.837310599833245" lon="-108.11467680641394"><ele>1789.0</ele><time>2026-04-25T17:19:03.001Z</time></trkpt><trkpt lat="36.83717359474653" lon="-108.11473669262662"><ele>1789.0</ele><time>2026-04-25T17:19:04.001Z</time></trkpt><trkpt lat="36.83705235606571" lon="-108.11479282734413"><ele>1789.0</ele><time>2026-04-25T17:19:05.001Z</time></trkpt><trkpt lat="36.836936924146876" lon="-108.11480163360639"><ele>1789.0</ele><time>2026-04-25T17:19:06.001Z</time></trkpt><trkpt lat="36.83679398669995" lon="-108.11477798034757"><ele>1789.0</ele><time>2026-04-25T17:19:07.001Z</time></trkpt><trkpt lat="36.83667520246435" lon="-108.1147443357134"><ele>1789.0</ele><time>2026-04-25T17:19:08.001Z</time></trkpt><trkpt lat="36.83657597686465" lon="-108.11468029789398"><ele>1789.0</ele><time>2026-04-25T17:19:09.001Z</time></trkpt><trkpt lat="36.83646732006751" lon="-108.11458203140054"><ele>1789.0</ele><time>2026-04-25T17:19:10.001Z</time></trkpt><trkpt lat="36.83634198378679" lon="-108.11446869859336"><ele>1789.0</ele><time>2026-04-25T17:19:11.001Z</time></trkpt><trkpt lat="36.83620460278015" lon="-108.11437054923887"><ele>1789.0</ele><time>2026-04-25T17:19:12.001Z</time></trkpt><trkpt lat="36.836108114843704" lon="-108.11430700236679"><ele>1789.0</ele><time>2026-04-25T17:19:13.001Z</time></trkpt><trkpt lat="36.83602095161317" lon="-108.11428131440442"><ele>1789.0</ele><time>2026-04-25T17:19:14.001Z</time></trkpt><trkpt lat="36.83594381857516" lon="-108.11425519853529"><ele>1789.0</ele><time>2026-04-25T17:19:15.001Z</time></trkpt><trkpt lat="36.83588986491547" lon="-108.11416202124889"><ele>1789.0</ele><time>2026-04-25T17:19:16.001Z</time></trkpt><trkpt lat="36.835846444869254" lon="-108.1140473235587"><ele>1789.0</ele><time>2026-04-25T17:19:17.001Z</time></trkpt><trkpt lat="36.83584337779595" lon="-108.11392041448977"><ele>1789.0</ele><time>2026-04-25T17:19:18.001Z</time></trkpt><trkpt lat="36.83585007756214" lon="-108.11380107576039"><ele>1789.0</ele><time>2026-04-25T17:19:19.001Z</time></trkpt><trkpt lat="36.835811338999875" lon="-108.11370723907052"><ele>1789.0</ele><time>2026-04-25T17:19:20.001Z</time></trkpt><trkpt lat="36.83573467794122" lon="-108.11362430042897"><ele>1789.0</ele><time>2026-04-25T17:19:21.001Z</time></trkpt><trkpt lat="36.83563486771061" lon="-108.1135334038117"><ele>1789.0</ele><time>2026-04-25T17:19:22.001Z</time></trkpt><trkpt lat="36.835573077971944" lon="-108.11343739807094"><ele>1789.0</ele><time>2026-04-25T17:19:23.001Z</time></trkpt><trkpt lat="36.83548072897999" lon="-108.11337228327741"><ele>1789.0</ele><time>2026-04-25T17:19:24.001Z</time></trkpt><trkpt lat="36.835348066237934" lon="-108.11329440575666"><ele>1789.0</ele><time>2026-04-25T17:19:25.001Z</time></trkpt><trkpt lat="36.83523536311782" lon="-108.11322303214345"><ele>1789.0</ele><time>2026-04-25T17:19:26.001Z</time></trkpt><trkpt lat="36.835156718351975" lon="-108.11320612025948"><ele>1789.0</ele><time>2026-04-25T17:19:27.001Z</time></trkpt><trkpt lat="36.83505454640476" lon="-108.11319494351613"><ele>1788.2</ele><time>2026-04-25T17:19:28.001Z</time></trkpt><trkpt lat="36.834924807669864" lon="-108.11316462656471"><ele>1787.4</ele><time>2026-04-25T17:19:29.001Z</time></trkpt><trkpt lat="36.834816178872124" lon="-108.11313571646342"><ele>1786.6</ele><time>2026-04-25T17:19:30.001Z</time></trkpt><trkpt lat="36.83472843433177" lon="-108.11313018611587"><ele>1785.8</ele><time>2026-04-25T17:19:31.001Z</time></trkpt><trkpt lat="36.83462263382198" lon="-108.11314185338016"><ele>1785.0</ele><time>2026-04-25T17:19:32.001Z</time></trkpt><trkpt lat="36.83450477252101" lon="-108.11312741678736"><ele>1785.0</ele><time>2026-04-25T17:19:33.001Z</time></trkpt><trkpt lat="36.834406168202534" lon="-108.11309670979495"><ele>1785.0</ele><time>2026-04-25T17:19:34.001Z</time></trkpt><trkpt lat="36.83431149303811" lon="-108.11304815665012"><ele>1785.0</ele><time>2026-04-25T17:19:35.001Z</time></trkpt><trkpt lat="36.83421794115731" lon="-108.11298863309088"><ele>1785.0</ele><time>2026-04-25T17:19:36.001Z</time></trkpt><trkpt lat="36.834129237200216" lon="-108.11291660518857"><ele>1785.0</ele><time>2026-04-25T17:19:37.001Z</time></trkpt><trkpt lat="36.83402725981527" lon="-108.11283532394263"><ele>1784.6</ele><time>2026-04-25T17:19:38.001Z</time></trkpt><trkpt lat="36.83392809880718" lon="-108.1127839260231"><ele>1784.2</ele><time>2026-04-25T17:19:39.001Z</time></trkpt><trkpt lat="36.83382433311924" lon="-108.11275226327443"><ele>1783.8000000000002</ele><time>2026-04-25T17:19:40.001Z</time></trkpt><trkpt lat="36.83373241275899" lon="-108.1127356684409"><ele>1783.4</ele><time>2026-04-25T17:19:41.001Z</time></trkpt><trkpt lat="36.83363342161258" lon="-108.11270161417993"><ele>1783.0</ele><time>2026-04-25T17:19:42.001Z</time></trkpt><trkpt lat="36.833553557167264" lon="-108.1126798296681"><ele>1783.0</ele><time>2026-04-25T17:19:43.001Z</time></trkpt><trkpt lat="36.83347326758424" lon="-108.11269271132024"><ele>1783.0000000000002</ele><time>2026-04-25T17:19:44.001Z</time></trkpt><trkpt lat="36.833385191509514" lon="-108.11271133524346"><ele>1783.0000000000002</ele><time>2026-04-25T17:19:45Z</time></trkpt><trkpt lat="36.83329406692194" lon="-108.11268921070608"><ele>1783.0</ele><time>2026-04-25T17:19:46Z</time></trkpt><trkpt lat="36.83320797792444" lon="-108.11263221305646"><ele>1783.0</ele><time>2026-04-25T17:19:47Z</time></trkpt><trkpt lat="36.833070505642944" lon="-108.11255825112758"><ele>1781.75</ele><time>2026-04-25T17:19:48Z</time></trkpt><trkpt lat="36.832891866379946" lon="-108.11251298660635"><ele>1780.5</ele><time>2026-04-25T17:19:49Z</time></trkpt><trkpt lat="36.832749217863096" lon="-108.11245220784323"><ele>1779.25</ele><time>2026-04-25T17:19:50Z</time></trkpt><trkpt lat="36.83263975721629" lon="-108.112411939427"><ele>1778.0</ele><time>2026-04-25T17:19:51Z</time></trkpt><trkpt lat="36.83254925094589" lon="-108.11241435263705"><ele>1776.25</ele><time>2026-04-25T17:19:52Z</time></trkpt><trkpt lat="36.832452768424794" lon="-108.1124564687073"><ele>1774.5</ele><time>2026-04-25T17:19:53Z</time></trkpt><trkpt lat="36.83234590701061" lon="-108.11250780866851"><ele>1772.75</ele><time>2026-04-25T17:19:54Z</time></trkpt><trkpt lat="36.832225747822704" lon="-108.11254996418887"><ele>1771.0</ele><time>2026-04-25T17:19:55Z</time></trkpt><trkpt lat="36.83211326711623" lon="-108.11255724509255"><ele>1771.0</ele><time>2026-04-25T17:19:56Z</time></trkpt><trkpt lat="36.83202237434193" lon="-108.11255284433828"><ele>1771.0</ele><time>2026-04-25T17:19:57Z</time></trkpt><trkpt lat="36.83195428011521" lon="-108.11257774763048"><ele>1771.0</ele><time>2026-04-25T17:19:58Z</time></trkpt><trkpt lat="36.83188085097235" lon="-108.11263085420828"><ele>1771.0</ele><time>2026-04-25T17:20:00Z</time></trkpt><trkpt lat="36.83180677957328" lon="-108.11265548658233"><ele>1771.0</ele><time>2026-04-25T17:20:08Z</time></trkpt><trkpt lat="36.83168048691608" lon="-108.11269565569752"><ele>1771.0</ele><time>2026-04-25T17:20:10Z</time></trkpt><trkpt lat="36.8316034782695" lon="-108.11272627896375"><ele>1771.0</ele><time>2026-04-25T17:20:11Z</time></trkpt><trkpt lat="36.83152176638184" lon="-108.11275743889055"><ele>1771.0</ele><time>2026-04-25T17:20:12Z</time></trkpt><trkpt lat="36.83143057075795" lon="-108.11278992511815"><ele>1771.0</ele><time>2026-04-25T17:20:13Z</time></trkpt><trkpt lat="36.831330820237795" lon="-108.1128171914845"><ele>1771.0</ele><time>2026-04-25T17:20:14Z</time></trkpt><trkpt lat="36.83122790461108" lon="-108.1128293963471"><ele>1771.0</ele><time>2026-04-25T17:20:15Z</time></trkpt><trkpt lat="36.8311067430894" lon="-108.11283241727253"><ele>1771.0</ele><time>2026-04-25T17:20:16Z</time></trkpt><trkpt lat="36.8309790489273" lon="-108.11282773111805"><ele>1771.0</ele><time>2026-04-25T17:20:17Z</time></trkpt><trkpt lat="36.83088603173793" lon="-108.11281723578756"><ele>1771.0</ele><time>2026-04-25T17:20:18Z</time></trkpt><trkpt lat="36.83080178043314" lon="-108.11282278884755"><ele>1771.0</ele><time>2026-04-25T17:20:19Z</time></trkpt><trkpt lat="36.83070770784111" lon="-108.11284036371215"><ele>1771.0</ele><time>2026-04-25T17:20:20Z</time></trkpt><trkpt lat="36.83060311769134" lon="-108.11285777539898"><ele>1771.0</ele><time>2026-04-25T17:20:21Z</time></trkpt><trkpt lat="36.830519486159275" lon="-108.11286830278495"><ele>1771.0</ele><time>2026-04-25T17:20:22Z</time></trkpt><trkpt lat="36.83042577429196" lon="-108.11296358717105"><ele>1771.0</ele><time>2026-04-25T17:20:24Z</time></trkpt><trkpt lat="36.83040177981943" lon="-108.11304719196778"><ele>1771.0</ele><time>2026-04-25T17:20:25Z</time></trkpt><trkpt lat="36.830389214162885" lon="-108.11320637497688"><ele>1770.8</ele><time>2026-04-25T17:20:27Z</time></trkpt><trkpt lat="36.830330428093035" lon="-108.11329997305671"><ele>1770.6</ele><time>2026-04-25T17:20:28Z</time></trkpt><trkpt lat="36.83024282070523" lon="-108.11338485669751"><ele>1770.4</ele><time>2026-04-25T17:20:29Z</time></trkpt><trkpt lat="36.830191077282656" lon="-108.11345659399029"><ele>1770.2</ele><time>2026-04-25T17:20:30Z</time></trkpt><trkpt lat="36.83017153640932" lon="-108.11358561839707"><ele>1770.0</ele><time>2026-04-25T17:20:31Z</time></trkpt><trkpt lat="36.830116151873064" lon="-108.11375754246801"><ele>1770.0</ele><time>2026-04-25T17:20:32Z</time></trkpt><trkpt lat="36.8300731355633" lon="-108.11386017629275"><ele>1770.0</ele><time>2026-04-25T17:20:33Z</time></trkpt><trkpt lat="36.830036255954326" lon="-108.11394349633333"><ele>1770.0</ele><time>2026-04-25T17:20:34Z</time></trkpt><trkpt lat="36.830026503104385" lon="-108.11406477612323"><ele>1770.0</ele><time>2026-04-25T17:20:35Z</time></trkpt><trkpt lat="36.83001318897285" lon="-108.11416801197296"><ele>1770.0</ele><time>2026-04-25T17:20:36Z</time></trkpt><trkpt lat="36.82999962984913" lon="-108.11424847056597"><ele>1770.0</ele><time>2026-04-25T17:20:37Z</time></trkpt><trkpt lat="36.829964244316756" lon="-108.11437689268264"><ele>1770.0</ele><time>2026-04-25T17:20:39Z</time></trkpt><trkpt lat="36.82990166640702" lon="-108.1143959698048"><ele>1770.0</ele><time>2026-04-25T17:20:40Z</time></trkpt><trkpt lat="36.82981516804643" lon="-108.11440485233075"><ele>1770.0</ele><time>2026-04-25T17:20:41Z</time></trkpt><trkpt lat="36.82974696514281" lon="-108.11444757693896"><ele>1770.0</ele><time>2026-04-25T17:20:42Z</time></trkpt><trkpt lat="36.82965568018456" lon="-108.11452047352162"><ele>1770.0</ele><time>2026-04-25T17:20:43Z</time></trkpt><trkpt lat="36.82953066360426" lon="-108.11461459763265"><ele>1770.0</ele><time>2026-04-25T17:20:44Z</time></trkpt><trkpt lat="36.829408993650716" lon="-108.11472144988403"><ele>1770.0</ele><time>2026-04-25T17:20:45Z</time></trkpt><trkpt lat="36.82928813075783" lon="-108.11480051235176"><ele>1770.0</ele><time>2026-04-25T17:20:46Z</time></trkpt><trkpt lat="36.82917004554708" lon="-108.11487328725623"><ele>1770.0</ele><time>2026-04-25T17:20:47Z</time></trkpt><trkpt lat="36.82905386219299" lon="-108.11494362261381"><ele>1770.0</ele><time>2026-04-25T17:20:48Z</time></trkpt><trkpt lat="36.82894244350169" lon="-108.1150147322185"><ele>1770.0</ele><time>2026-04-25T17:20:49Z</time></trkpt><trkpt lat="36.828828162218116" lon="-108.1150803838623"><ele>1770.0</ele><time>2026-04-25T17:20:50Z</time></trkpt><trkpt lat="36.82869896576661" lon="-108.1151626259299"><ele>1770.0</ele><time>2026-04-25T17:20:51Z</time></trkpt><trkpt lat="36.82856757015542" lon="-108.11526048937317"><ele>1771.25</ele><time>2026-04-25T17:20:52Z</time></trkpt><trkpt lat="36.82844764858612" lon="-108.1153419872233"><ele>1772.5</ele><time>2026-04-25T17:20:53Z</time></trkpt><trkpt lat="36.82830918854577" lon="-108.11540923582874"><ele>1773.75</ele><time>2026-04-25T17:20:54Z</time></trkpt><trkpt lat="36.8281700310391" lon="-108.11549368564759"><ele>1775.0</ele><time>2026-04-25T17:20:55Z</time></trkpt><trkpt lat="36.82803720158408" lon="-108.11558356980835"><ele>1775.0</ele><time>2026-04-25T17:20:56Z</time></trkpt><trkpt lat="36.82790676232605" lon="-108.1156683314861"><ele>1775.0</ele><time>2026-04-25T17:20:57Z</time></trkpt><trkpt lat="36.82777425842684" lon="-108.1157470660888"><ele>1775.0</ele><time>2026-04-25T17:20:58Z</time></trkpt><trkpt lat="36.827656377918565" lon="-108.11582420572185"><ele>1775.0</ele><time>2026-04-25T17:20:59.001Z</time></trkpt><trkpt lat="36.82754791793775" lon="-108.11589485612707"><ele>1776.0</ele><time>2026-04-25T17:21:00.001Z</time></trkpt><trkpt lat="36.82742033140519" lon="-108.11597621408617"><ele>1777.0</ele><time>2026-04-25T17:21:01.001Z</time></trkpt><trkpt lat="36.82728960328088" lon="-108.11605879823686"><ele>1778.0</ele><time>2026-04-25T17:21:02.001Z</time></trkpt><trkpt lat="36.82716099780627" lon="-108.11615503626308"><ele>1779.0</ele><time>2026-04-25T17:21:03.001Z</time></trkpt><trkpt lat="36.82702117795348" lon="-108.11625517988445"><ele>1779.0</ele><time>2026-04-25T17:21:04.001Z</time></trkpt><trkpt lat="36.82689652305219" lon="-108.11633226209177"><ele>1779.0</ele><time>2026-04-25T17:21:05.001Z</time></trkpt><trkpt lat="36.82677913818479" lon="-108.11640887945252"><ele>1779.0</ele><time>2026-04-25T17:21:06.001Z</time></trkpt><trkpt lat="36.82666498653827" lon="-108.11648272442542"><ele>1779.0</ele><time>2026-04-25T17:21:07.001Z</time></trkpt><trkpt lat="36.826553474154444" lon="-108.11654402370304"><ele>1778.25</ele><time>2026-04-25T17:21:08.001Z</time></trkpt><trkpt lat="36.82645243278616" lon="-108.11659139810455"><ele>1777.5</ele><time>2026-04-25T17:21:09.001Z</time></trkpt><trkpt lat="36.82634161469468" lon="-108.11666223088389"><ele>1776.75</ele><time>2026-04-25T17:21:10.001Z</time></trkpt><trkpt lat="36.82620956525535" lon="-108.11676124370331"><ele>1776.0</ele><time>2026-04-25T17:21:11.001Z</time></trkpt><trkpt lat="36.82605682050172" lon="-108.11686190141637"><ele>1776.25</ele><time>2026-04-25T17:21:12.001Z</time></trkpt><trkpt lat="36.82591544996796" lon="-108.11695776299865"><ele>1776.5</ele><time>2026-04-25T17:21:13.001Z</time></trkpt><trkpt lat="36.82578654476722" lon="-108.11704244995646"><ele>1776.75</ele><time>2026-04-25T17:21:14.001Z</time></trkpt><trkpt lat="36.825667437683705" lon="-108.11711513367185"><ele>1777.0</ele><time>2026-04-25T17:21:15.001Z</time></trkpt><trkpt lat="36.82553646835163" lon="-108.11719535390208"><ele>1777.0</ele><time>2026-04-25T17:21:16.001Z</time></trkpt><trkpt lat="36.82539701776247" lon="-108.11728554979558"><ele>1777.0</ele><time>2026-04-25T17:21:17.001Z</time></trkpt><trkpt lat="36.82526308069731" lon="-108.11737005608096"><ele>1777.0</ele><time>2026-04-25T17:21:18.001Z</time></trkpt><trkpt lat="36.8251321598295" lon="-108.11745384508927"><ele>1777.75</ele><time>2026-04-25T17:21:19.001Z</time></trkpt><trkpt lat="36.82500957274029" lon="-108.11752424591563"><ele>1778.5</ele><time>2026-04-25T17:21:20.001Z</time></trkpt><trkpt lat="36.824887649074455" lon="-108.11759844970169"><ele>1779.25</ele><time>2026-04-25T17:21:21.001Z</time></trkpt><trkpt lat="36.82476216034445" lon="-108.11766997477712"><ele>1780.0</ele><time>2026-04-25T17:21:22.001Z</time></trkpt><trkpt lat="36.82463333127325" lon="-108.11774539715721"><ele>1780.0</ele><time>2026-04-25T17:21:23.001Z</time></trkpt><trkpt lat="36.824509795471194" lon="-108.11782213250216"><ele>1780.0</ele><time>2026-04-25T17:21:24.001Z</time></trkpt><trkpt lat="36.82438567873387" lon="-108.1179053493662"><ele>1780.0</ele><time>2026-04-25T17:21:25.001Z</time></trkpt><trkpt lat="36.82426441423761" lon="-108.11799282771841"><ele>1780.0</ele><time>2026-04-25T17:21:26.001Z</time></trkpt><trkpt lat="36.82415210386336" lon="-108.11807360032721"><ele>1780.4</ele><time>2026-04-25T17:21:27.001Z</time></trkpt><trkpt lat="36.82404967101569" lon="-108.11814915902822"><ele>1780.8</ele><time>2026-04-25T17:21:28.001Z</time></trkpt><trkpt lat="36.82394075592747" lon="-108.11821651653487"><ele>1781.1999999999998</ele><time>2026-04-25T17:21:29.001Z</time></trkpt><trkpt lat="36.82384544737559" lon="-108.11828323670936"><ele>1781.6</ele><time>2026-04-25T17:21:30.001Z</time></trkpt><trkpt lat="36.823759610606835" lon="-108.11833246491972"><ele>1782.0</ele><time>2026-04-25T17:21:31.001Z</time></trkpt><trkpt lat="36.823651772954314" lon="-108.11839526739742"><ele>1782.25</ele><time>2026-04-25T17:21:32.001Z</time></trkpt><trkpt lat="36.82353116533614" lon="-108.11846745895552"><ele>1782.5</ele><time>2026-04-25T17:21:33.001Z</time></trkpt><trkpt lat="36.82341713064599" lon="-108.11853443877924"><ele>1782.75</ele><time>2026-04-25T17:21:34.001Z</time></trkpt><trkpt lat="36.823316157529646" lon="-108.11861654313464"><ele>1783.0</ele><time>2026-04-25T17:21:35.001Z</time></trkpt><trkpt lat="36.82322287529026" lon="-108.11868926702942"><ele>1782.0</ele><time>2026-04-25T17:21:36.001Z</time></trkpt><trkpt lat="36.823118753902406" lon="-108.1187546927679"><ele>1781.0</ele><time>2026-04-25T17:21:37.001Z</time></trkpt><trkpt lat="36.82298678272111" lon="-108.11883458076329"><ele>1780.0</ele><time>2026-04-25T17:21:38.001Z</time></trkpt><trkpt lat="36.82287274568633" lon="-108.11891897332929"><ele>1779.0</ele><time>2026-04-25T17:21:39.001Z</time></trkpt><trkpt lat="36.82276660173646" lon="-108.11898899389506"><ele>1779.0</ele><time>2026-04-25T17:21:40.001Z</time></trkpt><trkpt lat="36.822651044557475" lon="-108.11905512104596"><ele>1779.0</ele><time>2026-04-25T17:21:41.001Z</time></trkpt><trkpt lat="36.822533498124606" lon="-108.11913727831268"><ele>1779.0</ele><time>2026-04-25T17:21:42.001Z</time></trkpt><trkpt lat="36.82240226977588" lon="-108.11922867402886"><ele>1779.0</ele><time>2026-04-25T17:21:43.001Z</time></trkpt><trkpt lat="36.822270698496084" lon="-108.11931789337825"><ele>1778.0</ele><time>2026-04-25T17:21:44.001Z</time></trkpt><trkpt lat="36.82216197080718" lon="-108.11939197295004"><ele>1777.0</ele><time>2026-04-25T17:21:45.001Z</time></trkpt><trkpt lat="36.82206915634087" lon="-108.11946521268436"><ele>1776.0</ele><time>2026-04-25T17:21:46.001Z</time></trkpt><trkpt lat="36.821993831488044" lon="-108.11951318540095"><ele>1775.0</ele><time>2026-04-25T17:21:47.001Z</time></trkpt><trkpt lat="36.82186155717549" lon="-108.119491570764"><ele>1775.2</ele><time>2026-04-25T17:21:49.001Z</time></trkpt><trkpt lat="36.82175134418922" lon="-108.11944720822048"><ele>1775.4</ele><time>2026-04-25T17:21:50.001Z</time></trkpt><trkpt lat="36.82164335489414" lon="-108.11944625964081"><ele>1775.6</ele><time>2026-04-25T17:21:51Z</time></trkpt><trkpt lat="36.821572185766065" lon="-108.11949146113629"><ele>1775.8</ele><time>2026-04-25T17:21:52Z</time></trkpt><trkpt lat="36.82151537320821" lon="-108.11955401871319"><ele>1776.0</ele><time>2026-04-25T17:21:53Z</time></trkpt><trkpt lat="36.82141448827233" lon="-108.11960898177884"><ele>1776.0</ele><time>2026-04-25T17:21:55Z</time></trkpt><trkpt lat="36.821343387822964" lon="-108.11971974408559"><ele>1776.0</ele><time>2026-04-25T17:21:57Z</time></trkpt><trkpt lat="36.82130760648566" lon="-108.11979703918594"><ele>1776.0</ele><time>2026-04-25T17:21:58Z</time></trkpt><trkpt lat="36.821232894897285" lon="-108.11982730736032"><ele>1776.0</ele><time>2026-04-25T17:21:59Z</time></trkpt><trkpt lat="36.82113046317775" lon="-108.11987031642812"><ele>1776.0</ele><time>2026-04-25T17:22:00Z</time></trkpt><trkpt lat="36.821031766756704" lon="-108.11997908838538"><ele>1775.25</ele><time>2026-04-25T17:22:01Z</time></trkpt><trkpt lat="36.82094131587123" lon="-108.1201091819907"><ele>1774.5</ele><time>2026-04-25T17:22:02Z</time></trkpt><trkpt lat="36.820863602795214" lon="-108.12023224303495"><ele>1773.75</ele><time>2026-04-25T17:22:03Z</time></trkpt><trkpt lat="36.820797065592096" lon="-108.12031916431161"><ele>1773.0</ele><time>2026-04-25T17:22:04Z</time></trkpt><trkpt lat="36.82072077691315" lon="-108.12038268502226"><ele>1773.0</ele><time>2026-04-25T17:22:05Z</time></trkpt><trkpt lat="36.82062916008172" lon="-108.12042571740898"><ele>1773.0</ele><time>2026-04-25T17:22:06Z</time></trkpt><trkpt lat="36.820540318722934" lon="-108.12045570162991"><ele>1773.0</ele><time>2026-04-25T17:22:07Z</time></trkpt><trkpt lat="36.82047388158846" lon="-108.12047253465192"><ele>1773.0</ele><time>2026-04-25T17:22:08Z</time></trkpt><trkpt lat="36.82039212297172" lon="-108.12054310903423"><ele>1773.0</ele><time>2026-04-25T17:22:10Z</time></trkpt><trkpt lat="36.820336072821014" lon="-108.12061175808999"><ele>1773.0</ele><time>2026-04-25T17:22:12Z</time></trkpt><trkpt lat="36.82023964812969" lon="-108.12070883754316"><ele>1773.2</ele><time>2026-04-25T17:22:14Z</time></trkpt><trkpt lat="36.82018695620717" lon="-108.12079864959462"><ele>1773.4</ele><time>2026-04-25T17:22:15Z</time></trkpt><trkpt lat="36.82014706123199" lon="-108.12091068291973"><ele>1773.6000000000001</ele><time>2026-04-25T17:22:16Z</time></trkpt><trkpt lat="36.82012567440186" lon="-108.12099682707557"><ele>1773.8000000000002</ele><time>2026-04-25T17:22:17Z</time></trkpt><trkpt lat="36.820099838874185" lon="-108.12111250641763"><ele>1774.0</ele><time>2026-04-25T17:22:19Z</time></trkpt><trkpt lat="36.81999890250148" lon="-108.1211784669129"><ele>1774.0</ele><time>2026-04-25T17:22:21Z</time></trkpt><trkpt lat="36.81988731816312" lon="-108.12112526427141"><ele>1774.0</ele><time>2026-04-25T17:22:23Z</time></trkpt><trkpt lat="36.81980087659519" lon="-108.12102525345605"><ele>1774.0</ele><time>2026-04-25T17:22:25Z</time></trkpt><trkpt lat="36.81971113975561" lon="-108.12097697014896"><ele>1774.0</ele><time>2026-04-25T17:22:27Z</time></trkpt><trkpt lat="36.81964622069217" lon="-108.1209975837147"><ele>1774.0</ele><time>2026-04-25T17:22:28Z</time></trkpt><trkpt lat="36.81956506693751" lon="-108.12106732099126"><ele>1774.0</ele><time>2026-04-25T17:22:29Z</time></trkpt><trkpt lat="36.81947946978893" lon="-108.12114223695016"><ele>1774.0</ele><time>2026-04-25T17:22:30Z</time></trkpt><trkpt lat="36.819378459308474" lon="-108.12120507961441"><ele>1774.0</ele><time>2026-04-25T17:22:31Z</time></trkpt><trkpt lat="36.81925593189602" lon="-108.12127470582259"><ele>1774.0</ele><time>2026-04-25T17:22:32Z</time></trkpt><trkpt lat="36.819139746356" lon="-108.12136443582202"><ele>1775.25</ele><time>2026-04-25T17:22:33Z</time></trkpt><trkpt lat="36.81903043237695" lon="-108.12143125781208"><ele>1776.5</ele><time>2026-04-25T17:22:34Z</time></trkpt><trkpt lat="36.81888474039746" lon="-108.12149993017454"><ele>1777.75</ele><time>2026-04-25T17:22:35Z</time></trkpt><trkpt lat="36.81873493652325" lon="-108.1215975020998"><ele>1779.0</ele><time>2026-04-25T17:22:36Z</time></trkpt><trkpt lat="36.81861614693912" lon="-108.12167030842957"><ele>1779.5</ele><time>2026-04-25T17:22:37Z</time></trkpt><trkpt lat="36.818492148042765" lon="-108.12173868383104"><ele>1780.0</ele><time>2026-04-25T17:22:38Z</time></trkpt><trkpt lat="36.818380216332486" lon="-108.1218070019465"><ele>1780.5</ele><time>2026-04-25T17:22:39Z</time></trkpt><trkpt lat="36.81829410783404" lon="-108.1218685496238"><ele>1781.0</ele><time>2026-04-25T17:22:40Z</time></trkpt><trkpt lat="36.8181892993267" lon="-108.12193678346087"><ele>1782.0</ele><time>2026-04-25T17:22:41Z</time></trkpt><trkpt lat="36.81806117287295" lon="-108.12201252117973"><ele>1783.0</ele><time>2026-04-25T17:22:42Z</time></trkpt><trkpt lat="36.81794578908283" lon="-108.12209197722262"><ele>1784.0</ele><time>2026-04-25T17:22:43Z</time></trkpt><trkpt lat="36.81785391264125" lon="-108.1221523869238"><ele>1785.0</ele><time>2026-04-25T17:22:44Z</time></trkpt><trkpt lat="36.8177695124101" lon="-108.12220366589771"><ele>1785.0</ele><time>2026-04-25T17:22:45Z</time></trkpt><trkpt lat="36.8176695496208" lon="-108.12228828061355"><ele>1785.0</ele><time>2026-04-25T17:22:46Z</time></trkpt><trkpt lat="36.81756062006352" lon="-108.12236693132007"><ele>1785.0</ele><time>2026-04-25T17:22:47Z</time></trkpt><trkpt lat="36.817467069081374" lon="-108.12243313344469"><ele>1785.0</ele><time>2026-04-25T17:22:48Z</time></trkpt><trkpt lat="36.817373183862834" lon="-108.12250539995541"><ele>1784.5</ele><time>2026-04-25T17:22:49Z</time></trkpt><trkpt lat="36.81727872290839" lon="-108.12257582908049"><ele>1784.0</ele><time>2026-04-25T17:22:50Z</time></trkpt><trkpt lat="36.81717530660891" lon="-108.12265241650039"><ele>1783.5</ele><time>2026-04-25T17:22:51Z</time></trkpt><trkpt lat="36.81706018798887" lon="-108.1227353410394"><ele>1783.0</ele><time>2026-04-25T17:22:52Z</time></trkpt><trkpt lat="36.81695177467368" lon="-108.12281120369981"><ele>1783.0</ele><time>2026-04-25T17:22:53Z</time></trkpt><trkpt lat="36.81686777995433" lon="-108.12286864803252"><ele>1783.0</ele><time>2026-04-25T17:22:54Z</time></trkpt><trkpt lat="36.81680102980951" lon="-108.12292738472739"><ele>1783.0</ele><time>2026-04-25T17:22:55Z</time></trkpt><trkpt lat="36.8167042337698" lon="-108.12301804937347"><ele>1783.0</ele><time>2026-04-25T17:22:56Z</time></trkpt><trkpt lat="36.81658005376466" lon="-108.12314625125568"><ele>1782.6666666666667</ele><time>2026-04-25T17:22:57Z</time></trkpt><trkpt lat="36.81643630848222" lon="-108.12329096091291"><ele>1782.3333333333335</ele><time>2026-04-25T17:22:58Z</time></trkpt><trkpt lat="36.8162966759666" lon="-108.1234365196399"><ele>1782.0</ele><time>2026-04-25T17:22:59Z</time></trkpt><trkpt lat="36.816223991651526" lon="-108.12351131652858"><ele>1782.0</ele><time>2026-04-25T17:23:00Z</time></trkpt><trkpt lat="36.81614177072701" lon="-108.12358888410166"><ele>1781.9999999999998</ele><time>2026-04-25T17:23:01Z</time></trkpt><trkpt lat="36.816066615678345" lon="-108.12364280195362"><ele>1781.9999999999998</ele><time>2026-04-25T17:23:02Z</time></trkpt><trkpt lat="36.815980508639896" lon="-108.12366901010314"><ele>1782.0</ele><time>2026-04-25T17:23:03Z</time></trkpt><trkpt lat="36.81588671548575" lon="-108.12364613695871"><ele>1782.0</ele><time>2026-04-25T17:23:04Z</time></trkpt><trkpt lat="36.81579066784427" lon="-108.12361238155637"><ele>1782.25</ele><time>2026-04-25T17:23:05Z</time></trkpt><trkpt lat="36.815673414558006" lon="-108.12368961685165"><ele>1782.5</ele><time>2026-04-25T17:23:07Z</time></trkpt><trkpt lat="36.815563570520084" lon="-108.12378289604207"><ele>1782.75</ele><time>2026-04-25T17:23:08Z</time></trkpt><trkpt lat="36.81544962244665" lon="-108.12386504434019"><ele>1783.0</ele><time>2026-04-25T17:23:09.001Z</time></trkpt><trkpt lat="36.81532878410412" lon="-108.12396474980119"><ele>1783.0</ele><time>2026-04-25T17:23:10.001Z</time></trkpt><trkpt lat="36.81521746299273" lon="-108.12404857469453"><ele>1783.0</ele><time>2026-04-25T17:23:11.001Z</time></trkpt><trkpt lat="36.81512051934213" lon="-108.12411700810148"><ele>1783.0</ele><time>2026-04-25T17:23:12.001Z</time></trkpt><trkpt lat="36.815002573562644" lon="-108.12420187160191"><ele>1783.0</ele><time>2026-04-25T17:23:13.001Z</time></trkpt><trkpt lat="36.81488788974004" lon="-108.12429242896349"><ele>1784.75</ele><time>2026-04-25T17:23:14.001Z</time></trkpt><trkpt lat="36.81476930588694" lon="-108.12438736941101"><ele>1786.5</ele><time>2026-04-25T17:23:15.001Z</time></trkpt><trkpt lat="36.81462725594374" lon="-108.12447994873368"><ele>1788.25</ele><time>2026-04-25T17:23:16.001Z</time></trkpt><trkpt lat="36.814511760083526" lon="-108.12455359865827"><ele>1790.0</ele><time>2026-04-25T17:23:17.001Z</time></trkpt><trkpt lat="36.81441771473385" lon="-108.12463425455985"><ele>1790.0</ele><time>2026-04-25T17:23:18.001Z</time></trkpt><trkpt lat="36.81431430761088" lon="-108.12470851203943"><ele>1790.0</ele><time>2026-04-25T17:23:19.001Z</time></trkpt><trkpt lat="36.81418232837868" lon="-108.1247962119699"><ele>1790.0</ele><time>2026-04-25T17:23:20.001Z</time></trkpt><trkpt lat="36.81406907675808" lon="-108.12487198670969"><ele>1790.0</ele><time>2026-04-25T17:23:21.001Z</time></trkpt><trkpt lat="36.81397543615341" lon="-108.12495065123862"><ele>1790.75</ele><time>2026-04-25T17:23:22.001Z</time></trkpt><trkpt lat="36.81388728509728" lon="-108.12501501174536"><ele>1791.5</ele><time>2026-04-25T17:23:23.001Z</time></trkpt><trkpt lat="36.81378367010676" lon="-108.12508483889631"><ele>1792.25</ele><time>2026-04-25T17:23:24.001Z</time></trkpt><trkpt lat="36.813654020669894" lon="-108.12516913608151"><ele>1793.0</ele><time>2026-04-25T17:23:25.001Z</time></trkpt><trkpt lat="36.813541662316965" lon="-108.12524276691066"><ele>1793.25</ele><time>2026-04-25T17:23:26.001Z</time></trkpt><trkpt lat="36.81344662355159" lon="-108.12531044604133"><ele>1793.5</ele><time>2026-04-25T17:23:27.001Z</time></trkpt><trkpt lat="36.81331902664796" lon="-108.12540880014348"><ele>1793.75</ele><time>2026-04-25T17:23:28.001Z</time></trkpt><trkpt lat="36.81320198007561" lon="-108.12550126470373"><ele>1794.0</ele><time>2026-04-25T17:23:29.001Z</time></trkpt><trkpt lat="36.81312944457043" lon="-108.12556865628076"><ele>1794.0</ele><time>2026-04-25T17:23:30.001Z</time></trkpt><trkpt lat="36.81306466557904" lon="-108.12562403034063"><ele>1794.0</ele><time>2026-04-25T17:23:31.001Z</time></trkpt><trkpt lat="36.81298520996875" lon="-108.12567185350936"><ele>1794.0</ele><time>2026-04-25T17:23:32.001Z</time></trkpt><trkpt lat="36.81290610271281" lon="-108.12571160566985"><ele>1794.0</ele><time>2026-04-25T17:23:33.001Z</time></trkpt><trkpt lat="36.812828133905946" lon="-108.12576866158543"><ele>1794.0</ele><time>2026-04-25T17:23:34.001Z</time></trkpt><trkpt lat="36.812734971552224" lon="-108.12583032442173"><ele>1794.0</ele><time>2026-04-25T17:23:35.001Z</time></trkpt><trkpt lat="36.812638803548275" lon="-108.12589647077911"><ele>1794.4</ele><time>2026-04-25T17:23:36.001Z</time></trkpt><trkpt lat="36.81256336833228" lon="-108.12594252131413"><ele>1794.8000000000002</ele><time>2026-04-25T17:23:37.001Z</time></trkpt><trkpt lat="36.8124896831391" lon="-108.12601625107136"><ele>1795.1999999999998</ele><time>2026-04-25T17:23:38.001Z</time></trkpt><trkpt lat="36.81240302944927" lon="-108.12611021372037"><ele>1795.6</ele><time>2026-04-25T17:23:39.001Z</time></trkpt><trkpt lat="36.81232391785221" lon="-108.12620589975141"><ele>1796.0</ele><time>2026-04-25T17:23:40.001Z</time></trkpt><trkpt lat="36.81222922103437" lon="-108.12627486795081"><ele>1796.0</ele><time>2026-04-25T17:23:41.001Z</time></trkpt><trkpt lat="36.8121195895105" lon="-108.12632241750887"><ele>1796.0</ele><time>2026-04-25T17:23:42.001Z</time></trkpt><trkpt lat="36.81200366768076" lon="-108.12635880034044"><ele>1796.0</ele><time>2026-04-25T17:23:43.001Z</time></trkpt><trkpt lat="36.81188716461258" lon="-108.12640053377156"><ele>1796.0</ele><time>2026-04-25T17:23:44.001Z</time></trkpt><trkpt lat="36.811760771070695" lon="-108.12645721401384"><ele>1796.5</ele><time>2026-04-25T17:23:45.001Z</time></trkpt><trkpt lat="36.81161692461938" lon="-108.12651277836797"><ele>1797.0</ele><time>2026-04-25T17:23:46.001Z</time></trkpt><trkpt lat="36.81146504086443" lon="-108.1265500998381"><ele>1797.5</ele><time>2026-04-25T17:23:47.001Z</time></trkpt><trkpt lat="36.81133197643355" lon="-108.12657748674114"><ele>1798.0</ele><time>2026-04-25T17:23:48.001Z</time></trkpt><trkpt lat="36.811232536274254" lon="-108.12660379370998"><ele>1798.6000000000001</ele><time>2026-04-25T17:23:49.001Z</time></trkpt><trkpt lat="36.81115106736237" lon="-108.12670253717484"><ele>1799.2000000000003</ele><time>2026-04-25T17:23:51.001Z</time></trkpt><trkpt lat="36.81108724405398" lon="-108.12678626569011"><ele>1799.8</ele><time>2026-04-25T17:23:52.001Z</time></trkpt><trkpt lat="36.81100319925246" lon="-108.126864990247"><ele>1800.4</ele><time>2026-04-25T17:23:53.001Z</time></trkpt><trkpt lat="36.81092113159914" lon="-108.12693079729094"><ele>1801.0</ele><time>2026-04-25T17:23:54.001Z</time></trkpt><trkpt lat="36.81086116522777" lon="-108.12698111125115"><ele>1801.0</ele><time>2026-04-25T17:23:55.001Z</time></trkpt><trkpt lat="36.81078412253247" lon="-108.12686245468959"><ele>1801.0</ele><time>2026-04-25T17:23:57Z</time></trkpt><trkpt lat="36.810704309028345" lon="-108.12676404054808"><ele>1801.0</ele><time>2026-04-25T17:23:58Z</time></trkpt><trkpt lat="36.81057909833377" lon="-108.12669984673175"><ele>1801.0</ele><time>2026-04-25T17:23:59Z</time></trkpt><trkpt lat="36.810470016314625" lon="-108.12663946307386"><ele>1801.0</ele><time>2026-04-25T17:24:00Z</time></trkpt><trkpt lat="36.810368746118826" lon="-108.12657721531579"><ele>1801.0</ele><time>2026-04-25T17:24:01Z</time></trkpt><trkpt lat="36.810261955313926" lon="-108.1265128738625"><ele>1801.0</ele><time>2026-04-25T17:24:02Z</time></trkpt><trkpt lat="36.81016114164947" lon="-108.1264437048796"><ele>1801.0</ele><time>2026-04-25T17:24:03Z</time></trkpt><trkpt lat="36.81008108047742" lon="-108.12640661128924"><ele>1801.0</ele><time>2026-04-25T17:24:04Z</time></trkpt><trkpt lat="36.81001844977573" lon="-108.1263906017568"><ele>1799.75</ele><time>2026-04-25T17:24:05Z</time></trkpt><trkpt lat="36.809896628013966" lon="-108.12636705186549"><ele>1798.5</ele><time>2026-04-25T17:24:07Z</time></trkpt><trkpt lat="36.80974375228828" lon="-108.12630163421403"><ele>1797.25</ele><time>2026-04-25T17:24:08Z</time></trkpt><trkpt lat="36.809672457035234" lon="-108.1262837223956"><ele>1796.0</ele><time>2026-04-25T17:24:09Z</time></trkpt><trkpt lat="36.809569684849" lon="-108.12627641511955"><ele>1796.0</ele><time>2026-04-25T17:24:10Z</time></trkpt><trkpt lat="36.809473207803556" lon="-108.12630829762678"><ele>1796.0</ele><time>2026-04-25T17:24:11Z</time></trkpt><trkpt lat="36.80937974904801" lon="-108.12640036149338"><ele>1796.0</ele><time>2026-04-25T17:24:12Z</time></trkpt><trkpt lat="36.80926739884691" lon="-108.12646373367883"><ele>1796.0</ele><time>2026-04-25T17:24:13Z</time></trkpt><trkpt lat="36.80912470994098" lon="-108.12653960342533"><ele>1794.25</ele><time>2026-04-25T17:24:14Z</time></trkpt><trkpt lat="36.80898454673393" lon="-108.12664719641646"><ele>1792.5</ele><time>2026-04-25T17:24:15Z</time></trkpt><trkpt lat="36.80886246735471" lon="-108.12673661428423"><ele>1790.75</ele><time>2026-04-25T17:24:16Z</time></trkpt><trkpt lat="36.80876228537924" lon="-108.12680963768032"><ele>1789.0</ele><time>2026-04-25T17:24:17Z</time></trkpt><trkpt lat="36.8086645348894" lon="-108.12688356238837"><ele>1789.0</ele><time>2026-04-25T17:24:18Z</time></trkpt><trkpt lat="36.80854821602635" lon="-108.12689856594803"><ele>1789.0</ele><time>2026-04-25T17:24:19Z</time></trkpt><trkpt lat="36.808456139170914" lon="-108.12689904930743"><ele>1789.0</ele><time>2026-04-25T17:24:20Z</time></trkpt><trkpt lat="36.808355827933084" lon="-108.12692581314042"><ele>1789.0</ele><time>2026-04-25T17:24:22Z</time></trkpt><trkpt lat="36.808288041612656" lon="-108.1269118156859"><ele>1789.0</ele><time>2026-04-25T17:24:25Z</time></trkpt><trkpt lat="36.808231526075616" lon="-108.1273113094044"><ele>1788.4</ele><time>2026-04-25T17:24:26Z</time></trkpt><trkpt lat="36.8081581748097" lon="-108.12736124348682"><ele>1787.8000000000002</ele><time>2026-04-25T17:29:08Z</time></trkpt><trkpt lat="36.80810470868025" lon="-108.1274204819543"><ele>1787.1999999999998</ele><time>2026-04-25T17:29:09Z</time></trkpt><trkpt lat="36.80804420333034" lon="-108.12750447400326"><ele>1786.6</ele><time>2026-04-25T17:29:10Z</time></trkpt><trkpt lat="36.80796232882861" lon="-108.12760851742789"><ele>1786.0</ele><time>2026-04-25T17:29:11Z</time></trkpt><trkpt lat="36.807880026487425" lon="-108.12771108799733"><ele>1787.1999999999998</ele><time>2026-04-25T17:29:12Z</time></trkpt><trkpt lat="36.80782225266414" lon="-108.12778171123466"><ele>1788.3999999999999</ele><time>2026-04-25T17:29:13Z</time></trkpt><trkpt lat="36.807804000669556" lon="-108.12795426784528"><ele>1789.6</ele><time>2026-04-25T17:29:15Z</time></trkpt><trkpt lat="36.807812064873644" lon="-108.12807234689737"><ele>1790.8</ele><time>2026-04-25T17:29:16Z</time></trkpt><trkpt lat="36.80780526907968" lon="-108.12816154663928"><ele>1792.0</ele><time>2026-04-25T17:29:17Z</time></trkpt><trkpt lat="36.8077332302346" lon="-108.1282412906876"><ele>1790.75</ele><time>2026-04-25T17:29:20Z</time></trkpt><trkpt lat="36.80764400348197" lon="-108.12822407433171"><ele>1789.5</ele><time>2026-04-25T17:29:21Z</time></trkpt><trkpt lat="36.80753941596483" lon="-108.12819190265326"><ele>1788.25</ele><time>2026-04-25T17:29:22Z</time></trkpt><trkpt lat="36.807421640626536" lon="-108.12817524911527"><ele>1787.0</ele><time>2026-04-25T17:29:23Z</time></trkpt><trkpt lat="36.80728117167659" lon="-108.12820362190539"><ele>1787.0</ele><time>2026-04-25T17:29:24Z</time></trkpt><trkpt lat="36.807144436870495" lon="-108.12822779701723"><ele>1787.0</ele><time>2026-04-25T17:29:25Z</time></trkpt><trkpt lat="36.8070231445297" lon="-108.12822090060821"><ele>1787.0</ele><time>2026-04-25T17:29:26Z</time></trkpt><trkpt lat="36.80689297695386" lon="-108.12819355697044"><ele>1787.0</ele><time>2026-04-25T17:29:27Z</time></trkpt><trkpt lat="36.806773042572" lon="-108.1281926066597"><ele>1786.8</ele><time>2026-04-25T17:29:28Z</time></trkpt><trkpt lat="36.80665532003231" lon="-108.12820578358274"><ele>1786.6</ele><time>2026-04-25T17:29:29Z</time></trkpt><trkpt lat="36.80656423944065" lon="-108.12821927777952"><ele>1786.3999999999999</ele><time>2026-04-25T17:29:30Z</time></trkpt><trkpt lat="36.80649047237658" lon="-108.12825488090337"><ele>1786.1999999999998</ele><time>2026-04-25T17:29:31.001Z</time></trkpt><trkpt lat="36.80640264662145" lon="-108.1283572140842"><ele>1786.0</ele><time>2026-04-25T17:29:32.001Z</time></trkpt><trkpt lat="36.8062964364685" lon="-108.12849531060256"><ele>1786.5</ele><time>2026-04-25T17:29:33.001Z</time></trkpt><trkpt lat="36.80618847136498" lon="-108.12857391540744"><ele>1787.0</ele><time>2026-04-25T17:29:34.001Z</time></trkpt><trkpt lat="36.80607209126059" lon="-108.12860696216234"><ele>1787.5</ele><time>2026-04-25T17:29:35.001Z</time></trkpt><trkpt lat="36.80595798872027" lon="-108.12864066641106"><ele>1788.0</ele><time>2026-04-25T17:29:36.001Z</time></trkpt><trkpt lat="36.80585255478605" lon="-108.12873093661521"><ele>1787.0</ele><time>2026-04-25T17:29:37.001Z</time></trkpt><trkpt lat="36.80573988133221" lon="-108.12881328260211"><ele>1786.0</ele><time>2026-04-25T17:29:38.001Z</time></trkpt><trkpt lat="36.80562446417246" lon="-108.12886435128047"><ele>1785.0</ele><time>2026-04-25T17:29:39.001Z</time></trkpt><trkpt lat="36.80551804814429" lon="-108.12890187719958"><ele>1784.0</ele><time>2026-04-25T17:29:40.001Z</time></trkpt><trkpt lat="36.80542109816386" lon="-108.12894403974252"><ele>1784.0</ele><time>2026-04-25T17:29:41.001Z</time></trkpt><trkpt lat="36.805333134498184" lon="-108.12898299674514"><ele>1784.0</ele><time>2026-04-25T17:29:42.001Z</time></trkpt><trkpt lat="36.80526645362399" lon="-108.12903012489356"><ele>1784.0</ele><time>2026-04-25T17:29:43.001Z</time></trkpt><trkpt lat="36.805199610977226" lon="-108.12910745164903"><ele>1784.0</ele><time>2026-04-25T17:29:44.001Z</time></trkpt><trkpt lat="36.80513173365745" lon="-108.12916594563207"><ele>1784.0</ele><time>2026-04-25T17:29:45.001Z</time></trkpt><trkpt lat="36.805060293956195" lon="-108.12926678749778"><ele>1782.8333333333333</ele><time>2026-04-25T17:29:47.001Z</time></trkpt><trkpt lat="36.80504684934942" lon="-108.12936944499934"><ele>1781.6666666666665</ele><time>2026-04-25T17:29:48.001Z</time></trkpt><trkpt lat="36.80501808316911" lon="-108.1295038701736"><ele>1780.5</ele><time>2026-04-25T17:29:49.001Z</time></trkpt><trkpt lat="36.8049706649446" lon="-108.12961625174675"><ele>1779.3333333333335</ele><time>2026-04-25T17:29:50.001Z</time></trkpt><trkpt lat="36.80494060845431" lon="-108.12969349669987"><ele>1778.1666666666667</ele><time>2026-04-25T17:29:51.001Z</time></trkpt><trkpt lat="36.80494678126102" lon="-108.1297739609436"><ele>1777.0</ele><time>2026-04-25T17:29:52.001Z</time></trkpt><trkpt lat="36.80500971658359" lon="-108.12989854077989"><ele>1776.75</ele><time>2026-04-25T17:29:53.001Z</time></trkpt><trkpt lat="36.804994394931974" lon="-108.13005985805317"><ele>1776.5</ele><time>2026-04-25T17:29:54.001Z</time></trkpt><trkpt lat="36.80500693187305" lon="-108.13023309845387"><ele>1776.25</ele><time>2026-04-25T17:29:55.001Z</time></trkpt><trkpt lat="36.80501134263635" lon="-108.13041642923876"><ele>1776.0</ele><time>2026-04-25T17:29:56.001Z</time></trkpt><trkpt lat="36.80500715031999" lon="-108.13061234776411"><ele>1776.3333333333335</ele><time>2026-04-25T17:29:57.001Z</time></trkpt><trkpt lat="36.80500240599467" lon="-108.13081262366639"><ele>1776.6666666666667</ele><time>2026-04-25T17:29:58.001Z</time></trkpt><trkpt lat="36.80500137105884" lon="-108.13101539848722"><ele>1777.0</ele><time>2026-04-25T17:29:59.001Z</time></trkpt><trkpt lat="36.80500176205992" lon="-108.13120130877996"><ele>1777.0</ele><time>2026-04-25T17:30:00.001Z</time></trkpt><trkpt lat="36.804997819965834" lon="-108.13137000398817"><ele>1777.0</ele><time>2026-04-25T17:30:01.001Z</time></trkpt><trkpt lat="36.80499706988877" lon="-108.13154421466295"><ele>1777.0</ele><time>2026-04-25T17:30:02.001Z</time></trkpt><trkpt lat="36.80499869467913" lon="-108.13172495004085"><ele>1777.0</ele><time>2026-04-25T17:30:03.001Z</time></trkpt><trkpt lat="36.80499946747197" lon="-108.1319110852974"><ele>1777.25</ele><time>2026-04-25T17:30:04.001Z</time></trkpt><trkpt lat="36.805000824341136" lon="-108.13209854636428"><ele>1777.5</ele><time>2026-04-25T17:30:05.001Z</time></trkpt><trkpt lat="36.80500062582918" lon="-108.1322801257323"><ele>1777.75</ele><time>2026-04-25T17:30:06.001Z</time></trkpt><trkpt lat="36.80499784932114" lon="-108.1324350574844"><ele>1778.0</ele><time>2026-04-25T17:30:07.001Z</time></trkpt><trkpt lat="36.804995787256956" lon="-108.13257453762357"><ele>1778.8000000000002</ele><time>2026-04-25T17:30:08.001Z</time></trkpt><trkpt lat="36.80497967217596" lon="-108.13267865897502"><ele>1779.6000000000001</ele><time>2026-04-25T17:30:09.001Z</time></trkpt><trkpt lat="36.80492009000832" lon="-108.13273925833722"><ele>1780.3999999999999</ele><time>2026-04-25T17:30:10.001Z</time></trkpt><trkpt lat="36.80483581844523" lon="-108.13279053537664"><ele>1781.1999999999998</ele><time>2026-04-25T17:30:11.001Z</time></trkpt><trkpt lat="36.80472595721782" lon="-108.13280327337604"><ele>1782.0</ele><time>2026-04-25T17:30:12.001Z</time></trkpt><trkpt lat="36.804596735407074" lon="-108.13280013234983"><ele>1782.0</ele><time>2026-04-25T17:30:13.001Z</time></trkpt><trkpt lat="36.804457231658915" lon="-108.1328018462696"><ele>1782.0</ele><time>2026-04-25T17:30:14.001Z</time></trkpt><trkpt lat="36.804307685111795" lon="-108.13280365193008"><ele>1782.0</ele><time>2026-04-25T17:30:15Z</time></trkpt><trkpt lat="36.804152088853854" lon="-108.13280621950513"><ele>1782.0</ele><time>2026-04-25T17:30:16Z</time></trkpt><trkpt lat="36.80398587884599" lon="-108.1328139330823"><ele>1781.6666666666665</ele><time>2026-04-25T17:30:17Z</time></trkpt><trkpt lat="36.80381307071688" lon="-108.13282324901799"><ele>1781.3333333333333</ele><time>2026-04-25T17:30:18Z</time></trkpt><trkpt lat="36.80363745422868" lon="-108.1328308244851"><ele>1781.0</ele><time>2026-04-25T17:30:19Z</time></trkpt><trkpt lat="36.803480386659615" lon="-108.13283498101822"><ele>1779.3333333333333</ele><time>2026-04-25T17:30:20Z</time></trkpt><trkpt lat="36.80332942348179" lon="-108.13283879646994"><ele>1777.6666666666665</ele><time>2026-04-25T17:30:21Z</time></trkpt><trkpt lat="36.80316774327148" lon="-108.1328441975365"><ele>1776.0</ele><time>2026-04-25T17:30:22Z</time></trkpt><trkpt lat="36.80300225459203" lon="-108.13284591885534"><ele>1776.0</ele><time>2026-04-25T17:30:23Z</time></trkpt><trkpt lat="36.80284026238385" lon="-108.13284888572663"><ele>1776.0</ele><time>2026-04-25T17:30:24Z</time></trkpt><trkpt lat="36.802679541204824" lon="-108.13285513861742"><ele>1776.0</ele><time>2026-04-25T17:30:25Z</time></trkpt><trkpt lat="36.802535036909404" lon="-108.13286273121825"><ele>1775.5</ele><time>2026-04-25T17:30:26Z</time></trkpt><trkpt lat="36.80240130995403" lon="-108.13288033001403"><ele>1775.0</ele><time>2026-04-25T17:30:27Z</time></trkpt><trkpt lat="36.80227277601961" lon="-108.1329048917834"><ele>1774.5</ele><time>2026-04-25T17:30:28Z</time></trkpt><trkpt lat="36.8021615502717" lon="-108.13295015619093"><ele>1774.0</ele><time>2026-04-25T17:30:29Z</time></trkpt><trkpt lat="36.8020737351544" lon="-108.13302713702733"><ele>1774.0</ele><time>2026-04-25T17:30:30Z</time></trkpt><trkpt lat="36.801999004486596" lon="-108.13310578177749"><ele>1774.0</ele><time>2026-04-25T17:30:31Z</time></trkpt><trkpt lat="36.80193885509711" lon="-108.13316108168308"><ele>1774.0</ele><time>2026-04-25T17:30:32Z</time></trkpt><trkpt lat="36.801853264073095" lon="-108.13322943614439"><ele>1774.0</ele><time>2026-04-25T17:30:34Z</time></trkpt><trkpt lat="36.80196070271495" lon="-108.13341410325881"><ele>1774.25</ele><time>2026-04-25T17:30:36Z</time></trkpt><trkpt lat="36.80202844567014" lon="-108.13353792719856"><ele>1774.5</ele><time>2026-04-25T17:30:37Z</time></trkpt><trkpt lat="36.80208610836272" lon="-108.13368124559071"><ele>1774.75</ele><time>2026-04-25T17:30:38Z</time></trkpt><trkpt lat="36.802151269360294" lon="-108.13383235476965"><ele>1775.0</ele><time>2026-04-25T17:30:39Z</time></trkpt><trkpt lat="36.80220389241906" lon="-108.13399889358026"><ele>1776.3333333333333</ele><time>2026-04-25T17:30:40Z</time></trkpt><trkpt lat="36.802247005433905" lon="-108.13418362340462"><ele>1777.6666666666665</ele><time>2026-04-25T17:30:41Z</time></trkpt><trkpt lat="36.80226774153469" lon="-108.13438509271612"><ele>1779.0</ele><time>2026-04-25T17:30:42Z</time></trkpt><trkpt lat="36.80226961198431" lon="-108.13459589505504"><ele>1779.0</ele><time>2026-04-25T17:30:43Z</time></trkpt><trkpt lat="36.80226588612111" lon="-108.13480727075452"><ele>1779.0</ele><time>2026-04-25T17:30:44Z</time></trkpt><trkpt lat="36.80226454836525" lon="-108.13500102200449"><ele>1779.0</ele><time>2026-04-25T17:30:45Z</time></trkpt><trkpt lat="36.80226464712476" lon="-108.13519035967634"><ele>1779.3333333333335</ele><time>2026-04-25T17:30:46Z</time></trkpt><trkpt lat="36.80226328954488" lon="-108.13539817237202"><ele>1779.6666666666667</ele><time>2026-04-25T17:30:47Z</time></trkpt><trkpt lat="36.802260491438375" lon="-108.13561691812198"><ele>1780.0</ele><time>2026-04-25T17:30:48Z</time></trkpt><trkpt lat="36.802258200263346" lon="-108.1358302410317"><ele>1779.0</ele><time>2026-04-25T17:30:49Z</time></trkpt><trkpt lat="36.80225831955612" lon="-108.13604153487745"><ele>1778.0</ele><time>2026-04-25T17:30:50Z</time></trkpt><trkpt lat="36.80226204550413" lon="-108.13626022457747"><ele>1777.0</ele><time>2026-04-25T17:30:51Z</time></trkpt><trkpt lat="36.80226710100361" lon="-108.13647428507767"><ele>1775.6666666666667</ele><time>2026-04-25T17:30:52Z</time></trkpt><trkpt lat="36.802269273935366" lon="-108.13666306901975"><ele>1774.3333333333335</ele><time>2026-04-25T17:30:53Z</time></trkpt><trkpt lat="36.80226946969365" lon="-108.13686196427551"><ele>1773.0</ele><time>2026-04-25T17:30:54Z</time></trkpt><trkpt lat="36.80226762769489" lon="-108.13707301315608"><ele>1773.0</ele><time>2026-04-25T17:30:55Z</time></trkpt><trkpt lat="36.80226478900419" lon="-108.13728779848451"><ele>1773.0</ele><time>2026-04-25T17:30:56Z</time></trkpt><trkpt lat="36.802265176046156" lon="-108.13749663204437"><ele>1773.0</ele><time>2026-04-25T17:30:57Z</time></trkpt><trkpt lat="36.80226326686022" lon="-108.13767765847567"><ele>1772.75</ele><time>2026-04-25T17:30:58Z</time></trkpt><trkpt lat="36.80226114933116" lon="-108.13784764232274"><ele>1772.5</ele><time>2026-04-25T17:30:59Z</time></trkpt><trkpt lat="36.80226376706761" lon="-108.13803040206632"><ele>1772.25</ele><time>2026-04-25T17:31:00Z</time></trkpt><trkpt lat="36.80226067858864" lon="-108.1382075100704"><ele>1772.0</ele><time>2026-04-25T17:31:01Z</time></trkpt><trkpt lat="36.80225924031619" lon="-108.1383588562474"><ele>1772.3333333333333</ele><time>2026-04-25T17:31:02Z</time></trkpt><trkpt lat="36.80226397629198" lon="-108.13848105446372"><ele>1772.6666666666665</ele><time>2026-04-25T17:31:03Z</time></trkpt><trkpt lat="36.802277999891224" lon="-108.13858946778674"><ele>1773.0</ele><time>2026-04-25T17:31:04Z</time></trkpt><trkpt lat="36.80229498053055" lon="-108.13868421405218"><ele>1773.3333333333335</ele><time>2026-04-25T17:31:05Z</time></trkpt><trkpt lat="36.80228668018631" lon="-108.13879365806596"><ele>1773.6666666666667</ele><time>2026-04-25T17:31:06Z</time></trkpt><trkpt lat="36.80232322891167" lon="-108.13886727686435"><ele>1774.0</ele><time>2026-04-25T17:31:07Z</time></trkpt><trkpt lat="36.80234241310931" lon="-108.13899453962635"><ele>1774.0</ele><time>2026-04-25T17:31:09Z</time></trkpt><trkpt lat="36.80212958378426" lon="-108.13893525660978"><ele>1774.0</ele><time>2026-04-25T17:31:12Z</time></trkpt><trkpt lat="36.80204448262522" lon="-108.13895669078596"><ele>1774.0</ele><time>2026-04-25T17:31:13Z</time></trkpt><trkpt lat="36.80194271824699" lon="-108.13894079466552"><ele>1774.0</ele><time>2026-04-25T17:31:14Z</time></trkpt><trkpt lat="36.801820877416375" lon="-108.13894452622705"><ele>1774.0</ele><time>2026-04-25T17:31:15Z</time></trkpt><trkpt lat="36.80169471424342" lon="-108.13895327537793"><ele>1774.0</ele><time>2026-04-25T17:31:16Z</time></trkpt><trkpt lat="36.80155782856906" lon="-108.13895767577065"><ele>1774.0</ele><time>2026-04-25T17:31:17Z</time></trkpt><trkpt lat="36.80140566822388" lon="-108.13896059640311"><ele>1774.0</ele><time>2026-04-25T17:31:18Z</time></trkpt><trkpt lat="36.80124484451654" lon="-108.13896369367353"><ele>1774.0</ele><time>2026-04-25T17:31:19Z</time></trkpt><trkpt lat="36.80106686136411" lon="-108.13897049067332"><ele>1774.0</ele><time>2026-04-25T17:31:20Z</time></trkpt><trkpt lat="36.8008871042803" lon="-108.13897871725347"><ele>1774.0</ele><time>2026-04-25T17:31:21Z</time></trkpt><trkpt lat="36.80072579250782" lon="-108.13898162495369"><ele>1773.3333333333335</ele><time>2026-04-25T17:31:22Z</time></trkpt><trkpt lat="36.80057233006612" lon="-108.13898381287227"><ele>1772.6666666666665</ele><time>2026-04-25T17:31:23Z</time></trkpt><trkpt lat="36.800407230720985" lon="-108.1389906064015"><ele>1772.0</ele><time>2026-04-25T17:31:24Z</time></trkpt><trkpt lat="36.80023188730011" lon="-108.13899354156175"><ele>1770.6666666666665</ele><time>2026-04-25T17:31:25Z</time></trkpt><trkpt lat="36.80005944073792" lon="-108.13899700733849"><ele>1769.3333333333335</ele><time>2026-04-25T17:31:26Z</time></trkpt><trkpt lat="36.79988607372296" lon="-108.13898598020432"><ele>1768.0</ele><time>2026-04-25T17:31:27Z</time></trkpt><trkpt lat="36.79972144046913" lon="-108.13898963979216"><ele>1768.0</ele><time>2026-04-25T17:31:28Z</time></trkpt><trkpt lat="36.79956630259381" lon="-108.13899308830914"><ele>1768.0</ele><time>2026-04-25T17:31:29Z</time></trkpt><trkpt lat="36.79941870175265" lon="-108.13899636928568"><ele>1768.0</ele><time>2026-04-25T17:31:30Z</time></trkpt><trkpt lat="36.79926236725154" lon="-108.13899984439985"><ele>1767.6666666666667</ele><time>2026-04-25T17:31:31Z</time></trkpt><trkpt lat="36.79909920384086" lon="-108.13900347131106"><ele>1767.3333333333335</ele><time>2026-04-25T17:31:32Z</time></trkpt><trkpt lat="36.79893396611014" lon="-108.13900697129853"><ele>1767.0</ele><time>2026-04-25T17:31:33Z</time></trkpt><trkpt lat="36.798767772189244" lon="-108.13901014082938"><ele>1767.0</ele><time>2026-04-25T17:31:34Z</time></trkpt><trkpt lat="36.79860027351238" lon="-108.13901333524775"><ele>1767.0</ele><time>2026-04-25T17:31:35Z</time></trkpt><trkpt lat="36.7984318190172" lon="-108.13901654789858"><ele>1767.0</ele><time>2026-04-25T17:31:36Z</time></trkpt><trkpt lat="36.798260783636835" lon="-108.1390198097713"><ele>1766.3333333333335</ele><time>2026-04-25T17:31:37.001Z</time></trkpt><trkpt lat="36.798090938017566" lon="-108.13902304901076"><ele>1765.6666666666667</ele><time>2026-04-25T17:31:38.001Z</time></trkpt><trkpt lat="36.797936760475594" lon="-108.13902737233508"><ele>1765.0</ele><time>2026-04-25T17:31:39.001Z</time></trkpt><trkpt lat="36.79778060221699" lon="-108.13905188298891"><ele>1765.3333333333335</ele><time>2026-04-25T17:31:40.001Z</time></trkpt><trkpt lat="36.797609785618626" lon="-108.1390551639973"><ele>1765.6666666666665</ele><time>2026-04-25T17:31:41.001Z</time></trkpt><trkpt lat="36.79742901655687" lon="-108.13903887640049"><ele>1766.0</ele><time>2026-04-25T17:31:42.001Z</time></trkpt><trkpt lat="36.797241900969624" lon="-108.13904271593938"><ele>1766.0</ele><time>2026-04-25T17:31:43.001Z</time></trkpt><trkpt lat="36.797050019421384" lon="-108.13904665327107"><ele>1766.0</ele><time>2026-04-25T17:31:44.001Z</time></trkpt><trkpt lat="36.79686510149733" lon="-108.13905044771559"><ele>1766.0</ele><time>2026-04-25T17:31:45.001Z</time></trkpt><trkpt lat="36.796696828951895" lon="-108.13905375520467"><ele>1765.6666666666665</ele><time>2026-04-25T17:31:46.001Z</time></trkpt><trkpt lat="36.79651601987824" lon="-108.13905720732491"><ele>1765.3333333333335</ele><time>2026-04-25T17:31:47.001Z</time></trkpt><trkpt lat="36.796330927015745" lon="-108.13906041981605"><ele>1765.0</ele><time>2026-04-25T17:31:48.001Z</time></trkpt><trkpt lat="36.796145559131276" lon="-108.13906363707866"><ele>1763.0</ele><time>2026-04-25T17:31:49.001Z</time></trkpt><trkpt lat="36.795973262624614" lon="-108.13906662746884"><ele>1761.0</ele><time>2026-04-25T17:31:50.001Z</time></trkpt><trkpt lat="36.795806356439044" lon="-108.13906944700005"><ele>1759.0</ele><time>2026-04-25T17:31:51.001Z</time></trkpt><trkpt lat="36.79562561245583" lon="-108.13907245633638"><ele>1759.0</ele><time>2026-04-25T17:31:52.001Z</time></trkpt><trkpt lat="36.795448067540235" lon="-108.1390754124025"><ele>1759.0</ele><time>2026-04-25T17:31:53.001Z</time></trkpt><trkpt lat="36.7952771916598" lon="-108.1390782574343"><ele>1759.0</ele><time>2026-04-25T17:31:54.001Z</time></trkpt><trkpt lat="36.79509947482393" lon="-108.1391002105574"><ele>1759.0</ele><time>2026-04-25T17:31:55.001Z</time></trkpt><trkpt lat="36.79492225175627" lon="-108.1390926495483"><ele>1759.0</ele><time>2026-04-25T17:31:56.001Z</time></trkpt><trkpt lat="36.79474584015984" lon="-108.1390893875412"><ele>1759.0</ele><time>2026-04-25T17:31:57.001Z</time></trkpt><trkpt lat="36.794569260538644" lon="-108.13909309953723"><ele>1759.0</ele><time>2026-04-25T17:31:58.001Z</time></trkpt><trkpt lat="36.7943907728892" lon="-108.13909654750945"><ele>1759.0</ele><time>2026-04-25T17:31:59.001Z</time></trkpt><trkpt lat="36.794210542372504" lon="-108.13909635109624"><ele>1759.0</ele><time>2026-04-25T17:32:00.001Z</time></trkpt><trkpt lat="36.79402955337356" lon="-108.13909778977686"><ele>1759.0</ele><time>2026-04-25T17:32:01.001Z</time></trkpt><trkpt lat="36.79385961639055" lon="-108.1391017987418"><ele>1759.0</ele><time>2026-04-25T17:32:02.001Z</time></trkpt><trkpt lat="36.79368929831221" lon="-108.13910580301474"><ele>1759.0</ele><time>2026-04-25T17:32:03.001Z</time></trkpt><trkpt lat="36.793510810390515" lon="-108.13911071910006"><ele>1759.0</ele><time>2026-04-25T17:32:04.001Z</time></trkpt><trkpt lat="36.79333014907519" lon="-108.13911504758943"><ele>1759.0</ele><time>2026-04-25T17:32:05.001Z</time></trkpt><trkpt lat="36.79315033539294" lon="-108.13911942556807"><ele>1759.0</ele><time>2026-04-25T17:32:06.001Z</time></trkpt><trkpt lat="36.79296979994396" lon="-108.13912304492797"><ele>1759.0</ele><time>2026-04-25T17:32:07.001Z</time></trkpt><trkpt lat="36.792802712289394" lon="-108.1391262944296"><ele>1759.0</ele><time>2026-04-25T17:32:08.001Z</time></trkpt><trkpt lat="36.792637236675866" lon="-108.13912854315325"><ele>1759.0</ele><time>2026-04-25T17:32:09.001Z</time></trkpt><trkpt lat="36.79246291365251" lon="-108.1391335318047"><ele>1758.6666666666667</ele><time>2026-04-25T17:32:10.001Z</time></trkpt><trkpt lat="36.792285770848636" lon="-108.13913798356663"><ele>1758.3333333333335</ele><time>2026-04-25T17:32:11.001Z</time></trkpt><trkpt lat="36.79212431602485" lon="-108.13914121365089"><ele>1758.0</ele><time>2026-04-25T17:32:12.001Z</time></trkpt><trkpt lat="36.7919829212442" lon="-108.13914178498204"><ele>1758.0</ele><time>2026-04-25T17:32:13.001Z</time></trkpt><trkpt lat="36.79186701667057" lon="-108.13914198410818"><ele>1758.0000000000002</ele><time>2026-04-25T17:32:14.001Z</time></trkpt><trkpt lat="36.7917630922917" lon="-108.13914574596876"><ele>1758.0000000000002</ele><time>2026-04-25T17:32:15.001Z</time></trkpt><trkpt lat="36.79168642527217" lon="-108.13912107978797"><ele>1758.0</ele><time>2026-04-25T17:32:16.001Z</time></trkpt><trkpt lat="36.79160279834206" lon="-108.13914052720594"><ele>1758.0</ele><time>2026-04-25T17:32:18.001Z</time></trkpt><trkpt lat="36.79153712678962" lon="-108.13921371645091"><ele>1757.3333333333333</ele><time>2026-04-25T17:32:20.001Z</time></trkpt><trkpt lat="36.79143111020971" lon="-108.1392588975757"><ele>1756.6666666666665</ele><time>2026-04-25T17:32:22Z</time></trkpt><trkpt lat="36.791360555845934" lon="-108.13923824016628"><ele>1756.0</ele><time>2026-04-25T17:32:23Z</time></trkpt><trkpt lat="36.79129020350607" lon="-108.13919312707128"><ele>1755.3333333333333</ele><time>2026-04-25T17:32:24Z</time></trkpt><trkpt lat="36.791225171142344" lon="-108.13914770201764"><ele>1754.6666666666665</ele><time>2026-04-25T17:32:25Z</time></trkpt><trkpt lat="36.791142958622046" lon="-108.1391247573634"><ele>1754.0</ele><time>2026-04-25T17:32:26Z</time></trkpt><trkpt lat="36.791048989512774" lon="-108.13912195816664"><ele>1753.0</ele><time>2026-04-25T17:32:27Z</time></trkpt><trkpt lat="36.79094893732674" lon="-108.13913806402452"><ele>1752.0</ele><time>2026-04-25T17:32:28Z</time></trkpt><trkpt lat="36.79084237818712" lon="-108.13915396710765"><ele>1751.0</ele><time>2026-04-25T17:32:29Z</time></trkpt><trkpt lat="36.79073873632923" lon="-108.13915167133466"><ele>1750.0</ele><time>2026-04-25T17:32:30Z</time></trkpt><trkpt lat="36.790633942134136" lon="-108.13914739311593"><ele>1749.0</ele><time>2026-04-25T17:32:31Z</time></trkpt><trkpt lat="36.7905221948201" lon="-108.13915146098918"><ele>1749.0</ele><time>2026-04-25T17:32:32Z</time></trkpt><trkpt lat="36.790412284527385" lon="-108.13915532415281"><ele>1749.0</ele><time>2026-04-25T17:32:33Z</time></trkpt><trkpt lat="36.79030198970513" lon="-108.13915694695824"><ele>1749.0</ele><time>2026-04-25T17:32:34Z</time></trkpt><trkpt lat="36.79019119042922" lon="-108.13915745299899"><ele>1749.0</ele><time>2026-04-25T17:32:35Z</time></trkpt><trkpt lat="36.79007988697738" lon="-108.13915717144312"><ele>1749.0</ele><time>2026-04-25T17:32:36Z</time></trkpt><trkpt lat="36.789968467264046" lon="-108.13916021571781"><ele>1747.75</ele><time>2026-04-25T17:32:37Z</time></trkpt><trkpt lat="36.78985513881062" lon="-108.13916516461873"><ele>1746.5</ele><time>2026-04-25T17:32:38Z</time></trkpt><trkpt lat="36.78973351073347" lon="-108.13916561092724"><ele>1745.25</ele><time>2026-04-25T17:32:39Z</time></trkpt><trkpt lat="36.7896032079256" lon="-108.13916543194351"><ele>1744.0</ele><time>2026-04-25T17:32:40Z</time></trkpt><trkpt lat="36.78947193058403" lon="-108.13916399793663"><ele>1744.0</ele><time>2026-04-25T17:32:41Z</time></trkpt><trkpt lat="36.789353422512086" lon="-108.13916326671004"><ele>1744.0</ele><time>2026-04-25T17:32:42Z</time></trkpt><trkpt lat="36.78923134264425" lon="-108.13916622261685"><ele>1744.0</ele><time>2026-04-25T17:32:43Z</time></trkpt><trkpt lat="36.78911697013069" lon="-108.13917042601646"><ele>1744.0</ele><time>2026-04-25T17:32:44Z</time></trkpt><trkpt lat="36.78901223740905" lon="-108.13917170770398"><ele>1742.8000000000002</ele><time>2026-04-25T17:32:45Z</time></trkpt><trkpt lat="36.788912164448625" lon="-108.1391686425699"><ele>1741.6000000000001</ele><time>2026-04-25T17:32:46Z</time></trkpt><trkpt lat="36.78881280411806" lon="-108.13917101510748"><ele>1740.4</ele><time>2026-04-25T17:32:47Z</time></trkpt><trkpt lat="36.78869807444605" lon="-108.13917480260912"><ele>1739.2</ele><time>2026-04-25T17:32:48Z</time></trkpt><trkpt lat="36.78857288926693" lon="-108.13917466673003"><ele>1738.0</ele><time>2026-04-25T17:32:49Z</time></trkpt><trkpt lat="36.78843770926318" lon="-108.13917655358168"><ele>1737.5</ele><time>2026-04-25T17:32:50Z</time></trkpt><trkpt lat="36.788295799616385" lon="-108.13917733642961"><ele>1737.0</ele><time>2026-04-25T17:32:51Z</time></trkpt><trkpt lat="36.78814853355569" lon="-108.1391779243058"><ele>1736.5</ele><time>2026-04-25T17:32:52Z</time></trkpt><trkpt lat="36.788002960854136" lon="-108.13918247216431"><ele>1736.0</ele><time>2026-04-25T17:32:53Z</time></trkpt><trkpt lat="36.78786684293187" lon="-108.13918554157807"><ele>1736.0</ele><time>2026-04-25T17:32:54Z</time></trkpt><trkpt lat="36.787713652567554" lon="-108.13918436663933"><ele>1736.0</ele><time>2026-04-25T17:32:55Z</time></trkpt><trkpt lat="36.787548762226024" lon="-108.13918634452166"><ele>1736.0</ele><time>2026-04-25T17:32:56Z</time></trkpt><trkpt lat="36.78737729172315" lon="-108.13919243616232"><ele>1735.3333333333333</ele><time>2026-04-25T17:32:57Z</time></trkpt><trkpt lat="36.78720171359363" lon="-108.13919847558056"><ele>1734.6666666666665</ele><time>2026-04-25T17:32:58Z</time></trkpt><trkpt lat="36.78702582531337" lon="-108.13920297432975"><ele>1734.0</ele><time>2026-04-25T17:32:59Z</time></trkpt><trkpt lat="36.7868527439695" lon="-108.1392059521555"><ele>1733.0</ele><time>2026-04-25T17:33:00Z</time></trkpt><trkpt lat="36.786695848801735" lon="-108.13920802603828"><ele>1732.0</ele><time>2026-04-25T17:33:01Z</time></trkpt><trkpt lat="36.78653434940159" lon="-108.13920900801514"><ele>1731.0</ele><time>2026-04-25T17:33:02Z</time></trkpt><trkpt lat="36.78636589477246" lon="-108.13921264474969"><ele>1731.0</ele><time>2026-04-25T17:33:03Z</time></trkpt><trkpt lat="36.786188782241865" lon="-108.13921752881524"><ele>1731.0</ele><time>2026-04-25T17:33:04Z</time></trkpt><trkpt lat="36.7860095171945" lon="-108.13921892197403"><ele>1731.0</ele><time>2026-04-25T17:33:05Z</time></trkpt><trkpt lat="36.78583119385102" lon="-108.13922073095442"><ele>1730.3333333333335</ele><time>2026-04-25T17:33:06Z</time></trkpt><trkpt lat="36.785657060283306" lon="-108.13922517241582"><ele>1729.6666666666667</ele><time>2026-04-25T17:33:07Z</time></trkpt><trkpt lat="36.78548436786407" lon="-108.13922625450002"><ele>1729.0</ele><time>2026-04-25T17:33:08Z</time></trkpt><trkpt lat="36.7853247734086" lon="-108.13922718805101"><ele>1727.6666666666667</ele><time>2026-04-25T17:33:09Z</time></trkpt><trkpt lat="36.78516242203042" lon="-108.13922849405293"><ele>1726.3333333333335</ele><time>2026-04-25T17:33:10Z</time></trkpt><trkpt lat="36.7849918675565" lon="-108.13923037859095"><ele>1725.0</ele><time>2026-04-25T17:33:11Z</time></trkpt><trkpt lat="36.78481618043168" lon="-108.13923643857994"><ele>1725.0</ele><time>2026-04-25T17:33:12Z</time></trkpt><trkpt lat="36.784639310346506" lon="-108.1392408177015"><ele>1725.0</ele><time>2026-04-25T17:33:13Z</time></trkpt><trkpt lat="36.78446355938537" lon="-108.13924010436052"><ele>1725.0</ele><time>2026-04-25T17:33:14Z</time></trkpt><trkpt lat="36.7843010004589" lon="-108.13923974792651"><ele>1723.6666666666665</ele><time>2026-04-25T17:33:15Z</time></trkpt><trkpt lat="36.784136320865606" lon="-108.13924511852217"><ele>1722.3333333333333</ele><time>2026-04-25T17:33:16Z</time></trkpt><trkpt lat="36.783977410101585" lon="-108.13925036419268"><ele>1721.0</ele><time>2026-04-25T17:33:17Z</time></trkpt><trkpt lat="36.783823620808455" lon="-108.13925384082889"><ele>1721.0</ele><time>2026-04-25T17:33:18Z</time></trkpt><trkpt lat="36.78367468397429" lon="-108.13925893135014"><ele>1721.0</ele><time>2026-04-25T17:33:19Z</time></trkpt><trkpt lat="36.78352037622728" lon="-108.13926237522428"><ele>1721.0</ele><time>2026-04-25T17:33:20Z</time></trkpt><trkpt lat="36.783349826871984" lon="-108.13926193408138"><ele>1720.3333333333333</ele><time>2026-04-25T17:33:21Z</time></trkpt><trkpt lat="36.78317343244513" lon="-108.13926325506873"><ele>1719.6666666666665</ele><time>2026-04-25T17:33:22Z</time></trkpt><trkpt lat="36.78299367806063" lon="-108.13926701550272"><ele>1719.0</ele><time>2026-04-25T17:33:23Z</time></trkpt><trkpt lat="36.78281298030209" lon="-108.13926914471243"><ele>1718.0</ele><time>2026-04-25T17:33:24Z</time></trkpt><trkpt lat="36.78264871961607" lon="-108.13926734141727"><ele>1717.0</ele><time>2026-04-25T17:33:25Z</time></trkpt><trkpt lat="36.78248563319585" lon="-108.13926563356262"><ele>1716.0</ele><time>2026-04-25T17:33:26Z</time></trkpt><trkpt lat="36.7823128626724" lon="-108.13926661229853"><ele>1716.0</ele><time>2026-04-25T17:33:27Z</time></trkpt><trkpt lat="36.78213776932538" lon="-108.1392691813933"><ele>1716.0</ele><time>2026-04-25T17:33:28Z</time></trkpt><trkpt lat="36.78196387544942" lon="-108.1392751587628"><ele>1716.0</ele><time>2026-04-25T17:33:29Z</time></trkpt><trkpt lat="36.781791163015136" lon="-108.13927740206984"><ele>1715.0</ele><time>2026-04-25T17:33:30Z</time></trkpt><trkpt lat="36.78162000286392" lon="-108.13927491048882"><ele>1714.0</ele><time>2026-04-25T17:33:31Z</time></trkpt><trkpt lat="36.78145539922592" lon="-108.13927324834067"><ele>1713.0</ele><time>2026-04-25T17:33:32Z</time></trkpt><trkpt lat="36.781289987443905" lon="-108.13927451701475"><ele>1713.0</ele><time>2026-04-25T17:33:33Z</time></trkpt><trkpt lat="36.781117816063954" lon="-108.1392785466903"><ele>1713.0</ele><time>2026-04-25T17:33:34Z</time></trkpt><trkpt lat="36.78094968841588" lon="-108.13928110131756"><ele>1713.0</ele><time>2026-04-25T17:33:35Z</time></trkpt><trkpt lat="36.780797502246564" lon="-108.1392810234389"><ele>1711.0</ele><time>2026-04-25T17:33:36Z</time></trkpt><trkpt lat="36.780635668180444" lon="-108.13928004805236"><ele>1709.0</ele><time>2026-04-25T17:33:37Z</time></trkpt><trkpt lat="36.7804665483135" lon="-108.1392831779696"><ele>1707.0</ele><time>2026-04-25T17:33:38Z</time></trkpt><trkpt lat="36.78029527152912" lon="-108.13928735584346"><ele>1706.6666666666665</ele><time>2026-04-25T17:33:39Z</time></trkpt><trkpt lat="36.78012267408608" lon="-108.13929242469598"><ele>1706.3333333333333</ele><time>2026-04-25T17:33:40Z</time></trkpt><trkpt lat="36.77995768773275" lon="-108.13929836711557"><ele>1706.0</ele><time>2026-04-25T17:33:41Z</time></trkpt><trkpt lat="36.77979115742641" lon="-108.13930089887106"><ele>1706.0</ele><time>2026-04-25T17:33:42Z</time></trkpt><trkpt lat="36.77961635692474" lon="-108.13930228538561"><ele>1706.0</ele><time>2026-04-25T17:33:43Z</time></trkpt><trkpt lat="36.779440073739146" lon="-108.13930526492967"><ele>1706.0</ele><time>2026-04-25T17:33:44Z</time></trkpt><trkpt lat="36.77926933832251" lon="-108.13930952100814"><ele>1705.3333333333333</ele><time>2026-04-25T17:33:45.001Z</time></trkpt><trkpt lat="36.77911267524659" lon="-108.13931192544361"><ele>1704.6666666666665</ele><time>2026-04-25T17:33:46.001Z</time></trkpt><trkpt lat="36.7789515996515" lon="-108.13931291997206"><ele>1704.0</ele><time>2026-04-25T17:33:47.001Z</time></trkpt><trkpt lat="36.77878288677287" lon="-108.13931045914728"><ele>1704.0</ele><time>2026-04-25T17:33:48.001Z</time></trkpt><trkpt lat="36.77861291303187" lon="-108.13931401925862"><ele>1704.0</ele><time>2026-04-25T17:33:49.001Z</time></trkpt><trkpt lat="36.778439705904916" lon="-108.13931780874113"><ele>1704.0</ele><time>2026-04-25T17:33:50.001Z</time></trkpt><trkpt lat="36.77827449178247" lon="-108.13931995710752"><ele>1703.75</ele><time>2026-04-25T17:33:51.001Z</time></trkpt><trkpt lat="36.778125340922244" lon="-108.13932162488021"><ele>1703.5</ele><time>2026-04-25T17:33:52.001Z</time></trkpt><trkpt lat="36.77798673464526" lon="-108.13931814982317"><ele>1703.25</ele><time>2026-04-25T17:33:53.001Z</time></trkpt><trkpt lat="36.777841158958815" lon="-108.13931921087179"><ele>1703.0</ele><time>2026-04-25T17:33:54.001Z</time></trkpt><trkpt lat="36.77768564540793" lon="-108.13931856201155"><ele>1702.0</ele><time>2026-04-25T17:33:55.001Z</time></trkpt><trkpt lat="36.777534837128776" lon="-108.13931691758643"><ele>1701.0</ele><time>2026-04-25T17:33:56.001Z</time></trkpt><trkpt lat="36.77740478849899" lon="-108.13931509495659"><ele>1700.0</ele><time>2026-04-25T17:33:57.001Z</time></trkpt><trkpt lat="36.777284561600936" lon="-108.13931137765455"><ele>1699.0</ele><time>2026-04-25T17:33:58.001Z</time></trkpt><trkpt lat="36.7771775239465" lon="-108.1393080530463"><ele>1699.0</ele><time>2026-04-25T17:33:59.001Z</time></trkpt><trkpt lat="36.7770886491073" lon="-108.13930353048876"><ele>1699.0</ele><time>2026-04-25T17:34:00.001Z</time></trkpt><trkpt lat="36.77701394057888" lon="-108.13928930350934"><ele>1699.0</ele><time>2026-04-25T17:34:01.001Z</time></trkpt><trkpt lat="36.77692140174168" lon="-108.13926112990742"><ele>1699.0</ele><time>2026-04-25T17:34:03.001Z</time></trkpt><trkpt lat="36.77690576093612" lon="-108.13900907681177"><ele>1699.0</ele><time>2026-04-25T17:34:04.001Z</time></trkpt><trkpt lat="36.77689921177734" lon="-108.13886204692048"><ele>1699.0</ele><time>2026-04-25T17:34:05.001Z</time></trkpt><trkpt lat="36.77689655341958" lon="-108.13871670141033"><ele>1699.0</ele><time>2026-04-25T17:34:06.001Z</time></trkpt><trkpt lat="36.77689179256709" lon="-108.13859087631383"><ele>1699.0</ele><time>2026-04-25T17:34:07.001Z</time></trkpt><trkpt lat="36.776884670003724" lon="-108.13850463268825"><ele>1699.0</ele><time>2026-04-25T17:34:08.001Z</time></trkpt><trkpt lat="36.7768792675982" lon="-108.13838135067427"><ele>1698.2</ele><time>2026-04-25T17:34:10.001Z</time></trkpt><trkpt lat="36.77675652924741" lon="-108.13835549699702"><ele>1697.4</ele><time>2026-04-25T17:34:11.001Z</time></trkpt><trkpt lat="36.77666358263075" lon="-108.13835987680534"><ele>1696.6</ele><time>2026-04-25T17:34:12.001Z</time></trkpt><trkpt lat="36.77656128281057" lon="-108.13836757641471"><ele>1695.8</ele><time>2026-04-25T17:34:13.001Z</time></trkpt><trkpt lat="36.776455830820666" lon="-108.13837135067087"><ele>1695.0</ele><time>2026-04-25T17:34:14.001Z</time></trkpt><trkpt lat="36.7763615408459" lon="-108.13837349653083"><ele>1695.0</ele><time>2026-04-25T17:34:15.001Z</time></trkpt><trkpt lat="36.776272814478666" lon="-108.13837541330034"><ele>1695.0</ele><time>2026-04-25T17:34:16.001Z</time></trkpt><trkpt lat="36.776199844434196" lon="-108.13837796774263"><ele>1695.0</ele><time>2026-04-25T17:34:17.001Z</time></trkpt><trkpt lat="36.776090278331445" lon="-108.13833625732097"><ele>1695.0</ele><time>2026-04-25T17:34:19.001Z</time></trkpt><trkpt lat="36.776014614593414" lon="-108.13834042632347"><ele>1695.0</ele><time>2026-04-25T17:34:21.001Z</time></trkpt><trkpt lat="36.77598537582381" lon="-108.13815273098723"><ele>1690.0</ele><time>2026-04-25T17:34:24.001Z</time></trkpt><trkpt lat="36.77606343897854" lon="-108.13811452695269"><ele>1693.0</ele><time>2026-04-25T17:35:30Z</time></trkpt><trkpt lat="36.77599715588423" lon="-108.13814548266933"><ele>1690.0</ele><time>2026-04-25T17:36:28.001Z</time></trkpt></trkseg></trk></gpx>